# Wetter Temperatur Luftdruck Luftfeuchtigkeit Sichtweite Windgeschwindigkeit Windrichtung Zeit
1 Clouds 25 1013 94 10000 2.93 74 13:45 22.04.2021
2 Clouds 25 1013 94 10000 2.98 91 13:24 22.04.2021
3 Clouds 25 1013 88 10000 1.54 220 12:55 22.04.2021
4 Clouds 25 1013 88 10000 1.54 220 12:37 22.04.2021
5 Clouds 25 1013 88 10000 1.54 220 12:18 22.04.2021
6 Clouds 25 1013 94 10000 3.08 97 11:42 22.04.2021
7 Clouds 25 1013 94 10000 2.43 111 11:19 22.04.2021
8 Clouds 26 1013 83 10000 2.43 111 10:41 22.04.2021
9 Clouds 26 1013 83 10000 1.54 190 10:19 22.04.2021
10 Clouds 26 1013 83 10000 1.54 190 09:37 22.04.2021
11 Clouds 27 1012 78 10000 1.03 0 08:55 22.04.2021
12 Clouds 27 1012 78 10000 1.03 0 08:36 22.04.2021
13 Clouds 29 1010 70 10000 3.6 90 08:18 22.04.2021
14 Clouds 29 1010 70 10000 3.6 90 07:31 22.04.2021
15 Clouds 29 1010 70 10000 4.12 80 06:57 22.04.2021
16 Clouds 29 1010 70 10000 4.12 80 06:19 22.04.2021
17 Clouds 30 1010 66 10000 3.6 110 05:23 22.04.2021
18 Clouds 30 1012 66 10000 3.09 140 02:28 22.04.2021
19 Clouds 30 1014 66 10000 3.6 100 00:23 22.04.2021
20 Clouds 28 1013 78 10000 1.54 0 23:41 21.04.2021
21 Clouds 28 1013 78 10000 1.54 0 23:20 21.04.2021
22 Clouds 25 1013 83 10000 1.54 0 22:40 21.04.2021
23 Clouds 25 1013 83 10000 1.54 0 22:20 21.04.2021
24 Clouds 23 1013 100 10000 1.54 0 21:41 21.04.2021
25 Clouds 23 1013 100 10000 1.54 0 21:22 21.04.2021
26 Clouds 23 1012 100 10000 1.54 0 20:32 21.04.2021
27 Clouds 23 1012 100 10000 1.03 0 19:51 21.04.2021
28 Clouds 23 1012 100 10000 1.03 0 19:28 21.04.2021
29 Clouds 23 1012 100 10000 1.54 0 18:57 21.04.2021
30 Clouds 23 1012 100 10000 1.54 0 18:39 21.04.2021
31 Clouds 23 1012 100 10000 1.54 0 18:19 21.04.2021
32 Clouds 23 1013 100 10000 1.54 0 17:43 21.04.2021
33 Clouds 23 1013 100 10000 1.54 0 17:22 21.04.2021
34 Clouds 23 1013 100 10000 1.03 0 16:40 21.04.2021
35 Clouds 24 1014 100 10000 1.03 0 15:52 21.04.2021
36 Clouds 24 1014 100 10000 1.03 0 15:25 21.04.2021
37 Clouds 24 1014 100 10000 2.53 58 14:45 21.04.2021
38 Clouds 24 1014 100 10000 2.47 60 14:27 21.04.2021
39 Clouds 25 1014 85 10000 2.94 63 13:50 21.04.2021
40 Clouds 25 1014 94 10000 1.03 0 13:22 21.04.2021
41 Clouds 25 1014 94 10000 1.03 0 12:47 21.04.2021
42 Clouds 25 1014 94 10000 1.03 0 12:20 21.04.2021
43 Clouds 25 1014 94 10000 3.2 64 11:43 21.04.2021
44 Clouds 25 1014 94 10000 3.35 64 11:23 21.04.2021
45 Clouds 26 1013 89 10000 3.35 64 10:39 21.04.2021
46 Clouds 26 1011 89 10000 2.06 110 09:57 21.04.2021
47 Rain 26 1011 89 10000 2.06 110 09:21 21.04.2021
48 Clouds 27 1011 83 10000 2.06 90 08:46 21.04.2021
49 Clouds 27 1011 83 10000 2.06 90 08:24 21.04.2021
50 Rain 29 1010 74 10000 3.6 80 07:52 21.04.2021
51 Clouds 29 1010 74 10000 3.6 80 07:28 21.04.2021
52 Clouds 30 1010 70 10000 4.12 80 06:21 21.04.2021
53 Clouds 31 1012 62 10000 3.6 40 02:28 21.04.2021
54 Clouds 30 1014 74 10000 3.6 40 00:20 21.04.2021
55 Clouds 27 1015 78 10000 1.54 0 23:39 20.04.2021
56 Clouds 25 1015 94 10000 1.54 0 22:49 20.04.2021
57 Clouds 25 1015 94 10000 1.54 0 22:24 20.04.2021
58 Clouds 25 1014 94 10000 1.03 0 21:56 20.04.2021
59 Clouds 25 1014 94 10000 1.03 0 21:33 20.04.2021
60 Clouds 24 1014 100 10000 1.54 300 20:59 20.04.2021
61 Rain 24 1014 100 10000 1.54 300 20:38 20.04.2021
62 Clouds 25 1013 94 10000 1.54 340 20:18 20.04.2021
63 Clouds 25 1013 94 10000 1.54 340 19:46 20.04.2021
64 Clouds 25 1013 94 10000 1.54 340 19:28 20.04.2021
65 Clouds 25 1013 94 10000 1.54 320 18:44 20.04.2021
66 Clouds 25 1013 94 10000 1.54 320 18:23 20.04.2021
67 Clouds 25 1013 94 10000 2.06 310 17:41 20.04.2021
68 Clouds 25 1013 94 10000 1.03 0 16:50 20.04.2021
69 Clouds 25 1013 94 10000 1.03 0 16:25 20.04.2021
70 Clouds 25 1014 94 10000 1.03 0 15:30 20.04.2021
71 Clouds 25 1014 94 10000 1.54 300 14:59 20.04.2021
72 Clouds 25 1014 94 10000 1.54 300 14:36 20.04.2021
73 Clouds 25 1014 94 10000 1.54 240 13:55 20.04.2021
74 Clouds 25 1014 94 10000 1.54 240 13:27 20.04.2021
75 Clouds 25 1014 94 10000 1.54 20 12:51 20.04.2021
76 Clouds 25 1014 94 10000 1.54 20 12:23 20.04.2021
77 Clouds 27 1014 83 10000 1.54 80 11:46 20.04.2021
78 Clouds 27 1014 83 10000 1.54 80 11:25 20.04.2021
79 Clouds 26 1014 89 10000 1.54 40 10:47 20.04.2021
80 Clouds 26 1014 89 10000 1.54 40 10:24 20.04.2021
81 Clouds 26 1013 89 10000 1.03 0 09:45 20.04.2021
82 Clouds 27 1013 94 10000 3.29 47 08:57 20.04.2021
83 Clouds 27 1013 94 10000 3.29 47 08:33 20.04.2021
84 Clouds 28 1012 83 10000 2.57 110 07:50 20.04.2021
85 Rain 27 1012 83 10000 4.35 66 06:54 20.04.2021
86 Clouds 28 1012 78 10000 3.6 70 05:40 20.04.2021
87 Rain 28 1012 78 10000 5.14 70 04:42 20.04.2021
88 Rain 29 1014 84 10000 5.66 70 01:58 20.04.2021
89 Clouds 27 1014 89 10000 3.6 70 00:41 20.04.2021
90 Rain 25 1014 94 10000 2.06 220 23:39 19.04.2021
91 Rain 26 1014 94 10000 4.61 77 22:58 19.04.2021
92 Clouds 26 1014 94 10000 4.61 77 22:36 19.04.2021
93 Rain 24 1014 100 10000 2.57 340 21:52 19.04.2021
94 Rain 24 1014 100 10000 2.57 340 21:34 19.04.2021
95 Clouds 24 1013 94 10000 3.54 70 20:56 19.04.2021
96 Clouds 24 1013 94 10000 3.54 70 20:38 19.04.2021
97 Clouds 24 1013 100 10000 3.41 65 20:19 19.04.2021
98 Clouds 24 1013 100 10000 3.1 65 19:41 19.04.2021
99 Clouds 24 1013 100 10000 3.02 60 19:23 19.04.2021
100 Clouds 24 1013 100 10000 3.02 60 18:47 19.04.2021
101 Rain 24 1013 100 10000 3.35 60 18:22 19.04.2021
102 Rain 24 1013 100 10000 3.35 60 17:54 19.04.2021
103 Rain 24 1013 100 10000 3.58 65 17:29 19.04.2021
104 Clouds 24 1013 94 10000 3.58 65 16:53 19.04.2021
105 Clouds 24 1013 94 10000 3.58 65 16:34 19.04.2021
106 Clouds 25 1013 94 10000 3.92 69 15:55 19.04.2021
107 Clouds 25 1013 94 10000 3.92 69 15:30 19.04.2021
108 Clouds 25 1014 94 10000 4.02 74 14:56 19.04.2021
109 Clouds 25 1014 94 10000 4.02 74 14:36 19.04.2021
110 Rain 25 1014 94 10000 3.79 79 13:54 19.04.2021
111 Clouds 25 1014 94 10000 3.96 80 13:31 19.04.2021
112 Clouds 26 1014 89 10000 1.54 80 12:56 19.04.2021
113 Clouds 26 1014 89 10000 1.54 80 12:38 19.04.2021
114 Clouds 26 1014 89 10000 1.54 80 12:19 19.04.2021
115 Clouds 26 1014 89 10000 1.03 100 11:51 19.04.2021
116 Rain 26 1013 89 10000 1.54 90 11:20 19.04.2021
117 Clouds 26 1013 89 10000 1.54 90 10:44 19.04.2021
118 Rain 26 1015 21 10000 1.54 90 10:20 19.04.2021
119 Rain 26 1013 89 10000 2.06 100 09:48 19.04.2021
120 Clouds 26 1013 89 10000 2.06 100 09:26 19.04.2021
121 Clouds 27 1012 83 10000 3.6 100 08:41 19.04.2021
122 Clouds 27 1012 83 10000 3.6 100 08:22 19.04.2021
123 Clouds 28 1012 78 10000 4.12 110 07:45 19.04.2021
124 Clouds 28 1012 78 10000 4.12 110 07:18 19.04.2021
125 Clouds 29 1011 74 10000 3.6 110 05:41 19.04.2021
126 Clouds 29 1014 79 10000 4.12 110 01:50 19.04.2021
127 Clouds 29 1014 79 10000 5.14 110 00:42 19.04.2021
128 Clouds 29 1013 79 10000 1.54 80 23:22 18.04.2021
129 Clouds 26 1013 94 10000 4.53 80 22:58 18.04.2021
130 Clouds 26 1013 94 10000 4.53 80 22:34 18.04.2021
131 Clouds 23 1012 100 10000 3.84 88 21:57 18.04.2021
132 Clouds 23 1012 100 10000 3.33 77 21:29 18.04.2021
133 Clouds 23 1012 100 10000 3.33 77 20:55 18.04.2021
134 Clouds 23 1012 100 10000 3.33 77 20:37 18.04.2021
135 Clouds 23 1012 100 10000 2.78 76 20:18 18.04.2021
136 Clouds 23 1012 100 10000 2.78 76 19:39 18.04.2021
137 Clouds 23 1012 100 10000 2.58 86 19:19 18.04.2021
138 Rain 23 1011 100 10000 2.58 86 18:45 18.04.2021
139 Clouds 23 1011 100 10000 2.42 82 18:25 18.04.2021
140 Clouds 23 1012 100 10000 2.42 82 17:46 18.04.2021
141 Rain 23 1012 100 10000 2.17 83 17:27 18.04.2021
142 Clouds 23 1012 100 10000 2.17 83 16:47 18.04.2021
143 Clouds 23 1012 100 10000 1.77 83 16:29 18.04.2021
144 Clouds 24 1012 94 10000 1.77 83 15:46 18.04.2021
145 Clouds 24 1012 94 10000 1.69 85 15:27 18.04.2021
146 Clouds 24 1013 94 10000 1.69 85 14:52 18.04.2021
147 Clouds 24 1013 94 10000 1.87 81 14:23 18.04.2021
148 Clouds 24 1013 100 10000 1.87 81 13:56 18.04.2021
149 Clouds 24 1013 100 10000 1.87 81 13:34 18.04.2021
150 Clouds 24 1012 100 10000 1.76 79 12:51 18.04.2021
151 Clouds 24 1012 100 10000 1.63 84 12:28 18.04.2021
152 Clouds 25 1012 100 10000 1.63 84 11:43 18.04.2021
153 Clouds 25 1012 100 10000 1.65 80 11:21 18.04.2021
154 Clouds 25 1012 94 10000 1.65 80 10:48 18.04.2021
155 Rain 25 1012 94 10000 2.18 78 10:22 18.04.2021
156 Rain 26 1011 89 10000 2.18 78 09:53 18.04.2021
157 Clouds 26 1011 89 10000 2.18 78 09:34 18.04.2021
158 Clouds 27 1010 78 10000 1.54 110 08:57 18.04.2021
159 Clouds 27 1010 78 10000 1.54 110 08:35 18.04.2021
160 Clouds 28 1010 78 10000 3.09 120 07:58 18.04.2021
161 Rain 28 1010 78 10000 3.09 120 07:37 18.04.2021
162 Clouds 29 1009 74 10000 3.09 120 05:42 18.04.2021
163 Rain 29 1009 74 10000 3.09 120 05:23 18.04.2021
164 Clouds 29 1011 70 10000 2.57 100 02:39 18.04.2021
165 Rain 29 1012 65 10000 1.54 130 02:20 18.04.2021
166 Rain 28 1012 83 10000 2.06 160 00:37 18.04.2021
167 Clouds 28 1013 83 10000 1.54 100 23:33 17.04.2021
168 Clouds 26 1012 89 10000 1.03 0 22:51 17.04.2021
169 Clouds 26 1012 89 10000 1.03 0 22:30 17.04.2021
170 Clouds 24 1012 100 10000 1.03 0 21:47 17.04.2021
171 Clouds 24 1012 100 10000 1.03 0 21:28 17.04.2021
172 Clouds 24 1011 94 10000 1.03 0 20:46 17.04.2021
173 Clouds 24 1011 94 10000 1.03 0 20:25 17.04.2021
174 Clouds 24 1010 94 10000 1.03 0 19:44 17.04.2021
175 Clouds 24 1010 94 10000 1.03 0 19:20 17.04.2021
176 Clouds 24 1010 94 10000 1.03 0 19:20 17.04.2021
177 Clouds 24 1010 94 10000 1.54 0 18:53 17.04.2021
178 Clouds 24 1010 94 10000 1.54 0 18:25 17.04.2021
179 Clouds 24 1010 94 10000 0.51 0 17:48 17.04.2021
180 Clouds 24 1010 94 10000 0.51 0 17:29 17.04.2021
181 Clouds 24 1011 100 10000 1.54 0 16:41 17.04.2021
182 Clouds 24 1011 100 10000 1.54 0 16:23 17.04.2021
183 Clouds 24 1011 100 10000 2.06 260 15:23 17.04.2021
184 Clouds 25 1012 94 10000 3.09 60 14:44 17.04.2021
185 Clouds 25 1012 94 10000 3.09 60 14:20 17.04.2021
186 Clouds 25 1012 94 10000 0.51 0 13:44 17.04.2021
187 Clouds 26 1012 89 10000 0.71 37 12:55 17.04.2021
188 Clouds 26 1012 89 10000 0.71 37 12:33 17.04.2021
189 Clouds 26 1011 89 10000 0.87 72 11:51 17.04.2021
190 Clouds 26 1011 89 10000 0.87 72 11:33 17.04.2021
191 Clouds 26 1011 83 10000 1.03 240 10:56 17.04.2021
192 Clouds 26 1011 83 10000 1.03 240 10:38 17.04.2021
193 Clouds 27 1010 83 10000 1.03 0 09:51 17.04.2021
194 Clouds 28 1010 78 10000 1.54 150 08:54 17.04.2021
195 Clouds 28 1010 78 10000 1.54 150 08:29 17.04.2021
196 Clouds 28 1010 78 10000 2.06 130 07:45 17.04.2021
197 Clouds 29 1009 74 10000 2.57 130 05:42 17.04.2021
198 Clouds 28 1010 74 10000 3.09 90 03:43 17.04.2021
199 Clouds 30 1012 66 10000 3.09 90 00:56 17.04.2021
200 Clouds 30 1012 66 10000 3.09 90 00:30 17.04.2021
201 Clouds 29 1012 74 10000 1.54 0 23:59 16.04.2021
202 Clouds 29 1012 74 10000 1.54 0 23:34 16.04.2021
203 Clouds 26 1012 89 10000 1.03 0 22:51 16.04.2021
204 Clouds 26 1012 89 10000 1.03 0 22:23 16.04.2021
205 Clouds 23 1012 100 10000 1.41 58 21:56 16.04.2021
206 Clouds 23 1012 100 10000 1.41 58 21:38 16.04.2021
207 Clouds 22 1011 100 10000 1.25 54 20:55 16.04.2021
208 Clouds 22 1011 100 10000 1.25 54 20:35 16.04.2021
209 Clouds 23 1011 100 10000 1.03 0 19:58 16.04.2021
210 Clouds 23 1011 100 10000 1.03 0 19:40 16.04.2021
211 Clouds 24 1011 94 10000 1 59 18:49 16.04.2021
212 Clouds 24 1011 94 10000 0.95 67 18:23 16.04.2021
213 Clouds 24 1011 94 10000 1.03 0 17:47 16.04.2021
214 Clouds 24 1011 94 10000 1.03 0 17:47 16.04.2021
215 Clouds 24 1011 94 10000 1.03 0 17:19 16.04.2021
216 Clouds 24 1011 94 10000 1.03 0 17:19 16.04.2021
217 Clouds 24 1011 94 10000 1.54 0 16:44 16.04.2021
218 Clouds 24 1011 94 10000 1.54 0 16:26 16.04.2021
219 Clouds 24 1012 100 10000 1.54 0 15:52 16.04.2021
220 Clouds 24 1012 100 10000 1.54 0 15:28 16.04.2021
221 Clouds 25 1012 94 10000 1.54 0 14:43 16.04.2021
222 Clouds 25 1012 94 10000 1.54 0 14:20 16.04.2021
223 Clouds 26 1012 89 10000 1.54 0 13:54 16.04.2021
224 Clouds 26 1012 89 10000 1.54 0 13:21 16.04.2021
225 Clouds 27 1012 78 10000 2.57 120 12:51 16.04.2021
226 Clouds 27 1012 78 10000 2.57 120 12:29 16.04.2021
227 Clouds 26 1012 89 10000 1.54 0 11:58 16.04.2021
228 Clouds 26 1012 89 10000 1.54 0 11:27 16.04.2021
229 Clouds 26 1011 89 10000 1.03 0 10:59 16.04.2021
230 Clouds 26 1011 89 10000 1.03 0 10:39 16.04.2021
231 Clouds 26 1011 89 10000 1.03 0 10:19 16.04.2021
232 Clouds 27 1010 78 10000 1.03 0 09:43 16.04.2021
233 Clouds 27 1010 78 10000 1.03 0 09:20 16.04.2021
234 Clouds 27 1010 83 10000 3.09 60 08:41 16.04.2021
235 Clouds 27 1010 83 10000 3.09 60 08:18 16.04.2021
236 Clouds 28 1010 74 10000 3.09 130 07:37 16.04.2021
237 Clouds 28 1010 78 10000 2.57 130 06:59 16.04.2021
238 Clouds 28 1010 78 10000 2.57 130 06:18 16.04.2021
239 Clouds 27 1010 83 10000 2.06 140 04:22 16.04.2021
240 Clouds 28 1012 74 10000 2.06 150 00:59 16.04.2021
241 Clouds 28 1012 74 10000 2.06 150 00:41 16.04.2021
242 Clouds 28 1012 74 10000 2.06 150 00:20 16.04.2021
243 Clouds 28 1012 83 10000 1.54 150 23:41 15.04.2021
244 Clouds 28 1012 83 10000 1.54 150 23:23 15.04.2021
245 Clouds 26 1012 89 10000 1.54 120 22:40 15.04.2021
246 Clouds 26 1012 89 10000 1.54 120 22:22 15.04.2021
247 Clouds 25 1012 94 10000 1.03 0 21:42 15.04.2021
248 Clouds 25 1011 94 10000 1.03 0 21:22 15.04.2021
249 Clouds 25 1011 94 10000 1.03 0 20:44 15.04.2021
250 Clouds 25 1011 94 10000 1.03 0 20:44 15.04.2021
251 Clouds 25 1011 94 10000 1.03 0 20:24 15.04.2021
252 Clouds 25 1010 94 10000 2.06 80 19:44 15.04.2021
253 Clouds 25 1010 94 10000 2.06 80 19:26 15.04.2021
254 Clouds 25 1010 94 10000 1.03 0 18:43 15.04.2021
255 Clouds 25 1010 94 10000 1.03 0 18:21 15.04.2021
256 Clouds 25 1010 94 10000 2.06 210 17:55 15.04.2021
257 Clouds 25 1010 94 10000 2.06 210 17:36 15.04.2021
258 Clouds 25 1010 94 10000 2.06 210 17:36 15.04.2021
259 Clouds 25 1011 94 10000 1.54 240 16:58 15.04.2021
260 Clouds 25 1011 94 10000 1.54 240 16:40 15.04.2021
261 Clouds 25 1011 94 10000 2.06 190 16:21 15.04.2021
262 Clouds 25 1011 94 10000 2.06 190 15:45 15.04.2021
263 Clouds 25 1011 94 10000 2.06 190 15:45 15.04.2021
264 Clouds 25 1011 94 10000 2.06 190 15:25 15.04.2021
265 Clouds 24 1011 94 10000 1.03 250 14:41 15.04.2021
266 Clouds 24 1011 94 10000 1.03 250 14:22 15.04.2021
267 Clouds 24 1011 94 10000 2.67 117 13:42 15.04.2021
268 Clouds 24 1011 94 10000 3.11 119 13:19 15.04.2021
269 Clouds 25 1011 88 10000 3.11 119 12:41 15.04.2021
270 Clouds 25 1011 88 10000 3.38 124 12:21 15.04.2021
271 Clouds 26 1011 83 10000 3.38 124 11:45 15.04.2021
272 Clouds 26 1011 83 10000 3.6 127 11:23 15.04.2021
273 Clouds 27 1011 78 10000 1.03 0 10:50 15.04.2021
274 Clouds 27 1011 78 10000 1.03 0 10:28 15.04.2021
275 Clouds 27 1010 78 10000 1.54 150 09:49 15.04.2021
276 Clouds 27 1010 78 10000 1.54 150 09:25 15.04.2021
277 Clouds 27 1009 78 10000 2.06 160 08:49 15.04.2021
278 Clouds 27 1009 78 10000 5 180 08:21 15.04.2021
279 Clouds 27 1009 78 10000 5 180 07:24 15.04.2021
280 Clouds 29 1009 70 10000 2.57 150 06:40 15.04.2021
281 Clouds 29 1009 70 10000 2.57 150 06:21 15.04.2021
282 Clouds 29 1009 70 10000 2.57 160 04:51 15.04.2021
283 Clouds 30 1010 66 10000 2.06 170 01:24 15.04.2021
284 Clouds 27 1011 83 10000 1.54 240 23:42 14.04.2021
285 Clouds 25 1011 88 10000 1.52 157 23:22 14.04.2021
286 Clouds 25 1011 88 10000 1.52 157 22:46 14.04.2021
287 Rain 25 1011 88 10000 1.26 162 22:25 14.04.2021
288 Clouds 22 1010 94 10000 2.06 320 21:49 14.04.2021
289 Clouds 22 1010 94 10000 2.06 320 21:31 14.04.2021
290 Clouds 22 1009 94 10000 2.06 300 20:56 14.04.2021
291 Rain 22 1009 94 10000 2.06 300 20:34 14.04.2021
292 Rain 22 1009 100 10000 2.06 320 19:54 14.04.2021
293 Clouds 22 1009 100 10000 2.06 320 19:21 14.04.2021
294 Clouds 22 1009 100 10000 1.54 320 18:57 14.04.2021
295 Clouds 22 1009 100 10000 1.54 320 18:22 14.04.2021
296 Clouds 22 1009 100 10000 1.31 122 17:59 14.04.2021
297 Rain 22 1009 100 10000 1.3 105 17:28 14.04.2021
298 Clouds 22 1010 100 10000 1.3 105 16:54 14.04.2021
299 Clouds 22 1010 100 10000 1.24 127 16:27 14.04.2021
300 Clouds 22 1010 100 10000 1.24 127 15:46 14.04.2021
301 Clouds 22 1010 100 10000 1.27 115 15:27 14.04.2021
302 Clouds 23 1010 94 10000 1.27 115 14:53 14.04.2021
303 Clouds 23 1010 94 10000 1.45 109 14:27 14.04.2021
304 Clouds 24 1010 94 10000 1.45 109 13:59 14.04.2021
305 Clouds 24 1010 94 10000 1.45 109 13:37 14.04.2021
306 Clouds 24 1010 94 10000 1.71 96 12:40 14.04.2021
307 Clouds 24 1010 94 10000 2.13 89 11:44 14.04.2021
308 Clouds 24 1010 94 10000 2.22 95 11:26 14.04.2021
309 Clouds 25 1010 88 10000 1.03 0 10:56 14.04.2021
310 Clouds 25 1010 88 10000 1.03 0 10:33 14.04.2021
311 Clouds 26 1009 83 10000 1.03 0 09:43 14.04.2021
312 Clouds 26 1009 83 10000 1.03 0 09:21 14.04.2021
313 Clouds 27 1009 78 10000 1.54 140 08:48 14.04.2021
314 Clouds 27 1009 78 10000 1.54 140 08:23 14.04.2021
315 Clouds 28 1008 69 10000 2.57 130 07:27 14.04.2021
316 Clouds 29 1008 65 10000 2.57 140 06:27 14.04.2021
317 Clouds 30 1008 62 10000 2.57 150 05:23 14.04.2021
318 Rain 30 1010 62 10000 2.06 150 01:54 14.04.2021
319 Clouds 30 1011 66 10000 2.57 130 00:49 14.04.2021
320 Rain 30 1011 66 10000 2.57 130 00:25 14.04.2021
321 Clouds 28 1011 74 10000 1.03 0 23:31 13.04.2021
322 Clouds 24 1011 88 10000 1.54 320 22:44 13.04.2021
323 Clouds 24 1011 88 10000 1.54 320 22:20 13.04.2021
324 Clouds 21 1010 100 10000 1.54 320 21:48 13.04.2021
325 Clouds 21 1010 100 10000 1.54 320 21:29 13.04.2021
326 Clouds 21 1009 100 10000 2.06 320 20:48 13.04.2021
327 Clouds 21 1009 100 10000 2.06 320 20:24 13.04.2021
328 Clouds 22 1009 94 10000 1.54 320 19:56 13.04.2021
329 Clouds 22 1009 94 10000 1.54 320 19:25 13.04.2021
330 Clouds 22 1009 94 10000 1.54 320 18:46 13.04.2021
331 Clouds 22 1009 94 10000 1.54 320 18:28 13.04.2021
332 Rain 22 1010 94 10000 1.03 0 17:40 13.04.2021
333 Clouds 22 1010 94 10000 1.03 0 17:18 13.04.2021
334 Clouds 23 1010 94 10000 1.03 330 16:45 13.04.2021
335 Clouds 23 1010 94 10000 1.03 330 16:25 13.04.2021
336 Clouds 23 1010 94 10000 1.03 330 15:53 13.04.2021
337 Rain 23 1010 94 10000 1.03 330 15:34 13.04.2021
338 Rain 23 1010 94 10000 1.03 330 15:34 13.04.2021
339 Rain 23 1011 94 10000 1.72 135 14:47 13.04.2021
340 Rain 23 1011 94 10000 1.99 125 14:22 13.04.2021
341 Rain 23 1011 94 10000 1.03 0 13:45 13.04.2021
342 Rain 23 1011 94 10000 1.03 0 13:25 13.04.2021
343 Rain 23 1010 94 10000 1.92 122 12:58 13.04.2021
344 Clouds 23 1010 94 10000 1.92 122 12:31 13.04.2021
345 Clouds 24 1010 94 10000 1.98 117 11:58 13.04.2021
346 Rain 24 1010 94 10000 1.98 117 11:31 13.04.2021
347 Rain 24 1010 94 10000 1.98 117 11:31 13.04.2021
348 Clouds 25 1009 83 10000 2.21 113 10:55 13.04.2021
349 Clouds 25 1009 83 10000 2.37 108 10:24 13.04.2021
350 Clouds 26 1009 83 10000 2.37 108 09:59 13.04.2021
351 Clouds 26 1009 83 10000 2.37 108 09:39 13.04.2021
352 Rain 27 1008 78 10000 2.06 130 08:57 13.04.2021
353 Clouds 27 1008 78 10000 2.06 130 08:38 13.04.2021
354 Clouds 27 1008 78 10000 2.06 130 08:20 13.04.2021
355 Clouds 29 1008 70 10000 2.57 120 07:36 13.04.2021
356 Clouds 30 1008 62 10000 3.09 100 06:31 13.04.2021
357 Clouds 29 1009 65 10000 4.12 110 04:49 13.04.2021
358 Clouds 30 1010 62 10000 4.12 90 02:25 13.04.2021
359 Clouds 29 1011 70 10000 3.09 90 00:26 13.04.2021
360 Clouds 28 1011 78 10000 1.54 90 23:48 12.04.2021
361 Clouds 28 1011 78 10000 1.54 90 23:25 12.04.2021
362 Clouds 25 1011 94 10000 3.65 109 22:39 12.04.2021
363 Clouds 23 1010 94 10000 1.54 310 21:58 12.04.2021
364 Clouds 23 1010 94 10000 1.54 310 21:38 12.04.2021
365 Clouds 23 1010 94 10000 1.54 310 21:19 12.04.2021
366 Clouds 22 1010 100 10000 1.54 310 20:38 12.04.2021
367 Rain 22 1010 100 10000 1.54 310 20:20 12.04.2021
368 Clouds 23 1009 94 10000 1.03 0 19:43 12.04.2021
369 Clouds 23 1009 94 10000 1.03 0 19:23 12.04.2021
370 Clouds 23 1010 94 10000 1.03 290 18:59 12.04.2021
371 Rain 23 1010 94 10000 1.03 290 18:40 12.04.2021
372 Clouds 23 1010 94 10000 1.03 290 18:22 12.04.2021
373 Clouds 23 1010 94 10000 1.54 320 17:43 12.04.2021
374 Clouds 23 1010 94 10000 1.54 320 17:22 12.04.2021
375 Clouds 23 1010 100 10000 2.88 146 16:46 12.04.2021
376 Clouds 23 1010 100 10000 2.88 146 16:46 12.04.2021
377 Clouds 23 1010 100 10000 2.86 141 16:27 12.04.2021
378 Clouds 24 1011 94 10000 2.86 141 15:48 12.04.2021
379 Clouds 24 1011 94 10000 2.49 134 15:25 12.04.2021
380 Clouds 24 1011 100 10000 1.03 0 14:50 12.04.2021
381 Clouds 24 1011 100 10000 1.03 0 14:29 12.04.2021
382 Clouds 25 1012 94 10000 1.03 0 13:46 12.04.2021
383 Clouds 25 1012 94 10000 1.03 0 13:26 12.04.2021
384 Clouds 25 1012 94 10000 2.39 120 12:45 12.04.2021
385 Clouds 25 1012 94 10000 2.43 112 12:24 12.04.2021
386 Clouds 25 1012 94 10000 2.43 112 12:24 12.04.2021
387 Clouds 25 1011 94 10000 2.43 112 11:56 12.04.2021
388 Clouds 25 1011 94 10000 2.49 109 11:18 12.04.2021
389 Rain 25 1011 88 10000 2.49 109 10:41 12.04.2021
390 Rain 25 1011 88 10000 2.56 108 10:22 12.04.2021
391 Rain 26 1010 83 10000 2.56 108 09:40 12.04.2021
392 Clouds 26 1010 83 10000 2.62 108 09:18 12.04.2021
393 Clouds 28 1010 74 10000 1.54 120 08:35 12.04.2021
394 Rain 30 1009 66 10000 3.09 130 07:32 12.04.2021
395 Clouds 30 1009 66 10000 3.6 110 06:57 12.04.2021
396 Rain 30 1009 66 10000 3.6 100 05:51 12.04.2021
397 Rain 31 1010 70 10000 4.12 80 03:59 12.04.2021
398 Rain 29 1012 74 10000 4.12 70 00:52 12.04.2021
399 Rain 29 1012 74 10000 4.12 70 00:24 12.04.2021
400 Rain 29 1012 74 10000 4.12 70 00:24 12.04.2021
401 Rain 29 1012 79 10000 1.03 0 23:46 11.04.2021
402 Rain 29 1012 79 10000 1.03 0 23:23 11.04.2021
403 Clouds 26 1011 89 10000 2.65 76 22:45 11.04.2021
404 Clouds 26 1011 89 10000 2.01 62 22:22 11.04.2021
405 Clouds 25 1011 94 10000 1.54 330 21:46 11.04.2021
406 Clouds 25 1011 94 10000 1.54 330 21:27 11.04.2021
407 Clouds 25 1011 94 10000 2.06 330 20:52 11.04.2021
408 Clouds 25 1011 94 10000 2.06 330 20:28 11.04.2021
409 Clouds 25 1010 100 10000 1.55 35 19:54 11.04.2021
410 Clouds 25 1010 100 10000 1.55 35 19:36 11.04.2021
411 Clouds 25 1010 100 10000 1.35 27 19:18 11.04.2021
412 Clouds 25 1010 100 10000 1.35 27 19:18 11.04.2021
413 Clouds 25 1010 94 10000 1.35 27 18:42 11.04.2021
414 Clouds 25 1010 94 10000 1.38 19 18:23 11.04.2021
415 Clouds 25 1010 94 10000 1.54 330 17:44 11.04.2021
416 Clouds 25 1010 94 10000 1.54 330 17:24 11.04.2021
417 Clouds 25 1011 94 10000 1.54 280 16:47 11.04.2021
418 Clouds 25 1011 94 10000 1.54 280 16:22 11.04.2021
419 Clouds 25 1012 100 10000 1.54 0 15:51 11.04.2021
420 Clouds 25 1012 100 10000 1.54 0 15:27 11.04.2021
421 Clouds 26 1012 94 10000 2.16 17 14:54 11.04.2021
422 Clouds 26 1012 94 10000 2.16 17 14:31 11.04.2021
423 Clouds 25 1012 94 10000 2.24 26 13:51 11.04.2021
424 Clouds 25 1012 94 10000 2.24 26 13:30 11.04.2021
425 Clouds 25 1012 94 10000 1.03 0 12:48 11.04.2021
426 Clouds 25 1012 94 10000 1.03 0 12:21 11.04.2021
427 Clouds 25 1012 94 10000 1.03 0 11:49 11.04.2021
428 Clouds 25 1012 94 10000 1.03 0 11:22 11.04.2021
429 Clouds 26 1011 83 10000 1.03 0 10:47 11.04.2021
430 Clouds 26 1011 83 10000 1.03 0 10:47 11.04.2021
431 Clouds 26 1011 83 10000 1.03 0 10:27 11.04.2021
432 Clouds 26 1010 83 10000 1.54 70 09:56 11.04.2021
433 Clouds 26 1010 83 10000 1.54 70 09:32 11.04.2021
434 Clouds 27 1010 83 10000 2.57 90 08:42 11.04.2021
435 Clouds 27 1010 83 10000 2.57 90 08:21 11.04.2021
436 Clouds 28 1009 78 10000 3.6 70 07:21 11.04.2021
437 Clouds 28 1009 78 10000 4.63 80 06:26 11.04.2021
438 Rain 28 1009 89 10000 5.14 80 05:37 11.04.2021
439 Rain 28 1009 89 10000 5.14 80 05:18 11.04.2021
440 Clouds 30 1010 74 10000 5.14 80 04:33 11.04.2021
441 Clouds 30 1012 74 10000 1.03 0 01:45 11.04.2021
442 Rain 29 1013 84 10000 1.54 0 00:33 11.04.2021
443 Clouds 28 1012 89 10000 1.54 0 23:47 10.04.2021
444 Clouds 25 1012 100 10000 2.06 320 22:59 10.04.2021
445 Rain 25 1012 100 10000 2.06 320 22:33 10.04.2021
446 Rain 24 1012 100 10000 1.54 310 21:57 10.04.2021
447 Rain 24 1012 100 10000 1.54 310 21:57 10.04.2021
448 Rain 24 1012 100 10000 1.54 310 21:37 10.04.2021
449 Fog 24 1011 94 200 1.54 340 21:19 10.04.2021
450 Rain 23 1011 100 200 1.54 360 20:41 10.04.2021
451 Clouds 24 1010 94 10000 1.03 330 20:22 10.04.2021
452 Rain 24 1010 94 10000 1.03 330 19:43 10.04.2021
453 Rain 24 1010 94 10000 1.03 330 19:25 10.04.2021
454 Clouds 24 1010 100 10000 3.04 22 18:44 10.04.2021
455 Rain 24 1010 100 10000 2.66 19 18:25 10.04.2021
456 Rain 24 1010 100 10000 1.03 330 17:37 10.04.2021
457 Clouds 25 1010 94 10000 1.03 300 16:57 10.04.2021
458 Clouds 25 1010 94 10000 1.03 300 16:26 10.04.2021
459 Rain 25 1011 100 10000 2.06 330 15:53 10.04.2021
460 Rain 26 1011 94 10000 1.03 340 14:58 10.04.2021
461 Rain 26 1011 94 10000 1.03 340 14:38 10.04.2021
462 Rain 26 1011 94 10000 1.03 260 13:59 10.04.2021
463 Rain 26 1011 94 10000 1.03 260 13:40 10.04.2021
464 Rain 27 1011 89 10000 1.73 330 12:49 10.04.2021
465 Rain 27 1011 89 10000 1.31 339 12:26 10.04.2021
466 Rain 26 1011 94 10000 1.31 339 11:47 10.04.2021
467 Rain 26 1011 94 10000 1.26 357 11:24 10.04.2021
468 Clouds 26 1010 94 10000 1.26 357 10:52 10.04.2021
469 Clouds 26 1010 94 10000 1.26 357 10:31 10.04.2021
470 Clouds 27 1009 89 10000 1.4 14 09:45 10.04.2021
471 Clouds 27 1009 89 10000 1.4 14 09:45 10.04.2021
472 Clouds 27 1009 89 10000 2.03 35 09:19 10.04.2021
473 Clouds 28 1009 83 10000 2.57 60 08:38 10.04.2021
474 Rain 28 1009 83 10000 2.57 60 08:18 10.04.2021
475 Rain 29 1008 79 10000 4.12 60 07:27 10.04.2021
476 Clouds 30 1008 70 10000 4.12 30 06:46 10.04.2021
477 Rain 29 1008 70 10000 4.63 40 05:36 10.04.2021
478 Clouds 29 1009 74 10000 3.09 50 03:46 10.04.2021
479 Clouds 30 1010 74 10000 2.57 10 02:49 10.04.2021
480 Clouds 29 1011 74 10000 3.6 50 01:43 10.04.2021
481 Rain 28 1011 78 10000 4.63 50 00:37 10.04.2021
482 Rain 27 1011 83 10000 2.06 50 23:58 09.04.2021
483 Clouds 27 1011 83 10000 2.06 50 23:34 09.04.2021
484 Rain 25 1011 94 10000 2.06 20 22:56 09.04.2021
485 Clouds 25 1011 94 10000 2.06 20 22:36 09.04.2021
486 Clouds 24 1011 100 10000 1.03 0 21:41 09.04.2021
487 Clouds 24 1011 100 10000 1.03 0 21:22 09.04.2021
488 Clouds 24 1011 100 10000 1.03 0 20:57 09.04.2021
489 Rain 24 1011 100 10000 1.03 0 20:39 09.04.2021
490 Rain 24 1011 100 10000 1.03 0 20:20 09.04.2021
491 Rain 24 1010 100 10000 1.03 0 19:43 09.04.2021
492 Clouds 24 1010 100 10000 1.03 0 19:22 09.04.2021
493 Clouds 24 1010 100 10000 1.03 0 18:44 09.04.2021
494 Clouds 24 1010 100 10000 1.03 0 18:25 09.04.2021
495 Clouds 25 1010 94 10000 1.03 0 17:49 09.04.2021
496 Rain 25 1010 94 10000 1.03 0 17:30 09.04.2021
497 Clouds 25 1010 94 10000 1.03 0 16:48 09.04.2021
498 Rain 25 1010 94 10000 1.03 0 16:29 09.04.2021
499 Clouds 24 1011 100 10000 1.03 0 15:47 09.04.2021
500 Clouds 24 1011 100 10000 1.03 0 15:24 09.04.2021
501 Clouds 24 1012 100 10000 1.03 0 14:46 09.04.2021
502 Clouds 24 1012 100 10000 1.03 0 14:28 09.04.2021
503 Clouds 24 1011 100 10000 1.03 280 13:45 09.04.2021
504 Clouds 24 1011 100 10000 1.03 280 13:22 09.04.2021
505 Clouds 24 1012 100 10000 2.06 350 12:47 09.04.2021
506 Clouds 24 1012 100 10000 2.06 350 12:47 09.04.2021
507 Clouds 24 1012 100 10000 2.06 350 12:47 09.04.2021
508 Clouds 24 1012 100 10000 2.06 350 12:24 09.04.2021
509 Clouds 25 1011 94 10000 1.54 270 11:43 09.04.2021
510 Clouds 25 1011 94 10000 1.54 270 11:20 09.04.2021
511 Clouds 25 1010 94 10000 1.54 320 10:37 09.04.2021
512 Rain 25 1010 94 10000 1.03 0 09:58 09.04.2021
513 Clouds 25 1010 94 10000 1.03 0 09:27 09.04.2021
514 Clouds 25 1009 94 10000 1.03 0 08:56 09.04.2021
515 Clouds 25 1009 94 10000 1.03 0 08:31 09.04.2021
516 Clouds 25 1009 94 10000 2.06 300 07:32 09.04.2021
517 Clouds 25 1008 94 10000 3.09 190 06:30 09.04.2021
518 Clouds 25 1008 94 10000 3.09 190 05:36 09.04.2021
519 Clouds 28 1010 78 10000 2.57 140 03:42 09.04.2021
520 Rain 28 1012 74 10000 2.57 110 00:39 09.04.2021
521 Clouds 28 1012 74 10000 2.57 110 00:21 09.04.2021
522 Clouds 26 1012 83 10000 1.03 0 23:38 08.04.2021
523 Clouds 24 1011 94 10000 1.54 290 22:52 08.04.2021
524 Rain 24 1011 94 10000 1.54 290 22:27 08.04.2021
525 Rain 24 1011 94 10000 1.54 290 21:59 08.04.2021
526 Clouds 23 1011 100 10000 1.54 260 21:40 08.04.2021
527 Clouds 23 1011 100 10000 1.54 260 21:22 08.04.2021
528 Clouds 23 1011 100 10000 1.54 260 20:58 08.04.2021
529 Clouds 23 1011 100 10000 1.03 0 20:39 08.04.2021
530 Clouds 23 1010 100 10000 2.87 104 19:59 08.04.2021
531 Clouds 23 1010 100 10000 2.95 105 19:29 08.04.2021
532 Clouds 23 1010 100 10000 2.95 105 18:58 08.04.2021
533 Clouds 23 1010 83 10000 2.06 320 18:39 08.04.2021
534 Rain 23 1010 83 10000 2.06 320 18:19 08.04.2021
535 Clouds 23 1011 100 10000 1.54 310 17:41 08.04.2021
536 Clouds 23 1011 100 10000 1.54 310 17:19 08.04.2021
537 Clouds 23 1011 100 10000 1.03 0 16:44 08.04.2021
538 Rain 23 1011 100 10000 1.03 0 16:22 08.04.2021
539 Rain 24 1012 94 10000 1.03 0 15:45 08.04.2021
540 Clouds 24 1012 94 10000 1.03 0 15:25 08.04.2021
541 Clouds 24 1012 94 10000 1.03 320 14:42 08.04.2021
542 Rain 24 1012 94 10000 1.03 320 14:21 08.04.2021
543 Clouds 25 1012 83 10000 2.06 110 13:48 08.04.2021
544 Rain 25 1012 83 10000 2.06 110 13:24 08.04.2021
545 Rain 25 1012 83 10000 2.06 110 13:24 08.04.2021
546 Rain 25 1012 83 10000 1.03 0 12:53 08.04.2021
547 Clouds 25 1012 83 10000 1.03 0 12:33 08.04.2021
548 Clouds 25 1012 83 10000 1.03 0 11:57 08.04.2021
549 Rain 25 1012 83 10000 1.03 0 11:25 08.04.2021
550 Clouds 26 1011 73 10000 1.03 0 10:51 08.04.2021
551 Rain 26 1011 73 10000 1.03 0 10:25 08.04.2021
552 Rain 26 1011 73 10000 1.03 0 10:25 08.04.2021
553 Rain 26 1011 73 10000 1.03 0 09:44 08.04.2021
554 Rain 26 1011 73 10000 1.03 0 09:25 08.04.2021
555 Clouds 26 1011 73 10000 1.03 0 08:40 08.04.2021
556 Rain 26 1011 73 10000 1.03 0 08:22 08.04.2021
557 Clouds 27 1010 69 10000 2.06 130 07:43 08.04.2021
558 Rain 28 1010 65 10000 2.57 100 05:45 08.04.2021
559 Rain 29 1011 61 10000 3.6 100 01:25 08.04.2021
560 Rain 28 1012 69 10000 2.06 80 00:30 08.04.2021
561 Rain 28 1012 69 10000 2.06 80 00:30 08.04.2021
562 Clouds 25 1012 94 10000 2.47 95 23:48 07.04.2021
563 Clouds 25 1012 94 10000 2.39 104 23:25 07.04.2021
564 Clouds 23 1011 94 10000 2.57 310 22:56 07.04.2021
565 Rain 23 1011 94 10000 2.57 310 22:38 07.04.2021
566 Clouds 23 1011 94 10000 2.57 310 22:19 07.04.2021
567 Clouds 22 1011 100 10000 2.06 320 21:34 07.04.2021
568 Clouds 22 1010 100 10000 1.54 320 20:52 07.04.2021
569 Clouds 22 1010 100 10000 1.54 320 20:29 07.04.2021
570 Clouds 22 1010 100 10000 1.54 320 19:52 07.04.2021
571 Clouds 22 1010 100 10000 1.54 320 19:33 07.04.2021
572 Clouds 22 1010 100 10000 1.54 320 18:57 07.04.2021
573 Clouds 22 1010 100 10000 2.06 320 18:39 07.04.2021
574 Clouds 22 1010 100 10000 2.06 320 18:18 07.04.2021
575 Clouds 23 1010 100 10000 1.03 310 17:43 07.04.2021
576 Clouds 23 1010 100 10000 1.03 310 17:24 07.04.2021
577 Rain 24 1011 94 10000 1.03 310 16:45 07.04.2021
578 Clouds 24 1011 94 10000 1.03 310 16:21 07.04.2021
579 Rain 24 1011 94 10000 1.03 310 15:53 07.04.2021
580 Clouds 24 1011 94 10000 1.03 310 15:25 07.04.2021
581 Clouds 24 1012 94 10000 1.03 0 14:42 07.04.2021
582 Clouds 24 1012 94 10000 1.03 0 14:19 07.04.2021
583 Clouds 24 1012 88 10000 1.54 300 13:38 07.04.2021
584 Clouds 24 1012 88 10000 1.54 300 13:20 07.04.2021
585 Clouds 25 1012 83 10000 2.72 109 12:42 07.04.2021
586 Clouds 25 1012 83 10000 2.87 110 12:18 07.04.2021
587 Clouds 25 1012 78 10000 2.87 110 11:41 07.04.2021
588 Clouds 25 1012 78 10000 3.02 116 11:21 07.04.2021
589 Clouds 26 1012 69 10000 1.54 140 10:46 07.04.2021
590 Clouds 25 1011 78 10000 3.3 117 09:47 07.04.2021
591 Clouds 25 1011 78 10000 3.45 120 09:28 07.04.2021
592 Clouds 26 1010 69 10000 2.06 140 08:51 07.04.2021
593 Clouds 26 1010 69 10000 2.06 140 08:26 07.04.2021
594 Clouds 27 1010 65 10000 2.06 130 07:48 07.04.2021
595 Clouds 27 1010 65 10000 2.06 130 07:28 07.04.2021
596 Clouds 27 1010 65 10000 2.57 130 06:39 07.04.2021
597 Clouds 28 1010 61 10000 3.6 120 04:37 07.04.2021
598 Clouds 28 1012 61 10000 3.6 100 01:23 07.04.2021
599 Clouds 26 1012 78 10000 3.38 112 23:47 06.04.2021
600 Clouds 26 1012 78 10000 3.32 111 23:22 06.04.2021
601 Clouds 23 1012 94 10000 1.54 0 22:50 06.04.2021
602 Clouds 23 1012 94 10000 1.54 0 22:21 06.04.2021
603 Clouds 21 1011 100 10000 1.54 0 21:44 06.04.2021
604 Clouds 21 1011 100 10000 1.54 0 21:24 06.04.2021
605 Clouds 21 1011 94 10000 2.47 108 20:57 06.04.2021
606 Clouds 21 1011 94 10000 2.47 108 20:36 06.04.2021
607 Clouds 21 1011 94 10000 2.33 107 20:18 06.04.2021
608 Clouds 21 1010 100 10000 1.03 0 19:41 06.04.2021
609 Clouds 21 1010 100 10000 1.03 0 19:23 06.04.2021
610 Clouds 21 1010 100 10000 2.06 330 18:43 06.04.2021
611 Clouds 21 1010 100 10000 2.06 330 18:20 06.04.2021
612 Clouds 21 1011 100 10000 2.44 96 17:45 06.04.2021
613 Clouds 21 1011 100 10000 2.51 101 17:19 06.04.2021
614 Clouds 21 1011 100 10000 1.03 0 16:46 06.04.2021
615 Clouds 21 1011 100 10000 1.03 0 16:27 06.04.2021
616 Clouds 22 1012 94 10000 1.54 0 15:27 06.04.2021
617 Clouds 23 1012 94 10000 1.54 0 14:47 06.04.2021
618 Clouds 23 1012 94 10000 1.54 0 14:28 06.04.2021
619 Clouds 23 1013 94 10000 1.03 0 13:47 06.04.2021
620 Clouds 23 1013 94 10000 1.03 0 13:27 06.04.2021
621 Clouds 23 1013 94 10000 2.57 85 12:58 06.04.2021
622 Clouds 23 1013 94 10000 2.57 85 12:37 06.04.2021
623 Clouds 23 1013 94 10000 2.95 89 12:18 06.04.2021
624 Clouds 23 1013 88 10000 1.03 110 11:43 06.04.2021
625 Clouds 23 1013 88 10000 1.03 110 11:20 06.04.2021
626 Clouds 24 1012 83 10000 1.03 120 10:44 06.04.2021
627 Clouds 24 1012 83 10000 1.03 120 10:22 06.04.2021
628 Clouds 26 1011 69 10000 1.54 120 09:45 06.04.2021
629 Clouds 26 1011 69 10000 1.54 120 09:25 06.04.2021
630 Clouds 27 1011 61 10000 2.06 130 08:34 06.04.2021
631 Clouds 28 1010 57 10000 3.6 130 07:32 06.04.2021
632 Clouds 28 1010 57 10000 3.6 150 06:54 06.04.2021
633 Clouds 29 1010 58 10000 3.6 160 04:52 06.04.2021
634 Clouds 28 1013 65 10000 3.6 150 00:59 06.04.2021
635 Clouds 28 1013 65 10000 3.6 150 00:38 06.04.2021
636 Clouds 28 1013 65 10000 3.6 150 00:20 06.04.2021
637 Clouds 28 1012 61 10000 3.6 150 23:41 05.04.2021
638 Clouds 26 1012 83 10000 1.54 330 23:18 05.04.2021
639 Clouds 26 1012 83 10000 1.54 330 22:41 05.04.2021
640 Clouds 26 1012 83 10000 1.54 330 22:20 05.04.2021
641 Clouds 23 1012 94 10000 1.03 0 21:38 05.04.2021
642 Clouds 23 1012 94 10000 1.03 0 21:19 05.04.2021
643 Clouds 23 1011 88 10000 1.03 0 20:42 05.04.2021
644 Clouds 23 1011 88 10000 1.03 0 20:42 05.04.2021
645 Clouds 23 1011 88 10000 1.03 0 20:42 05.04.2021
646 Clouds 23 1011 94 10000 1.03 0 20:22 05.04.2021
647 Clouds 23 1011 94 10000 1.03 0 19:38 05.04.2021
648 Clouds 22 1011 94 10000 1.03 0 19:19 05.04.2021
649 Clouds 22 1011 94 10000 1.03 0 18:41 05.04.2021
650 Clouds 22 1011 94 10000 2.06 280 18:19 05.04.2021
651 Clouds 22 1011 94 10000 2.06 280 17:47 05.04.2021
652 Clouds 22 1011 94 10000 2.06 280 17:24 05.04.2021
653 Clouds 22 1011 94 10000 1.54 340 16:47 05.04.2021
654 Clouds 22 1011 94 10000 1.54 340 16:22 05.04.2021
655 Clouds 22 1012 94 10000 1.54 300 15:57 05.04.2021
656 Clouds 22 1012 94 10000 1.54 300 15:35 05.04.2021
657 Clouds 22 1012 94 10000 1.54 330 14:59 05.04.2021
658 Clouds 22 1012 94 10000 1.54 330 14:36 05.04.2021
659 Clouds 23 1012 94 10000 1.03 270 13:52 05.04.2021
660 Clouds 23 1012 94 10000 1.03 270 13:27 05.04.2021
661 Clouds 24 1012 88 10000 1.03 0 12:46 05.04.2021
662 Clouds 24 1012 88 10000 1.03 0 12:25 05.04.2021
663 Clouds 25 1012 73 10000 1.03 0 11:48 05.04.2021
664 Clouds 25 1012 73 10000 1.03 0 11:28 05.04.2021
665 Clouds 26 1012 73 10000 1.54 140 10:55 05.04.2021
666 Clouds 26 1012 73 10000 1.54 140 10:29 05.04.2021
667 Clouds 25 1011 78 10000 4.04 116 09:48 05.04.2021
668 Clouds 25 1011 78 10000 4.04 119 09:26 05.04.2021
669 Clouds 27 1010 65 10000 1.54 170 08:46 05.04.2021
670 Clouds 27 1010 65 10000 1.54 170 08:26 05.04.2021
671 Clouds 28 1010 57 10000 3.09 160 07:57 05.04.2021
672 Clouds 28 1010 57 10000 3.09 160 07:29 05.04.2021
673 Clouds 29 1010 58 10000 4.12 160 03:42 05.04.2021
674 Clouds 25 1012 83 10000 1.54 230 00:54 05.04.2021
675 Clouds 24 1012 88 10000 2.06 210 23:53 04.04.2021
676 Clouds 24 1012 88 10000 2.06 210 23:30 04.04.2021
677 Clouds 24 1012 88 10000 2.57 190 22:56 04.04.2021
678 Clouds 24 1012 88 10000 2.57 190 22:33 04.04.2021
679 Clouds 25 1011 83 10000 2.06 170 21:48 04.04.2021
680 Clouds 25 1011 83 10000 2.06 170 21:21 04.04.2021
681 Clouds 24 1011 88 10000 2.57 170 20:42 04.04.2021
682 Clouds 24 1011 88 10000 2.57 170 20:20 04.04.2021
683 Clouds 24 1011 88 10000 2.57 170 20:20 04.04.2021
684 Clouds 24 1010 94 10000 1.03 0 19:38 04.04.2021
685 Clouds 24 1010 94 10000 1.03 0 19:19 04.04.2021
686 Clouds 23 1010 100 8000 2.06 80 18:49 04.04.2021
687 Clouds 24 1010 94 10000 1.03 0 18:24 04.04.2021
688 Clouds 24 1010 94 10000 1.03 0 18:24 04.04.2021
689 Clouds 24 1010 94 10000 1.03 0 17:56 04.04.2021
690 Clouds 24 1010 94 10000 1.03 0 17:24 04.04.2021
691 Clouds 24 1010 94 8000 5.66 100 16:54 04.04.2021
692 Clouds 24 1010 94 10000 2.57 140 16:31 04.04.2021
693 Clouds 25 1011 83 10000 2.06 130 15:37 04.04.2021
694 Clouds 25 1011 83 10000 2.06 130 15:18 04.04.2021
695 Clouds 25 1011 83 10000 2.57 130 14:37 04.04.2021
696 Clouds 25 1011 83 10000 2.57 130 14:18 04.04.2021
697 Clouds 24 1011 94 10000 1.03 0 13:26 04.04.2021
698 Clouds 24 1011 88 10000 4.12 160 12:50 04.04.2021
699 Clouds 24 1011 88 10000 4.12 160 12:27 04.04.2021
700 Clouds 26 1011 83 10000 3.6 140 11:43 04.04.2021
701 Clouds 26 1011 83 10000 3.6 140 11:25 04.04.2021
702 Clouds 25 1010 94 10000 1.03 0 10:46 04.04.2021
703 Clouds 25 1010 94 10000 1.03 0 10:19 04.04.2021
704 Clouds 25 1010 94 10000 1.03 0 09:27 04.04.2021
705 Clouds 25 1009 94 10000 2.57 140 08:59 04.04.2021
706 Clouds 25 1009 94 10000 2.57 140 08:41 04.04.2021
707 Clouds 25 1009 94 10000 2.57 140 08:23 04.04.2021
708 Clouds 27 1009 78 10000 3.09 160 06:39 04.04.2021
709 Clouds 27 1009 78 10000 3.09 160 06:39 04.04.2021
710 Clouds 27 1009 83 10000 3.6 150 05:34 04.04.2021
711 Clouds 27 1011 78 10000 2.57 130 01:47 04.04.2021
712 Clouds 27 1012 78 10000 3.6 120 00:25 04.04.2021
713 Clouds 27 1012 83 10000 4.48 133 23:52 03.04.2021
714 Clouds 27 1012 83 10000 4.48 133 23:33 03.04.2021
715 Clouds 26 1011 89 10000 4.12 140 22:53 03.04.2021
716 Clouds 26 1011 89 10000 4.12 140 22:23 03.04.2021
717 Clouds 26 1010 94 10000 3.6 140 21:56 03.04.2021
718 Clouds 26 1010 94 10000 3.6 140 21:38 03.04.2021
719 Clouds 24 1010 100 10000 4.76 145 21:18 03.04.2021
720 Clouds 24 1010 100 10000 5.05 145 20:30 03.04.2021
721 Clouds 24 1010 100 10000 4.76 145 20:30 03.04.2021
722 Clouds 24 1009 100 10000 4.54 148 19:52 03.04.2021
723 Clouds 24 1009 100 10000 4.54 148 19:34 03.04.2021
724 Clouds 24 1009 100 10000 3.85 148 18:57 03.04.2021
725 Clouds 24 1009 100 10000 3.85 148 18:36 03.04.2021
726 Clouds 24 1009 100 10000 3.53 148 17:58 03.04.2021
727 Clouds 24 1009 100 10000 3.03 147 17:28 03.04.2021
728 Clouds 24 1010 100 10000 3.03 147 16:58 03.04.2021
729 Clouds 24 1010 100 10000 3.03 147 16:31 03.04.2021
730 Clouds 24 1010 100 10000 2.45 143 15:53 03.04.2021
731 Clouds 24 1010 100 10000 2.45 143 15:32 03.04.2021
732 Clouds 24 1011 100 10000 1.47 131 14:59 03.04.2021
733 Clouds 24 1011 100 10000 0.95 120 14:27 03.04.2021
734 Clouds 24 1011 100 10000 0.95 120 14:27 03.04.2021
735 Clouds 24 1011 100 10000 1.12 105 13:59 03.04.2021
736 Clouds 24 1011 100 10000 1.12 105 13:36 03.04.2021
737 Clouds 24 1011 100 10000 1.75 98 13:18 03.04.2021
738 Clouds 24 1011 100 10000 1.75 98 12:36 03.04.2021
739 Clouds 24 1012 100 10000 1.03 0 11:57 03.04.2021
740 Clouds 24 1012 100 10000 1.03 0 11:32 03.04.2021
741 Clouds 25 1011 94 10000 1.81 102 10:49 03.04.2021
742 Clouds 25 1011 94 10000 2.25 95 10:29 03.04.2021
743 Clouds 25 1011 94 10000 4.63 70 09:47 03.04.2021
744 Clouds 25 1011 94 10000 4.63 70 09:25 03.04.2021
745 Clouds 25 1010 100 10000 1.03 0 08:38 03.04.2021
746 Clouds 27 1009 89 10000 3.6 120 07:48 03.04.2021
747 Clouds 27 1009 89 10000 3.6 120 07:27 03.04.2021
748 Clouds 31 1009 74 10000 2.57 80 04:27 03.04.2021
749 Clouds 31 1010 74 10000 3.6 50 02:58 03.04.2021
750 Clouds 31 1010 74 10000 3.6 50 02:34 03.04.2021
751 Clouds 30 1010 79 10000 3.09 80 01:31 03.04.2021
752 Clouds 29 1011 84 10000 3.6 80 00:18 03.04.2021
753 Clouds 28 1011 94 10000 1.03 0 23:44 02.04.2021
754 Clouds 26 1011 94 10000 1.03 310 23:19 02.04.2021
755 Clouds 26 1011 94 10000 1.03 310 22:45 02.04.2021
756 Clouds 26 1011 94 10000 1.03 310 22:25 02.04.2021
757 Clouds 25 1011 100 10000 1.03 220 21:42 02.04.2021
758 Clouds 25 1011 100 10000 1.03 220 21:19 02.04.2021
759 Clouds 25 1010 100 10000 2.63 66 20:45 02.04.2021
760 Clouds 25 1010 94 10000 2.79 59 20:25 02.04.2021
761 Clouds 25 1010 94 10000 2.79 59 19:42 02.04.2021
762 Clouds 25 1010 94 10000 2.84 61 19:23 02.04.2021
763 Clouds 25 1010 94 10000 2.84 61 18:50 02.04.2021
764 Clouds 25 1010 94 10000 2.84 61 18:30 02.04.2021
765 Clouds 25 1010 94 10000 2.59 70 17:57 02.04.2021
766 Clouds 25 1010 94 10000 2.59 70 17:32 02.04.2021
767 Clouds 25 1010 100 10000 1.54 310 16:37 02.04.2021
768 Clouds 25 1010 100 10000 1.03 190 15:47 02.04.2021
769 Clouds 25 1010 100 10000 1.03 190 15:25 02.04.2021
770 Clouds 25 1011 100 10000 2.83 67 14:34 02.04.2021
771 Clouds 25 1011 100 10000 2.88 79 13:50 02.04.2021
772 Clouds 25 1011 100 10000 2.67 77 13:28 02.04.2021
773 Clouds 26 1011 94 10000 1.03 0 12:59 02.04.2021
774 Clouds 26 1011 94 10000 1.03 0 12:37 02.04.2021
775 Clouds 26 1011 94 10000 1.03 240 12:19 02.04.2021
776 Clouds 26 1011 94 10000 1.03 240 11:44 02.04.2021
777 Clouds 26 1011 94 10000 1.03 0 11:19 02.04.2021
778 Clouds 26 1011 94 10000 1.03 0 10:42 02.04.2021
779 Clouds 26 1011 94 10000 1.03 0 10:23 02.04.2021
780 Clouds 26 1010 94 10000 2.06 100 09:46 02.04.2021
781 Clouds 26 1010 94 10000 2.06 100 09:24 02.04.2021
782 Clouds 28 1009 89 10000 2.06 110 08:46 02.04.2021
783 Clouds 28 1009 89 10000 2.06 110 08:26 02.04.2021
784 Clouds 28 1009 94 10000 2.57 110 07:20 02.04.2021
785 Clouds 30 1009 79 10000 3.09 120 06:34 02.04.2021
786 Clouds 30 1009 70 10000 3.6 100 03:39 02.04.2021
787 Clouds 31 1010 74 10000 3.6 110 01:37 02.04.2021
788 Rain 31 1010 74 10000 4.12 90 00:43 02.04.2021
789 Clouds 29 1010 79 10000 3.6 100 23:44 01.04.2021
790 Clouds 29 1010 79 10000 3.6 100 23:26 01.04.2021
791 Clouds 27 1010 78 10000 1.03 0 22:23 01.04.2021
792 Clouds 25 1010 100 10000 3.47 65 21:59 01.04.2021
793 Rain 25 1010 100 10000 3.47 65 21:41 01.04.2021
794 Clouds 25 1010 100 10000 3.53 64 21:22 01.04.2021
795 Clouds 25 1009 94 10000 3.53 64 20:40 01.04.2021
796 Clouds 26 1009 89 10000 1.54 150 20:21 01.04.2021
797 Rain 26 1009 89 10000 1.54 150 19:41 01.04.2021
798 Rain 26 1009 89 10000 1.54 150 19:18 01.04.2021
799 Rain 26 1009 94 10000 1.54 90 18:43 01.04.2021
800 Clouds 26 1009 94 10000 1.54 90 18:18 01.04.2021
801 Clouds 26 1009 94 10000 2.06 120 17:39 01.04.2021
802 Clouds 26 1009 94 10000 2.06 120 17:21 01.04.2021
803 Clouds 27 1009 89 10000 1.54 90 16:48 01.04.2021
804 Clouds 27 1009 89 10000 1.54 90 16:18 01.04.2021
805 Clouds 27 1009 89 10000 2.57 70 15:39 01.04.2021
806 Clouds 27 1009 89 10000 2.57 70 15:19 01.04.2021
807 Clouds 28 1010 83 10000 3.6 70 14:39 01.04.2021
808 Rain 28 1010 83 10000 3.6 70 14:20 01.04.2021
809 Clouds 27 1010 89 10000 3.6 70 13:48 01.04.2021
810 Clouds 27 1010 89 10000 3.6 70 13:27 01.04.2021
811 Clouds 27 1010 89 10000 3.09 80 12:47 01.04.2021
812 Clouds 27 1010 89 10000 3.09 80 12:28 01.04.2021
813 Clouds 26 1010 89 10000 3.6 70 11:45 01.04.2021
814 Clouds 26 1010 89 10000 3.6 70 11:20 01.04.2021
815 Clouds 27 1010 89 10000 2.06 70 10:47 01.04.2021
816 Clouds 27 1010 89 10000 2.06 70 10:29 01.04.2021
817 Rain 27 1009 89 10000 2.06 80 09:41 01.04.2021
818 Rain 27 1009 89 10000 2.06 80 09:22 01.04.2021
819 Rain 28 1009 83 10000 3.6 70 08:33 01.04.2021
820 Clouds 29 1008 74 10000 3.09 90 07:24 01.04.2021
821 Rain 29 1008 79 10000 5.14 90 06:58 01.04.2021
822 Rain 29 1008 79 10000 5.14 90 06:27 01.04.2021
823 Clouds 30 1008 74 10000 5.14 70 03:25 01.04.2021
824 Clouds 30 1010 79 10000 5.14 90 00:28 01.04.2021
825 Clouds 28 1010 89 10000 1.03 0 23:44 31.03.2021
826 Clouds 26 1010 94 10000 4.39 70 22:56 31.03.2021
827 Clouds 26 1010 94 10000 4.39 70 22:38 31.03.2021
828 Clouds 26 1010 94 10000 4.02 72 22:19 31.03.2021
829 Clouds 25 1009 94 10000 3.09 330 21:44 31.03.2021
830 Clouds 25 1009 94 10000 3.09 330 21:20 31.03.2021
831 Clouds 25 1009 100 5000 2.06 360 20:42 31.03.2021
832 Clouds 25 1009 100 5000 2.06 360 20:22 31.03.2021
833 Rain 25 1009 100 10000 1.54 320 19:44 31.03.2021
834 Clouds 25 1009 100 10000 1.54 320 19:25 31.03.2021
835 Clouds 25 1008 94 10000 3.29 63 18:58 31.03.2021
836 Rain 25 1008 94 10000 3.29 63 18:40 31.03.2021
837 Rain 25 1008 94 10000 3.29 63 18:40 31.03.2021
838 Rain 25 1008 94 10000 3.29 63 18:40 31.03.2021
839 Clouds 25 1009 94 10000 1.54 30 17:51 31.03.2021
840 Clouds 25 1009 94 10000 1.54 30 17:30 31.03.2021
841 Clouds 25 1009 100 10000 1.03 0 16:56 31.03.2021
842 Clouds 25 1009 100 10000 1.03 0 16:37 31.03.2021
843 Clouds 25 1009 100 10000 3.09 320 15:59 31.03.2021
844 Clouds 25 1009 100 10000 3.09 320 15:41 31.03.2021
845 Clouds 25 1009 100 10000 3.09 320 15:19 31.03.2021
846 Clouds 25 1009 100 10000 1.03 240 14:42 31.03.2021
847 Clouds 25 1009 100 10000 1.03 240 14:19 31.03.2021
848 Clouds 25 1009 100 10000 1.03 230 13:35 31.03.2021
849 Clouds 26 1008 94 10000 3.43 60 12:41 31.03.2021
850 Rain 26 1008 94 10000 3.85 62 12:20 31.03.2021
851 Rain 26 1008 89 10000 1.54 330 11:39 31.03.2021
852 Rain 26 1008 89 10000 1.54 330 11:20 31.03.2021
853 Clouds 27 1008 89 10000 1.54 50 10:46 31.03.2021
854 Clouds 27 1008 89 10000 1.54 50 10:46 31.03.2021
855 Rain 27 1008 89 10000 1.54 50 10:24 31.03.2021
856 Clouds 27 1007 89 10000 3.09 90 09:37 31.03.2021
857 Clouds 28 1007 78 10000 3.09 90 08:51 31.03.2021
858 Rain 28 1007 78 10000 3.09 90 08:32 31.03.2021
859 Rain 29 1006 84 10000 4.12 80 07:42 31.03.2021
860 Clouds 28 1006 83 10000 5.14 90 06:36 31.03.2021
861 Rain 30 1008 74 10000 5.14 60 03:46 31.03.2021
862 Clouds 28 1009 83 10000 4.63 60 00:55 31.03.2021
863 Rain 28 1009 83 10000 4.63 60 00:27 31.03.2021
864 Clouds 29 1009 84 10000 5.14 50 23:59 30.03.2021
865 Clouds 29 1009 84 10000 5.14 50 23:28 30.03.2021
866 Clouds 26 1009 89 10000 1.03 0 22:56 30.03.2021
867 Clouds 26 1009 89 10000 1.03 0 22:56 30.03.2021
868 Clouds 26 1009 89 10000 1.03 0 22:38 30.03.2021
869 Clouds 26 1009 89 10000 1.03 0 22:19 30.03.2021
870 Clouds 25 1009 94 10000 1.03 0 21:42 30.03.2021
871 Clouds 25 1009 94 10000 1.03 0 21:19 30.03.2021
872 Clouds 24 1008 100 10000 1.03 0 20:48 30.03.2021
873 Clouds 24 1008 100 10000 1.03 0 20:27 30.03.2021
874 Clouds 24 1008 100 10000 3.8 56 19:48 30.03.2021
875 Clouds 24 1008 100 10000 3.88 56 19:22 30.03.2021
876 Clouds 24 1008 100 10000 2.06 280 18:34 30.03.2021
877 Clouds 24 1008 100 10000 1.03 0 17:51 30.03.2021
878 Clouds 24 1008 100 10000 1.03 0 17:32 30.03.2021
879 Clouds 24 1008 94 10000 1.03 0 16:48 30.03.2021
880 Clouds 24 1008 94 10000 1.03 0 16:28 30.03.2021
881 Rain 24 1009 94 10000 2.57 90 15:43 30.03.2021
882 Clouds 24 1009 94 5000 6.17 80 15:20 30.03.2021
883 Clouds 26 1009 94 10000 1.03 0 14:46 30.03.2021
884 Clouds 26 1009 94 10000 1.03 0 14:21 30.03.2021
885 Clouds 26 1009 94 10000 1.03 0 14:21 30.03.2021
886 Clouds 27 1009 89 10000 1.54 110 13:51 30.03.2021
887 Clouds 27 1009 89 10000 1.54 110 13:30 30.03.2021
888 Clouds 27 1009 89 10000 3.09 100 12:42 30.03.2021
889 Clouds 27 1009 89 10000 3.09 100 12:23 30.03.2021
890 Rain 27 1008 89 10000 2.06 90 11:48 30.03.2021
891 Clouds 26 1008 94 10000 1.03 0 11:20 30.03.2021
892 Clouds 26 1008 94 10000 1.03 0 10:43 30.03.2021
893 Clouds 27 1007 89 10000 3.09 80 10:19 30.03.2021
894 Clouds 27 1007 89 10000 3.09 80 09:43 30.03.2021
895 Clouds 27 1007 89 10000 3.09 80 09:43 30.03.2021
896 Clouds 27 1007 89 10000 3.09 80 09:24 30.03.2021
897 Clouds 28 1007 83 10000 3.09 90 08:51 30.03.2021
898 Clouds 28 1007 83 10000 3.09 90 08:31 30.03.2021
899 Clouds 29 1007 79 10000 4.63 120 07:45 30.03.2021
900 Clouds 29 1007 79 10000 4.12 110 06:56 30.03.2021
901 Clouds 30 1007 74 10000 3.09 130 05:25 30.03.2021
902 Clouds 30 1009 79 10000 2.57 80 02:32 30.03.2021
903 Rain 26 1010 94 10000 2.06 290 23:56 29.03.2021
904 Clouds 26 1010 94 10000 2.06 290 23:27 29.03.2021
905 Clouds 25 1009 94 10000 4.43 72 22:43 29.03.2021
906 Rain 24 1009 100 10000 4.04 70 21:58 29.03.2021
907 Clouds 24 1009 100 10000 4.04 70 21:37 29.03.2021
908 Clouds 24 1009 94 10000 3.6 67 20:57 29.03.2021
909 Clouds 24 1009 94 10000 3.6 67 20:37 29.03.2021
910 Clouds 24 1008 100 10000 3.84 66 19:56 29.03.2021
911 Clouds 24 1008 100 10000 3.84 66 19:32 29.03.2021
912 Clouds 24 1008 100 10000 3.91 68 18:57 29.03.2021
913 Rain 24 1008 100 10000 3.91 68 18:38 29.03.2021
914 Clouds 24 1008 100 10000 3.87 69 18:20 29.03.2021
915 Clouds 24 1008 100 10000 3.87 69 17:37 29.03.2021
916 Clouds 25 1009 94 10000 4.16 70 16:55 29.03.2021
917 Clouds 25 1009 94 10000 4.16 70 16:34 29.03.2021
918 Clouds 25 1009 94 10000 4.13 74 15:47 29.03.2021
919 Clouds 25 1009 94 10000 4.31 72 15:28 29.03.2021
920 Clouds 25 1009 94 10000 4.31 72 14:49 29.03.2021
921 Clouds 25 1009 94 10000 4.16 67 14:28 29.03.2021
922 Clouds 26 1010 89 10000 4.3 69 13:47 29.03.2021
923 Clouds 26 1010 89 10000 2.57 70 13:24 29.03.2021
924 Clouds 26 1010 89 10000 2.57 70 12:50 29.03.2021
925 Clouds 25 1010 94 10000 1.03 0 11:49 29.03.2021
926 Clouds 25 1010 94 10000 1.03 0 11:30 29.03.2021
927 Clouds 25 1010 94 10000 4.44 62 10:52 29.03.2021
928 Clouds 25 1010 94 10000 4.44 62 10:32 29.03.2021
929 Clouds 26 1009 89 10000 1.03 0 09:34 29.03.2021
930 Clouds 27 1009 83 10000 4.12 90 08:51 29.03.2021
931 Rain 27 1009 83 10000 4.12 90 08:27 29.03.2021
932 Rain 28 1009 78 10000 3.6 80 07:22 29.03.2021
933 Rain 28 1008 83 10000 3.09 90 06:26 29.03.2021
934 Rain 29 1009 79 10000 5.14 70 03:35 29.03.2021
935 Clouds 24 1011 94 10000 3.6 60 00:55 29.03.2021
936 Clouds 24 1011 100 8000 6.69 60 00:20 29.03.2021
937 Clouds 24 1011 100 8000 6.69 60 23:31 28.03.2021
938 Clouds 24 1010 100 10000 1.03 0 22:54 28.03.2021
939 Clouds 24 1010 100 10000 1.03 0 22:35 28.03.2021
940 Clouds 24 1011 100 5000 5.14 70 21:59 28.03.2021
941 Rain 25 1009 94 10000 1.03 0 21:40 28.03.2021
942 Rain 25 1009 94 10000 1.03 0 21:40 28.03.2021
943 Clouds 25 1009 94 10000 1.03 0 21:22 28.03.2021
944 Rain 25 1009 94 10000 1.54 70 20:47 28.03.2021
945 Clouds 25 1009 94 10000 1.54 70 20:29 28.03.2021
946 Clouds 24 1009 94 10000 4.63 30 19:43 28.03.2021
947 Clouds 24 1009 94 10000 4.63 30 19:22 28.03.2021
948 Rain 24 1009 100 10000 2.57 20 18:58 28.03.2021
949 Clouds 24 1009 100 10000 2.57 20 18:25 28.03.2021
950 Rain 26 1009 89 10000 1.54 80 17:46 28.03.2021
951 Rain 26 1009 89 10000 1.54 80 17:23 28.03.2021
952 Rain 26 1009 89 10000 5.14 80 16:45 28.03.2021
953 Rain 26 1009 89 10000 5.14 80 16:23 28.03.2021
954 Rain 26 1010 89 10000 3.09 80 15:25 28.03.2021
955 Rain 27 1010 89 10000 3.6 90 14:50 28.03.2021
956 Rain 27 1010 89 10000 3.6 90 14:30 28.03.2021
957 Clouds 26 1011 89 10000 2.57 90 13:39 28.03.2021
958 Clouds 26 1011 89 10000 2.57 90 13:19 28.03.2021
959 Clouds 26 1011 94 10000 2.57 90 12:43 28.03.2021
960 Clouds 26 1011 94 10000 2.57 90 12:43 28.03.2021
961 Clouds 26 1011 94 10000 2.57 90 12:25 28.03.2021
962 Rain 26 1010 94 10000 3.09 70 11:40 28.03.2021
963 Clouds 26 1010 94 10000 3.09 70 11:18 28.03.2021
964 Clouds 27 1010 89 10000 2.06 100 10:43 28.03.2021
965 Clouds 27 1010 89 10000 2.06 100 10:21 28.03.2021
966 Rain 27 1009 89 10000 2.57 110 09:44 28.03.2021
967 Clouds 27 1009 89 10000 2.57 110 09:23 28.03.2021
968 Rain 27 1009 78 10000 2.06 120 08:42 28.03.2021
969 Rain 27 1009 89 10000 3.6 100 07:45 28.03.2021
970 Rain 26 1009 94 10000 2.06 120 06:23 28.03.2021
971 Clouds 30 1010 74 10000 4.63 110 03:51 28.03.2021
972 Rain 31 1012 70 10000 4.63 120 00:49 28.03.2021
973 Clouds 31 1012 70 10000 4.63 120 00:19 28.03.2021
974 Clouds 29 1012 79 10000 4.12 120 23:39 27.03.2021
975 Clouds 29 1012 84 10000 1.54 120 22:53 27.03.2021
976 Clouds 29 1012 84 10000 1.54 120 22:35 27.03.2021
977 Clouds 26 1012 94 10000 3.35 72 21:46 27.03.2021
978 Clouds 24 1011 94 10000 2.75 68 21:21 27.03.2021
979 Clouds 24 1011 94 10000 2.75 68 20:59 27.03.2021
980 Clouds 24 1011 94 10000 2.75 68 20:38 27.03.2021
981 Rain 24 1011 94 10000 2.52 63 20:19 27.03.2021
982 Clouds 23 1011 100 10000 1.54 0 19:41 27.03.2021
983 Clouds 23 1011 100 10000 1.54 0 19:22 27.03.2021
984 Clouds 23 1010 100 10000 1.54 0 18:47 27.03.2021
985 Clouds 23 1010 100 10000 1.54 0 18:22 27.03.2021
986 Clouds 23 1010 100 10000 2.9 67 17:37 27.03.2021
987 Clouds 23 1010 100 10000 2.9 67 17:37 27.03.2021
988 Clouds 23 1010 100 10000 3.07 63 17:18 27.03.2021
989 Clouds 24 1011 94 10000 1.54 0 16:47 27.03.2021
990 Clouds 24 1011 94 10000 1.54 0 16:26 27.03.2021
991 Clouds 24 1011 94 10000 3.5 62 15:45 27.03.2021
992 Clouds 24 1011 94 10000 3.61 67 15:19 27.03.2021
993 Clouds 24 1011 100 10000 3.61 67 14:42 27.03.2021
994 Rain 24 1012 100 10000 1.54 0 13:40 27.03.2021
995 Rain 24 1012 100 10000 1.54 0 13:40 27.03.2021
996 Rain 24 1012 100 10000 1.54 0 13:20 27.03.2021
997 Clouds 24 1012 100 10000 1.54 330 12:47 27.03.2021
998 Clouds 25 1012 94 10000 3.81 71 11:53 27.03.2021
999 Clouds 25 1012 94 10000 3.81 71 11:33 27.03.2021
1000 Clouds 25 1012 94 10000 3.83 68 10:58 27.03.2021
1001 Clouds 25 1012 94 10000 3.83 68 10:39 27.03.2021
1002 Clouds 26 1011 94 10000 2.06 340 09:58 27.03.2021
1003 Clouds 26 1011 94 10000 2.06 340 09:21 27.03.2021
1004 Clouds 26 1011 94 10000 4.01 69 08:40 27.03.2021
1005 Clouds 27 1010 83 10000 2.06 120 07:54 27.03.2021
1006 Clouds 27 1010 83 10000 2.06 120 07:18 27.03.2021
1007 Clouds 27 1010 89 10000 2.06 100 06:42 27.03.2021
1008 Clouds 28 1010 83 10000 3.09 120 04:42 27.03.2021
1009 Clouds 31 1011 70 10000 6.17 70 02:45 27.03.2021
1010 Clouds 30 1013 70 10000 4.12 90 00:44 27.03.2021
1011 Clouds 30 1013 70 10000 4.12 90 00:25 27.03.2021
1012 Rain 30 1013 74 10000 3.09 80 23:37 26.03.2021
1013 Rain 27 1013 89 10000 1.03 0 22:40 26.03.2021
1014 Rain 26 1012 94 10000 2.06 310 21:53 26.03.2021
1015 Rain 26 1012 94 10000 2.06 310 21:24 26.03.2021
1016 Rain 24 1012 100 10000 1.03 0 20:57 26.03.2021
1017 Rain 24 1012 100 10000 1.03 0 20:31 26.03.2021
1018 Clouds 24 1011 94 10000 1.03 0 19:52 26.03.2021
1019 Rain 24 1011 94 10000 1.03 0 19:33 26.03.2021
1020 Clouds 24 1011 94 10000 1.03 0 18:51 26.03.2021
1021 Clouds 24 1011 94 10000 1.03 0 18:31 26.03.2021
1022 Clouds 25 1012 88 10000 3.54 59 17:58 26.03.2021
1023 Clouds 26 1011 89 10000 1.03 0 17:35 26.03.2021
1024 Clouds 26 1011 89 10000 1.03 0 16:50 26.03.2021
1025 Clouds 26 1011 89 10000 1.03 0 16:23 26.03.2021
1026 Clouds 25 1012 94 10000 3.23 48 15:42 26.03.2021
1027 Rain 25 1012 94 10000 1.54 320 14:50 26.03.2021
1028 Clouds 25 1013 94 10000 1.54 280 13:52 26.03.2021
1029 Clouds 25 1013 94 10000 1.54 280 13:52 26.03.2021
1030 Clouds 25 1013 94 10000 1.54 280 13:26 26.03.2021
1031 Clouds 26 1013 94 10000 2.97 30 12:40 26.03.2021
1032 Clouds 27 1013 89 10000 1.54 90 11:49 26.03.2021
1033 Clouds 27 1013 89 10000 1.54 90 11:31 26.03.2021
1034 Clouds 27 1013 89 10000 1.54 90 11:31 26.03.2021
1035 Clouds 27 1012 89 10000 2.7 36 10:44 26.03.2021
1036 Clouds 27 1012 89 10000 2.77 43 10:23 26.03.2021
1037 Clouds 26 1012 89 10000 1.54 80 09:41 26.03.2021
1038 Rain 27 1011 89 10000 1.54 90 08:49 26.03.2021
1039 Clouds 27 1011 89 10000 1.54 90 08:31 26.03.2021
1040 Clouds 29 1010 84 10000 2.57 70 07:56 26.03.2021
1041 Clouds 29 1010 84 10000 2.57 70 07:22 26.03.2021
1042 Clouds 29 1010 74 10000 4.12 70 06:56 26.03.2021
1043 Clouds 30 1010 66 10000 4.12 30 05:32 26.03.2021
1044 Clouds 31 1010 62 10000 3.6 30 04:18 26.03.2021
1045 Clouds 31 1010 62 10000 3.6 30 04:18 26.03.2021
1046 Clouds 31 1013 62 10000 2.57 360 00:52 26.03.2021
1047 Clouds 30 1013 70 10000 3.09 340 23:51 25.03.2021
1048 Clouds 30 1013 70 10000 3.09 340 23:33 25.03.2021
1049 Clouds 28 1013 78 10000 4.12 30 22:40 25.03.2021
1050 Rain 28 1013 78 10000 4.12 30 22:18 25.03.2021
1051 Clouds 25 1014 88 10000 1.03 0 21:45 25.03.2021
1052 Rain 25 1014 88 10000 1.03 0 21:24 25.03.2021
1053 Clouds 23 1013 94 10000 1.03 0 20:38 25.03.2021
1054 Clouds 23 1013 94 10000 1.03 0 20:18 25.03.2021
1055 Clouds 23 1012 94 10000 1.03 0 19:40 25.03.2021
1056 Clouds 23 1012 94 10000 1.03 0 19:21 25.03.2021
1057 Clouds 23 1011 100 10000 1.66 335 18:43 25.03.2021
1058 Clouds 23 1011 100 10000 1.71 333 18:25 25.03.2021
1059 Clouds 23 1011 100 10000 1.71 333 17:38 25.03.2021
1060 Clouds 23 1011 100 10000 1.03 0 16:59 25.03.2021
1061 Clouds 23 1011 100 10000 1.03 0 16:36 25.03.2021
1062 Clouds 23 1012 100 10000 1.03 0 15:52 25.03.2021
1063 Clouds 23 1012 100 10000 1.03 0 15:27 25.03.2021
1064 Clouds 24 1012 94 10000 2.57 330 14:59 25.03.2021
1065 Rain 24 1012 94 10000 2.57 330 14:40 25.03.2021
1066 Clouds 24 1012 94 10000 2.06 340 13:38 25.03.2021
1067 Clouds 24 1012 94 10000 2.06 340 13:19 25.03.2021
1068 Clouds 24 1012 94 10000 3.09 330 12:37 25.03.2021
1069 Clouds 24 1012 94 10000 3.09 330 12:18 25.03.2021
1070 Clouds 24 1013 94 10000 2.06 340 11:44 25.03.2021
1071 Clouds 24 1013 94 10000 2.06 340 11:26 25.03.2021
1072 Clouds 24 1013 94 10000 2.06 340 11:26 25.03.2021
1073 Clouds 24 1012 100 10000 2.06 360 10:49 25.03.2021
1074 Clouds 24 1012 100 10000 2.06 360 10:22 25.03.2021
1075 Clouds 24 1012 100 10000 2.06 330 09:53 25.03.2021
1076 Clouds 24 1012 100 10000 2.06 330 09:35 25.03.2021
1077 Clouds 24 1012 100 10000 2.06 330 09:35 25.03.2021
1078 Rain 24 1010 100 10000 1.54 30 08:42 25.03.2021
1079 Clouds 24 1010 100 10000 1.03 0 07:57 25.03.2021
1080 Rain 24 1009 100 10000 2.57 270 06:59 25.03.2021
1081 Rain 24 1009 100 10000 2.57 270 06:24 25.03.2021
1082 Clouds 24 1009 94 10000 4.12 310 05:46 25.03.2021
1083 Rain 26 1010 94 10000 3.6 50 02:28 25.03.2021
1084 Clouds 27 1011 83 10000 1.54 320 00:21 25.03.2021
1085 Rain 27 1011 83 10000 1.54 320 23:48 24.03.2021
1086 Rain 27 1011 83 10000 1.54 320 23:23 24.03.2021
1087 Rain 26 1011 89 10000 1.03 0 22:41 24.03.2021
1088 Rain 26 1011 89 10000 1.03 0 22:19 24.03.2021
1089 Rain 24 1010 100 10000 1.54 330 21:41 24.03.2021
1090 Rain 24 1010 100 10000 1.54 330 21:20 24.03.2021
1091 Rain 23 1010 100 10000 1.56 220 20:41 24.03.2021
1092 Rain 23 1010 100 10000 1.93 242 20:19 24.03.2021
1093 Clouds 22 1009 100 10000 1.54 320 19:34 24.03.2021
1094 Clouds 23 1008 94 10000 2.06 300 18:58 24.03.2021
1095 Clouds 23 1008 94 10000 2.06 300 18:39 24.03.2021
1096 Clouds 23 1008 94 10000 2.06 300 18:19 24.03.2021
1097 Clouds 23 1008 94 10000 2.06 300 18:19 24.03.2021
1098 Clouds 23 1008 94 10000 1.64 291 17:40 24.03.2021
1099 Clouds 23 1008 94 10000 1.81 283 17:22 24.03.2021
1100 Clouds 22 1008 100 10000 1.54 300 16:41 24.03.2021
1101 Clouds 22 1008 100 10000 1.54 300 16:22 24.03.2021
1102 Clouds 23 1008 100 10000 2.25 273 15:43 24.03.2021
1103 Clouds 23 1008 100 10000 2.29 273 15:23 24.03.2021
1104 Clouds 23 1008 94 10000 2.29 273 14:42 24.03.2021
1105 Clouds 23 1008 94 10000 2.32 273 14:23 24.03.2021
1106 Clouds 24 1009 100 10000 2.06 280 13:45 24.03.2021
1107 Clouds 24 1009 100 10000 2.06 280 13:24 24.03.2021
1108 Rain 23 1010 100 10000 1.03 0 12:41 24.03.2021
1109 Rain 23 1010 100 10000 1.03 0 12:20 24.03.2021
1110 Rain 23 1010 100 10000 3.02 262 11:41 24.03.2021
1111 Rain 24 1010 94 10000 2.06 340 10:53 24.03.2021
1112 Rain 24 1010 94 10000 2.06 340 10:32 24.03.2021
1113 Rain 24 1009 94 10000 3.09 320 09:58 24.03.2021
1114 Rain 24 1009 94 10000 3.09 320 09:36 24.03.2021
1115 Rain 24 1009 94 10000 3.09 320 09:18 24.03.2021
1116 Rain 24 1008 94 10000 2.57 310 08:43 24.03.2021
1117 Rain 24 1008 94 10000 2.57 350 07:50 24.03.2021
1118 Rain 24 1008 94 10000 2.57 350 07:25 24.03.2021
1119 Clouds 24 1008 94 5000 2.57 330 06:46 24.03.2021
1120 Clouds 25 1008 94 10000 1.54 10 02:41 24.03.2021
1121 Clouds 24 1009 100 10000 1.54 156 00:42 24.03.2021
1122 Clouds 24 1010 94 6000 1.54 190 23:52 23.03.2021
1123 Clouds 24 1010 94 6000 1.54 190 23:20 23.03.2021
1124 Clouds 24 1009 94 8000 1.54 190 22:50 23.03.2021
1125 Clouds 24 1009 94 8000 1.54 190 22:25 23.03.2021
1126 Clouds 24 1009 94 10000 1.03 0 21:46 23.03.2021
1127 Clouds 24 1009 94 10000 1.03 0 21:27 23.03.2021
1128 Clouds 24 1008 94 10000 1.16 332 20:47 23.03.2021
1129 Clouds 24 1008 94 10000 1.6 307 20:25 23.03.2021
1130 Clouds 24 1007 94 10000 1.6 307 19:48 23.03.2021
1131 Clouds 24 1007 94 10000 1.43 298 19:26 23.03.2021
1132 Clouds 23 1007 94 10000 1.43 298 18:47 23.03.2021
1133 Clouds 23 1007 94 10000 1.24 320 18:23 23.03.2021
1134 Clouds 23 1007 100 10000 1.24 320 17:49 23.03.2021
1135 Clouds 23 1007 100 10000 1.31 341 17:23 23.03.2021
1136 Clouds 23 1007 100 10000 1.31 341 16:57 23.03.2021
1137 Clouds 23 1007 100 10000 0.88 347 16:25 23.03.2021
1138 Clouds 23 1007 100 10000 0.88 347 15:47 23.03.2021
1139 Clouds 23 1007 100 10000 0.84 20 15:18 23.03.2021
1140 Clouds 23 1007 100 10000 0.84 20 14:39 23.03.2021
1141 Clouds 23 1007 100 10000 0.91 11 14:18 23.03.2021
1142 Clouds 24 1009 94 10000 1.54 290 13:43 23.03.2021
1143 Clouds 24 1009 94 10000 1.54 290 13:21 23.03.2021
1144 Clouds 24 1010 100 10000 3.09 320 12:43 23.03.2021
1145 Clouds 24 1010 100 10000 3.09 320 12:21 23.03.2021
1146 Clouds 24 1010 100 10000 3.09 320 12:21 23.03.2021
1147 Clouds 24 1010 100 10000 1.77 267 11:47 23.03.2021
1148 Clouds 24 1010 100 10000 1.77 267 11:47 23.03.2021
1149 Clouds 24 1009 100 10000 1.78 258 10:47 23.03.2021
1150 Clouds 24 1009 100 10000 2.58 251 10:26 23.03.2021
1151 Clouds 24 1009 100 10000 2.58 251 09:59 23.03.2021
1152 Clouds 24 1009 100 10000 2.58 251 09:39 23.03.2021
1153 Clouds 24 1008 94 10000 1.54 300 09:20 23.03.2021
1154 Clouds 24 1008 94 10000 1.54 300 08:40 23.03.2021
1155 Clouds 24 1008 94 10000 1.54 300 08:22 23.03.2021
1156 Clouds 24 1008 94 10000 2.06 340 07:40 23.03.2021
1157 Clouds 25 1008 94 10000 1.54 240 07:19 23.03.2021
1158 Clouds 25 1008 94 10000 1.54 240 06:33 23.03.2021
1159 Clouds 26 1008 89 10000 1.54 60 03:23 23.03.2021
1160 Clouds 29 1010 74 10000 4.12 60 02:18 23.03.2021
1161 Clouds 28 1011 78 10000 2.57 40 23:43 22.03.2021
1162 Clouds 27 1011 83 10000 1.08 356 22:56 22.03.2021
1163 Clouds 27 1011 83 10000 1.08 356 22:37 22.03.2021
1164 Clouds 27 1011 83 10000 1.08 356 22:37 22.03.2021
1165 Clouds 27 1011 83 10000 1.47 330 22:18 22.03.2021
1166 Clouds 25 1011 88 10000 2.06 340 21:40 22.03.2021
1167 Clouds 25 1011 88 10000 2.06 340 21:40 22.03.2021
1168 Clouds 25 1011 88 10000 2.06 340 21:21 22.03.2021
1169 Clouds 23 1010 100 10000 1.79 337 20:41 22.03.2021
1170 Clouds 23 1010 100 10000 2.01 320 20:21 22.03.2021
1171 Clouds 23 1010 100 10000 2.01 320 19:53 22.03.2021
1172 Clouds 23 1010 100 10000 2.01 320 19:30 22.03.2021
1173 Rain 23 1009 100 10000 2.06 320 18:47 22.03.2021
1174 Rain 23 1009 100 10000 2.06 320 18:29 22.03.2021
1175 Rain 23 1009 100 10000 2.06 300 17:58 22.03.2021
1176 Clouds 23 1009 100 10000 2.06 300 17:38 22.03.2021
1177 Clouds 23 1009 100 10000 2.06 300 17:19 22.03.2021
1178 Rain 24 1009 100 10000 0.77 321 16:43 22.03.2021
1179 Clouds 24 1010 100 10000 0.62 8 15:59 22.03.2021
1180 Clouds 24 1010 100 10000 0.62 8 15:38 22.03.2021
1181 Clouds 24 1010 100 10000 0.44 299 15:18 22.03.2021
1182 Clouds 24 1010 100 10000 0.44 299 14:50 22.03.2021
1183 Clouds 24 1010 100 10000 0.44 299 14:31 22.03.2021
1184 Clouds 25 1010 85 10000 0.68 240 13:47 22.03.2021
1185 Clouds 24 1010 100 10000 0.77 227 13:25 22.03.2021
1186 Clouds 24 1010 100 10000 0.77 227 12:53 22.03.2021
1187 Clouds 24 1010 100 10000 0.22 297 12:24 22.03.2021
1188 Clouds 25 1011 84 10000 0.22 297 11:48 22.03.2021
1189 Clouds 25 1010 94 10000 1.54 340 11:25 22.03.2021
1190 Clouds 25 1010 94 10000 1.54 340 10:44 22.03.2021
1191 Clouds 25 1010 94 10000 1.54 340 10:24 22.03.2021
1192 Clouds 25 1010 94 10000 1.54 290 09:44 22.03.2021
1193 Clouds 25 1010 94 10000 1.54 290 09:23 22.03.2021
1194 Clouds 26 1010 94 10000 0.36 269 08:45 22.03.2021
1195 Clouds 26 1010 94 10000 0.48 245 08:25 22.03.2021
1196 Clouds 26 1010 94 10000 0.48 245 07:46 22.03.2021
1197 Clouds 26 1010 89 10000 1.08 195 06:57 22.03.2021
1198 Clouds 26 1010 89 10000 2.02 120 06:35 22.03.2021
1199 Clouds 31 1010 62 10000 1.54 0 02:38 22.03.2021
1200 Clouds 29 1011 74 10000 2 122 00:33 22.03.2021
1201 Clouds 28 1011 78 10000 2.57 330 23:54 21.03.2021
1202 Clouds 28 1011 78 10000 2.57 330 23:20 21.03.2021
1203 Clouds 26 1012 89 10000 2.57 330 22:56 21.03.2021
1204 Clouds 25 1011 88 10000 2.57 310 22:20 21.03.2021
1205 Clouds 25 1011 88 10000 2.57 310 21:41 21.03.2021
1206 Clouds 23 1010 94 10000 2.06 330 21:22 21.03.2021
1207 Clouds 23 1010 94 10000 2.06 330 20:44 21.03.2021
1208 Clouds 23 1010 94 10000 2.06 330 20:26 21.03.2021
1209 Clouds 22 1010 94 10000 2.57 320 19:54 21.03.2021
1210 Clouds 22 1010 94 10000 2.57 320 19:23 21.03.2021
1211 Clouds 22 1009 100 10000 2.57 320 18:50 21.03.2021
1212 Clouds 22 1009 100 10000 2.57 320 18:27 21.03.2021
1213 Clouds 22 1009 100 10000 2.57 320 18:27 21.03.2021
1214 Clouds 22 1009 100 10000 2.06 320 17:48 21.03.2021
1215 Clouds 22 1009 100 10000 2.06 300 17:21 21.03.2021
1216 Clouds 22 1009 100 10000 2.06 300 16:59 21.03.2021
1217 Clouds 22 1009 100 10000 2.06 300 16:41 21.03.2021
1218 Clouds 23 1010 94 10000 2.06 300 16:22 21.03.2021
1219 Clouds 23 1010 94 10000 2.06 300 15:41 21.03.2021
1220 Clouds 23 1010 94 10000 2.06 330 15:20 21.03.2021
1221 Clouds 23 1010 94 10000 2.06 330 14:46 21.03.2021
1222 Clouds 23 1010 94 10000 2.06 330 14:27 21.03.2021
1223 Clouds 23 1010 100 10000 2.06 330 13:54 21.03.2021
1224 Clouds 23 1010 100 10000 2.06 330 13:25 21.03.2021
1225 Clouds 23 1011 100 10000 2.06 320 12:42 21.03.2021
1226 Clouds 23 1011 100 10000 2.06 320 12:23 21.03.2021
1227 Clouds 24 1011 94 10000 1.54 310 11:37 21.03.2021
1228 Clouds 25 1011 88 10000 1.03 0 11:19 21.03.2021
1229 Clouds 25 1011 88 10000 1.03 0 11:19 21.03.2021
1230 Clouds 25 1011 88 10000 1.03 0 10:42 21.03.2021
1231 Clouds 25 1011 88 10000 1.03 0 10:23 21.03.2021
1232 Clouds 25 1010 88 10000 1.54 210 09:46 21.03.2021
1233 Clouds 25 1010 88 10000 1.54 210 09:27 21.03.2021
1234 Clouds 26 1010 83 10000 1.03 0 08:40 21.03.2021
1235 Clouds 26 1010 83 10000 1.03 0 08:21 21.03.2021
1236 Clouds 26 1010 83 10000 1.03 0 08:21 21.03.2021
1237 Clouds 27 1009 78 10000 1.54 180 07:38 21.03.2021
1238 Clouds 29 1009 65 10000 3.09 150 06:56 21.03.2021
1239 Clouds 29 1009 65 10000 2.57 160 05:45 21.03.2021
1240 Clouds 30 1009 62 10000 2.57 160 02:23 21.03.2021
1241 Clouds 30 1011 66 10000 2.06 180 00:42 21.03.2021
1242 Clouds 29 1011 70 10000 2.06 210 00:22 21.03.2021
1243 Clouds 29 1011 70 10000 2.06 210 23:48 20.03.2021
1244 Clouds 27 1011 66 10000 1.85 98 23:22 20.03.2021
1245 Clouds 27 1011 66 10000 1.85 98 23:22 20.03.2021
1246 Clouds 27 1011 66 10000 1.85 98 22:55 20.03.2021
1247 Clouds 24 1012 88 10000 2.06 330 22:22 20.03.2021
1248 Clouds 24 1012 88 10000 2.06 330 21:46 20.03.2021
1249 Clouds 24 1012 88 10000 2.06 330 21:24 20.03.2021
1250 Clouds 21 1011 100 10000 2.06 330 20:45 20.03.2021
1251 Clouds 21 1011 100 10000 2.06 330 20:23 20.03.2021
1252 Clouds 21 1010 94 10000 2.06 320 19:50 20.03.2021
1253 Clouds 21 1010 94 10000 2.06 320 19:27 20.03.2021
1254 Clouds 21 1010 94 10000 2.06 340 18:50 20.03.2021
1255 Clouds 21 1010 94 10000 2.06 340 18:27 20.03.2021
1256 Clouds 21 1010 100 10000 2.06 320 17:55 20.03.2021
1257 Clouds 21 1010 100 10000 2.06 320 17:33 20.03.2021
1258 Clouds 21 1010 100 10000 2.06 320 16:56 20.03.2021
1259 Clouds 21 1010 100 10000 2.06 320 16:37 20.03.2021
1260 Clouds 21 1010 100 10000 2.06 320 16:18 20.03.2021
1261 Clouds 22 1010 94 10000 1.54 320 15:39 20.03.2021
1262 Clouds 22 1011 94 10000 2.06 310 14:53 20.03.2021
1263 Clouds 22 1011 94 10000 2.06 310 14:29 20.03.2021
1264 Clouds 22 1011 94 10000 2.57 320 13:43 20.03.2021
1265 Clouds 22 1011 94 10000 2.57 320 13:21 20.03.2021
1266 Clouds 22 1011 100 10000 1.32 124 12:28 20.03.2021
1267 Clouds 23 1011 94 10000 1.03 0 11:50 20.03.2021
1268 Clouds 23 1011 94 10000 1.03 0 11:31 20.03.2021
1269 Clouds 23 1011 94 10000 1.72 122 10:57 20.03.2021
1270 Clouds 23 1011 94 10000 1.72 122 10:38 20.03.2021
1271 Clouds 24 1010 88 10000 1.03 0 10:19 20.03.2021
1272 Clouds 24 1010 88 10000 1.03 0 09:42 20.03.2021
1273 Clouds 25 1010 78 10000 1.03 0 09:21 20.03.2021
1274 Clouds 25 1010 78 10000 1.03 0 08:45 20.03.2021
1275 Clouds 27 1010 74 10000 2.06 160 07:55 20.03.2021
1276 Clouds 27 1010 74 10000 2.06 160 07:55 20.03.2021
1277 Clouds 27 1010 74 10000 2.06 160 07:32 20.03.2021
1278 Clouds 28 1009 69 10000 3.09 170 06:56 20.03.2021
1279 Clouds 28 1009 69 10000 3.09 170 06:27 20.03.2021
1280 Clouds 28 1009 69 10000 3.6 160 04:24 20.03.2021
1281 Clouds 30 1009 62 10000 3.6 160 03:42 20.03.2021
1282 Clouds 29 1011 65 10000 3.09 140 00:36 20.03.2021
1283 Clouds 29 1012 65 10000 3.09 140 23:32 19.03.2021
1284 Clouds 27 1012 78 10000 1.03 0 22:59 19.03.2021
1285 Clouds 27 1012 78 10000 1.03 0 22:38 19.03.2021
1286 Clouds 27 1012 78 10000 1.03 0 22:20 19.03.2021
1287 Clouds 27 1012 78 10000 1.03 0 22:20 19.03.2021
1288 Clouds 24 1011 88 10000 2.06 280 21:23 19.03.2021
1289 Clouds 22 1011 94 10000 2.06 310 21:00 19.03.2021
1290 Clouds 22 1011 94 10000 2.06 310 20:40 19.03.2021
1291 Clouds 22 1011 94 10000 2.06 310 20:22 19.03.2021
1292 Clouds 20 1010 100 10000 1.54 320 19:46 19.03.2021
1293 Clouds 21 1010 94 10000 1.54 320 19:20 19.03.2021
1294 Clouds 21 1010 94 10000 1.54 320 18:41 19.03.2021
1295 Clouds 21 1010 94 10000 1.54 320 18:20 19.03.2021
1296 Clouds 21 1009 94 10000 0.7 79 17:55 19.03.2021
1297 Clouds 21 1009 94 10000 0.7 79 17:32 19.03.2021
1298 Clouds 21 1009 100 10000 1.54 320 16:55 19.03.2021
1299 Clouds 21 1009 100 10000 1.54 320 16:31 19.03.2021
1300 Clouds 21 1009 100 10000 1.54 320 16:31 19.03.2021
1301 Clouds 21 1010 100 10000 1.54 300 15:56 19.03.2021
1302 Clouds 21 1010 100 10000 1.54 300 15:27 19.03.2021
1303 Clouds 22 1010 94 10000 1.03 0 14:47 19.03.2021
1304 Clouds 22 1010 94 10000 1.03 0 14:28 19.03.2021
1305 Clouds 22 1011 94 10000 1.54 310 13:42 19.03.2021
1306 Clouds 22 1012 94 10000 1.03 0 12:57 19.03.2021
1307 Clouds 22 1012 94 10000 1.03 0 12:37 19.03.2021
1308 Clouds 22 1012 94 10000 1.03 0 11:48 19.03.2021
1309 Clouds 23 1012 94 10000 1.03 0 10:54 19.03.2021
1310 Clouds 23 1012 94 10000 1.03 0 10:32 19.03.2021
1311 Clouds 25 1012 78 10000 1.03 0 09:58 19.03.2021
1312 Clouds 25 1012 78 10000 1.03 0 09:39 19.03.2021
1313 Clouds 25 1012 78 10000 1.03 0 09:19 19.03.2021
1314 Clouds 26 1011 73 10000 1.54 120 08:40 19.03.2021
1315 Clouds 26 1011 73 10000 1.54 120 08:21 19.03.2021
1316 Clouds 27 1011 69 10000 3.09 120 07:39 19.03.2021
1317 Clouds 28 1010 65 10000 3.6 130 06:52 19.03.2021
1318 Clouds 30 1010 58 10000 3.09 130 03:34 19.03.2021
1319 Clouds 29 1012 65 10000 3.09 110 00:58 19.03.2021
1320 Clouds 30 1012 58 10000 3.09 110 23:48 18.03.2021
1321 Clouds 30 1012 58 10000 3.09 110 23:25 18.03.2021
1322 Clouds 29 1012 65 10000 2.57 120 22:39 18.03.2021
1323 Clouds 29 1012 65 10000 2.57 120 22:20 18.03.2021
1324 Clouds 25 1012 83 10000 1.03 280 21:39 18.03.2021
1325 Clouds 22 1012 94 10000 1.54 310 20:54 18.03.2021
1326 Clouds 22 1012 94 10000 1.54 310 20:35 18.03.2021
1327 Clouds 21 1011 100 10000 2.06 310 19:58 18.03.2021
1328 Clouds 21 1011 100 10000 2.06 310 19:40 18.03.2021
1329 Clouds 21 1011 100 10000 1.54 330 19:19 18.03.2021
1330 Clouds 21 1011 100 10000 1.54 330 18:35 18.03.2021
1331 Clouds 21 1010 100 10000 1.54 310 17:51 18.03.2021
1332 Clouds 21 1010 100 10000 1.54 310 17:26 18.03.2021
1333 Clouds 21 1010 100 10000 1.9 125 16:49 18.03.2021
1334 Clouds 21 1010 100 10000 1.9 125 16:30 18.03.2021
1335 Clouds 22 1011 94 10000 2.01 120 15:49 18.03.2021
1336 Clouds 22 1011 94 10000 2.13 121 15:29 18.03.2021
1337 Clouds 22 1012 100 10000 2.13 121 14:58 18.03.2021
1338 Clouds 22 1012 100 10000 2.13 121 14:40 18.03.2021
1339 Clouds 23 1012 94 10000 1.54 310 13:54 18.03.2021
1340 Clouds 23 1012 94 10000 1.54 310 13:27 18.03.2021
1341 Clouds 23 1012 94 10000 2.78 121 12:46 18.03.2021
1342 Clouds 23 1012 94 10000 3.12 131 12:28 18.03.2021
1343 Clouds 23 1013 94 10000 1.54 340 11:55 18.03.2021
1344 Clouds 23 1013 94 10000 1.54 340 11:34 18.03.2021
1345 Clouds 24 1012 94 10000 3.37 136 10:49 18.03.2021
1346 Clouds 24 1012 94 10000 3.37 136 10:49 18.03.2021
1347 Clouds 24 1012 94 10000 3.52 137 10:28 18.03.2021
1348 Clouds 25 1012 83 10000 1.03 0 09:57 18.03.2021
1349 Clouds 25 1012 83 10000 1.03 0 09:30 18.03.2021
1350 Clouds 26 1011 78 10000 2.06 120 08:55 18.03.2021
1351 Clouds 26 1011 78 10000 2.06 120 08:33 18.03.2021
1352 Clouds 27 1010 78 10000 2.57 130 07:54 18.03.2021
1353 Clouds 27 1010 78 10000 2.57 130 07:54 18.03.2021
1354 Clouds 27 1010 78 10000 2.57 130 07:29 18.03.2021
1355 Clouds 28 1010 69 10000 3.09 140 06:37 18.03.2021
1356 Clouds 28 1010 69 10000 3.09 140 06:18 18.03.2021
1357 Clouds 30 1010 66 10000 4.12 130 03:41 18.03.2021
1358 Clouds 28 1012 74 10000 3.6 170 00:19 18.03.2021
1359 Clouds 27 1012 83 10000 3.54 113 22:59 17.03.2021
1360 Clouds 27 1012 83 10000 3.54 113 22:36 17.03.2021
1361 Clouds 23 1012 94 10000 1.54 0 22:18 17.03.2021
1362 Clouds 23 1012 94 10000 1.54 0 21:45 17.03.2021
1363 Clouds 23 1012 94 10000 1.54 0 21:27 17.03.2021
1364 Clouds 22 1012 94 10000 1.54 330 20:45 17.03.2021
1365 Clouds 22 1012 94 10000 1.54 330 20:25 17.03.2021
1366 Clouds 21 1011 100 10000 1.36 126 19:51 17.03.2021
1367 Clouds 21 1011 100 10000 1.07 105 19:25 17.03.2021
1368 Clouds 21 1011 100 10000 1.54 330 18:57 17.03.2021
1369 Clouds 21 1011 100 10000 1.54 330 18:39 17.03.2021
1370 Clouds 22 1011 94 10000 2.06 330 17:57 17.03.2021
1371 Clouds 22 1011 94 10000 2.06 330 17:27 17.03.2021
1372 Clouds 22 1011 100 10000 2.06 330 16:55 17.03.2021
1373 Clouds 22 1011 100 10000 2.06 330 16:37 17.03.2021
1374 Clouds 22 1011 100 10000 2.06 330 16:18 17.03.2021
1375 Clouds 22 1011 100 10000 1.54 330 15:37 17.03.2021
1376 Clouds 22 1012 100 10000 2.06 330 14:46 17.03.2021
1377 Clouds 22 1012 100 10000 2.06 330 14:27 17.03.2021
1378 Clouds 23 1012 94 10000 1.54 330 13:56 17.03.2021
1379 Clouds 23 1012 94 10000 1.54 330 13:37 17.03.2021
1380 Clouds 23 1012 94 10000 1.54 330 12:59 17.03.2021
1381 Clouds 23 1012 94 10000 1.54 330 12:34 17.03.2021
1382 Clouds 24 1013 94 10000 1.54 340 11:54 17.03.2021
1383 Clouds 24 1013 94 10000 1.54 340 11:27 17.03.2021
1384 Clouds 24 1012 94 10000 1.93 112 10:59 17.03.2021
1385 Clouds 24 1012 94 10000 1.93 112 10:40 17.03.2021
1386 Clouds 24 1012 88 10000 2.04 115 09:59 17.03.2021
1387 Clouds 24 1012 88 10000 2.04 115 09:41 17.03.2021
1388 Clouds 24 1012 88 10000 2.07 116 09:19 17.03.2021
1389 Clouds 24 1012 88 10000 2.07 116 09:19 17.03.2021
1390 Clouds 25 1011 83 10000 2.07 116 08:39 17.03.2021
1391 Clouds 25 1011 83 10000 2.29 120 08:20 17.03.2021
1392 Clouds 28 1010 69 10000 2.57 130 07:36 17.03.2021
1393 Clouds 29 1010 65 10000 2.57 150 06:47 17.03.2021
1394 Rain 30 1010 62 10000 3.09 170 04:27 17.03.2021
1395 Clouds 30 1010 58 10000 3.09 160 03:30 17.03.2021
1396 Clouds 28 1012 74 10000 2.06 160 00:43 17.03.2021
1397 Clouds 28 1012 74 10000 2.06 160 00:20 17.03.2021
1398 Clouds 28 1012 74 10000 1.54 150 23:22 16.03.2021
1399 Clouds 27 1012 78 10000 1.54 0 22:43 16.03.2021
1400 Clouds 27 1012 78 10000 1.54 0 22:25 16.03.2021
1401 Clouds 24 1012 88 10000 2.57 330 21:42 16.03.2021
1402 Clouds 24 1012 88 10000 2.57 330 21:24 16.03.2021
1403 Clouds 21 1011 100 10000 2.57 320 20:47 16.03.2021
1404 Clouds 21 1011 100 10000 2.57 320 20:19 16.03.2021
1405 Clouds 21 1011 94 10000 2.06 330 19:46 16.03.2021
1406 Clouds 21 1011 94 10000 2.06 330 19:27 16.03.2021
1407 Clouds 23 1011 80 10000 1.56 135 18:52 16.03.2021
1408 Clouds 21 1011 100 10000 2.06 320 18:30 16.03.2021
1409 Clouds 21 1011 100 10000 2.06 320 17:51 16.03.2021
1410 Clouds 21 1011 100 10000 2.06 320 17:33 16.03.2021
1411 Clouds 21 1011 100 10000 1.54 320 16:54 16.03.2021
1412 Clouds 21 1011 100 10000 1.54 320 16:54 16.03.2021
1413 Clouds 21 1011 100 10000 1.54 320 16:54 16.03.2021
1414 Clouds 21 1011 100 10000 1.54 320 16:54 16.03.2021
1415 Clouds 21 1011 100 10000 1.54 320 16:54 16.03.2021
1416 Clouds 21 1011 100 10000 1.54 320 16:54 16.03.2021
1417 Clouds 21 1011 100 10000 1.54 320 16:54 16.03.2021
1418 Clouds 21 1011 100 10000 1.54 320 16:31 16.03.2021
1419 Clouds 21 1012 100 10000 2.06 320 15:58 16.03.2021
1420 Clouds 21 1012 100 10000 2.06 320 15:37 16.03.2021
1421 Clouds 21 1012 100 10000 2.06 320 15:19 16.03.2021
1422 Clouds 21 1012 100 10000 2.06 320 15:19 16.03.2021
1423 Clouds 22 1012 94 10000 1.54 320 14:41 16.03.2021
1424 Clouds 22 1012 94 10000 1.54 320 14:22 16.03.2021
1425 Clouds 22 1012 94 10000 2.06 320 13:58 16.03.2021
1426 Clouds 22 1012 94 10000 2.06 320 13:29 16.03.2021
1427 Clouds 23 1012 94 10000 2.06 310 12:56 16.03.2021
1428 Clouds 23 1012 94 10000 2.06 310 12:56 16.03.2021
1429 Clouds 23 1012 94 10000 2.06 310 12:36 16.03.2021
1430 Clouds 23 1012 94 10000 1.54 0 11:56 16.03.2021
1431 Clouds 23 1012 94 10000 1.54 0 11:34 16.03.2021
1432 Clouds 25 1012 83 10000 3.03 157 10:49 16.03.2021
1433 Clouds 25 1011 83 10000 1.54 180 10:21 16.03.2021
1434 Clouds 25 1011 83 10000 1.54 180 09:40 16.03.2021
1435 Clouds 25 1011 83 10000 1.54 180 09:20 16.03.2021
1436 Clouds 25 1011 83 10000 2.06 180 08:53 16.03.2021
1437 Clouds 25 1011 83 10000 2.06 180 08:35 16.03.2021
1438 Clouds 27 1010 74 10000 2.06 190 07:51 16.03.2021
1439 Clouds 27 1010 74 10000 2.06 190 07:24 16.03.2021
1440 Clouds 28 1009 69 10000 2.57 190 06:37 16.03.2021
1441 Clouds 28 1009 69 10000 3.6 200 05:36 16.03.2021
1442 Clouds 27 1010 78 10000 4.12 210 02:46 16.03.2021
1443 Clouds 27 1010 78 10000 4.12 210 02:25 16.03.2021
1444 Clouds 27 1012 74 10000 1.03 0 00:38 16.03.2021
1445 Clouds 27 1012 74 10000 1.03 0 23:53 15.03.2021
1446 Clouds 25 1012 88 10000 1.54 320 23:19 15.03.2021
1447 Clouds 25 1012 88 10000 1.54 320 22:42 15.03.2021
1448 Clouds 25 1012 88 10000 1.54 320 22:24 15.03.2021
1449 Fog 23 1012 94 10000 1.03 0 21:48 15.03.2021
1450 Fog 23 1012 94 10000 1.03 0 21:27 15.03.2021
1451 Fog 23 1011 94 10000 1.03 0 20:47 15.03.2021
1452 Fog 23 1011 94 10000 1.03 0 20:28 15.03.2021
1453 Clouds 23 1011 94 10000 1.03 0 19:58 15.03.2021
1454 Clouds 23 1011 94 10000 1.03 0 19:39 15.03.2021
1455 Clouds 23 1011 94 10000 1.03 0 19:21 15.03.2021
1456 Clouds 22 1011 100 10000 0.82 100 18:42 15.03.2021
1457 Clouds 22 1011 100 10000 0.89 196 18:22 15.03.2021
1458 Clouds 22 1010 100 10000 1.03 0 17:52 15.03.2021
1459 Clouds 22 1010 100 10000 1.03 0 17:22 15.03.2021
1460 Clouds 22 1011 100 10000 1.03 0 16:44 15.03.2021
1461 Clouds 22 1011 100 10000 1.03 0 16:18 15.03.2021
1462 Clouds 22 1011 100 10000 2.57 340 15:39 15.03.2021
1463 Clouds 22 1011 100 10000 2.57 340 15:20 15.03.2021
1464 Clouds 22 1011 100 10000 1.54 280 14:41 15.03.2021
1465 Clouds 22 1011 100 10000 1.54 280 14:20 15.03.2021
1466 Clouds 23 1012 100 10000 2.57 330 13:45 15.03.2021
1467 Clouds 23 1012 100 10000 2.57 330 13:24 15.03.2021
1468 Clouds 23 1012 100 10000 2.06 240 12:46 15.03.2021
1469 Clouds 23 1012 100 10000 2.06 240 12:18 15.03.2021
1470 Clouds 23 1012 100 10000 1.54 240 11:46 15.03.2021
1471 Clouds 23 1012 100 10000 1.54 240 11:26 15.03.2021
1472 Clouds 23 1012 100 10000 1.03 0 10:44 15.03.2021
1473 Clouds 23 1012 100 10000 1.03 0 10:24 15.03.2021
1474 Clouds 23 1011 100 10000 1.03 260 09:48 15.03.2021
1475 Clouds 23 1011 100 10000 1.03 260 09:29 15.03.2021
1476 Clouds 23 1010 100 10000 1.03 0 08:46 15.03.2021
1477 Clouds 23 1010 100 10000 1.03 0 08:25 15.03.2021
1478 Clouds 23 1010 100 8000 3.6 230 07:42 15.03.2021
1479 Clouds 23 1010 100 8000 3.6 230 07:22 15.03.2021
1480 Clouds 27 1009 74 10000 4.63 70 05:42 15.03.2021
1481 Clouds 27 1010 78 10000 2.57 80 03:36 15.03.2021
1482 Clouds 24 1012 100 10000 2.06 40 00:50 15.03.2021
1483 Clouds 24 1013 94 10000 2.57 340 23:24 14.03.2021
1484 Clouds 23 1014 100 8000 1.03 0 22:57 14.03.2021
1485 Clouds 23 1014 100 8000 1.03 0 22:37 14.03.2021
1486 Clouds 23 1014 100 8000 1.03 0 22:18 14.03.2021
1487 Clouds 23 1014 100 8000 1.03 0 22:18 14.03.2021
1488 Clouds 23 1013 100 8000 1.03 0 21:38 14.03.2021
1489 Clouds 23 1013 100 8000 1.03 0 21:18 14.03.2021
1490 Clouds 23 1013 100 5000 4.85 112 20:41 14.03.2021
1491 Clouds 23 1012 100 9000 4.17 115 20:23 14.03.2021
1492 Clouds 23 1011 100 10000 1.54 120 19:42 14.03.2021
1493 Clouds 24 1011 88 10000 2.62 38 19:19 14.03.2021
1494 Clouds 23 1011 100 10000 2.62 38 18:37 14.03.2021
1495 Clouds 23 1011 100 10000 2.38 49 17:56 14.03.2021
1496 Clouds 23 1011 100 10000 2.38 49 17:37 14.03.2021
1497 Clouds 23 1011 100 10000 2.09 53 17:19 14.03.2021
1498 Clouds 23 1011 100 10000 2.09 53 16:40 14.03.2021
1499 Clouds 23 1011 100 10000 1.03 0 16:21 14.03.2021
1500 Clouds 23 1011 100 10000 1.03 0 15:48 14.03.2021
1501 Clouds 23 1012 100 9000 1.54 350 14:58 14.03.2021
1502 Clouds 23 1012 100 9000 1.54 350 14:58 14.03.2021
1503 Clouds 23 1012 100 9000 1.54 350 14:31 14.03.2021
1504 Clouds 23 1013 100 10000 1.54 320 13:55 14.03.2021
1505 Clouds 23 1013 100 10000 1.54 320 13:36 14.03.2021
1506 Clouds 23 1014 100 10000 1.03 0 12:59 14.03.2021
1507 Clouds 23 1014 100 10000 1.03 0 12:41 14.03.2021
1508 Clouds 23 1014 100 10000 1.03 0 12:22 14.03.2021
1509 Clouds 23 1014 100 10000 2.06 320 11:39 14.03.2021
1510 Clouds 23 1014 100 10000 2.06 320 11:19 14.03.2021
1511 Clouds 23 1014 100 10000 1.54 310 10:38 14.03.2021
1512 Clouds 23 1014 100 10000 1.54 310 10:19 14.03.2021
1513 Clouds 24 1013 94 8000 1.03 0 09:56 14.03.2021
1514 Clouds 24 1013 94 8000 1.03 0 09:38 14.03.2021
1515 Clouds 24 1013 94 8000 1.03 0 09:20 14.03.2021
1516 Clouds 24 1012 94 5000 1.03 0 08:36 14.03.2021
1517 Rain 24 1012 94 8000 1.03 0 07:56 14.03.2021
1518 Clouds 24 1012 94 8000 1.03 0 07:27 14.03.2021
1519 Clouds 24 1011 100 8000 1.03 0 05:34 14.03.2021
1520 Clouds 25 1012 100 5000 3.6 10 01:19 14.03.2021
1521 Clouds 27 1013 83 10000 2.06 180 00:20 14.03.2021
1522 Clouds 26 1013 94 10000 1.54 140 23:58 13.03.2021
1523 Clouds 26 1013 94 10000 1.54 140 23:38 13.03.2021
1524 Clouds 26 1013 94 10000 1.54 140 23:38 13.03.2021
1525 Clouds 26 1013 94 10000 1.03 130 23:18 13.03.2021
1526 Clouds 26 1013 94 10000 1.03 130 22:43 13.03.2021
1527 Clouds 24 1013 94 10000 1.54 270 21:50 13.03.2021
1528 Clouds 24 1013 94 10000 1.54 270 21:30 13.03.2021
1529 Rain 23 1012 100 10000 4 66 20:56 13.03.2021
1530 Clouds 23 1012 100 10000 4 66 20:32 13.03.2021
1531 Clouds 23 1011 100 10000 1.54 280 19:58 13.03.2021
1532 Clouds 23 1011 100 10000 1.54 280 19:37 13.03.2021
1533 Clouds 23 1011 100 10000 1.54 280 19:18 13.03.2021
1534 Clouds 23 1011 100 10000 1.54 280 19:18 13.03.2021
1535 Clouds 23 1011 100 10000 1.54 280 19:18 13.03.2021
1536 Clouds 23 1011 94 10000 1.54 320 18:40 13.03.2021
1537 Clouds 23 1011 94 10000 1.54 320 18:19 13.03.2021
1538 Rain 23 1011 94 10000 1.54 320 17:44 13.03.2021
1539 Clouds 23 1011 94 10000 1.54 320 17:25 13.03.2021
1540 Clouds 23 1011 100 10000 2.06 310 16:50 13.03.2021
1541 Clouds 23 1011 100 10000 2.06 310 16:29 13.03.2021
1542 Clouds 23 1011 94 10000 3.14 76 15:47 13.03.2021
1543 Clouds 23 1012 94 10000 3.09 320 14:54 13.03.2021
1544 Clouds 23 1012 94 10000 3.09 320 14:36 13.03.2021
1545 Clouds 24 1013 100 10000 2.06 320 13:54 13.03.2021
1546 Clouds 24 1013 100 10000 2.06 320 13:25 13.03.2021
1547 Clouds 24 1013 94 10000 1.54 330 12:47 13.03.2021
1548 Clouds 24 1013 94 10000 1.54 330 12:28 13.03.2021
1549 Clouds 24 1014 94 10000 2.06 320 11:51 13.03.2021
1550 Clouds 24 1014 94 10000 2.06 320 11:30 13.03.2021
1551 Clouds 24 1014 94 10000 2.06 320 11:30 13.03.2021
1552 Clouds 24 1013 94 10000 2.06 320 10:51 13.03.2021
1553 Clouds 24 1013 94 10000 2.06 320 10:51 13.03.2021
1554 Clouds 24 1013 94 10000 2.06 320 10:30 13.03.2021
1555 Clouds 24 1013 94 10000 1.03 0 09:47 13.03.2021
1556 Clouds 24 1013 94 10000 1.03 0 09:24 13.03.2021
1557 Clouds 24 1012 94 10000 2.57 290 08:44 13.03.2021
1558 Clouds 25 1011 88 10000 1.54 340 08:19 13.03.2021
1559 Clouds 25 1011 88 10000 1.54 340 07:54 13.03.2021
1560 Clouds 25 1011 94 10000 3.6 40 06:53 13.03.2021
1561 Rain 26 1012 83 10000 3.09 120 02:55 13.03.2021
1562 Rain 29 1013 74 10000 3.6 80 00:57 13.03.2021
1563 Rain 27 1013 74 10000 4.63 70 23:59 12.03.2021
1564 Rain 27 1013 74 10000 4.63 70 23:32 12.03.2021
1565 Rain 29 1013 74 10000 5.14 100 22:43 12.03.2021
1566 Clouds 29 1013 74 10000 5.14 100 22:23 12.03.2021
1567 Rain 26 1013 89 10000 4.44 76 21:45 12.03.2021
1568 Clouds 26 1013 89 10000 3.56 72 21:26 12.03.2021
1569 Clouds 24 1012 100 10000 3.56 72 20:56 12.03.2021
1570 Clouds 24 1012 100 10000 3.56 72 20:32 12.03.2021
1571 Clouds 24 1012 94 10000 1.54 270 19:59 12.03.2021
1572 Clouds 24 1012 94 10000 1.54 270 19:40 12.03.2021
1573 Clouds 24 1012 94 10000 1.54 270 19:21 12.03.2021
1574 Clouds 24 1011 94 10000 3.06 81 18:36 12.03.2021
1575 Clouds 24 1011 94 10000 3.1 82 17:50 12.03.2021
1576 Clouds 24 1011 94 10000 3.1 82 17:30 12.03.2021
1577 Clouds 24 1012 94 10000 2.06 270 16:59 12.03.2021
1578 Clouds 24 1012 94 10000 2.06 270 16:36 12.03.2021
1579 Clouds 24 1012 94 10000 2.06 330 15:52 12.03.2021
1580 Clouds 24 1012 94 10000 2.06 330 15:28 12.03.2021
1581 Clouds 24 1013 94 10000 2.06 330 14:48 12.03.2021
1582 Clouds 24 1013 100 10000 2.06 330 14:21 12.03.2021
1583 Clouds 24 1013 100 10000 2.06 330 13:44 12.03.2021
1584 Clouds 24 1013 100 10000 2.06 330 13:21 12.03.2021
1585 Clouds 25 1013 88 10000 3.36 87 12:56 12.03.2021
1586 Clouds 25 1013 88 10000 3.36 87 12:37 12.03.2021
1587 Clouds 25 1013 88 10000 3.83 84 12:19 12.03.2021
1588 Clouds 25 1013 88 10000 3.77 84 11:48 12.03.2021
1589 Clouds 25 1013 88 10000 3.91 85 11:20 12.03.2021
1590 Clouds 25 1013 94 10000 1.54 310 10:48 12.03.2021
1591 Clouds 25 1013 94 10000 1.54 310 10:23 12.03.2021
1592 Clouds 25 1013 88 10000 3.91 86 09:48 12.03.2021
1593 Clouds 25 1013 88 10000 4.16 83 09:19 12.03.2021
1594 Clouds 27 1012 78 10000 1.54 90 08:40 12.03.2021
1595 Rain 28 1011 74 10000 2.06 130 07:51 12.03.2021
1596 Clouds 28 1011 74 10000 2.06 130 07:29 12.03.2021
1597 Clouds 28 1011 74 10000 3.09 110 06:44 12.03.2021
1598 Clouds 28 1011 74 10000 4.63 110 05:52 12.03.2021
1599 Clouds 27 1013 83 10000 4.63 70 00:55 12.03.2021
1600 Clouds 27 1014 83 10000 5.14 90 23:56 11.03.2021
1601 Clouds 29 1014 74 10000 4.12 100 22:59 11.03.2021
1602 Clouds 29 1014 74 10000 4.12 100 22:59 11.03.2021
1603 Clouds 29 1014 74 10000 4.12 100 22:59 11.03.2021
1604 Clouds 29 1014 74 10000 4.12 100 22:39 11.03.2021
1605 Clouds 29 1014 74 10000 4.12 100 22:19 11.03.2021
1606 Clouds 25 1013 88 10000 0.51 310 21:46 11.03.2021
1607 Clouds 25 1013 88 10000 0.51 310 21:24 11.03.2021
1608 Clouds 22 1013 100 10000 1.03 0 20:49 11.03.2021
1609 Clouds 22 1013 100 10000 1.03 0 20:22 11.03.2021
1610 Clouds 22 1012 94 10000 1.54 320 19:53 11.03.2021
1611 Clouds 22 1012 94 10000 1.54 320 19:34 11.03.2021
1612 Clouds 22 1012 94 10000 1.03 0 18:53 11.03.2021
1613 Rain 22 1012 94 10000 1.03 0 18:53 11.03.2021
1614 Clouds 22 1012 94 10000 1.03 0 18:34 11.03.2021
1615 Clouds 22 1012 100 10000 1.54 320 17:53 11.03.2021
1616 Clouds 22 1012 100 10000 1.54 320 17:32 11.03.2021
1617 Clouds 23 1012 94 10000 1.54 320 16:34 11.03.2021
1618 Clouds 23 1013 94 10000 1.54 310 15:56 11.03.2021
1619 Clouds 23 1013 94 10000 1.54 310 15:37 11.03.2021
1620 Clouds 23 1013 94 10000 2.06 320 15:19 11.03.2021
1621 Clouds 23 1013 94 10000 2.06 320 14:43 11.03.2021
1622 Clouds 23 1014 94 10000 2.06 310 14:18 11.03.2021
1623 Clouds 23 1014 94 10000 2.06 310 13:43 11.03.2021
1624 Clouds 23 1014 94 10000 2.06 310 13:21 11.03.2021
1625 Clouds 24 1014 94 10000 2.51 56 12:50 11.03.2021
1626 Clouds 24 1014 94 10000 2.74 62 12:28 11.03.2021
1627 Clouds 24 1015 94 10000 2.74 62 11:46 11.03.2021
1628 Clouds 24 1015 94 10000 2.97 68 11:27 11.03.2021
1629 Clouds 25 1014 88 10000 2.97 68 10:50 11.03.2021
1630 Clouds 25 1014 88 10000 3.09 73 10:25 11.03.2021
1631 Clouds 25 1014 88 10000 3.09 73 09:50 11.03.2021
1632 Clouds 25 1014 88 10000 3.09 73 09:32 11.03.2021
1633 Clouds 26 1013 78 10000 1.03 0 08:49 11.03.2021
1634 Clouds 26 1013 78 10000 1.03 0 08:24 11.03.2021
1635 Clouds 28 1012 69 10000 3.09 80 07:44 11.03.2021
1636 Clouds 29 1012 61 10000 3.09 90 06:54 11.03.2021
1637 Clouds 29 1012 61 10000 3.09 90 06:36 11.03.2021
1638 Clouds 29 1012 61 10000 3.09 90 06:18 11.03.2021
1639 Clouds 30 1013 54 10000 4.12 100 02:20 11.03.2021
1640 -273 0 0 0 0 0 23:57 10.03.2021
1641 Clouds 28 1014 65 10000 3.6 110 23:22 10.03.2021
1642 Clouds 28 1014 65 10000 3.6 110 22:40 10.03.2021
1643 Clouds 25 1014 88 10000 1.03 0 21:57 10.03.2021
1644 Clouds 25 1014 88 10000 1.03 0 21:38 10.03.2021
1645 Clouds 25 1014 88 10000 1.03 0 21:20 10.03.2021
1646 Clouds 23 1014 94 10000 1.03 0 20:42 10.03.2021
1647 Clouds 23 1014 94 10000 1.03 0 20:21 10.03.2021
1648 Clouds 23 1013 94 10000 1.03 0 19:40 10.03.2021
1649 Clouds 23 1013 94 10000 1.03 0 19:21 10.03.2021
1650 Clouds 23 1013 94 10000 2.06 330 18:42 10.03.2021
1651 Clouds 23 1013 94 10000 2.06 330 18:23 10.03.2021
1652 Clouds 23 1013 94 10000 2.57 300 17:42 10.03.2021
1653 Clouds 23 1013 94 10000 2.57 300 17:21 10.03.2021
1654 Clouds 23 1013 94 10000 3.6 280 16:55 10.03.2021
1655 Clouds 23 1013 94 10000 3.6 280 16:37 10.03.2021
1656 Clouds 23 1013 94 10000 3.6 280 16:18 10.03.2021
1657 Clouds 23 1014 94 10000 3.6 280 15:39 10.03.2021
1658 Clouds 23 1014 94 10000 3.6 280 15:21 10.03.2021
1659 Clouds 23 1014 94 10000 2.06 290 14:38 10.03.2021
1660 Clouds 23 1014 94 10000 2.06 290 14:19 10.03.2021
1661 Clouds 24 1014 94 10000 2.57 310 13:35 10.03.2021
1662 Clouds 25 1014 83 10000 1.03 0 12:53 10.03.2021
1663 Clouds 25 1014 83 10000 1.03 0 12:32 10.03.2021
1664 Clouds 26 1014 83 10000 2.06 110 11:58 10.03.2021
1665 Clouds 26 1014 83 10000 2.06 110 11:30 10.03.2021
1666 Clouds 25 1013 88 10000 2.06 170 10:56 10.03.2021
1667 Clouds 25 1013 88 10000 2.06 170 10:34 10.03.2021
1668 Clouds 26 1013 78 10000 2.57 100 09:57 10.03.2021
1669 Clouds 26 1013 78 10000 2.57 100 09:39 10.03.2021
1670 Clouds 26 1013 78 10000 2.57 100 09:19 10.03.2021
1671 Clouds 27 1012 74 10000 3.6 110 08:45 10.03.2021
1672 Clouds 27 1012 74 10000 3.6 110 08:27 10.03.2021
1673 Clouds 27 1011 69 10000 4.63 100 07:46 10.03.2021
1674 Clouds 27 1011 69 10000 4.63 100 07:25 10.03.2021
1675 Clouds 28 1011 65 10000 5.14 110 06:52 10.03.2021
1676 Clouds 29 1012 65 10000 4.63 120 02:45 10.03.2021
1677 Clouds 28 1013 65 10000 3.6 110 00:39 10.03.2021
1678 Clouds 28 1014 65 10000 4.12 110 23:45 09.03.2021
1679 Clouds 28 1013 65 10000 3.6 120 22:56 09.03.2021
1680 Clouds 28 1013 65 10000 3.6 120 22:37 09.03.2021
1681 Clouds 28 1013 65 10000 3.6 120 22:18 09.03.2021
1682 Clouds 27 1013 78 10000 1.54 100 21:42 09.03.2021
1683 Clouds 26 1012 73 10000 1.03 0 21:20 09.03.2021
1684 Clouds 26 1012 73 10000 1.03 0 20:55 09.03.2021
1685 Clouds 26 1012 73 10000 1.03 0 20:36 09.03.2021
1686 Clouds 26 1012 73 10000 1.03 0 20:18 09.03.2021
1687 Clouds 25 1011 78 10000 2.06 130 19:43 09.03.2021
1688 Clouds 25 1011 78 10000 2.06 130 19:24 09.03.2021
1689 Clouds 25 1011 78 10000 1.54 130 18:40 09.03.2021
1690 Clouds 25 1011 78 10000 1.54 130 18:18 09.03.2021
1691 Clouds 25 1011 78 10000 1.54 120 17:45 09.03.2021
1692 Clouds 25 1011 78 10000 1.54 120 17:24 09.03.2021
1693 Clouds 25 1011 78 10000 3.09 140 16:40 09.03.2021
1694 Clouds 25 1011 78 10000 3.09 140 16:21 09.03.2021
1695 Clouds 25 1012 78 10000 1.03 0 15:56 09.03.2021
1696 Clouds 25 1012 78 10000 1.03 0 15:25 09.03.2021
1697 Clouds 25 1012 78 10000 2.06 140 14:49 09.03.2021
1698 Clouds 25 1012 78 10000 2.06 140 14:26 09.03.2021
1699 Clouds 24 1013 94 10000 4.53 129 13:42 09.03.2021
1700 Clouds 24 1013 94 10000 4.71 131 13:21 09.03.2021
1701 Clouds 25 1014 78 10000 1.03 0 12:54 09.03.2021
1702 Clouds 25 1014 78 10000 1.03 0 12:35 09.03.2021
1703 Clouds 25 1014 78 10000 1.03 0 11:43 09.03.2021
1704 Clouds 25 1014 78 10000 1.03 0 11:22 09.03.2021
1705 Clouds 25 1014 78 10000 1.03 0 10:58 09.03.2021
1706 Clouds 25 1014 78 10000 1.03 0 10:39 09.03.2021
1707 Clouds 25 1014 78 10000 1.03 0 10:20 09.03.2021
1708 Clouds 24 1013 88 10000 1.03 0 09:45 09.03.2021
1709 Clouds 24 1013 88 10000 1.03 0 09:26 09.03.2021
1710 Clouds 24 1013 88 10000 1.03 0 08:48 09.03.2021
1711 Clouds 24 1013 88 10000 1.03 0 08:29 09.03.2021
1712 Clouds 24 1012 94 8000 2.06 240 07:41 09.03.2021
1713 Clouds 24 1012 94 8000 2.06 240 07:22 09.03.2021
1714 Clouds 24 1011 94 8000 1.03 0 06:44 09.03.2021
1715 Clouds 25 1011 88 8000 2.06 260 05:48 09.03.2021
1716 Clouds 25 1012 94 8000 3.6 150 00:59 09.03.2021
1717 Clouds 25 1013 88 8000 3.09 130 23:45 08.03.2021
1718 Clouds 25 1013 88 8000 3.09 130 23:27 08.03.2021
1719 Rain 25 1012 94 5000 4.63 130 22:58 08.03.2021
1720 Clouds 25 1012 94 5000 4.63 130 22:40 08.03.2021
1721 Clouds 25 1012 94 5000 4.63 130 22:21 08.03.2021
1722 Clouds 25 1012 94 5000 3.6 120 21:43 08.03.2021
1723 Clouds 25 1012 94 5000 3.6 120 21:24 08.03.2021
1724 Clouds 25 1011 94 3000 2.57 170 20:39 08.03.2021
1725 Clouds 25 1011 94 5000 4.65 142 20:19 08.03.2021
1726 Clouds 25 1011 94 5000 4.65 142 19:38 08.03.2021
1727 Rain 25 1010 94 10000 1.03 180 18:48 08.03.2021
1728 Clouds 25 1010 94 10000 1.03 180 18:23 08.03.2021
1729 Clouds 24 1010 100 10000 1.54 230 17:57 08.03.2021
1730 Rain 24 1010 100 10000 1.54 230 17:39 08.03.2021
1731 Clouds 25 1010 94 10000 3.3 151 16:58 08.03.2021
1732 Clouds 25 1010 94 10000 3.3 151 16:33 08.03.2021
1733 Clouds 25 1011 94 10000 2.99 155 15:59 08.03.2021
1734 Clouds 25 1011 94 10000 2.99 155 15:31 08.03.2021
1735 Clouds 25 1013 94 10000 2.91 161 14:59 08.03.2021
1736 Clouds 25 1012 100 10000 2.71 154 14:21 08.03.2021
1737 Clouds 25 1012 100 10000 2.71 154 13:44 08.03.2021
1738 Clouds 24 1013 100 10000 2.06 310 13:22 08.03.2021
1739 Clouds 24 1013 100 10000 2.06 310 12:49 08.03.2021
1740 Clouds 24 1013 100 10000 2.06 310 12:29 08.03.2021
1741 Clouds 25 1013 94 10000 3.09 300 11:45 08.03.2021
1742 Clouds 25 1013 94 10000 3.09 300 11:20 08.03.2021
1743 Clouds 25 1013 94 10000 3.09 320 10:45 08.03.2021
1744 Clouds 25 1013 94 10000 3.09 320 10:27 08.03.2021
1745 Clouds 26 1012 94 10000 3.2 157 09:45 08.03.2021
1746 Clouds 26 1012 94 10000 3.54 162 09:23 08.03.2021
1747 Clouds 26 1011 94 10000 2.06 170 08:30 08.03.2021
1748 Clouds 28 1010 83 10000 1.03 0 07:48 08.03.2021
1749 Rain 28 1010 83 10000 1.03 0 07:20 08.03.2021
1750 Clouds 30 1009 74 10000 3.09 120 05:18 08.03.2021
1751 Clouds 31 1011 70 10000 2.06 180 01:26 08.03.2021
1752 Clouds 31 1012 70 10000 1.54 140 00:33 08.03.2021
1753 Clouds 31 1012 70 10000 1.03 300 23:41 07.03.2021
1754 Clouds 31 1012 70 10000 1.03 300 23:20 07.03.2021
1755 Clouds 29 1012 84 10000 1.54 330 22:44 07.03.2021
1756 Clouds 29 1012 84 10000 1.54 330 22:44 07.03.2021
1757 Clouds 29 1012 84 10000 1.54 330 22:44 07.03.2021
1758 Clouds 29 1012 84 10000 1.54 330 22:26 07.03.2021
1759 Clouds 27 1012 83 10000 2.06 330 21:46 07.03.2021
1760 Clouds 27 1012 83 10000 2.06 330 21:26 07.03.2021
1761 Clouds 25 1012 100 10000 1.54 0 20:50 07.03.2021
1762 Clouds 25 1012 100 10000 1.54 0 20:31 07.03.2021
1763 Clouds 25 1011 94 10000 1.54 0 19:58 07.03.2021
1764 Rain 25 1011 94 10000 1.54 0 19:39 07.03.2021
1765 Clouds 25 1011 94 10000 1.54 0 19:20 07.03.2021
1766 Clouds 25 1011 100 10000 1.03 0 18:47 07.03.2021
1767 Clouds 25 1010 100 10000 1.03 0 18:20 07.03.2021
1768 Clouds 25 1010 100 10000 1.03 0 17:44 07.03.2021
1769 Clouds 25 1011 100 10000 1.54 0 17:21 07.03.2021
1770 Clouds 25 1011 100 10000 1.54 0 16:59 07.03.2021
1771 Clouds 25 1011 100 10000 1.54 0 16:38 07.03.2021
1772 Clouds 25 1011 100 10000 1.54 0 16:19 07.03.2021
1773 Rain 25 1011 100 10000 1.54 330 15:45 07.03.2021
1774 Clouds 25 1011 100 10000 1.54 330 15:23 07.03.2021
1775 Clouds 25 1012 100 10000 1.54 340 14:37 07.03.2021
1776 Clouds 25 1012 100 10000 1.54 340 14:19 07.03.2021
1777 Clouds 25 1012 100 10000 2.06 330 13:41 07.03.2021
1778 Clouds 25 1012 100 10000 2.06 330 13:21 07.03.2021
1779 Clouds 25 1012 100 10000 1.54 30 12:46 07.03.2021
1780 Clouds 25 1012 100 10000 1.54 30 12:28 07.03.2021
1781 Rain 26 1012 94 10000 2.65 265 11:45 07.03.2021
1782 Clouds 26 1012 94 10000 1.54 350 11:22 07.03.2021
1783 Clouds 26 1012 94 10000 1.54 350 10:43 07.03.2021
1784 Clouds 26 1012 94 10000 1.54 350 10:25 07.03.2021
1785 Clouds 28 1011 83 10000 2.57 130 09:43 07.03.2021
1786 Clouds 28 1011 83 10000 2.57 130 09:23 07.03.2021
1787 Clouds 28 1011 83 10000 2.57 130 08:45 07.03.2021
1788 Clouds 28 1011 83 10000 2.57 130 08:24 07.03.2021
1789 Clouds 29 1010 84 10000 2.06 140 07:34 07.03.2021
1790 Clouds 31 1010 58 10000 3.6 220 02:42 07.03.2021
1791 Clouds 28 1011 83 10000 3.09 360 00:51 07.03.2021
1792 Clouds 28 1011 83 10000 3.09 360 23:46 06.03.2021
1793 Clouds 28 1011 83 10000 3.09 360 23:24 06.03.2021
1794 Clouds 27 1011 89 10000 2.06 280 22:48 06.03.2021
1795 Clouds 27 1011 89 10000 2.06 280 22:28 06.03.2021
1796 Clouds 25 1011 94 10000 1.54 300 21:58 06.03.2021
1797 Clouds 25 1011 94 10000 1.54 300 21:22 06.03.2021
1798 Clouds 24 1010 100 10000 2.43 338 20:52 06.03.2021
1799 Clouds 24 1010 100 10000 2.5 346 20:27 06.03.2021
1800 Clouds 24 1010 94 10000 1.03 20 19:49 06.03.2021
1801 Clouds 24 1010 94 10000 1.03 20 19:22 06.03.2021
1802 Clouds 24 1009 100 10000 1.54 300 18:54 06.03.2021
1803 Clouds 24 1009 100 10000 1.54 300 18:36 06.03.2021
1804 Clouds 24 1009 100 10000 1.54 260 18:18 06.03.2021
1805 Clouds 24 1009 100 10000 1.54 260 17:42 06.03.2021
1806 Clouds 24 1009 100 10000 1.03 280 17:21 06.03.2021
1807 Clouds 24 1009 100 10000 1.03 280 16:42 06.03.2021
1808 Clouds 24 1009 100 10000 1.03 280 16:24 06.03.2021
1809 Clouds 24 1010 100 10000 1.03 0 15:47 06.03.2021
1810 Clouds 24 1010 100 10000 1.03 0 15:29 06.03.2021
1811 Clouds 24 1010 100 10000 1.54 290 14:51 06.03.2021
1812 Clouds 24 1010 100 10000 1.54 290 14:28 06.03.2021
1813 Clouds 25 1010 94 10000 2.06 340 13:40 06.03.2021
1814 Clouds 25 1010 94 10000 2.06 340 13:20 06.03.2021
1815 Clouds 25 1011 88 10000 1.03 350 12:44 06.03.2021
1816 Clouds 25 1011 88 10000 1.03 350 12:19 06.03.2021
1817 Clouds 26 1010 83 10000 1.54 360 11:49 06.03.2021
1818 Clouds 26 1010 83 10000 1.54 360 11:21 06.03.2021
1819 Rain 27 1010 78 10000 2.06 30 10:48 06.03.2021
1820 Clouds 27 1010 78 10000 2.06 30 10:19 06.03.2021
1821 Clouds 28 1009 78 10000 1.54 20 09:42 06.03.2021
1822 Clouds 28 1009 78 10000 1.54 20 09:19 06.03.2021
1823 Clouds 29 1008 74 10000 1.03 280 08:39 06.03.2021
1824 Rain 30 1008 70 10000 1.03 0 07:57 06.03.2021
1825 Rain 30 1008 70 10000 1.03 0 07:24 06.03.2021
1826 Clouds 30 1008 70 10000 1.03 0 06:55 06.03.2021
1827 Clouds 32 1007 66 10000 3.6 360 05:34 06.03.2021
1828 Clouds 33 1008 58 10000 8.23 340 02:38 06.03.2021
1829 Clouds 31 1009 62 10000 4.63 10 00:47 06.03.2021
1830 Clouds 30 1009 70 10000 3.6 360 23:53 05.03.2021
1831 Rain 30 1009 70 10000 3.6 360 23:29 05.03.2021
1832 Rain 29 1009 79 10000 4.12 20 22:48 05.03.2021
1833 Rain 29 1009 79 10000 4.12 20 22:23 05.03.2021
1834 Clouds 27 1010 89 10000 2.06 360 21:54 05.03.2021
1835 Clouds 27 1010 89 10000 2.06 360 21:34 05.03.2021
1836 Clouds 25 1010 94 10000 1.03 0 20:55 05.03.2021
1837 Rain 25 1010 94 10000 1.03 0 20:37 05.03.2021
1838 Clouds 25 1010 94 10000 1.03 0 20:19 05.03.2021
1839 Clouds 24 1009 94 10000 1.03 0 19:27 05.03.2021
1840 Clouds 24 1009 94 10000 1.03 0 18:59 05.03.2021
1841 Clouds 24 1009 94 10000 1.03 0 18:41 05.03.2021
1842 Clouds 24 1009 94 10000 1.03 0 18:21 05.03.2021
1843 Clouds 25 1008 94 10000 1.03 0 17:36 05.03.2021
1844 Clouds 25 1008 94 10000 1.54 80 16:51 05.03.2021
1845 Clouds 25 1008 94 10000 1.54 80 16:25 05.03.2021
1846 Clouds 25 1009 94 10000 1.03 0 15:59 05.03.2021
1847 Clouds 25 1009 94 10000 1.03 0 15:41 05.03.2021
1848 Clouds 25 1009 94 10000 1.03 0 15:22 05.03.2021
1849 Clouds 25 1009 88 10000 2.57 10 14:38 05.03.2021
1850 Clouds 26 1010 83 10000 3.09 10 13:59 05.03.2021
1851 Clouds 26 1010 83 10000 3.09 10 13:59 05.03.2021
1852 Rain 26 1010 83 10000 3.09 10 13:22 05.03.2021
1853 Clouds 26 1010 89 10000 1.03 360 12:55 05.03.2021
1854 Clouds 27 1010 83 10000 2.06 10 11:58 05.03.2021
1855 Clouds 27 1010 83 10000 2.06 10 11:37 05.03.2021
1856 Clouds 27 1009 83 10000 2.57 10 11:18 05.03.2021
1857 Clouds 27 1009 83 10000 2.57 10 10:41 05.03.2021
1858 Clouds 27 1009 83 10000 2.57 10 10:23 05.03.2021
1859 Clouds 28 1009 74 10000 1.54 10 09:49 05.03.2021
1860 Clouds 28 1009 74 10000 1.54 10 09:26 05.03.2021
1861 Clouds 29 1009 70 10000 3.09 360 08:43 05.03.2021
1862 Clouds 29 1009 70 10000 3.09 360 08:24 05.03.2021
1863 Clouds 30 1008 66 10000 3.09 340 07:44 05.03.2021
1864 Clouds 30 1008 66 10000 3.09 340 07:20 05.03.2021
1865 Clouds 32 1007 55 10000 5.14 350 06:31 05.03.2021
1866 Clouds 30 1009 79 10000 6.69 40 01:59 05.03.2021
1867 Clouds 30 1010 79 10000 4.63 20 00:46 05.03.2021
1868 Clouds 29 1010 79 10000 3.09 350 23:37 04.03.2021
1869 Clouds 28 1011 83 10000 2.06 330 22:40 04.03.2021
1870 Clouds 28 1011 83 10000 2.06 330 22:22 04.03.2021
1871 Clouds 26 1010 89 10000 1.54 350 21:47 04.03.2021
1872 Clouds 26 1010 89 10000 1.54 350 21:27 04.03.2021
1873 Clouds 24 1010 94 10000 3.97 5 20:41 04.03.2021
1874 Clouds 23 1009 100 10000 1.54 360 20:21 04.03.2021
1875 Clouds 23 1009 100 10000 1.54 360 19:54 04.03.2021
1876 Rain 23 1009 100 10000 1.54 360 19:30 04.03.2021
1877 Clouds 23 1009 100 10000 3.27 352 18:59 04.03.2021
1878 Clouds 23 1009 100 10000 3.33 355 18:59 04.03.2021
1879 Clouds 23 1009 100 10000 3.33 355 18:59 04.03.2021
1880 Clouds 23 1009 100 10000 3.33 355 18:38 04.03.2021
1881 Rain 23 1009 100 10000 3.21 348 17:59 04.03.2021
1882 Rain 23 1009 100 10000 3.21 348 17:40 04.03.2021
1883 Clouds 23 1009 100 10000 4 360 17:20 04.03.2021
1884 Rain 24 1008 94 10000 4 360 16:44 04.03.2021
1885 Rain 24 1008 94 10000 4 360 16:44 04.03.2021
1886 Rain 24 1008 94 10000 4 360 16:44 04.03.2021
1887 Clouds 24 1008 94 10000 4.27 357 16:24 04.03.2021
1888 Clouds 24 1009 94 10000 4.27 357 15:48 04.03.2021
1889 Clouds 24 1009 94 10000 4.4 358 15:29 04.03.2021
1890 Clouds 24 1010 94 10000 1.54 10 14:44 04.03.2021
1891 Clouds 24 1010 94 10000 1.54 10 14:18 04.03.2021
1892 Clouds 24 1010 100 10000 4.27 356 13:42 04.03.2021
1893 Clouds 24 1010 100 10000 3.66 358 13:22 04.03.2021
1894 Clouds 25 1011 94 10000 1.03 0 12:42 04.03.2021
1895 Rain 25 1011 94 10000 1.03 0 12:18 04.03.2021
1896 Clouds 25 1011 94 10000 1.03 0 11:40 04.03.2021
1897 Rain 25 1011 94 10000 1.03 0 11:20 04.03.2021
1898 Clouds 25 1011 94 10000 1.03 0 10:37 04.03.2021
1899 Clouds 25 1011 94 10000 1.03 0 10:18 04.03.2021
1900 Clouds 25 1010 94 10000 2.75 347 09:28 04.03.2021
1901 Clouds 26 1010 89 10000 1.03 0 08:53 04.03.2021
1902 Clouds 26 1010 89 10000 1.03 0 08:31 04.03.2021
1903 Clouds 26 1009 89 10000 1.03 0 07:45 04.03.2021
1904 Clouds 25 1009 94 10000 1.03 0 06:50 04.03.2021
1905 Clouds 25 1009 94 10000 1.03 0 06:21 04.03.2021
1906 Clouds 32 1008 58 10000 4.12 20 02:39 04.03.2021
1907 Clouds 32 1010 62 10000 5.14 340 00:31 04.03.2021
1908 Clouds 28 1010 83 10000 3.09 340 22:39 03.03.2021
1909 Clouds 26 1010 89 10000 4.63 320 22:21 03.03.2021
1910 Clouds 26 1010 89 10000 4.63 320 21:41 03.03.2021
1911 Clouds 26 1010 89 10000 4.63 320 21:23 03.03.2021
1912 Clouds 25 1010 94 10000 2.57 320 20:55 03.03.2021
1913 Clouds 25 1010 94 10000 2.57 320 20:36 03.03.2021
1914 Clouds 25 1010 94 10000 2.57 320 20:36 03.03.2021
1915 Clouds 25 1010 94 10000 2.57 320 20:36 03.03.2021
1916 Clouds 24 1010 94 10000 2.22 350 19:54 03.03.2021
1917 Clouds 24 1010 94 10000 2.22 350 19:36 03.03.2021
1918 Clouds 24 1009 100 10000 2.06 350 19:18 03.03.2021
1919 Rain 24 1009 100 10000 2.06 350 18:40 03.03.2021
1920 Clouds 25 1009 94 10000 2.04 355 17:58 03.03.2021
1921 Clouds 25 1009 94 10000 2.06 360 17:22 03.03.2021
1922 Clouds 25 1009 94 10000 2.06 360 16:58 03.03.2021
1923 Clouds 25 1009 94 10000 2.06 360 16:28 03.03.2021
1924 Clouds 25 1010 88 10000 2.06 340 15:59 03.03.2021
1925 Clouds 25 1010 88 10000 2.06 340 15:33 03.03.2021
1926 Clouds 25 1010 94 10000 2.06 20 14:51 03.03.2021
1927 Clouds 25 1010 94 10000 2.06 20 14:27 03.03.2021
1928 Clouds 25 1011 94 10000 2.06 320 13:47 03.03.2021
1929 Clouds 25 1011 94 10000 2.06 320 13:28 03.03.2021
1930 Clouds 26 1011 94 10000 2.14 340 12:43 03.03.2021
1931 Clouds 26 1011 94 10000 2.39 356 12:23 03.03.2021
1932 Clouds 27 1011 83 10000 1.03 0 11:45 03.03.2021
1933 Clouds 27 1011 83 10000 1.03 0 11:27 03.03.2021
1934 Clouds 27 1011 83 10000 2.06 20 10:45 03.03.2021
1935 Clouds 27 1011 83 10000 2.06 20 10:22 03.03.2021
1936 Clouds 27 1011 89 10000 1.03 0 09:43 03.03.2021
1937 Clouds 28 1010 83 10000 2.06 30 08:54 03.03.2021
1938 Clouds 28 1010 83 10000 2.06 30 08:25 03.03.2021
1939 Rain 28 1009 83 10000 1.54 120 07:58 03.03.2021
1940 Rain 28 1009 83 10000 1.54 120 07:34 03.03.2021
1941 Clouds 29 1009 79 10000 2.06 60 06:45 03.03.2021
1942 Clouds 28 1009 78 10000 1.54 130 05:44 03.03.2021
1943 Clouds 29 1009 74 10000 1.54 270 04:48 03.03.2021
1944 Clouds 29 1009 74 10000 1.54 270 04:24 03.03.2021
1945 Clouds 28 1011 74 10000 4.12 360 00:34 03.03.2021
1946 Clouds 27 1011 78 10000 3.6 340 23:35 02.03.2021
1947 Clouds 26 1011 83 10000 2.57 340 22:53 02.03.2021
1948 Clouds 26 1011 83 10000 2.57 340 22:22 02.03.2021
1949 Clouds 25 1011 88 10000 1.03 0 21:54 02.03.2021
1950 Clouds 25 1011 88 10000 1.03 0 21:36 02.03.2021
1951 Clouds 24 1011 94 10000 1.03 0 20:56 02.03.2021
1952 Clouds 24 1011 94 10000 1.03 0 20:38 02.03.2021
1953 Clouds 24 1011 94 10000 1.03 0 20:20 02.03.2021
1954 Rain 23 1010 100 10000 1.03 0 19:46 02.03.2021
1955 Rain 23 1010 100 10000 1.03 0 19:28 02.03.2021
1956 Clouds 23 1009 100 10000 3.12 0 18:42 02.03.2021
1957 Clouds 23 1009 100 10000 2.7 351 18:22 02.03.2021
1958 Clouds 23 1009 100 10000 2.7 351 17:57 02.03.2021
1959 Clouds 23 1009 100 10000 2.7 351 17:39 02.03.2021
1960 Rain 23 1009 100 10000 2.78 351 17:19 02.03.2021
1961 Clouds 24 1009 94 10000 2.78 351 16:44 02.03.2021
1962 Clouds 24 1009 88 10000 2.63 345 15:54 02.03.2021
1963 Clouds 24 1009 88 10000 2.47 339 15:27 02.03.2021
1964 Rain 24 1009 88 10000 2.06 340 14:44 02.03.2021
1965 Clouds 24 1009 88 10000 2.06 340 14:18 02.03.2021
1966 Clouds 24 1009 88 10000 2.06 340 14:18 02.03.2021
1967 Rain 24 1010 83 10000 1.54 330 13:44 02.03.2021
1968 Clouds 24 1010 83 10000 1.54 330 13:23 02.03.2021
1969 Rain 25 1010 83 10000 3.6 330 12:45 02.03.2021
1970 Clouds 25 1010 83 10000 3.6 330 12:25 02.03.2021
1971 Clouds 25 1010 88 10000 3.09 340 11:45 02.03.2021
1972 Clouds 25 1010 88 10000 2.06 320 11:22 02.03.2021
1973 Clouds 25 1010 88 10000 2.06 320 10:49 02.03.2021
1974 Clouds 25 1010 88 10000 2.06 320 10:25 02.03.2021
1975 Clouds 25 1009 94 10000 3.6 30 09:41 02.03.2021
1976 Clouds 26 1009 89 10000 3.82 4 09:22 02.03.2021
1977 Clouds 26 1009 89 10000 3.82 4 08:40 02.03.2021
1978 Clouds 27 1008 83 10000 2.57 340 08:22 02.03.2021
1979 Clouds 27 1008 83 10000 2.57 340 07:40 02.03.2021
1980 Clouds 27 1008 78 10000 2.57 350 06:36 02.03.2021
1981 Clouds 28 1007 78 10000 4.12 30 05:46 02.03.2021
1982 Clouds 28 1007 78 10000 4.12 30 05:46 02.03.2021
1983 Clouds 28 1007 78 10000 4.12 30 05:28 02.03.2021
1984 Clouds 27 1008 83 10000 3.6 340 01:47 02.03.2021
1985 Clouds 27 1008 83 10000 3.6 340 01:28 02.03.2021
1986 Clouds 27 1008 83 10000 3.6 340 01:28 02.03.2021
1987 Clouds 26 1008 83 10000 3.09 340 00:52 02.03.2021
1988 Clouds 25 1009 94 10000 2.57 330 23:29 01.03.2021
1989 Clouds 25 1009 83 10000 4.63 350 22:43 01.03.2021
1990 Clouds 25 1009 83 10000 4.63 350 22:23 01.03.2021
1991 Clouds 24 1008 88 10000 3.6 300 21:51 01.03.2021
1992 Clouds 24 1008 88 10000 3.6 300 21:24 01.03.2021
1993 Clouds 24 1007 88 10000 4.63 340 20:49 01.03.2021
1994 Clouds 24 1007 88 10000 4.63 340 20:28 01.03.2021
1995 Clouds 24 1008 94 10000 4.12 330 19:55 01.03.2021
1996 Clouds 24 1008 94 10000 4.12 330 19:33 01.03.2021
1997 Clouds 24 1007 94 10000 5.14 320 18:46 01.03.2021
1998 Clouds 24 1007 94 10000 5.14 320 18:25 01.03.2021
1999 Clouds 24 1007 94 10000 3.6 330 17:58 01.03.2021
2000 Clouds 24 1007 94 10000 3.6 330 17:39 01.03.2021
2001 Clouds 24 1007 94 10000 3.6 330 17:19 01.03.2021
2002 Clouds 24 1007 94 10000 3.6 330 17:19 01.03.2021
2003 Clouds 25 1007 88 10000 2.57 300 16:43 01.03.2021
2004 Clouds 25 1007 88 10000 2.57 300 16:24 01.03.2021
2005 Clouds 24 1007 94 10000 1.54 310 15:41 01.03.2021
2006 Rain 24 1007 94 10000 1.54 310 15:20 01.03.2021
2007 Rain 25 1008 88 10000 4.12 10 14:44 01.03.2021
2008 Clouds 25 1008 88 10000 4.12 10 14:26 01.03.2021
2009 Rain 26 1008 83 10000 3.09 30 13:40 01.03.2021
2010 Rain 26 1008 83 10000 3.09 30 13:22 01.03.2021
2011 Rain 26 1008 83 10000 3.09 30 13:21 01.03.2021
2012 Rain 26 1009 83 10000 2.06 40 12:51 01.03.2021
2013 Clouds 26 1009 83 10000 2.06 40 12:30 01.03.2021
2014 Clouds 26 1008 83 10000 2.57 360 11:58 01.03.2021
2015 Rain 26 1008 83 10000 2.57 360 11:34 01.03.2021
2016 Rain 26 1008 89 10000 2.06 20 10:44 01.03.2021
2017 Clouds 26 1008 89 10000 2.06 20 10:23 01.03.2021
2018 Rain 26 1007 89 10000 3.09 20 09:56 01.03.2021
2019 Rain 26 1007 89 10000 3.09 20 09:38 01.03.2021
2020 Rain 26 1007 89 10000 3.09 20 09:20 01.03.2021
2021 Clouds 27 1007 83 10000 2.57 40 08:44 01.03.2021
2022 Clouds 28 1006 74 10000 1.54 40 07:44 01.03.2021
2023 Clouds 28 1006 74 10000 3.6 350 06:51 01.03.2021
2024 Clouds 29 1006 74 10000 5.14 360 02:47 01.03.2021
2025 Clouds 28 1007 78 10000 4.12 360 00:37 01.03.2021
2026 Clouds 27 1008 83 10000 2.06 360 23:26 28.02.2021
2027 Clouds 26 1008 89 10000 1.54 290 22:45 28.02.2021
2028 Clouds 26 1008 89 10000 1.54 290 22:21 28.02.2021
2029 Clouds 26 1008 89 10000 1.54 290 22:21 28.02.2021
2030 Clouds 25 1008 94 10000 0.51 0 21:48 28.02.2021
2031 Clouds 24 1009 94 8000 1.03 0 21:25 28.02.2021
2032 Clouds 23 1008 100 8000 1.54 350 20:52 28.02.2021
2033 Rain 23 1008 100 8000 1.54 350 20:34 28.02.2021
2034 Drizzle 23 1007 100 10000 1.03 0 19:47 28.02.2021
2035 Drizzle 23 1007 100 10000 1.03 0 19:28 28.02.2021
2036 Clouds 23 1007 94 10000 1.03 0 18:47 28.02.2021
2037 Rain 23 1007 94 10000 1.03 0 18:28 28.02.2021
2038 Clouds 23 1007 94 10000 1.03 0 17:58 28.02.2021
2039 Rain 23 1007 94 10000 2.57 340 17:38 28.02.2021
2040 Clouds 23 1007 94 10000 2.57 340 17:20 28.02.2021
2041 Clouds 23 1007 100 10000 1.03 0 16:48 28.02.2021
2042 Clouds 23 1007 100 10000 1.03 0 16:30 28.02.2021
2043 Clouds 23 1007 100 10000 1.03 0 16:29 28.02.2021
2044 Clouds 23 1008 100 10000 1.03 0 15:52 28.02.2021
2045 Clouds 23 1008 100 10000 1.03 0 15:28 28.02.2021
2046 Clouds 23 1008 100 10000 1.03 0 14:58 28.02.2021
2047 Clouds 23 1008 100 10000 1.03 0 14:35 28.02.2021
2048 Clouds 23 1008 100 10000 1.03 0 13:59 28.02.2021
2049 Clouds 23 1009 100 10000 2.06 330 13:38 28.02.2021
2050 Clouds 23 1009 100 10000 2.06 330 13:19 28.02.2021
2051 Clouds 23 1008 100 10000 1.54 340 12:53 28.02.2021
2052 Clouds 23 1008 100 10000 1.54 340 12:35 28.02.2021
2053 Clouds 23 1008 100 10000 1.54 340 11:57 28.02.2021
2054 Clouds 23 1008 100 10000 2.21 353 11:39 28.02.2021
2055 Clouds 23 1008 100 10000 2.09 1 11:19 28.02.2021
2056 Clouds 24 1008 94 10000 1.03 0 10:40 28.02.2021
2057 Clouds 24 1008 94 10000 1.03 0 10:20 28.02.2021
2058 Clouds 24 1007 94 8000 1.03 0 09:39 28.02.2021
2059 Clouds 24 1007 94 8000 1.03 0 09:20 28.02.2021
2060 Clouds 24 1007 100 8000 2.06 330 08:43 28.02.2021
2061 Clouds 24 1007 100 8000 2.06 330 08:24 28.02.2021
2062 Clouds 25 1006 94 10000 4.12 50 07:46 28.02.2021
2063 Clouds 25 1006 94 10000 4.12 50 07:25 28.02.2021
2064 Clouds 26 1005 89 10000 3.6 50 06:24 28.02.2021
2065 Clouds 25 1005 94 10000 3.6 190 05:20 28.02.2021
2066 Clouds 29 1006 74 10000 3.6 310 02:28 28.02.2021
2067 Clouds 27 1007 83 10000 2.06 290 01:28 28.02.2021
2068 Clouds 25 1007 88 10000 2.57 340 00:40 28.02.2021
2069 Clouds 25 1007 94 10000 2.57 350 23:51 27.02.2021
2070 Clouds 25 1007 94 10000 3.09 10 23:22 27.02.2021
2071 Clouds 25 1007 94 10000 3.09 10 22:50 27.02.2021
2072 Clouds 25 1007 94 10000 3.09 10 22:24 27.02.2021
2073 Clouds 25 1006 94 10000 3.72 344 21:59 27.02.2021
2074 Clouds 25 1006 94 10000 3.72 344 21:38 27.02.2021
2075 Clouds 24 1006 94 10000 2.06 320 20:56 27.02.2021
2076 Clouds 24 1006 94 10000 2.06 320 20:38 27.02.2021
2077 Clouds 24 1006 94 10000 2.06 320 20:18 27.02.2021
2078 Clouds 24 1006 94 10000 3.11 344 19:41 27.02.2021
2079 Clouds 24 1006 94 10000 3.48 343 19:23 27.02.2021
2080 Clouds 24 1005 94 10000 2.88 32 18:40 27.02.2021
2081 Clouds 24 1005 94 10000 1.98 21 18:20 27.02.2021
2082 Clouds 24 1004 94 10000 2.57 320 17:43 27.02.2021
2083 Clouds 24 1004 94 10000 2.57 320 17:20 27.02.2021
2084 Clouds 24 1004 94 10000 2.57 320 17:20 27.02.2021
2085 Clouds 24 1005 100 10000 1.35 26 16:51 27.02.2021
2086 Clouds 24 1005 100 10000 1.35 26 16:31 27.02.2021
2087 Clouds 24 1004 100 10000 1.29 39 15:53 27.02.2021
2088 Clouds 24 1004 100 10000 1.29 39 15:33 27.02.2021
2089 Clouds 24 1006 100 10000 1.93 48 14:48 27.02.2021
2090 Rain 24 1006 100 10000 1.93 48 14:30 27.02.2021
2091 Clouds 24 1006 100 10000 2.53 41 13:49 27.02.2021
2092 Clouds 24 1006 100 10000 2.64 41 13:27 27.02.2021
2093 Clouds 24 1008 100 10000 1.03 0 12:52 27.02.2021
2094 Clouds 24 1008 100 10000 1.03 0 12:28 27.02.2021
2095 Clouds 24 1008 100 10000 1.03 0 11:56 27.02.2021
2096 Clouds 24 1007 100 10000 3.6 120 11:38 27.02.2021
2097 Clouds 24 1007 100 10000 3.6 120 11:18 27.02.2021
2098 Rain 25 1007 94 10000 2.57 190 10:41 27.02.2021
2099 Clouds 25 1007 94 10000 2.57 190 10:18 27.02.2021
2100 Clouds 25 1007 94 10000 2.57 190 10:18 27.02.2021
2101 Clouds 25 1006 94 10000 3.09 140 09:43 27.02.2021
2102 Clouds 25 1006 94 10000 3.09 140 09:21 27.02.2021
2103 Clouds 24 1006 94 10000 1.03 0 08:39 27.02.2021
2104 Clouds 24 1006 94 10000 1.03 0 08:19 27.02.2021
2105 Clouds 25 1005 94 10000 1.03 0 07:34 27.02.2021
2106 Clouds 26 1005 94 10000 5.66 50 02:56 27.02.2021
2107 Clouds 27 1006 94 10000 3.6 350 00:35 27.02.2021
2108 Clouds 28 1006 74 10000 3.09 30 23:51 26.02.2021
2109 Clouds 28 1006 74 10000 3.09 30 23:25 26.02.2021
2110 Clouds 27 1006 78 10000 1.03 0 22:42 26.02.2021
2111 Clouds 27 1006 78 10000 1.03 0 22:23 26.02.2021
2112 Clouds 25 1006 88 10000 3.75 92 21:37 26.02.2021
2113 Clouds 23 1006 94 10000 1.03 310 20:59 26.02.2021
2114 Clouds 23 1006 94 10000 1.03 310 20:41 26.02.2021
2115 Clouds 23 1006 94 10000 1.03 310 20:20 26.02.2021
2116 Clouds 23 1006 94 10000 1.54 350 19:27 26.02.2021
2117 Clouds 22 1005 100 10000 1.54 310 18:57 26.02.2021
2118 Clouds 22 1005 100 10000 1.54 310 18:38 26.02.2021
2119 Clouds 22 1005 100 10000 1.54 310 18:19 26.02.2021
2120 Clouds 22 1005 100 10000 1.54 320 17:38 26.02.2021
2121 Clouds 22 1005 100 10000 1.54 320 17:19 26.02.2021
2122 Clouds 22 1005 100 10000 2.06 330 16:48 26.02.2021
2123 Clouds 22 1005 100 10000 2.06 330 16:30 26.02.2021
2124 Clouds 23 1005 94 10000 3.08 76 15:48 26.02.2021
2125 Clouds 23 1005 94 10000 3.22 78 15:29 26.02.2021
2126 Clouds 23 1006 100 10000 3.22 78 14:59 26.02.2021
2127 Clouds 23 1006 100 10000 3.22 78 14:37 26.02.2021
2128 Clouds 24 1006 94 10000 2.06 340 14:18 26.02.2021
2129 Clouds 24 1006 94 10000 2.06 340 13:39 26.02.2021
2130 Clouds 24 1006 94 10000 2.06 340 13:20 26.02.2021
2131 Clouds 24 1006 94 10000 2.06 340 13:20 26.02.2021
2132 Clouds 23 1007 100 10000 3.08 74 12:33 26.02.2021
2133 Clouds 24 1007 100 10000 3.19 73 11:47 26.02.2021
2134 Clouds 24 1007 100 10000 2.99 73 11:20 26.02.2021
2135 Clouds 24 1006 94 10000 2.06 300 10:44 26.02.2021
2136 Clouds 25 1006 88 10000 2.57 280 09:49 26.02.2021
2137 Clouds 25 1006 88 10000 2.57 280 09:29 26.02.2021
2138 Clouds 27 1005 78 10000 2.06 10 08:41 26.02.2021
2139 Clouds 27 1005 78 10000 2.06 10 08:18 26.02.2021
2140 Clouds 27 1004 78 10000 3.09 110 07:27 26.02.2021
2141 Rain 26 1004 83 10000 3.09 70 06:35 26.02.2021
2142 Rain 29 1003 70 10000 5.14 120 05:21 26.02.2021
2143 Clouds 30 1004 62 10000 5.66 100 02:54 26.02.2021
2144 Clouds 29 1005 70 10000 5.14 120 00:36 26.02.2021
2145 Clouds 29 1006 70 10000 6.17 110 23:41 25.02.2021
2146 Clouds 29 1006 70 10000 6.17 110 23:21 25.02.2021
2147 Clouds 29 1006 70 10000 4.63 110 22:42 25.02.2021
2148 Clouds 25 1006 94 10000 2.06 270 21:56 25.02.2021
2149 Clouds 25 1006 94 10000 2.06 270 21:34 25.02.2021
2150 Clouds 24 1005 100 10000 1.54 300 20:57 25.02.2021
2151 Clouds 24 1005 100 10000 1.54 300 20:37 25.02.2021
2152 Clouds 24 1005 100 10000 1.54 300 20:19 25.02.2021
2153 Clouds 24 1005 100 10000 1.54 290 19:49 25.02.2021
2154 Clouds 24 1005 100 10000 1.54 290 19:21 25.02.2021
2155 Clouds 24 1005 94 10000 2.06 300 18:44 25.02.2021
2156 Clouds 24 1005 94 10000 2.06 300 18:18 25.02.2021
2157 Clouds 24 1004 94 10000 2.66 102 17:42 25.02.2021
2158 Rain 24 1004 94 10000 2.84 99 17:22 25.02.2021
2159 Clouds 24 1004 94 10000 2.84 99 16:34 25.02.2021
2160 Clouds 25 1006 94 10000 1.03 340 15:51 25.02.2021
2161 Clouds 25 1006 94 10000 1.03 340 15:28 25.02.2021
2162 Clouds 25 1006 94 10000 2.35 107 14:40 25.02.2021
2163 Rain 25 1006 94 10000 2.61 105 14:20 25.02.2021
2164 Clouds 25 1006 94 10000 1.03 0 13:44 25.02.2021
2165 Clouds 25 1006 94 10000 1.03 0 13:23 25.02.2021
2166 Clouds 25 1007 94 10000 1.54 260 12:39 25.02.2021
2167 Clouds 25 1007 94 10000 1.54 310 12:20 25.02.2021
2168 Clouds 25 1007 94 10000 1.54 310 11:43 25.02.2021
2169 Clouds 26 1007 89 10000 3.62 105 10:53 25.02.2021
2170 Clouds 26 1007 89 10000 3.62 105 10:35 25.02.2021
2171 Rain 27 1006 78 10000 3.71 106 09:48 25.02.2021
2172 Clouds 27 1006 78 10000 3.86 104 09:26 25.02.2021
2173 Clouds 28 1006 74 10000 2.06 120 08:46 25.02.2021
2174 Clouds 28 1005 74 10000 3.6 110 08:21 25.02.2021
2175 Clouds 28 1005 74 10000 3.6 110 07:42 25.02.2021
2176 Clouds 29 1004 70 10000 4.12 110 06:58 25.02.2021
2177 Clouds 30 1004 62 10000 5.14 120 05:29 25.02.2021
2178 Clouds 30 1006 70 10000 4.63 110 01:50 25.02.2021
2179 Clouds 30 1006 70 10000 4.63 110 01:50 25.02.2021
2180 Clouds 30 1006 70 10000 4.63 100 00:48 25.02.2021
2181 Rain 28 1007 78 10000 2.57 330 00:20 25.02.2021
2182 Clouds 28 1007 78 10000 2.57 330 23:36 24.02.2021
2183 Clouds 26 1007 89 10000 2.57 330 22:56 24.02.2021
2184 Rain 26 1007 89 10000 2.57 330 22:30 24.02.2021
2185 Rain 25 1007 94 10000 2.06 320 21:50 24.02.2021
2186 Clouds 25 1007 94 10000 2.06 320 21:31 24.02.2021
2187 Rain 24 1006 94 10000 2.06 320 20:50 24.02.2021
2188 Rain 24 1006 94 10000 2.06 320 20:28 24.02.2021
2189 Rain 24 1006 88 10000 3.09 300 19:43 24.02.2021
2190 Rain 24 1006 88 10000 3.09 300 19:21 24.02.2021
2191 Clouds 24 1005 88 10000 2.06 310 18:54 24.02.2021
2192 Rain 24 1005 88 10000 2.06 310 18:31 24.02.2021
2193 Clouds 24 1006 88 10000 1.54 250 17:42 24.02.2021
2194 Rain 24 1006 88 10000 1.54 250 17:23 24.02.2021
2195 Clouds 24 1005 94 10000 1.54 330 16:48 24.02.2021
2196 Clouds 24 1005 94 10000 1.54 330 16:21 24.02.2021
2197 Clouds 26 1006 89 10000 2.57 100 15:55 24.02.2021
2198 Clouds 26 1006 89 10000 2.57 100 15:32 24.02.2021
2199 Clouds 26 1007 89 10000 1.03 0 14:47 24.02.2021
2200 Clouds 26 1007 89 10000 1.03 0 14:28 24.02.2021
2201 Clouds 26 1007 89 10000 1.03 0 13:43 24.02.2021
2202 Rain 26 1007 89 10000 1.03 0 13:23 24.02.2021
2203 Rain 27 1008 78 10000 1.03 130 12:57 24.02.2021
2204 Clouds 27 1008 78 10000 1.03 130 12:35 24.02.2021
2205 Clouds 27 1008 78 10000 1.54 110 11:56 24.02.2021
2206 Clouds 27 1008 78 10000 1.54 110 11:31 24.02.2021
2207 Clouds 28 1007 78 10000 2.06 120 10:41 24.02.2021
2208 Clouds 28 1007 78 10000 2.06 120 10:22 24.02.2021
2209 Clouds 27 1007 83 10000 2.06 100 09:26 24.02.2021
2210 Clouds 28 1006 78 10000 2.06 140 08:45 24.02.2021
2211 Rain 28 1006 78 10000 2.06 140 08:24 24.02.2021
2212 Rain 28 1006 78 10000 2.06 140 08:24 24.02.2021
2213 Rain 28 1006 78 10000 2.06 140 08:24 24.02.2021
2214 Rain 29 1005 74 10000 3.09 110 07:37 24.02.2021
2215 Clouds 29 1005 74 10000 3.09 110 07:18 24.02.2021
2216 Rain 31 1005 58 10000 3.6 140 05:22 24.02.2021
2217 Clouds 31 1007 58 10000 5.66 100 00:47 24.02.2021
2218 Clouds 30 1007 70 10000 5.66 100 23:38 23.02.2021
2219 Clouds 28 1007 74 10000 4.63 120 22:45 23.02.2021
2220 Rain 28 1007 74 10000 4.63 120 22:22 23.02.2021
2221 Clouds 27 1007 83 10000 2.06 130 21:47 23.02.2021
2222 Clouds 27 1007 83 10000 2.06 130 21:24 23.02.2021
2223 Clouds 25 1006 94 10000 3.75 97 20:50 23.02.2021
2224 Clouds 25 1006 94 10000 3.75 97 20:30 23.02.2021
2225 Clouds 24 1006 94 10000 1.03 0 19:57 23.02.2021
2226 Clouds 24 1006 94 10000 1.03 0 19:38 23.02.2021
2227 Clouds 24 1006 94 10000 1.03 0 19:19 23.02.2021
2228 Clouds 24 1006 94 10000 3.8 93 18:43 23.02.2021
2229 Clouds 24 1006 94 10000 3.81 92 18:21 23.02.2021
2230 Clouds 24 1005 94 10000 1.03 0 17:48 23.02.2021
2231 Clouds 24 1005 94 10000 1.03 0 17:25 23.02.2021
2232 Clouds 25 1006 88 10000 1.03 0 16:43 23.02.2021
2233 Clouds 25 1006 88 10000 1.03 0 16:21 23.02.2021
2234 Clouds 25 1006 88 10000 1.03 0 16:21 23.02.2021
2235 Clouds 26 1006 83 10000 1.03 0 15:44 23.02.2021
2236 Clouds 26 1006 83 10000 1.03 0 15:25 23.02.2021
2237 Clouds 26 1007 89 10000 1.03 0 14:46 23.02.2021
2238 Clouds 26 1007 89 10000 1.03 0 14:27 23.02.2021
2239 Rain 26 1007 89 10000 1.03 0 13:56 23.02.2021
2240 Clouds 26 1007 89 10000 1.03 0 13:34 23.02.2021
2241 Clouds 26 1007 83 10000 1.54 130 12:56 23.02.2021
2242 Clouds 26 1007 83 10000 1.54 130 12:23 23.02.2021
2243 Clouds 26 1007 89 10000 1.54 130 11:51 23.02.2021
2244 Clouds 26 1007 89 10000 1.54 130 11:25 23.02.2021
2245 Clouds 27 1007 78 10000 3.09 120 10:53 23.02.2021
2246 Rain 27 1007 78 10000 3.09 120 10:35 23.02.2021
2247 Clouds 27 1006 78 10000 2.57 120 09:45 23.02.2021
2248 Clouds 27 1006 78 10000 2.57 120 09:26 23.02.2021
2249 Clouds 28 1006 74 10000 2.57 120 08:57 23.02.2021
2250 Clouds 28 1006 74 10000 2.57 120 08:39 23.02.2021
2251 Clouds 28 1006 74 10000 2.57 120 08:20 23.02.2021
2252 Clouds 29 1005 65 10000 5.14 120 06:41 23.02.2021
2253 Clouds 30 1005 66 10000 5.66 120 05:22 23.02.2021
2254 Rain 29 1007 70 10000 6.69 100 02:36 23.02.2021
2255 Clouds 26 1008 89 10000 5.66 110 00:55 23.02.2021
2256 Clouds 26 1008 89 10000 5.66 110 00:18 23.02.2021
2257 Clouds 29 1008 70 10000 7.2 90 23:24 22.02.2021
2258 Clouds 28 1008 78 10000 5.14 100 22:41 22.02.2021
2259 Clouds 28 1008 78 10000 5.14 100 22:21 22.02.2021
2260 Clouds 28 1007 78 10000 4.12 100 21:46 22.02.2021
2261 Clouds 28 1007 78 10000 4.12 100 21:23 22.02.2021
2262 Clouds 25 1007 94 10000 5.26 101 20:53 22.02.2021
2263 Clouds 25 1007 94 10000 4.78 101 20:29 22.02.2021
2264 Rain 25 1007 84 10000 4.78 101 19:54 22.02.2021
2265 Clouds 26 1006 83 10000 2.06 110 19:35 22.02.2021
2266 Clouds 26 1006 83 10000 2.06 110 18:57 22.02.2021
2267 Clouds 26 1006 83 10000 2.06 110 18:57 22.02.2021
2268 Clouds 26 1006 83 10000 2.06 110 18:39 22.02.2021
2269 Clouds 26 1006 83 10000 2.06 110 18:20 22.02.2021
2270 Clouds 26 1006 83 10000 2.06 120 17:26 22.02.2021
2271 Clouds 26 1006 89 10000 2.06 120 16:55 22.02.2021
2272 Clouds 26 1006 89 10000 2.06 120 16:35 22.02.2021
2273 Clouds 26 1007 83 10000 2.57 100 15:47 22.02.2021
2274 Clouds 26 1007 83 10000 2.57 100 15:28 22.02.2021
2275 Clouds 27 1007 78 10000 3.6 110 14:47 22.02.2021
2276 Clouds 27 1007 78 10000 3.6 110 14:28 22.02.2021
2277 Clouds 27 1008 78 10000 3.6 110 13:47 22.02.2021
2278 Clouds 27 1009 78 10000 3.6 110 12:58 22.02.2021
2279 Clouds 27 1009 78 10000 3.6 110 12:37 22.02.2021
2280 Clouds 27 1009 78 10000 3.6 110 12:18 22.02.2021
2281 Clouds 27 1009 78 10000 3.09 120 11:41 22.02.2021
2282 Clouds 27 1009 78 10000 3.09 120 11:22 22.02.2021
2283 Clouds 27 1009 78 10000 3.09 130 10:46 22.02.2021
2284 Clouds 27 1009 78 10000 3.09 130 10:26 22.02.2021
2285 Clouds 27 1008 74 10000 3.6 130 09:43 22.02.2021
2286 Clouds 27 1008 74 10000 3.6 130 09:25 22.02.2021
2287 Clouds 27 1008 78 10000 2.06 130 08:50 22.02.2021
2288 Clouds 27 1008 78 10000 2.06 130 08:29 22.02.2021
2289 Clouds 28 1007 74 10000 3.6 140 07:56 22.02.2021
2290 Clouds 28 1007 74 10000 3.6 140 07:26 22.02.2021
2291 Clouds 29 1006 70 10000 5.14 120 06:32 22.02.2021
2292 Clouds 28 1006 78 10000 5.66 130 05:38 22.02.2021
2293 Clouds 30 1006 66 10000 6.17 120 03:27 22.02.2021
2294 Rain 30 1007 66 10000 6.17 110 02:48 22.02.2021
2295 Clouds 29 1008 70 10000 4.63 120 00:45 22.02.2021
2296 Clouds 29 1008 70 10000 4.63 120 00:20 22.02.2021
2297 Clouds 29 1008 65 10000 5.14 120 23:30 21.02.2021
2298 Clouds 29 1009 65 10000 4.12 120 22:51 21.02.2021
2299 Clouds 29 1009 65 10000 4.12 120 22:22 21.02.2021
2300 Clouds 28 1008 69 10000 3.09 130 21:37 21.02.2021
2301 Clouds 27 1008 74 10000 2.06 130 21:19 21.02.2021
2302 Clouds 27 1008 74 10000 2.06 130 20:40 21.02.2021
2303 Clouds 27 1007 74 10000 2.06 130 20:19 21.02.2021
2304 Clouds 27 1007 74 10000 2.06 130 19:51 21.02.2021
2305 Clouds 27 1007 74 10000 2.06 130 19:32 21.02.2021
2306 Clouds 27 1007 74 10000 2.06 130 19:32 21.02.2021
2307 Clouds 27 1007 74 10000 4.12 120 18:48 21.02.2021
2308 Clouds 27 1007 74 10000 4.12 120 18:25 21.02.2021
2309 Clouds 27 1007 69 10000 3.6 130 17:30 21.02.2021
2310 Clouds 27 1007 74 10000 2.57 130 16:58 21.02.2021
2311 Clouds 27 1007 74 10000 2.57 130 16:34 21.02.2021
2312 Clouds 27 1008 74 10000 4.12 120 15:54 21.02.2021
2313 Clouds 27 1008 74 10000 3.6 120 15:22 21.02.2021
2314 Clouds 27 1008 74 10000 3.6 120 14:51 21.02.2021
2315 Clouds 27 1008 74 10000 3.6 120 14:30 21.02.2021
2316 Clouds 27 1009 78 10000 3.6 110 13:47 21.02.2021
2317 Clouds 27 1009 78 10000 3.6 110 13:23 21.02.2021
2318 Clouds 27 1010 74 10000 4.12 120 12:32 21.02.2021
2319 Clouds 27 1009 74 10000 4.63 110 11:56 21.02.2021
2320 Clouds 27 1009 74 10000 4.63 110 11:36 21.02.2021
2321 Clouds 27 1009 74 10000 3.6 120 10:36 21.02.2021
2322 Clouds 27 1009 74 10000 4.12 120 10:18 21.02.2021
2323 Clouds 27 1009 74 10000 4.12 120 09:41 21.02.2021
2324 Clouds 26 1008 83 10000 4.12 90 09:23 21.02.2021
2325 Clouds 26 1008 83 10000 4.12 90 08:32 21.02.2021
2326 Clouds 26 1008 89 10000 3.6 110 07:43 21.02.2021
2327 Clouds 27 1008 78 10000 5.14 110 07:21 21.02.2021
2328 Clouds 26 1008 89 10000 8.23 110 04:58 21.02.2021
2329 Clouds 28 1008 83 10000 7.2 120 02:32 21.02.2021
2330 Clouds 27 1009 89 10000 5.66 110 00:52 21.02.2021
2331 Clouds 28 1010 78 10000 3.09 130 00:20 21.02.2021
2332 Clouds 28 1010 78 10000 3.09 130 23:29 20.02.2021
2333 Clouds 27 1010 83 10000 3.6 140 22:49 20.02.2021
2334 Clouds 27 1010 83 10000 3.6 140 22:29 20.02.2021
2335 Clouds 26 1010 94 10000 2.57 180 21:47 20.02.2021
2336 Clouds 26 1010 94 10000 2.57 180 21:27 20.02.2021
2337 Clouds 25 1009 94 10000 1.54 230 20:51 20.02.2021
2338 Clouds 25 1009 94 10000 1.54 230 20:30 20.02.2021
2339 Clouds 24 1009 100 10000 1.54 270 19:53 20.02.2021
2340 Clouds 24 1009 100 10000 1.54 270 19:33 20.02.2021
2341 Clouds 24 1008 100 10000 1.54 230 18:46 20.02.2021
2342 Clouds 24 1008 100 10000 1.54 360 18:27 20.02.2021
2343 Clouds 24 1008 100 10000 1.54 360 17:43 20.02.2021
2344 Clouds 24 1008 100 10000 1.03 0 17:25 20.02.2021
2345 Clouds 24 1008 100 10000 1.03 0 16:43 20.02.2021
2346 Clouds 24 1008 100 10000 1.03 0 16:22 20.02.2021
2347 Clouds 24 1008 100 10000 1.03 0 15:37 20.02.2021
2348 Clouds 24 1009 100 10000 1.54 0 14:49 20.02.2021
2349 Clouds 24 1009 100 10000 1.54 0 14:24 20.02.2021
2350 Clouds 25 1010 94 10000 1.03 0 13:51 20.02.2021
2351 Clouds 25 1010 94 10000 1.03 0 13:27 20.02.2021
2352 Clouds 26 1010 89 10000 3.27 82 12:52 20.02.2021
2353 Clouds 26 1010 89 10000 3.27 82 12:32 20.02.2021
2354 Clouds 26 1010 89 10000 3.41 89 11:48 20.02.2021
2355 Clouds 26 1010 89 10000 3.41 89 11:30 20.02.2021
2356 Clouds 27 1010 83 10000 1.54 130 10:50 20.02.2021
2357 Clouds 27 1010 83 10000 2.06 120 09:59 20.02.2021
2358 Clouds 27 1010 83 10000 2.06 120 09:40 20.02.2021
2359 Clouds 28 1009 74 10000 2.57 110 08:49 20.02.2021
2360 Clouds 29 1009 70 10000 3.6 120 08:19 20.02.2021
2361 Clouds 31 1009 62 10000 5.14 110 03:40 20.02.2021
2362 Clouds 31 1009 66 10000 4.63 120 02:30 20.02.2021
2363 Clouds 31 1010 70 10000 5.14 100 01:50 20.02.2021
2364 Clouds 30 1010 70 10000 4.12 100 00:48 20.02.2021
2365 Clouds 30 1010 70 10000 4.12 100 00:23 20.02.2021
2366 Clouds 29 1011 74 10000 3.6 100 23:19 19.02.2021
2367 Clouds 28 1011 83 10000 1.54 0 22:37 19.02.2021
2368 Clouds 26 1011 94 10000 1.03 0 22:19 19.02.2021
2369 Clouds 26 1011 94 10000 1.03 0 21:36 19.02.2021
2370 Clouds 25 1010 88 10000 4.12 360 20:58 19.02.2021
2371 Clouds 25 1010 88 10000 4.12 360 20:40 19.02.2021
2372 Clouds 25 1010 88 10000 4.12 360 20:22 19.02.2021
2373 Clouds 24 1010 100 10000 1.54 300 19:41 19.02.2021
2374 Clouds 24 1010 100 10000 1.54 300 19:19 19.02.2021
2375 Clouds 24 1009 94 10000 2.06 300 18:42 19.02.2021
2376 Clouds 24 1009 94 10000 2.06 300 18:23 19.02.2021
2377 Clouds 24 1009 100 10000 1.03 0 17:24 19.02.2021
2378 Clouds 24 1009 100 10000 1.54 300 16:39 19.02.2021
2379 Clouds 24 1009 100 10000 1.54 300 16:20 19.02.2021
2380 Rain 25 1010 94 10000 2.06 340 15:47 19.02.2021
2381 Clouds 25 1010 94 10000 2.06 340 15:27 19.02.2021
2382 Rain 25 1010 94 10000 1.03 290 14:41 19.02.2021
2383 Clouds 25 1010 94 10000 1.03 290 14:23 19.02.2021
2384 Clouds 26 1011 89 10000 2.04 91 13:44 19.02.2021
2385 Clouds 26 1011 89 10000 2.39 99 13:24 19.02.2021
2386 Clouds 26 1011 89 10000 2.39 99 12:44 19.02.2021
2387 Clouds 26 1011 89 10000 2.39 109 12:24 19.02.2021
2388 Clouds 26 1011 89 10000 2.39 109 11:51 19.02.2021
2389 Clouds 26 1011 89 10000 2.61 114 11:26 19.02.2021
2390 Clouds 27 1011 83 10000 1.54 180 10:54 19.02.2021
2391 Clouds 27 1011 83 10000 1.54 180 10:30 19.02.2021
2392 Clouds 27 1011 78 10000 1.54 150 09:48 19.02.2021
2393 Clouds 27 1011 78 10000 1.54 150 09:26 19.02.2021
2394 Clouds 29 1010 65 10000 2.06 140 08:53 19.02.2021
2395 Clouds 29 1010 65 10000 2.06 140 08:24 19.02.2021
2396 Clouds 29 1010 65 10000 2.57 140 07:49 19.02.2021
2397 Clouds 29 1010 65 10000 2.57 140 07:30 19.02.2021
2398 Clouds 30 1009 62 10000 3.6 150 06:53 19.02.2021
2399 Clouds 30 1009 66 10000 4.63 120 05:28 19.02.2021
2400 Clouds 31 1009 66 10000 4.63 100 04:41 19.02.2021
2401 Clouds 31 1009 66 10000 4.63 100 04:41 19.02.2021
2402 Clouds 31 1011 62 10000 4.12 90 01:48 19.02.2021
2403 Clouds 30 1011 70 10000 3.09 100 00:37 19.02.2021
2404 Clouds 29 1012 70 10000 3.6 100 23:56 18.02.2021
2405 Clouds 29 1012 70 10000 3.6 100 23:35 18.02.2021
2406 Clouds 29 1012 79 10000 1.03 0 22:50 18.02.2021
2407 Clouds 29 1012 79 10000 1.03 0 22:30 18.02.2021
2408 Clouds 27 1012 89 10000 1.03 0 21:51 18.02.2021
2409 Clouds 27 1012 89 10000 1.03 0 21:25 18.02.2021
2410 Clouds 25 1012 94 10000 1.03 0 20:44 18.02.2021
2411 Clouds 25 1012 94 10000 1.03 0 20:23 18.02.2021
2412 Clouds 24 1012 94 10000 1.54 320 19:47 18.02.2021
2413 Clouds 24 1012 94 10000 1.54 320 19:28 18.02.2021
2414 Clouds 24 1011 94 10000 1.03 0 18:53 18.02.2021
2415 Clouds 24 1011 94 10000 1.03 0 18:30 18.02.2021
2416 Clouds 25 1011 94 10000 1.33 39 17:53 18.02.2021
2417 Clouds 25 1011 94 10000 1.57 57 17:26 18.02.2021
2418 Clouds 25 1011 94 10000 1.03 0 16:56 18.02.2021
2419 Clouds 25 1011 94 10000 1.03 0 16:38 18.02.2021
2420 Clouds 25 1011 94 10000 1.03 0 16:18 18.02.2021
2421 Clouds 25 1012 94 10000 1.81 59 15:38 18.02.2021
2422 Clouds 25 1012 94 10000 1.95 63 15:19 18.02.2021
2423 Clouds 26 1012 89 10000 1.03 0 14:46 18.02.2021
2424 Clouds 26 1012 89 10000 1.03 0 14:27 18.02.2021
2425 Clouds 26 1012 89 10000 1.03 0 13:45 18.02.2021
2426 Clouds 26 1012 89 10000 1.03 0 13:18 18.02.2021
2427 Clouds 27 1012 83 10000 1.54 100 12:44 18.02.2021
2428 Clouds 27 1012 83 10000 1.54 100 12:22 18.02.2021
2429 Clouds 27 1012 83 10000 2.06 100 11:46 18.02.2021
2430 Clouds 27 1012 83 10000 2.06 100 11:25 18.02.2021
2431 Clouds 27 1012 83 10000 2.06 120 10:44 18.02.2021
2432 Clouds 27 1012 83 10000 2.06 120 10:25 18.02.2021
2433 Clouds 27 1012 83 10000 1.03 0 09:40 18.02.2021
2434 Clouds 27 1012 83 10000 1.03 0 09:21 18.02.2021
2435 Clouds 27 1011 83 10000 1.54 110 08:40 18.02.2021
2436 Clouds 27 1011 83 10000 1.54 110 08:21 18.02.2021
2437 Rain 28 1010 78 10000 2.57 120 07:32 18.02.2021
2438 Clouds 30 1010 70 10000 4.12 110 06:41 18.02.2021
2439 Clouds 31 1011 70 10000 5.66 70 02:29 18.02.2021
2440 Clouds 29 1012 74 10000 4.12 90 23:55 17.02.2021
2441 Clouds 29 1012 74 10000 4.12 90 23:22 17.02.2021
2442 Clouds 28 1012 83 10000 1.54 30 22:51 17.02.2021
2443 Clouds 28 1012 83 10000 1.54 30 22:26 17.02.2021
2444 Clouds 26 1011 94 10000 3.6 30 21:50 17.02.2021
2445 Clouds 26 1011 94 10000 3.6 30 21:22 17.02.2021
2446 Clouds 24 1011 100 10000 4.76 61 20:47 17.02.2021
2447 Clouds 24 1011 100 10000 4.43 61 20:29 17.02.2021
2448 Clouds 24 1011 94 10000 4.43 61 19:48 17.02.2021
2449 Clouds 24 1011 94 10000 4.43 61 19:30 17.02.2021
2450 Clouds 24 1010 94 10000 2.06 340 18:41 17.02.2021
2451 Clouds 24 1010 94 10000 2.06 340 18:22 17.02.2021
2452 Clouds 25 1010 94 10000 2.57 300 17:40 17.02.2021
2453 Clouds 25 1010 94 10000 2.57 300 17:19 17.02.2021
2454 Clouds 25 1010 94 10000 3.62 59 16:45 17.02.2021
2455 Clouds 25 1010 94 10000 3.59 58 16:24 17.02.2021
2456 Clouds 26 1010 89 10000 3.59 58 15:44 17.02.2021
2457 Clouds 26 1010 89 10000 3.62 58 15:25 17.02.2021
2458 Clouds 26 1011 89 10000 2.57 80 14:46 17.02.2021
2459 Clouds 26 1011 89 10000 2.57 80 14:28 17.02.2021
2460 Clouds 27 1012 83 10000 2.06 70 13:47 17.02.2021
2461 Clouds 27 1012 83 10000 2.06 70 13:29 17.02.2021
2462 Clouds 27 1013 83 10000 3.09 70 12:47 17.02.2021
2463 Clouds 27 1013 83 10000 3.09 70 12:23 17.02.2021
2464 Clouds 27 1013 83 10000 2.57 80 11:44 17.02.2021
2465 Clouds 27 1013 83 10000 2.57 80 11:20 17.02.2021
2466 Clouds 27 1012 83 10000 2.57 60 10:46 17.02.2021
2467 Clouds 27 1012 83 10000 2.57 60 10:26 17.02.2021
2468 Rain 27 1011 83 10000 2.57 60 09:47 17.02.2021
2469 Clouds 27 1011 83 10000 2.57 60 09:29 17.02.2021
2470 Rain 28 1010 78 10000 3.09 80 08:44 17.02.2021
2471 Rain 28 1010 78 10000 3.09 80 08:22 17.02.2021
2472 Rain 29 1010 79 10000 4.12 70 07:34 17.02.2021
2473 Clouds 30 1009 74 10000 5.66 70 06:35 17.02.2021
2474 Clouds 30 1009 74 10000 5.66 70 06:35 17.02.2021
2475 Clouds 32 1010 66 10000 6.17 70 02:42 17.02.2021
2476 Clouds 32 1010 66 10000 6.17 70 02:21 17.02.2021
2477 Clouds 31 1011 70 10000 6.69 70 00:33 17.02.2021
2478 Clouds 30 1011 74 10000 6.17 70 23:57 16.02.2021
2479 Clouds 30 1011 74 10000 6.17 70 23:38 16.02.2021
2480 Clouds 27 1011 89 10000 5.66 30 22:44 16.02.2021
2481 Clouds 27 1011 89 10000 5.66 30 22:25 16.02.2021
2482 Clouds 26 1011 94 10000 6.02 50 21:54 16.02.2021
2483 Clouds 26 1011 94 10000 6.02 50 21:36 16.02.2021
2484 Clouds 26 1011 94 10000 5.6 49 21:18 16.02.2021
2485 Clouds 26 1011 94 10000 5.6 49 20:41 16.02.2021
2486 Clouds 26 1011 94 10000 4.94 47 20:20 16.02.2021
2487 Clouds 25 1010 94 10000 2.06 320 19:42 16.02.2021
2488 Clouds 25 1010 94 10000 2.06 320 19:24 16.02.2021
2489 Clouds 25 1010 94 10000 1.54 320 18:41 16.02.2021
2490 Clouds 25 1010 94 10000 1.54 320 18:22 16.02.2021
2491 Clouds 26 1010 94 10000 2.06 350 17:52 16.02.2021
2492 Clouds 26 1010 94 10000 2.06 350 17:27 16.02.2021
2493 Clouds 26 1010 94 10000 4.51 43 16:51 16.02.2021
2494 Clouds 26 1010 94 10000 4.44 43 16:29 16.02.2021
2495 Clouds 26 1010 94 10000 4.44 43 15:47 16.02.2021
2496 Clouds 26 1010 94 10000 4.57 42 15:29 16.02.2021
2497 Clouds 26 1010 94 10000 4.57 42 14:55 16.02.2021
2498 Clouds 26 1010 94 10000 4.57 42 14:36 16.02.2021
2499 Clouds 26 1010 94 10000 4.64 43 14:18 16.02.2021
2500 Clouds 26 1011 94 10000 2.06 320 13:37 16.02.2021
2501 Clouds 26 1011 94 10000 1.54 320 12:47 16.02.2021
2502 Clouds 26 1011 94 10000 1.54 320 12:26 16.02.2021
2503 Clouds 27 1011 89 10000 4.72 47 11:55 16.02.2021
2504 Clouds 27 1011 89 10000 4.72 47 11:55 16.02.2021
2505 Clouds 27 1011 89 10000 4.72 47 11:37 16.02.2021
2506 Clouds 27 1011 89 10000 4.8 48 11:18 16.02.2021
2507 Clouds 28 1010 83 10000 2.57 80 10:45 16.02.2021
2508 Clouds 28 1010 83 10000 2.57 80 10:25 16.02.2021
2509 Clouds 27 1010 89 10000 4.85 48 09:48 16.02.2021
2510 Clouds 27 1010 89 10000 4.79 47 09:26 16.02.2021
2511 Clouds 28 1010 83 10000 1.54 350 08:48 16.02.2021
2512 Clouds 28 1010 83 10000 1.54 350 08:26 16.02.2021
2513 Clouds 30 1009 74 10000 4.63 60 07:42 16.02.2021
2514 Clouds 30 1008 74 10000 5.14 60 06:25 16.02.2021
2515 Clouds 32 1009 62 10000 5.14 50 02:19 16.02.2021
2516 Clouds 30 1010 70 10000 3.6 40 23:47 15.02.2021
2517 Clouds 30 1010 70 10000 3.6 40 23:26 15.02.2021
2518 Clouds 29 1011 79 10000 2.06 360 22:47 15.02.2021
2519 Clouds 29 1011 79 10000 2.06 360 22:25 15.02.2021
2520 Clouds 27 1010 89 10000 2.57 310 21:42 15.02.2021
2521 Clouds 27 1010 89 10000 2.57 310 21:24 15.02.2021
2522 Clouds 27 1010 89 10000 2.57 310 21:24 15.02.2021
2523 Clouds 25 1010 94 10000 2.06 330 20:53 15.02.2021
2524 Clouds 25 1010 94 10000 2.06 330 20:34 15.02.2021
2525 Clouds 24 1009 100 10000 2.06 320 19:50 15.02.2021
2526 Clouds 24 1009 100 10000 2.06 320 19:50 15.02.2021
2527 Clouds 24 1009 100 10000 2.06 320 19:25 15.02.2021
2528 Clouds 24 1009 100 10000 2.06 330 18:51 15.02.2021
2529 Clouds 24 1009 100 10000 2.06 330 18:27 15.02.2021
2530 Clouds 25 1008 94 10000 1.03 330 17:51 15.02.2021
2531 Clouds 25 1008 94 10000 1.03 330 17:28 15.02.2021
2532 Clouds 25 1008 100 10000 1.03 310 16:59 15.02.2021
2533 Clouds 25 1008 100 10000 1.03 310 16:37 15.02.2021
2534 Clouds 25 1008 100 10000 1.03 310 16:18 15.02.2021
2535 Clouds 25 1008 90 10000 3.77 35 15:41 15.02.2021
2536 Clouds 26 1009 94 10000 2.06 320 15:18 15.02.2021
2537 Clouds 26 1009 94 10000 2.06 320 14:43 15.02.2021
2538 Clouds 26 1009 94 10000 2.06 320 14:20 15.02.2021
2539 Clouds 27 1010 89 10000 1.03 40 13:48 15.02.2021
2540 Clouds 27 1010 89 10000 1.03 40 13:20 15.02.2021
2541 Clouds 26 1010 94 10000 1.54 30 12:45 15.02.2021
2542 Clouds 26 1010 94 10000 1.54 30 12:22 15.02.2021
2543 Clouds 26 1010 94 10000 2.06 70 11:49 15.02.2021
2544 Clouds 26 1010 94 10000 2.06 70 11:23 15.02.2021
2545 Clouds 28 1010 83 10000 1.03 60 10:50 15.02.2021
2546 Clouds 28 1010 83 10000 1.03 60 10:25 15.02.2021
2547 Clouds 28 1010 83 10000 1.54 80 09:56 15.02.2021
2548 Clouds 28 1010 83 10000 1.54 80 09:33 15.02.2021
2549 Clouds 28 1009 83 10000 1.54 70 08:55 15.02.2021
2550 Clouds 29 1008 79 10000 3.09 60 07:49 15.02.2021
2551 Clouds 30 1008 74 10000 4.63 70 06:59 15.02.2021
2552 Clouds 30 1008 74 10000 4.63 70 06:39 15.02.2021
2553 Clouds 31 1009 74 10000 5.14 60 02:32 15.02.2021
2554 Clouds 31 1010 66 10000 4.12 80 00:46 15.02.2021
2555 Clouds 30 1010 74 10000 1.54 340 23:41 14.02.2021
2556 Clouds 30 1010 74 10000 1.54 340 23:22 14.02.2021
2557 Clouds 28 1010 78 10000 2.57 330 22:38 14.02.2021
2558 Clouds 26 1010 94 10000 1.03 0 22:19 14.02.2021
2559 Clouds 26 1010 94 10000 1.03 0 21:47 14.02.2021
2560 Clouds 26 1010 94 10000 1.03 0 21:28 14.02.2021
2561 Clouds 25 1010 94 10000 1.03 340 20:44 14.02.2021
2562 Clouds 25 1010 94 10000 1.03 340 20:26 14.02.2021
2563 Clouds 24 1010 100 10000 1.03 320 19:46 14.02.2021
2564 Clouds 24 1009 100 10000 2.06 320 18:51 14.02.2021
2565 Clouds 24 1009 100 10000 2.06 320 18:51 14.02.2021
2566 Clouds 24 1009 100 10000 2.06 320 18:29 14.02.2021
2567 Clouds 24 1009 100 10000 1.03 0 17:56 14.02.2021
2568 Clouds 24 1009 100 10000 1.03 0 17:34 14.02.2021
2569 Clouds 24 1009 100 10000 1.54 340 16:51 14.02.2021
2570 Clouds 24 1009 100 10000 1.54 340 16:26 14.02.2021
2571 Clouds 25 1010 94 10000 1.03 340 15:49 14.02.2021
2572 Clouds 25 1010 94 10000 1.03 340 15:30 14.02.2021
2573 Clouds 25 1010 94 10000 1.03 320 14:47 14.02.2021
2574 Clouds 25 1010 94 10000 1.03 320 14:26 14.02.2021
2575 Clouds 25 1011 94 10000 1.03 0 13:44 14.02.2021
2576 Clouds 25 1011 94 10000 1.03 0 13:26 14.02.2021
2577 Clouds 25 1011 94 10000 1.54 340 12:37 14.02.2021
2578 Clouds 25 1011 94 10000 1.54 340 12:18 14.02.2021
2579 Clouds 25 1011 94 10000 1.03 0 11:43 14.02.2021
2580 Clouds 25 1011 94 10000 1.03 0 11:20 14.02.2021
2581 Clouds 26 1010 89 10000 1.54 0 10:31 14.02.2021
2582 Clouds 26 1010 89 10000 2.06 330 09:41 14.02.2021
2583 Clouds 26 1010 89 10000 2.06 330 09:21 14.02.2021
2584 Clouds 26 1010 89 10000 2.06 330 09:21 14.02.2021
2585 Clouds 28 1009 94 10000 1.54 330 08:58 14.02.2021
2586 Clouds 28 1009 94 10000 1.54 330 08:18 14.02.2021
2587 Clouds 28 1009 83 10000 1.54 20 07:19 14.02.2021
2588 Clouds 30 1008 70 10000 3.6 40 06:26 14.02.2021
2589 Clouds 31 1009 66 10000 4.63 70 03:59 14.02.2021
2590 Clouds 31 1010 66 10000 5.14 60 02:29 14.02.2021
2591 Clouds 31 1011 70 10000 5.66 70 00:59 14.02.2021
2592 Clouds 31 1011 70 10000 5.66 70 00:41 14.02.2021
2593 Clouds 29 1011 84 10000 3.6 40 23:49 13.02.2021
2594 Clouds 29 1011 84 10000 3.6 40 23:25 13.02.2021
2595 Clouds 27 1011 89 10000 1.54 20 22:51 13.02.2021
2596 Clouds 27 1011 89 10000 1.54 20 22:22 13.02.2021
2597 Clouds 26 1011 94 10000 3.09 340 21:49 13.02.2021
2598 Clouds 26 1011 94 10000 3.09 340 21:26 13.02.2021
2599 Clouds 26 1011 94 10000 3.09 340 21:26 13.02.2021
2600 Clouds 26 1011 89 10000 5.14 10 20:44 13.02.2021
2601 Clouds 26 1011 89 10000 5.14 10 20:24 13.02.2021
2602 Clouds 26 1010 94 10000 1.03 0 19:48 13.02.2021
2603 Clouds 26 1010 94 10000 1.03 0 19:23 13.02.2021
2604 Clouds 26 1009 94 10000 2.06 50 18:49 13.02.2021
2605 Clouds 26 1009 94 10000 2.06 50 18:24 13.02.2021
2606 Clouds 26 1009 94 10000 1.54 80 17:43 13.02.2021
2607 Clouds 26 1009 94 10000 1.54 80 17:23 13.02.2021
2608 Clouds 26 1010 94 10000 1.54 60 16:48 13.02.2021
2609 Clouds 26 1010 94 10000 1.54 60 16:30 13.02.2021
2610 Clouds 27 1010 89 10000 2.06 70 15:42 13.02.2021
2611 Clouds 27 1010 89 10000 2.06 70 15:24 13.02.2021
2612 Clouds 27 1011 89 10000 3.6 70 14:33 13.02.2021
2613 Clouds 27 1011 89 10000 3.09 70 13:48 13.02.2021
2614 Clouds 27 1011 89 10000 3.09 70 13:26 13.02.2021
2615 Clouds 27 1011 89 10000 3.09 70 12:50 13.02.2021
2616 Clouds 27 1011 89 10000 3.09 70 12:19 13.02.2021
2617 Clouds 27 1011 83 10000 2.57 60 11:45 13.02.2021
2618 Clouds 27 1011 83 10000 2.57 60 11:20 13.02.2021
2619 Clouds 27 1011 83 10000 2.06 60 10:47 13.02.2021
2620 Clouds 27 1011 83 10000 2.06 60 10:26 13.02.2021
2621 Clouds 27 1010 83 10000 1.54 70 09:56 13.02.2021
2622 Clouds 27 1010 83 10000 1.54 70 09:30 13.02.2021
2623 Clouds 28 1010 78 10000 2.06 60 08:59 13.02.2021
2624 Clouds 28 1010 78 10000 2.06 60 08:39 13.02.2021
2625 Clouds 28 1009 78 10000 3.6 60 07:52 13.02.2021
2626 Clouds 28 1008 78 10000 3.6 60 06:41 13.02.2021
2627 Clouds 29 1009 74 10000 4.63 70 05:27 13.02.2021
2628 Clouds 30 1010 74 10000 5.14 50 03:58 13.02.2021
2629 Clouds 29 1011 79 10000 2.57 40 01:49 13.02.2021
2630 Clouds 28 1012 83 10000 2.06 340 00:42 13.02.2021
2631 Clouds 27 1012 89 10000 1.03 0 23:54 12.02.2021
2632 Clouds 27 1012 89 10000 1.03 0 23:26 12.02.2021
2633 Rain 25 1012 100 10000 2.06 350 22:44 12.02.2021
2634 Clouds 25 1012 100 10000 2.06 350 22:25 12.02.2021
2635 Clouds 25 1011 100 10000 2.06 340 21:46 12.02.2021
2636 Clouds 25 1011 100 10000 2.06 340 21:27 12.02.2021
2637 Clouds 25 1011 94 10000 3.8 22 20:46 12.02.2021
2638 Clouds 25 1011 94 10000 4.46 27 20:28 12.02.2021
2639 Clouds 24 1010 100 10000 4.46 27 19:57 12.02.2021
2640 Clouds 24 1010 100 10000 4.46 27 19:37 12.02.2021
2641 Clouds 24 1010 100 10000 4.84 26 18:55 12.02.2021
2642 Clouds 24 1010 100 10000 3.71 15 18:29 12.02.2021
2643 Clouds 25 1010 94 10000 3.71 15 17:44 12.02.2021
2644 Clouds 25 1010 94 10000 3.98 18 17:21 12.02.2021
2645 Clouds 24 1010 100 10000 4.71 19 16:27 12.02.2021
2646 Clouds 24 1010 100 10000 4.71 19 15:46 12.02.2021
2647 Clouds 24 1010 100 10000 4.95 21 15:21 12.02.2021
2648 Clouds 24 1010 100 10000 4.95 21 15:21 12.02.2021
2649 Clouds 24 1010 100 10000 4.95 21 14:42 12.02.2021
2650 Clouds 24 1011 100 10000 4.7 22 13:59 12.02.2021
2651 Clouds 24 1011 100 10000 4.7 22 13:40 12.02.2021
2652 Clouds 24 1011 100 10000 4.7 22 13:40 12.02.2021
2653 Clouds 24 1012 100 10000 2.57 20 12:56 12.02.2021
2654 Clouds 24 1012 100 10000 2.57 20 12:36 12.02.2021
2655 Clouds 25 1012 100 10000 3.09 70 11:58 12.02.2021
2656 Clouds 25 1012 100 10000 3.09 70 11:37 12.02.2021
2657 Rain 25 1012 100 10000 3.09 70 11:18 12.02.2021
2658 Rain 25 1011 94 10000 1.03 0 10:40 12.02.2021
2659 Rain 26 1010 89 10000 1.03 0 09:48 12.02.2021
2660 Rain 26 1010 89 10000 1.03 0 09:24 12.02.2021
2661 Clouds 26 1009 89 10000 2.57 10 08:49 12.02.2021
2662 Clouds 26 1009 89 10000 2.57 10 08:27 12.02.2021
2663 Clouds 27 1009 89 10000 1.54 350 07:53 12.02.2021
2664 Clouds 27 1009 89 10000 1.54 350 07:53 12.02.2021
2665 Clouds 27 1009 89 10000 1.54 350 07:31 12.02.2021
2666 Clouds 27 1008 89 10000 2.57 30 06:55 12.02.2021
2667 Clouds 28 1008 83 10000 3.6 30 05:43 12.02.2021
2668 Clouds 29 1008 79 10000 5.66 40 04:22 12.02.2021
2669 Clouds 31 1009 70 10000 5.66 30 01:23 12.02.2021
2670 Clouds 30 1009 74 10000 5.66 50 23:40 11.02.2021
2671 Clouds 30 1009 74 10000 5.66 50 23:22 11.02.2021
2672 Clouds 28 1009 78 10000 3.09 30 22:45 11.02.2021
2673 Clouds 28 1009 78 10000 3.09 30 22:24 11.02.2021
2674 Clouds 27 1010 89 10000 2.06 350 21:46 11.02.2021
2675 Clouds 27 1010 89 10000 2.06 350 21:27 11.02.2021
2676 Clouds 25 1009 94 10000 1.03 330 20:59 11.02.2021
2677 Clouds 25 1009 94 10000 1.03 330 20:40 11.02.2021
2678 Clouds 25 1009 94 10000 1.03 330 20:21 11.02.2021
2679 Clouds 25 1009 100 10000 1.03 340 19:47 11.02.2021
2680 Clouds 25 1009 100 10000 1.03 340 19:26 11.02.2021
2681 Clouds 25 1008 94 10000 1.03 360 18:45 11.02.2021
2682 Rain 25 1008 94 10000 1.03 360 18:24 11.02.2021
2683 Clouds 25 1008 94 10000 1.36 339 17:49 11.02.2021
2684 Clouds 25 1008 94 10000 1.57 357 17:21 11.02.2021
2685 Rain 25 1008 94 10000 1.03 350 16:47 11.02.2021
2686 Rain 25 1008 94 10000 1.03 350 16:29 11.02.2021
2687 Clouds 25 1008 100 10000 1.54 310 15:47 11.02.2021
2688 Rain 25 1008 100 10000 1.54 310 15:26 11.02.2021
2689 Clouds 25 1009 94 10000 1.54 320 14:56 11.02.2021
2690 Rain 25 1009 94 10000 1.54 320 14:31 11.02.2021
2691 Rain 25 1009 100 10000 2.06 350 13:44 11.02.2021
2692 Clouds 25 1009 100 10000 2.06 350 13:21 11.02.2021
2693 Rain 26 1010 94 10000 2.06 20 12:56 11.02.2021
2694 Clouds 26 1010 94 10000 2.06 20 12:35 11.02.2021
2695 Rain 25 1009 100 10000 2.06 360 11:48 11.02.2021
2696 Rain 25 1009 100 10000 2.06 360 11:28 11.02.2021
2697 Rain 25 1009 100 10000 1.54 350 10:55 11.02.2021
2698 Rain 25 1009 100 10000 1.54 350 10:37 11.02.2021
2699 Rain 25 1008 100 10000 1.54 330 10:19 11.02.2021
2700 Rain 25 1008 100 10000 1.54 330 09:38 11.02.2021
2701 Rain 25 1008 100 10000 1.54 330 09:18 11.02.2021
2702 Rain 25 1008 94 10000 1.54 360 08:44 11.02.2021
2703 Clouds 25 1008 94 10000 2.06 330 07:43 11.02.2021
2704 Clouds 25 1007 94 10000 1.54 280 06:44 11.02.2021
2705 Clouds 24 1006 100 10000 2.06 350 05:55 11.02.2021
2706 Clouds 26 1007 94 3000 4.63 330 03:43 11.02.2021
2707 Clouds 32 1007 66 10000 1.54 330 02:21 11.02.2021
2708 Clouds 31 1008 74 10000 1.03 320 00:23 11.02.2021
2709 Clouds 30 1008 79 10000 2.57 350 23:48 10.02.2021
2710 Clouds 30 1008 79 10000 2.57 350 23:19 10.02.2021
2711 Clouds 28 1008 89 10000 2.57 320 22:43 10.02.2021
2712 Clouds 28 1008 89 10000 2.57 320 22:23 10.02.2021
2713 Clouds 26 1008 94 10000 1.54 290 21:40 10.02.2021
2714 Rain 26 1008 94 10000 1.54 290 21:20 10.02.2021
2715 Rain 26 1008 94 10000 1.54 290 21:20 10.02.2021
2716 Rain 26 1007 94 10000 1.03 0 20:50 10.02.2021
2717 Clouds 26 1007 94 10000 1.03 0 20:28 10.02.2021
2718 Clouds 25 1007 100 10000 2.55 26 19:50 10.02.2021
2719 Clouds 25 1007 100 10000 2.86 35 19:27 10.02.2021
2720 Clouds 25 1006 100 10000 3.82 4 18:48 10.02.2021
2721 Clouds 25 1006 100 10000 3.22 19 18:26 10.02.2021
2722 Clouds 25 1006 94 10000 1.03 20 17:59 10.02.2021
2723 Clouds 25 1006 94 10000 1.03 20 17:26 10.02.2021
2724 Clouds 25 1006 100 10000 1.03 330 16:59 10.02.2021
2725 Rain 25 1006 100 10000 1.03 330 16:38 10.02.2021
2726 Clouds 25 1006 100 10000 1.03 330 16:19 10.02.2021
2727 Clouds 25 1007 94 10000 1.03 20 15:24 10.02.2021
2728 Clouds 25 1007 94 10000 2.62 33 14:52 10.02.2021
2729 Clouds 25 1007 94 10000 2.62 33 14:34 10.02.2021
2730 Clouds 26 1008 89 10000 2.44 15 13:54 10.02.2021
2731 Clouds 26 1008 89 10000 2.44 15 13:30 10.02.2021
2732 Clouds 26 1008 89 10000 1.03 360 12:53 10.02.2021
2733 Clouds 26 1008 89 10000 1.03 360 12:30 10.02.2021
2734 Clouds 26 1008 94 10000 1.81 31 11:57 10.02.2021
2735 Clouds 26 1008 94 10000 1.81 31 11:39 10.02.2021
2736 Clouds 26 1008 94 10000 1.18 74 11:20 10.02.2021
2737 Clouds 28 1007 83 10000 0.69 132 10:24 10.02.2021
2738 Rain 28 1007 83 10000 0.69 132 09:56 10.02.2021
2739 Clouds 28 1007 83 10000 0.69 132 09:32 10.02.2021
2740 Clouds 28 1006 83 10000 1.03 200 08:56 10.02.2021
2741 Clouds 28 1006 83 10000 1.03 200 08:33 10.02.2021
2742 Clouds 29 1005 79 10000 2.57 190 07:37 10.02.2021
2743 Clouds 28 1005 79 10000 4.1 202 06:21 10.02.2021
2744 Clouds 32 1005 66 10000 2.57 30 01:28 10.02.2021
2745 Clouds 31 1006 66 10000 2.06 340 23:59 09.02.2021
2746 Clouds 31 1006 66 10000 2.06 340 23:32 09.02.2021
2747 Rain 30 1006 74 10000 1.54 330 22:45 09.02.2021
2748 Clouds 30 1006 74 10000 1.54 330 22:24 09.02.2021
2749 Clouds 27 1005 89 10000 1.54 310 21:48 09.02.2021
2750 Clouds 27 1005 89 10000 1.54 310 21:24 09.02.2021
2751 Clouds 25 1005 100 10000 1.03 290 20:44 09.02.2021
2752 Clouds 25 1005 100 10000 1.03 290 20:25 09.02.2021
2753 Clouds 25 1004 100 10000 1.03 320 19:52 09.02.2021
2754 Clouds 25 1004 100 10000 1.03 320 19:29 09.02.2021
2755 Clouds 25 1003 100 10000 1.54 310 18:49 09.02.2021
2756 Clouds 25 1003 100 10000 1.54 310 18:31 09.02.2021
2757 Rain 25 1003 100 10000 3.7 287 17:50 09.02.2021
2758 Clouds 25 1003 100 10000 3.63 290 17:28 09.02.2021
2759 Clouds 25 1003 100 10000 1.03 0 16:54 09.02.2021
2760 Rain 25 1003 100 10000 1.03 0 16:20 09.02.2021
2761 Clouds 26 1004 94 10000 4.02 291 15:58 09.02.2021
2762 Clouds 26 1004 94 10000 4.02 291 15:40 09.02.2021
2763 Clouds 26 1004 94 10000 4.33 291 15:21 09.02.2021
2764 Clouds 26 1004 94 10000 4.33 291 14:43 09.02.2021
2765 Clouds 26 1004 94 10000 4.19 285 14:23 09.02.2021
2766 Clouds 26 1004 94 10000 4.19 285 13:43 09.02.2021
2767 Clouds 26 1004 94 10000 4.2 286 13:20 09.02.2021
2768 Clouds 26 1004 94 10000 4.2 286 13:20 09.02.2021
2769 Clouds 26 1004 94 10000 0.51 0 12:44 09.02.2021
2770 Clouds 26 1004 94 10000 0.51 0 12:24 09.02.2021
2771 Clouds 27 1004 89 10000 1.54 230 11:44 09.02.2021
2772 Clouds 27 1004 89 10000 1.54 230 11:21 09.02.2021
2773 Clouds 27 1003 89 10000 2.06 240 10:57 09.02.2021
2774 Clouds 27 1003 89 10000 2.06 240 10:21 09.02.2021
2775 Clouds 27 1002 89 10000 1.54 240 09:52 09.02.2021
2776 Clouds 27 1002 89 10000 1.54 240 09:26 09.02.2021
2777 Clouds 28 1001 83 10000 3.09 260 08:56 09.02.2021
2778 Clouds 28 1001 83 10000 3.09 260 08:29 09.02.2021
2779 Clouds 28 1000 83 10000 4.12 260 07:41 09.02.2021
2780 Clouds 30 999 84 10000 6.69 250 05:34 09.02.2021
2781 Clouds 30 999 79 10000 7.2 240 03:48 09.02.2021
2782 Clouds 28 1000 88 10000 4.9 235 01:51 09.02.2021
2783 Clouds 29 1000 84 10000 9.26 250 00:21 09.02.2021
2784 Clouds 29 1000 84 10000 6.69 260 23:23 08.02.2021
2785 Clouds 28 1000 83 10000 5.66 260 22:59 08.02.2021
2786 Clouds 28 1000 83 10000 5.66 260 22:41 08.02.2021
2787 Clouds 28 1000 83 10000 5.66 260 22:21 08.02.2021
2788 Clouds 27 1001 94 10000 4.12 260 21:44 08.02.2021
2789 Rain 27 1001 94 10000 4.12 260 21:21 08.02.2021
2790 Rain 26 1000 94 10000 2.57 260 20:44 08.02.2021
2791 Clouds 26 1000 94 10000 2.57 260 20:24 08.02.2021
2792 Clouds 26 999 94 10000 3.6 250 19:51 08.02.2021
2793 Rain 26 999 94 10000 3.6 250 19:30 08.02.2021
2794 Clouds 26 999 94 10000 2.57 260 18:59 08.02.2021
2795 Clouds 26 999 94 10000 2.57 260 18:40 08.02.2021
2796 Clouds 26 999 94 10000 2.57 260 18:18 08.02.2021
2797 Rain 26 999 94 10000 2.57 260 17:41 08.02.2021
2798 Clouds 26 999 94 10000 3.09 260 17:22 08.02.2021
2799 Clouds 26 999 94 10000 3.09 260 16:40 08.02.2021
2800 Clouds 26 999 94 10000 3.09 260 16:20 08.02.2021
2801 Clouds 26 1000 94 10000 2.06 290 15:38 08.02.2021
2802 Rain 26 1000 94 10000 2.06 290 15:19 08.02.2021
2803 Rain 26 1001 94 10000 1.03 0 14:51 08.02.2021
2804 Clouds 26 1001 94 10000 1.03 0 14:29 08.02.2021
2805 Rain 26 1001 94 10000 1.03 0 13:54 08.02.2021
2806 Clouds 26 1001 94 10000 1.03 0 13:28 08.02.2021
2807 Clouds 26 1001 94 10000 1.03 0 13:28 08.02.2021
2808 Clouds 26 1002 94 10000 1.03 210 12:42 08.02.2021
2809 Clouds 26 1002 94 10000 1.03 210 12:24 08.02.2021
2810 Clouds 26 1002 94 10000 1.54 210 11:39 08.02.2021
2811 Rain 26 1001 94 10000 1.03 190 10:47 08.02.2021
2812 Clouds 26 1001 94 10000 1.03 190 10:26 08.02.2021
2813 Clouds 27 1001 89 10000 1.03 0 09:59 08.02.2021
2814 Clouds 27 1001 89 10000 1.03 0 09:37 08.02.2021
2815 Clouds 27 1000 94 10000 1.03 0 08:57 08.02.2021
2816 Rain 27 1000 94 10000 1.03 0 08:27 08.02.2021
2817 Clouds 28 1000 89 10000 1.54 180 07:47 08.02.2021
2818 Clouds 29 999 84 10000 2.57 180 06:39 08.02.2021
2819 Clouds 28 999 83 10000 2.57 170 05:18 08.02.2021
2820 Clouds 32 1001 66 10000 3.6 160 02:27 08.02.2021
2821 Clouds 29 1002 84 10000 3.09 170 00:25 08.02.2021
2822 Clouds 29 1003 84 10000 2.06 190 23:55 07.02.2021
2823 Clouds 29 1003 84 10000 2.06 190 23:28 07.02.2021
2824 Clouds 28 1003 89 10000 1.54 200 22:58 07.02.2021
2825 Rain 28 1003 89 10000 1.54 200 22:40 07.02.2021
2826 Clouds 28 1003 89 10000 1.54 200 22:21 07.02.2021
2827 Clouds 27 1002 94 10000 0.42 305 21:50 07.02.2021
2828 Clouds 27 1002 94 10000 0.42 305 21:50 07.02.2021
2829 Clouds 27 1002 94 10000 1.72 294 21:25 07.02.2021
2830 Clouds 27 1002 94 10000 1.72 294 21:25 07.02.2021
2831 Clouds 25 1002 100 10000 1.72 294 20:50 07.02.2021
2832 Clouds 25 1002 100 10000 1.79 303 20:29 07.02.2021
2833 Clouds 25 1001 100 10000 1.79 303 19:52 07.02.2021
2834 Clouds 25 1001 100 10000 2.09 276 19:29 07.02.2021
2835 Clouds 25 1001 100 10000 0.61 59 18:49 07.02.2021
2836 Clouds 25 1001 100 10000 0.94 271 18:29 07.02.2021
2837 Clouds 25 1001 100 10000 0.94 271 17:58 07.02.2021
2838 Clouds 25 1001 100 10000 0.94 271 17:39 07.02.2021
2839 Clouds 25 1001 100 10000 1.58 277 17:18 07.02.2021
2840 Clouds 25 1001 100 10000 1.58 277 16:42 07.02.2021
2841 Clouds 25 1001 100 10000 1.39 257 16:21 07.02.2021
2842 Clouds 25 1001 100 10000 1.39 257 15:44 07.02.2021
2843 Clouds 25 1001 100 10000 1.74 249 15:22 07.02.2021
2844 Clouds 25 1002 100 10000 1.74 249 14:46 07.02.2021
2845 Clouds 25 1002 100 10000 1.96 232 14:27 07.02.2021
2846 Clouds 25 1003 100 10000 1.96 232 13:51 07.02.2021
2847 Clouds 25 1003 100 10000 1.96 232 13:30 07.02.2021
2848 Clouds 25 1003 100 10000 1.96 232 13:30 07.02.2021
2849 Clouds 26 1003 94 10000 1.37 197 12:42 07.02.2021
2850 Clouds 26 1003 94 10000 2.08 201 12:22 07.02.2021
2851 Clouds 26 1004 94 10000 1.03 0 11:45 07.02.2021
2852 Clouds 26 1004 94 10000 1.03 0 11:26 07.02.2021
2853 Clouds 26 1003 94 10000 1.03 0 10:42 07.02.2021
2854 Clouds 26 1003 94 10000 1.03 0 10:42 07.02.2021
2855 Clouds 26 1003 94 10000 1.03 0 10:22 07.02.2021
2856 Clouds 26 1003 94 10000 1.03 0 09:43 07.02.2021
2857 Clouds 26 1003 94 10000 1.03 0 09:20 07.02.2021
2858 Clouds 27 1003 94 10000 1.03 0 08:22 07.02.2021
2859 Clouds 27 1001 94 10000 2.06 170 06:34 07.02.2021
2860 Clouds 28 1001 89 10000 3.09 190 05:56 07.02.2021
2861 Clouds 29 1001 79 10000 4.12 160 03:39 07.02.2021
2862 Clouds 29 1003 84 10000 3.6 140 01:24 07.02.2021
2863 Clouds 27 1003 94 10000 3.6 160 00:29 07.02.2021
2864 Clouds 29 1003 84 10000 3.6 160 23:42 06.02.2021
2865 Clouds 28 1003 89 10000 3.09 170 22:33 06.02.2021
2866 Clouds 26 1003 100 10000 5.03 168 21:39 06.02.2021
2867 Clouds 26 1003 100 10000 4.44 170 21:21 06.02.2021
2868 Clouds 26 1003 100 10000 1.54 140 20:47 06.02.2021
2869 Clouds 26 1003 100 10000 1.54 140 20:25 06.02.2021
2870 Clouds 26 1003 94 10000 1.54 170 19:55 06.02.2021
2871 Clouds 26 1003 94 10000 1.54 170 19:29 06.02.2021
2872 Clouds 25 1002 100 10000 2.06 170 18:46 06.02.2021
2873 Clouds 25 1002 100 10000 2.06 170 18:28 06.02.2021
2874 Clouds 25 1003 100 10000 4.67 168 17:45 06.02.2021
2875 Clouds 25 1003 100 10000 4.56 162 17:22 06.02.2021
2876 Clouds 26 1003 94 10000 1.54 150 16:58 06.02.2021
2877 Clouds 26 1003 94 10000 1.54 150 16:37 06.02.2021
2878 Rain 26 1003 94 10000 1.54 150 16:19 06.02.2021
2879 Clouds 25 1003 100 10000 1.54 180 15:40 06.02.2021
2880 Clouds 25 1003 100 10000 1.54 180 15:19 06.02.2021
2881 Clouds 26 1004 94 10000 4.81 152 14:44 06.02.2021
2882 Rain 26 1004 94 10000 4.92 151 14:23 06.02.2021
2883 Clouds 26 1004 94 10000 2.06 160 13:47 06.02.2021
2884 Rain 26 1005 94 10000 2.06 150 12:51 06.02.2021
2885 Clouds 26 1005 94 10000 2.06 150 12:21 06.02.2021
2886 Clouds 26 1005 94 10000 1.54 160 11:45 06.02.2021
2887 Clouds 26 1004 94 10000 3.09 140 11:22 06.02.2021
2888 Clouds 26 1004 94 10000 3.09 140 10:54 06.02.2021
2889 Clouds 26 1004 94 10000 3.09 140 10:28 06.02.2021
2890 Clouds 26 1004 94 10000 2.57 140 09:56 06.02.2021
2891 Clouds 26 1004 94 10000 2.57 140 09:36 06.02.2021
2892 Rain 26 1004 94 10000 2.57 140 09:18 06.02.2021
2893 Clouds 26 1003 94 10000 2.57 130 08:29 06.02.2021
2894 Clouds 26 1003 94 10000 1.54 140 07:54 06.02.2021
2895 Clouds 26 1003 94 10000 2.57 120 05:42 06.02.2021
2896 Clouds 26 1004 94 5000 1.54 130 03:48 06.02.2021
2897 Clouds 28 1004 89 10000 4.12 130 01:33 06.02.2021
2898 Clouds 29 1005 84 10000 4.12 120 00:46 06.02.2021
2899 Clouds 29 1005 79 10000 4.12 130 00:19 06.02.2021
2900 Clouds 29 1005 79 10000 4.12 130 23:42 05.02.2021
2901 Clouds 29 1005 79 10000 4.12 130 23:24 05.02.2021
2902 Clouds 29 1005 84 10000 4.12 110 22:45 05.02.2021
2903 Clouds 29 1005 84 10000 4.12 110 22:18 05.02.2021
2904 Clouds 28 1005 89 10000 2.57 110 21:40 05.02.2021
2905 Rain 26 1005 94 10000 1.03 0 20:59 05.02.2021
2906 Clouds 26 1005 94 10000 1.03 0 20:38 05.02.2021
2907 Rain 26 1004 94 10000 1.03 0 19:48 05.02.2021
2908 Rain 26 1004 94 10000 1.03 0 19:19 05.02.2021
2909 Rain 26 1004 94 10000 1.03 0 18:43 05.02.2021
2910 Rain 26 1004 94 10000 1.03 0 18:19 05.02.2021
2911 Clouds 25 1004 100 10000 1.03 0 17:42 05.02.2021
2912 Rain 25 1004 100 10000 1.03 0 17:21 05.02.2021
2913 Rain 25 1004 100 10000 3.09 160 16:44 05.02.2021
2914 Rain 25 1004 100 10000 3.09 160 16:23 05.02.2021
2915 Rain 25 1004 100 10000 1.03 0 15:51 05.02.2021
2916 Clouds 25 1004 100 10000 1.03 0 15:25 05.02.2021
2917 Clouds 26 1005 94 10000 1.03 0 14:40 05.02.2021
2918 Clouds 26 1005 94 10000 1.03 0 14:22 05.02.2021
2919 Clouds 26 1005 94 10000 1.54 340 13:57 05.02.2021
2920 Rain 26 1005 94 10000 1.54 340 13:33 05.02.2021
2921 Clouds 26 1006 94 10000 1.54 100 12:46 05.02.2021
2922 Clouds 26 1006 94 10000 1.54 100 12:24 05.02.2021
2923 Clouds 26 1006 100 10000 2.73 149 11:40 05.02.2021
2924 Rain 26 1006 100 10000 2.92 147 11:21 05.02.2021
2925 Rain 26 1005 100 10000 2.92 147 10:49 05.02.2021
2926 Rain 26 1005 100 10000 2.85 151 10:26 05.02.2021
2927 Rain 27 1005 89 10000 2.85 151 09:43 05.02.2021
2928 Rain 27 1005 89 10000 2.86 149 09:25 05.02.2021
2929 Clouds 27 1004 94 10000 2.86 149 08:47 05.02.2021
2930 Rain 27 1004 89 10000 2.06 130 07:52 05.02.2021
2931 Clouds 27 1004 89 10000 2.06 130 07:34 05.02.2021
2932 Clouds 27 1004 94 10000 1.54 250 06:42 05.02.2021
2933 Clouds 27 1004 94 10000 1.03 210 05:35 05.02.2021
2934 Rain 31 1004 70 10000 4.63 70 02:52 05.02.2021
2935 Clouds 31 1005 70 10000 3.09 90 02:24 05.02.2021
2936 Clouds 30 1005 74 10000 4.12 70 00:39 05.02.2021
2937 Clouds 30 1005 74 10000 4.12 70 00:19 05.02.2021
2938 Clouds 29 1005 79 10000 1.54 40 23:55 04.02.2021
2939 Clouds 29 1005 79 10000 1.54 40 23:36 04.02.2021
2940 Clouds 29 1005 79 10000 1.54 40 23:18 04.02.2021
2941 Clouds 28 1005 83 10000 1.03 360 22:43 04.02.2021
2942 Clouds 28 1005 83 10000 1.03 360 22:25 04.02.2021
2943 Clouds 27 1006 89 10000 1.31 109 21:42 04.02.2021
2944 Clouds 27 1006 89 10000 0.59 65 21:19 04.02.2021
2945 Clouds 25 1005 100 10000 0.59 65 20:46 04.02.2021
2946 Clouds 25 1005 100 10000 0.71 37 20:26 04.02.2021
2947 Rain 25 1005 94 10000 0.71 37 19:42 04.02.2021
2948 Clouds 25 1004 94 10000 2.57 300 18:51 04.02.2021
2949 Clouds 25 1004 94 10000 2.57 300 18:25 04.02.2021
2950 Rain 25 1004 94 10000 0.44 346 17:53 04.02.2021
2951 Clouds 25 1004 94 10000 0.66 347 17:25 04.02.2021
2952 Clouds 25 1004 94 10000 3.09 310 16:56 04.02.2021
2953 Clouds 25 1004 94 10000 3.09 310 16:38 04.02.2021
2954 Clouds 25 1005 94 10000 1.54 310 16:18 04.02.2021
2955 Clouds 25 1005 94 10000 1.54 310 15:39 04.02.2021
2956 Clouds 25 1005 94 10000 1.54 310 15:20 04.02.2021
2957 Rain 25 1005 100 10000 0.76 356 14:42 04.02.2021
2958 Clouds 25 1005 100 10000 0.83 36 14:20 04.02.2021
2959 Clouds 25 1006 100 10000 0.83 36 13:45 04.02.2021
2960 Clouds 25 1006 100 10000 0.96 70 13:20 04.02.2021
2961 Clouds 25 1007 100 10000 1.54 300 12:52 04.02.2021
2962 Clouds 25 1007 100 10000 1.54 310 11:54 04.02.2021
2963 Clouds 25 1007 100 10000 1.54 310 11:34 04.02.2021
2964 Clouds 26 1007 90 10000 0.74 81 10:53 04.02.2021
2965 Clouds 25 1006 100 10000 1.03 320 10:32 04.02.2021
2966 Clouds 25 1006 100 10000 1.03 320 09:45 04.02.2021
2967 Clouds 26 1006 94 10000 1.54 320 09:19 04.02.2021
2968 Clouds 26 1006 94 10000 1.54 320 08:50 04.02.2021
2969 Clouds 26 1006 94 10000 1.54 320 08:25 04.02.2021
2970 Clouds 26 1005 94 10000 1.54 310 07:51 04.02.2021
2971 Clouds 26 1005 94 10000 1.54 310 07:32 04.02.2021
2972 Clouds 26 1005 94 10000 1.54 50 06:44 04.02.2021
2973 Clouds 26 1005 94 10000 1.54 350 05:32 04.02.2021
2974 Clouds 29 1005 79 10000 3.09 160 02:30 04.02.2021
2975 Clouds 29 1006 84 10000 3.6 100 01:20 04.02.2021
2976 Clouds 29 1007 84 10000 1.03 0 23:54 03.02.2021
2977 Clouds 29 1007 84 10000 1.03 0 23:30 03.02.2021
2978 Clouds 29 1007 79 10000 1.03 0 22:37 03.02.2021
2979 Clouds 29 1007 79 10000 1.03 0 22:19 03.02.2021
2980 Clouds 27 1007 89 10000 0.21 67 21:42 03.02.2021
2981 Clouds 27 1007 89 10000 0.61 322 21:22 03.02.2021
2982 Clouds 25 1007 100 10000 1.54 280 20:48 03.02.2021
2983 Clouds 25 1007 100 10000 1.54 280 20:29 03.02.2021
2984 Fog 25 1006 94 500 1.03 0 19:54 03.02.2021
2985 Fog 25 1006 94 500 1.03 0 19:24 03.02.2021
2986 Mist 25 1006 94 4000 1.03 0 18:55 03.02.2021
2987 Clouds 25 1006 94 10000 1.03 0 18:36 03.02.2021
2988 Clouds 25 1006 94 10000 1.03 0 18:18 03.02.2021
2989 Clouds 25 1005 94 10000 1.72 13 17:42 03.02.2021
2990 Clouds 25 1005 94 10000 1.65 15 17:19 03.02.2021
2991 Clouds 25 1005 94 10000 1.03 0 16:36 03.02.2021
2992 Clouds 26 1006 94 10000 1.54 230 15:51 03.02.2021
2993 Clouds 26 1006 94 10000 1.54 230 15:31 03.02.2021
2994 Drizzle 26 1006 94 10000 2.06 260 14:59 03.02.2021
2995 Drizzle 26 1006 94 10000 2.06 260 14:41 03.02.2021
2996 Drizzle 26 1006 94 10000 2.06 260 14:19 03.02.2021
2997 Drizzle 26 1006 94 10000 1.03 0 13:43 03.02.2021
2998 Drizzle 26 1006 94 10000 1.03 0 13:18 03.02.2021
2999 Clouds 26 1006 94 10000 1.69 44 12:39 03.02.2021
3000 Rain 26 1007 94 10000 1.99 58 12:19 03.02.2021
3001 Rain 26 1007 94 10000 1.99 58 11:41 03.02.2021
3002 Clouds 26 1007 94 10000 2.25 64 11:21 03.02.2021
3003 Clouds 26 1006 94 10000 1.03 0 10:27 03.02.2021
3004 Clouds 26 1006 94 10000 2.57 120 09:54 03.02.2021
3005 Clouds 26 1006 94 10000 2.57 120 09:35 03.02.2021
3006 Clouds 26 1005 100 9000 4.63 100 08:55 03.02.2021
3007 Clouds 26 1005 100 9000 4.63 100 08:37 03.02.2021
3008 Clouds 26 1005 94 5000 2.06 100 07:54 03.02.2021
3009 Clouds 27 1004 94 10000 1.03 0 06:42 03.02.2021
3010 Rain 30 1004 74 10000 3.6 50 04:55 03.02.2021
3011 Clouds 30 1004 74 10000 3.6 50 04:37 03.02.2021
3012 Clouds 29 1004 79 10000 5.66 70 03:49 03.02.2021
3013 Clouds 29 1005 79 10000 5.14 70 02:38 03.02.2021
3014 Clouds 30 1005 74 10000 3.6 70 01:21 03.02.2021
3015 Rain 30 1006 74 10000 3.6 90 00:23 03.02.2021
3016 Rain 29 1006 79 10000 3.09 60 23:41 02.02.2021
3017 Rain 29 1006 79 10000 3.09 60 23:41 02.02.2021
3018 Clouds 29 1006 79 10000 3.09 60 23:22 02.02.2021
3019 Clouds 29 1006 79 10000 2.06 80 22:39 02.02.2021
3020 Clouds 29 1006 79 10000 2.06 80 22:19 02.02.2021
3021 Clouds 27 1005 89 10000 1.42 53 21:44 02.02.2021
3022 Clouds 27 1005 89 10000 0.91 32 21:22 02.02.2021
3023 Clouds 25 1005 100 10000 0.91 32 20:48 02.02.2021
3024 Clouds 25 1004 94 10000 0.3 37 20:21 02.02.2021
3025 Clouds 25 1004 94 10000 0.3 37 19:49 02.02.2021
3026 Clouds 25 1004 94 10000 0.3 37 19:30 02.02.2021
3027 Clouds 24 1003 100 10000 0.57 155 18:48 02.02.2021
3028 Clouds 24 1003 100 10000 0.75 193 18:26 02.02.2021
3029 Clouds 24 1003 100 10000 0.75 193 17:59 02.02.2021
3030 Clouds 24 1003 100 10000 0.75 193 17:36 02.02.2021
3031 Clouds 24 1003 100 10000 0.71 204 17:18 02.02.2021
3032 Clouds 25 1003 91 10000 0.71 204 16:42 02.02.2021
3033 Clouds 25 1003 91 10000 0.96 165 16:23 02.02.2021
3034 Clouds 25 1003 91 10000 0.96 165 15:42 02.02.2021
3035 Clouds 25 1004 100 10000 1.13 194 15:22 02.02.2021
3036 Clouds 25 1004 100 10000 1.13 194 14:49 02.02.2021
3037 Clouds 25 1004 100 10000 1.3 185 14:28 02.02.2021
3038 Clouds 25 1004 100 10000 1.3 185 13:55 02.02.2021
3039 Clouds 25 1004 100 10000 1.3 185 13:37 02.02.2021
3040 Clouds 25 1004 100 10000 1.43 171 13:18 02.02.2021
3041 Clouds 26 1005 94 10000 1.03 0 12:36 02.02.2021
3042 Clouds 26 1005 94 10000 1.03 0 11:45 02.02.2021
3043 Clouds 26 1005 94 10000 1.03 0 11:22 02.02.2021
3044 Clouds 26 1005 94 10000 1.03 0 11:22 02.02.2021
3045 Clouds 26 1004 94 10000 2.15 173 10:55 02.02.2021
3046 Clouds 26 1004 94 10000 2.21 173 10:27 02.02.2021
3047 Clouds 27 1004 89 10000 1.03 0 09:47 02.02.2021
3048 Clouds 27 1004 89 10000 1.03 0 09:25 02.02.2021
3049 Clouds 27 1003 83 10000 1.54 170 08:54 02.02.2021
3050 Clouds 27 1003 83 10000 1.54 170 08:25 02.02.2021
3051 Clouds 27 1002 83 10000 2.06 160 07:29 02.02.2021
3052 Clouds 28 1001 78 10000 2.06 170 06:43 02.02.2021
3053 Clouds 29 1001 79 10000 2.57 170 05:53 02.02.2021
3054 Clouds 29 1001 79 10000 3.09 190 04:57 02.02.2021
3055 Clouds 30 1001 70 10000 4.12 210 02:26 02.02.2021
3056 Clouds 29 1001 79 10000 3.6 220 01:55 02.02.2021
3057 Clouds 29 1002 74 10000 3.09 210 00:34 02.02.2021
3058 Clouds 28 1002 78 10000 3.6 200 23:19 01.02.2021
3059 Clouds 28 1001 78 10000 3.6 230 22:50 01.02.2021
3060 Clouds 28 1001 78 10000 3.6 230 22:31 01.02.2021
3061 Clouds 28 1001 83 10000 1.54 260 21:49 01.02.2021
3062 Clouds 28 1001 83 10000 1.54 260 21:27 01.02.2021
3063 Clouds 25 1001 94 10000 1.54 310 20:47 01.02.2021
3064 Clouds 25 1001 94 10000 1.54 310 20:25 01.02.2021
3065 Clouds 24 1000 100 10000 1.54 270 19:59 01.02.2021
3066 Clouds 24 1000 100 10000 1.54 270 19:59 01.02.2021
3067 Clouds 24 1000 100 10000 1.54 270 19:37 01.02.2021
3068 Clouds 25 1000 94 10000 2.06 240 19:18 01.02.2021
3069 Clouds 25 1000 94 10000 2.06 240 18:43 01.02.2021
3070 Clouds 25 1000 94 10000 2.06 240 18:25 01.02.2021
3071 Clouds 24 1000 100 10000 2.24 270 17:46 01.02.2021
3072 Clouds 25 1000 94 10000 1.54 300 17:22 01.02.2021
3073 Clouds 25 1000 94 10000 1.54 300 16:42 01.02.2021
3074 Clouds 25 1000 94 10000 1.54 300 16:23 01.02.2021
3075 Clouds 25 1000 94 10000 3.05 270 15:42 01.02.2021
3076 Clouds 25 1000 94 10000 3.01 281 15:19 01.02.2021
3077 Clouds 25 1000 100 10000 3.01 281 14:51 01.02.2021
3078 Clouds 25 1000 100 10000 2.88 293 14:24 01.02.2021
3079 Clouds 25 1000 100 10000 2.88 293 14:24 01.02.2021
3080 Clouds 26 1000 94 10000 2.06 270 13:45 01.02.2021
3081 Clouds 26 1000 94 10000 2.06 270 13:26 01.02.2021
3082 Clouds 25 1001 94 10000 1.54 300 12:44 01.02.2021
3083 Clouds 25 1001 94 10000 1.54 300 12:25 01.02.2021
3084 Clouds 25 1000 100 10000 2.89 285 11:43 01.02.2021
3085 Clouds 25 1000 100 10000 3.31 291 11:21 01.02.2021
3086 Clouds 26 1000 94 10000 3.31 291 10:50 01.02.2021
3087 Clouds 26 1000 94 10000 3.9 297 10:22 01.02.2021
3088 Clouds 26 999 94 10000 3.9 297 09:53 01.02.2021
3089 Clouds 26 999 94 10000 3.9 297 09:35 01.02.2021
3090 Rain 27 999 83 10000 2.57 300 08:56 01.02.2021
3091 Clouds 27 999 83 10000 2.57 300 08:26 01.02.2021
3092 Clouds 28 997 83 10000 2.57 300 06:59 01.02.2021
3093 Clouds 28 997 83 10000 4.12 240 04:33 01.02.2021
3094 Clouds 29 998 79 10000 4.12 220 02:39 01.02.2021
3095 Clouds 29 999 79 10000 4.12 360 23:57 31.01.2021
3096 Clouds 27 999 89 10000 2.06 360 22:56 31.01.2021
3097 Clouds 27 999 89 10000 2.06 360 22:37 31.01.2021
3098 Clouds 27 999 89 10000 2.06 360 22:18 31.01.2021
3099 Clouds 26 999 94 10000 3.09 320 21:46 31.01.2021
3100 Clouds 26 999 94 10000 3.09 320 21:19 31.01.2021
3101 Clouds 26 999 94 10000 3.09 320 21:19 31.01.2021
3102 Clouds 25 998 94 10000 2.06 300 20:42 31.01.2021
3103 Clouds 25 998 94 10000 2.06 300 20:20 31.01.2021
3104 Clouds 25 997 94 10000 3.6 330 19:38 31.01.2021
3105 Clouds 26 997 89 10000 5.66 330 19:19 31.01.2021
3106 Clouds 26 997 89 10000 5.66 330 18:55 31.01.2021
3107 Clouds 26 997 89 10000 5.66 330 18:37 31.01.2021
3108 Clouds 26 997 89 10000 5.66 330 18:18 31.01.2021
3109 Clouds 26 995 89 10000 7.2 330 17:39 31.01.2021
3110 Clouds 26 995 89 10000 7.2 330 17:19 31.01.2021
3111 Clouds 26 995 89 10000 7.2 330 17:19 31.01.2021
3112 Clouds 26 995 89 10000 4.63 340 16:41 31.01.2021
3113 Clouds 26 995 89 10000 4.63 340 16:20 31.01.2021
3114 Clouds 27 995 83 10000 5.14 340 15:48 31.01.2021
3115 Clouds 27 995 83 10000 5.14 340 15:18 31.01.2021
3116 Clouds 27 995 83 10000 6.69 350 14:36 31.01.2021
3117 Clouds 27 994 83 10000 7.2 340 14:18 31.01.2021
3118 Clouds 27 994 83 10000 7.2 340 13:39 31.01.2021
3119 Clouds 27 994 83 10000 7.2 340 13:18 31.01.2021
3120 Clouds 27 994 83 10000 7.72 340 12:45 31.01.2021
3121 Clouds 27 994 83 10000 7.72 340 12:20 31.01.2021
3122 Clouds 27 993 78 10000 11.32 340 11:39 31.01.2021
3123 Clouds 27 993 78 10000 11.32 340 11:20 31.01.2021
3124 Clouds 28 991 78 10000 10.8 330 10:45 31.01.2021
3125 Clouds 28 991 78 10000 10.8 330 10:26 31.01.2021
3126 Clouds 28 989 78 10000 11.83 340 09:39 31.01.2021
3127 Clouds 29 987 74 10000 10.8 340 08:34 31.01.2021
3128 Clouds 29 987 74 10000 10.8 340 08:34 31.01.2021
3129 Clouds 29 987 74 10000 10.8 340 08:34 31.01.2021
3130 Clouds 28 986 78 10000 10.8 340 07:55 31.01.2021
3131 Clouds 28 985 83 10000 10.8 350 06:36 31.01.2021
3132 Rain 27 983 89 10000 9.26 340 02:19 31.01.2021
3133 Clouds 26 984 94 10000 11.32 50 00:28 31.01.2021
3134 Clouds 26 984 94 10000 11.32 50 00:28 31.01.2021
3135 Clouds 26 985 94 10000 10.29 50 23:43 30.01.2021
3136 Rain 26 985 94 10000 10.29 50 23:22 30.01.2021
3137 Clouds 25 985 100 800 19.55 80 22:37 30.01.2021
3138 Clouds 25 986 100 800 21.09 90 21:45 30.01.2021
3139 Clouds 25 986 100 800 21.09 90 21:24 30.01.2021
3140 Clouds 25 986 100 800 21.09 90 21:24 30.01.2021
3141 Clouds 26 987 94 800 19.03 90 20:55 30.01.2021
3142 Clouds 26 987 94 800 19.03 90 20:35 30.01.2021
3143 Clouds 25 988 100 800 16.46 80 19:58 30.01.2021
3144 Clouds 25 988 100 800 16.46 80 19:39 30.01.2021
3145 Clouds 25 988 100 800 16.46 80 19:19 30.01.2021
3146 Clouds 25 989 94 5000 16.98 90 18:40 30.01.2021
3147 Clouds 25 989 94 5000 16.98 90 18:19 30.01.2021
3148 Clouds 25 989 100 3000 17.49 70 17:45 30.01.2021
3149 Clouds 25 989 100 3000 17.49 70 17:18 30.01.2021
3150 Clouds 25 991 94 5000 15.95 90 16:39 30.01.2021
3151 Clouds 25 991 94 5000 15.95 90 16:21 30.01.2021
3152 Clouds 25 991 94 8000 16.46 80 15:47 30.01.2021
3153 Clouds 25 991 100 3000 15.95 80 15:23 30.01.2021
3154 Clouds 25 994 100 8000 13.38 80 14:52 30.01.2021
3155 Clouds 25 994 100 8000 13.38 80 14:27 30.01.2021
3156 Clouds 26 995 94 10000 12.86 70 13:48 30.01.2021
3157 Clouds 26 995 94 10000 12.86 70 13:20 30.01.2021
3158 Clouds 26 996 89 10000 11.32 60 12:43 30.01.2021
3159 Clouds 26 996 89 10000 11.32 60 12:22 30.01.2021
3160 Clouds 26 997 89 10000 11.32 60 11:41 30.01.2021
3161 Clouds 26 997 89 10000 8.23 60 10:55 30.01.2021
3162 Clouds 27 997 83 10000 7.72 60 09:58 30.01.2021
3163 Clouds 27 997 83 10000 7.72 60 09:39 30.01.2021
3164 Clouds 27 997 83 10000 7.72 60 09:21 30.01.2021
3165 Clouds 26 998 89 10000 6.69 70 08:41 30.01.2021
3166 Clouds 27 997 83 10000 8.23 60 07:30 30.01.2021
3167 Clouds 29 997 74 10000 8.23 40 06:21 30.01.2021
3168 Rain 31 998 62 10000 7.72 30 03:36 30.01.2021
3169 Clouds 31 999 62 10000 8.75 40 02:26 30.01.2021
3170 Clouds 31 1000 70 10000 7.72 30 01:59 30.01.2021
3171 Clouds 30 1000 79 10000 7.2 30 00:49 30.01.2021
3172 Clouds 30 1000 79 10000 7.2 30 00:21 30.01.2021
3173 Clouds 28 1001 78 10000 7.72 30 23:49 29.01.2021
3174 Clouds 28 1001 78 10000 7.72 30 23:27 29.01.2021
3175 Clouds 27 1001 89 10000 5.14 10 22:45 29.01.2021
3176 Clouds 27 1001 89 10000 5.14 10 22:22 29.01.2021
3177 Clouds 28 1001 83 10000 4.12 20 21:43 29.01.2021
3178 Clouds 28 1001 83 10000 4.12 20 21:25 29.01.2021
3179 Clouds 26 1000 89 10000 5.14 10 20:42 29.01.2021
3180 Clouds 26 1002 89 10000 5.14 10 20:21 29.01.2021
3181 Clouds 25 1000 94 10000 1.03 0 19:39 29.01.2021
3182 Clouds 25 1000 94 10000 1.03 0 19:19 29.01.2021
3183 Clouds 25 1000 94 10000 1.03 0 18:44 29.01.2021
3184 Clouds 25 1000 94 10000 1.03 0 17:45 29.01.2021
3185 Clouds 25 1000 94 10000 1.03 0 17:22 29.01.2021
3186 Clouds 25 999 94 10000 1.54 0 16:47 29.01.2021
3187 Rain 25 999 94 10000 1.54 0 16:24 29.01.2021
3188 Rain 24 1000 94 10000 1.54 100 15:52 29.01.2021
3189 Rain 24 1000 94 10000 1.54 100 15:34 29.01.2021
3190 Rain 25 1000 91 10000 8.49 12 14:56 29.01.2021
3191 Clouds 24 1001 100 10000 2.06 350 14:18 29.01.2021
3192 Clouds 24 1001 100 10000 2.06 350 13:45 29.01.2021
3193 Clouds 24 1001 100 10000 2.06 350 13:26 29.01.2021
3194 Rain 24 1002 100 10000 8.31 11 12:30 29.01.2021
3195 Clouds 24 1001 100 10000 1.03 0 11:51 29.01.2021
3196 Rain 24 1001 100 10000 1.03 0 11:20 29.01.2021
3197 Rain 24 1001 100 10000 1.54 320 10:53 29.01.2021
3198 Clouds 24 1001 100 10000 1.54 320 10:35 29.01.2021
3199 Rain 25 1001 94 10000 1.03 0 09:50 29.01.2021
3200 Clouds 25 1001 94 10000 1.03 0 09:28 29.01.2021
3201 Clouds 25 1000 94 10000 2.57 350 08:47 29.01.2021
3202 Clouds 25 1000 94 10000 2.57 350 08:25 29.01.2021
3203 Rain 25 1000 94 10000 2.57 330 07:42 29.01.2021
3204 Clouds 25 1000 94 10000 2.57 330 07:22 29.01.2021
3205 Clouds 26 1000 94 10000 3.6 340 06:29 29.01.2021
3206 Clouds 26 1000 94 10000 2.57 340 03:52 29.01.2021
3207 Clouds 25 1001 94 10000 2.18 346 00:45 29.01.2021
3208 Clouds 25 1001 94 10000 2.29 9 00:22 29.01.2021
3209 Clouds 25 1001 94 10000 2.29 9 00:22 29.01.2021
3210 Clouds 25 1001 94 10000 2.06 330 23:45 28.01.2021
3211 Clouds 25 1001 94 10000 2.06 330 23:26 28.01.2021
3212 Clouds 25 1001 94 10000 1.03 0 22:50 28.01.2021
3213 Clouds 25 1001 94 10000 1.03 0 22:29 28.01.2021
3214 Clouds 25 1000 94 10000 2.2 11 21:59 28.01.2021
3215 Clouds 25 1000 94 10000 2.2 11 21:40 28.01.2021
3216 Clouds 24 1000 100 10000 3.26 17 21:20 28.01.2021
3217 Clouds 24 1000 100 10000 3.26 17 20:40 28.01.2021
3218 Clouds 24 1000 100 10000 1.29 335 20:19 28.01.2021
3219 Clouds 24 999 100 10000 2.57 360 19:47 28.01.2021
3220 Clouds 24 999 100 10000 2.57 360 19:24 28.01.2021
3221 Clouds 24 999 100 10000 2.06 360 18:48 28.01.2021
3222 Clouds 24 999 100 10000 2.06 360 18:28 28.01.2021
3223 Clouds 24 999 100 5000 3.6 330 17:47 28.01.2021
3224 Clouds 24 999 100 5000 3.6 330 17:29 28.01.2021
3225 Clouds 24 998 94 10000 2 309 16:46 28.01.2021
3226 Clouds 24 998 94 10000 2.24 300 16:25 28.01.2021
3227 Clouds 24 999 100 10000 2.06 320 15:56 28.01.2021
3228 Clouds 24 999 100 10000 2.06 320 15:23 28.01.2021
3229 Clouds 24 999 100 10000 2.57 320 14:43 28.01.2021
3230 Clouds 24 999 100 10000 2.57 320 14:23 28.01.2021
3231 Clouds 24 999 100 5000 3.6 330 13:49 28.01.2021
3232 Clouds 24 1000 100 8000 4.12 310 13:21 28.01.2021
3233 Clouds 25 1000 100 8000 2.57 310 12:46 28.01.2021
3234 Clouds 25 1000 100 8000 2.57 310 12:21 28.01.2021
3235 Clouds 25 1000 100 10000 2.43 275 11:44 28.01.2021
3236 Clouds 25 999 100 10000 2.24 282 11:21 28.01.2021
3237 Clouds 25 999 100 10000 2.24 282 10:55 28.01.2021
3238 Clouds 25 999 100 10000 2.24 282 10:35 28.01.2021
3239 Clouds 25 999 100 10000 2.76 269 09:59 28.01.2021
3240 Clouds 25 999 100 10000 2.76 269 09:31 28.01.2021
3241 Clouds 25 999 100 8000 1.54 270 08:57 28.01.2021
3242 Clouds 25 999 100 8000 1.54 270 08:39 28.01.2021
3243 Clouds 26 998 94 8000 3.09 290 07:46 28.01.2021
3244 Clouds 27 997 94 10000 1.54 140 06:51 28.01.2021
3245 Clouds 27 997 94 10000 1.54 140 06:31 28.01.2021
3246 Clouds 30 997 79 10000 3.6 100 04:30 28.01.2021
3247 Clouds 31 999 66 10000 2.06 170 01:41 28.01.2021
3248 Clouds 31 999 66 10000 2.06 170 01:41 28.01.2021
3249 Clouds 30 999 79 10000 2.06 220 23:56 27.01.2021
3250 Clouds 30 999 79 10000 2.06 220 23:24 27.01.2021
3251 Clouds 28 999 89 10000 2.06 260 22:44 27.01.2021
3252 Clouds 28 999 89 10000 2.06 260 22:25 27.01.2021
3253 Clouds 27 999 94 10000 1.54 280 21:44 27.01.2021
3254 Clouds 27 999 94 10000 1.54 280 21:24 27.01.2021
3255 Clouds 26 999 94 10000 2.06 300 20:55 27.01.2021
3256 Clouds 26 999 94 10000 2.06 300 20:31 27.01.2021
3257 Clouds 26 998 94 10000 2.57 260 19:56 27.01.2021
3258 Clouds 26 998 94 10000 2.57 260 19:37 27.01.2021
3259 Clouds 26 998 94 10000 2.06 240 19:18 27.01.2021
3260 Clouds 26 998 94 10000 2.06 240 18:40 27.01.2021
3261 Clouds 26 998 94 10000 2.06 240 18:21 27.01.2021
3262 Clouds 25 998 94 10000 2.57 260 17:40 27.01.2021
3263 Clouds 25 998 94 10000 3.09 270 17:18 27.01.2021
3264 Clouds 25 998 94 10000 3.09 270 16:44 27.01.2021
3265 Clouds 25 998 94 10000 3.09 270 16:26 27.01.2021
3266 Clouds 25 998 100 10000 2.57 250 15:49 27.01.2021
3267 Clouds 25 998 100 10000 2.57 250 15:30 27.01.2021
3268 Clouds 25 999 100 10000 3.09 260 14:41 27.01.2021
3269 Clouds 26 1000 94 10000 1.54 230 14:20 27.01.2021
3270 Clouds 26 1000 94 10000 1.54 230 13:41 27.01.2021
3271 Clouds 27 1000 89 10000 1.54 270 12:46 27.01.2021
3272 Clouds 27 1000 89 10000 1.54 270 12:26 27.01.2021
3273 Clouds 26 1000 89 10000 1.37 357 11:52 27.01.2021
3274 Clouds 26 1000 89 10000 1.86 12 11:26 27.01.2021
3275 Clouds 26 999 94 10000 1.86 12 10:52 27.01.2021
3276 Clouds 26 999 94 10000 2.93 34 10:26 27.01.2021
3277 Clouds 27 999 83 10000 2.93 34 09:59 27.01.2021
3278 Clouds 27 999 83 10000 2.93 34 09:33 27.01.2021
3279 Clouds 28 999 78 10000 3.61 61 08:47 27.01.2021
3280 Clouds 29 999 74 10000 2.06 150 07:58 27.01.2021
3281 Clouds 29 999 74 10000 2.06 150 07:39 27.01.2021
3282 Clouds 29 998 74 10000 2.06 130 06:47 27.01.2021
3283 Clouds 30 998 70 10000 3.6 110 05:56 27.01.2021
3284 Clouds 30 998 70 10000 3.6 110 05:35 27.01.2021
3285 Clouds 28 1000 78 10000 8.23 60 02:46 27.01.2021
3286 Clouds 27 1000 89 10000 9.77 80 02:20 27.01.2021
3287 Clouds 27 1000 89 10000 9.77 80 01:46 27.01.2021
3288 Clouds 29 1000 89 10000 3.09 140 00:29 27.01.2021
3289 Clouds 29 1001 89 10000 2.06 190 23:40 26.01.2021
3290 Clouds 29 1001 84 10000 1.54 250 23:21 26.01.2021
3291 Clouds 29 1001 84 10000 1.54 250 22:40 26.01.2021
3292 Clouds 26 1000 94 10000 1.03 0 22:19 26.01.2021
3293 Clouds 26 1000 94 10000 1.03 0 21:52 26.01.2021
3294 Clouds 26 1000 94 10000 1.03 0 21:25 26.01.2021
3295 Clouds 25 1000 94 10000 1.03 0 20:54 26.01.2021
3296 Clouds 25 1000 94 10000 1.03 0 20:36 26.01.2021
3297 Clouds 25 1000 94 10000 1.03 0 20:18 26.01.2021
3298 Clouds 25 1000 94 10000 1.03 0 20:18 26.01.2021
3299 Clouds 24 999 94 10000 1.03 0 19:40 26.01.2021
3300 Clouds 24 999 94 10000 1.03 0 19:19 26.01.2021
3301 Clouds 24 999 94 10000 1.03 0 18:42 26.01.2021
3302 Clouds 24 999 94 10000 1.03 0 18:23 26.01.2021
3303 Clouds 24 999 94 10000 1.03 0 17:48 26.01.2021
3304 Clouds 24 999 94 10000 1.03 0 17:23 26.01.2021
3305 Clouds 24 1000 100 10000 1.03 0 16:52 26.01.2021
3306 Clouds 24 1000 100 10000 1.03 0 16:21 26.01.2021
3307 Clouds 24 1000 100 10000 1.03 0 15:53 26.01.2021
3308 Clouds 24 1000 100 10000 1.03 0 15:35 26.01.2021
3309 Clouds 25 1000 94 10000 2.06 310 14:49 26.01.2021
3310 Clouds 25 1000 94 10000 2.06 310 14:30 26.01.2021
3311 Clouds 25 1001 94 10000 2.06 300 13:51 26.01.2021
3312 Clouds 25 1001 94 10000 2.06 300 13:28 26.01.2021
3313 Clouds 25 1002 94 10000 2.06 310 12:45 26.01.2021
3314 Clouds 25 1002 94 10000 2.06 310 12:25 26.01.2021
3315 Clouds 26 1002 94 10000 1.03 210 11:59 26.01.2021
3316 Clouds 26 1002 94 10000 1.03 210 11:39 26.01.2021
3317 Clouds 26 1002 94 10000 1.03 240 10:55 26.01.2021
3318 Clouds 26 1002 94 10000 1.03 240 10:33 26.01.2021
3319 Clouds 26 1002 94 10000 1.03 240 10:33 26.01.2021
3320 Clouds 27 1001 83 10000 1.03 220 09:49 26.01.2021
3321 Rain 27 1001 83 10000 1.03 220 09:30 26.01.2021
3322 Clouds 28 1001 83 10000 2.06 190 08:53 26.01.2021
3323 Clouds 28 1001 83 10000 2.06 190 08:34 26.01.2021
3324 Clouds 29 1000 79 10000 3.6 190 07:53 26.01.2021
3325 Clouds 28 1000 83 10000 4.12 170 06:53 26.01.2021
3326 Clouds 28 1000 83 10000 4.12 170 05:45 26.01.2021
3327 Clouds 28 1000 83 10000 4.12 170 05:24 26.01.2021
3328 Clouds 29 1002 84 10000 3.09 160 02:57 26.01.2021
3329 Clouds 26 1003 94 10000 5.14 140 00:58 26.01.2021
3330 Clouds 28 1003 89 10000 1.03 0 23:40 25.01.2021
3331 Clouds 28 1003 89 10000 1.03 0 23:18 25.01.2021
3332 Clouds 26 1003 94 10000 1.54 310 22:39 25.01.2021
3333 Clouds 25 1003 100 10000 1.03 0 21:58 25.01.2021
3334 Clouds 25 1003 100 10000 1.03 0 21:39 25.01.2021
3335 Clouds 25 1003 100 10000 2.06 70 20:53 25.01.2021
3336 Clouds 25 1003 100 10000 2.06 70 20:33 25.01.2021
3337 Clouds 25 1003 100 10000 2.06 70 19:52 25.01.2021
3338 Clouds 24 1003 100 10000 2.57 40 19:32 25.01.2021
3339 Clouds 24 1002 100 10000 1.03 0 18:59 25.01.2021
3340 Clouds 24 1002 100 10000 1.03 0 18:41 25.01.2021
3341 Clouds 24 1002 100 10000 1.03 0 18:21 25.01.2021
3342 Clouds 24 1002 100 10000 1.03 0 17:42 25.01.2021
3343 Clouds 24 1002 100 10000 1.03 0 17:23 25.01.2021
3344 Rain 24 1002 100 10000 1.03 0 16:41 25.01.2021
3345 Clouds 24 1002 100 10000 1.03 0 16:23 25.01.2021
3346 Rain 24 1002 100 10000 2.06 310 15:53 25.01.2021
3347 Clouds 24 1002 100 10000 2.06 310 15:32 25.01.2021
3348 Rain 25 1003 94 10000 1.54 330 14:50 25.01.2021
3349 Rain 25 1003 94 10000 1.54 330 14:20 25.01.2021
3350 Rain 25 1004 100 10000 1.03 330 13:54 25.01.2021
3351 Rain 25 1004 100 10000 1.03 330 13:35 25.01.2021
3352 Rain 25 1004 94 10000 2.57 290 12:49 25.01.2021
3353 Rain 25 1004 94 10000 2.57 290 12:24 25.01.2021
3354 Clouds 25 1004 94 10000 2.06 310 11:57 25.01.2021
3355 Rain 25 1004 94 10000 2.06 310 11:20 25.01.2021
3356 Rain 25 1004 100 10000 1.54 320 10:43 25.01.2021
3357 Rain 25 1004 100 10000 1.03 0 10:20 25.01.2021
3358 Rain 25 1004 100 10000 1.03 0 09:46 25.01.2021
3359 Clouds 25 1004 100 10000 1.03 0 09:28 25.01.2021
3360 Clouds 26 1003 94 10000 2.06 240 08:32 25.01.2021
3361 Rain 27 1003 83 10000 3.6 300 07:46 25.01.2021
3362 Rain 27 1003 83 10000 3.6 300 07:26 25.01.2021
3363 Rain 31 1002 66 10000 3.6 110 06:22 25.01.2021
3364 Clouds 30 1004 74 10000 2.57 90 01:35 25.01.2021
3365 Clouds 30 1005 74 10000 2.57 90 00:31 25.01.2021
3366 Rain 30 1005 74 10000 1.54 40 23:20 24.01.2021
3367 Rain 28 1005 83 10000 2.06 330 22:46 24.01.2021
3368 Clouds 28 1005 83 10000 2.06 330 22:27 24.01.2021
3369 Clouds 28 1005 83 10000 2.06 330 22:27 24.01.2021
3370 Clouds 28 1005 83 10000 2.06 330 22:26 24.01.2021
3371 Clouds 25 1006 94 10000 1.54 310 21:51 24.01.2021
3372 Clouds 25 1006 94 10000 1.54 310 21:27 24.01.2021
3373 Clouds 24 1005 100 10000 1.54 280 20:46 24.01.2021
3374 Clouds 24 1005 100 10000 1.54 280 20:23 24.01.2021
3375 Clouds 24 1005 100 10000 1.54 330 19:56 24.01.2021
3376 Clouds 24 1005 100 10000 1.54 330 19:28 24.01.2021
3377 Clouds 24 1005 100 10000 1.54 330 19:28 24.01.2021
3378 Clouds 24 1004 100 10000 0.92 27 18:59 24.01.2021
3379 Clouds 24 1004 100 10000 1.23 353 18:40 24.01.2021
3380 Clouds 24 1004 100 10000 0.81 34 18:21 24.01.2021
3381 Clouds 24 1003 100 10000 0.81 34 17:51 24.01.2021
3382 Clouds 24 1003 100 10000 0.81 34 17:31 24.01.2021
3383 Clouds 25 1003 100 10000 1.08 51 16:59 24.01.2021
3384 Clouds 25 1003 100 10000 1.08 51 16:40 24.01.2021
3385 Clouds 25 1004 100 10000 1.18 68 16:20 24.01.2021
3386 Clouds 25 1004 100 10000 1.18 68 15:45 24.01.2021
3387 Rain 25 1004 100 10000 1.52 74 15:20 24.01.2021
3388 Rain 25 1006 100 10000 1.52 74 14:45 24.01.2021
3389 Rain 25 1006 100 10000 1.8 76 14:24 24.01.2021
3390 Rain 25 1007 100 10000 1.8 76 13:34 24.01.2021
3391 Rain 25 1008 100 10000 2.06 210 12:51 24.01.2021
3392 Rain 25 1008 100 10000 2.06 210 12:22 24.01.2021
3393 Rain 25 1008 94 10000 2.57 210 11:54 24.01.2021
3394 Rain 25 1008 94 10000 2.57 210 11:25 24.01.2021
3395 Rain 24 1008 100 10000 2.06 200 10:59 24.01.2021
3396 Rain 24 1008 100 10000 2.06 200 10:30 24.01.2021
3397 Rain 24 1006 100 10000 0.51 100 09:47 24.01.2021
3398 Rain 24 1006 100 10000 0.64 83 09:19 24.01.2021
3399 Rain 24 1006 100 10000 2.06 210 08:37 24.01.2021
3400 Rain 30 1005 79 10000 3.6 40 03:50 24.01.2021
3401 Rain 31 1006 70 10000 4.12 40 02:19 24.01.2021
3402 Rain 31 1007 66 10000 3.09 30 00:39 24.01.2021
3403 Clouds 30 1008 79 10000 2.06 350 00:19 24.01.2021
3404 Clouds 30 1008 79 10000 2.06 350 23:33 23.01.2021
3405 Rain 29 1008 84 10000 2.06 320 22:58 23.01.2021
3406 Rain 29 1008 84 10000 2.06 320 22:40 23.01.2021
3407 Rain 26 1008 94 10000 2.06 310 21:59 23.01.2021
3408 Rain 26 1008 94 10000 2.06 310 21:23 23.01.2021
3409 Rain 25 1008 100 10000 1.54 340 20:53 23.01.2021
3410 Rain 25 1008 100 10000 1.54 340 20:33 23.01.2021
3411 Rain 25 1008 94 10000 2.06 310 19:56 23.01.2021
3412 Rain 25 1008 94 10000 2.06 310 19:38 23.01.2021
3413 Rain 25 1008 94 10000 2.06 310 19:20 23.01.2021
3414 Rain 25 1007 94 10000 2.06 320 18:42 23.01.2021
3415 Clouds 25 1007 94 10000 2.06 320 18:20 23.01.2021
3416 Clouds 25 1007 94 10000 1.54 290 17:29 23.01.2021
3417 Rain 25 1007 100 10000 1.54 340 16:52 23.01.2021
3418 Rain 25 1007 100 10000 1.54 340 16:32 23.01.2021
3419 Clouds 25 1007 100 10000 2.06 330 15:53 23.01.2021
3420 Rain 25 1007 100 10000 2.06 330 15:28 23.01.2021
3421 Clouds 25 1008 100 10000 2.06 20 14:38 23.01.2021
3422 Clouds 25 1008 100 10000 2.06 20 14:19 23.01.2021
3423 Clouds 25 1009 100 10000 2.49 165 13:40 23.01.2021
3424 Rain 25 1009 100 10000 2.34 172 13:22 23.01.2021
3425 Rain 25 1010 100 10000 0.34 297 12:43 23.01.2021
3426 Rain 25 1010 100 10000 0.24 141 12:23 23.01.2021
3427 Rain 25 1010 100 10000 1.54 240 11:35 23.01.2021
3428 Rain 25 1010 100 10000 2.06 310 10:55 23.01.2021
3429 Rain 25 1010 100 10000 2.06 310 10:24 23.01.2021
3430 Rain 26 1009 94 10000 1.54 230 09:52 23.01.2021
3431 Rain 26 1009 94 10000 1.54 230 09:28 23.01.2021
3432 Rain 26 1009 94 10000 2.06 220 08:43 23.01.2021
3433 Rain 26 1008 94 10000 1.54 220 07:48 23.01.2021
3434 Rain 26 1007 89 10000 1.54 210 06:49 23.01.2021
3435 Rain 27 1008 89 10000 1.12 22 02:30 23.01.2021
3436 Rain 31 1009 70 10000 4.12 60 00:32 23.01.2021
3437 Rain 31 1009 70 10000 2.57 10 23:36 22.01.2021
3438 Rain 30 1009 70 10000 2.57 40 22:44 22.01.2021
3439 Rain 30 1009 70 10000 2.57 40 22:20 22.01.2021
3440 Rain 28 1009 83 10000 2.06 360 21:39 22.01.2021
3441 Clouds 28 1009 83 10000 2.06 360 21:21 22.01.2021
3442 Clouds 25 1009 94 10000 1.54 40 20:46 22.01.2021
3443 Clouds 25 1009 94 10000 1.54 40 20:26 22.01.2021
3444 Clouds 24 1009 94 10000 1.54 30 19:47 22.01.2021
3445 Rain 23 1007 100 10000 1.36 314 19:18 22.01.2021
3446 Rain 23 1007 100 10000 1.36 314 18:44 22.01.2021
3447 Clouds 23 1007 100 10000 1.43 292 18:25 22.01.2021
3448 Clouds 24 1007 100 10000 2.06 320 17:46 22.01.2021
3449 Clouds 24 1007 100 10000 2.06 320 17:28 22.01.2021
3450 Clouds 24 1008 100 10000 1.54 310 16:54 22.01.2021
3451 Clouds 24 1008 100 10000 1.54 310 16:27 22.01.2021
3452 Clouds 25 1008 94 10000 2.16 315 15:44 22.01.2021
3453 Rain 25 1008 94 10000 2.09 338 15:19 22.01.2021
3454 Rain 25 1009 94 10000 2.06 40 14:31 22.01.2021
3455 Rain 26 1010 94 10000 2.06 310 13:52 22.01.2021
3456 Rain 26 1010 94 10000 2.06 310 13:32 22.01.2021
3457 Rain 26 1010 94 10000 2.06 28 12:53 22.01.2021
3458 Rain 26 1010 94 10000 1.26 298 12:26 22.01.2021
3459 Clouds 26 1010 94 10000 1.54 200 11:47 22.01.2021
3460 Clouds 26 1010 94 10000 1.54 200 11:25 22.01.2021
3461 Clouds 27 1010 94 10000 2.57 240 10:45 22.01.2021
3462 Clouds 27 1010 94 10000 2.57 240 10:22 22.01.2021
3463 Clouds 28 1009 83 10000 1.54 270 09:39 22.01.2021
3464 Clouds 28 1008 83 10000 1.54 10 08:51 22.01.2021
3465 Clouds 28 1008 83 10000 1.54 10 08:30 22.01.2021
3466 Clouds 29 1007 79 10000 1.54 330 07:38 22.01.2021
3467 Rain 29 1007 74 10000 4.12 350 03:41 22.01.2021
3468 Rain 32 1008 66 10000 2.57 280 00:54 22.01.2021
3469 Rain 31 1009 74 10000 3.09 320 23:56 21.01.2021
3470 Rain 31 1009 74 10000 3.09 320 23:38 21.01.2021
3471 Rain 28 1010 89 10000 2.06 310 22:57 21.01.2021
3472 Rain 28 1010 89 10000 2.06 310 22:38 21.01.2021
3473 Clouds 27 1010 89 10000 2.06 360 21:44 21.01.2021
3474 Rain 27 1010 89 10000 2.06 360 21:22 21.01.2021
3475 Rain 25 1009 100 10000 2.06 320 20:55 21.01.2021
3476 Rain 25 1009 100 10000 2.06 320 20:36 21.01.2021
3477 Clouds 25 1009 100 10000 2.06 320 20:18 21.01.2021
3478 Clouds 25 1009 94 10000 2.06 300 19:44 21.01.2021
3479 Clouds 25 1009 94 10000 2.06 300 19:23 21.01.2021
3480 Clouds 25 1008 94 10000 1.03 330 18:41 21.01.2021
3481 Rain 25 1008 94 10000 1.03 330 18:21 21.01.2021
3482 Rain 25 1007 94 10000 2.06 320 17:57 21.01.2021
3483 Rain 25 1007 94 10000 2.06 320 17:21 21.01.2021
3484 Rain 25 1007 94 10000 1.98 334 16:54 21.01.2021
3485 Rain 25 1007 94 10000 1.98 334 16:36 21.01.2021
3486 Rain 25 1008 100 10000 1.03 30 16:18 21.01.2021
3487 Rain 25 1008 100 10000 1.03 30 15:39 21.01.2021
3488 Rain 25 1008 100 10000 1.03 30 15:21 21.01.2021
3489 Rain 25 1008 100 10000 2.06 310 14:37 21.01.2021
3490 Clouds 25 1009 100 10000 1.03 320 13:52 21.01.2021
3491 Clouds 25 1009 100 10000 1.03 320 13:52 21.01.2021
3492 Clouds 25 1009 100 10000 1.03 320 13:33 21.01.2021
3493 Rain 26 1010 94 10000 1.72 19 12:58 21.01.2021
3494 Rain 26 1010 94 10000 1.72 19 12:39 21.01.2021
3495 Rain 26 1010 94 10000 1.69 25 12:21 21.01.2021
3496 Rain 25 1010 100 10000 1.54 310 11:48 21.01.2021
3497 Rain 25 1010 100 10000 1.54 310 11:25 21.01.2021
3498 Rain 25 1009 100 10000 1.03 300 10:51 21.01.2021
3499 Rain 25 1009 100 10000 1.03 300 10:30 21.01.2021
3500 Rain 25 1008 94 10000 1.54 210 09:44 21.01.2021
3501 Rain 25 1008 94 10000 1.54 210 09:25 21.01.2021
3502 Rain 26 1008 89 10000 1.54 210 08:44 21.01.2021
3503 Rain 26 1008 89 10000 1.54 210 08:23 21.01.2021
3504 Rain 27 1007 89 10000 3.09 230 07:27 21.01.2021
3505 Rain 28 1006 89 10000 1.54 240 06:53 21.01.2021
3506 Rain 32 1006 62 10000 3.6 330 05:20 21.01.2021
3507 Rain 32 1006 66 10000 4.12 20 02:27 21.01.2021
3508 Rain 32 1007 66 10000 4.63 40 00:47 21.01.2021
3509 Clouds 31 1008 66 10000 4.12 10 23:53 20.01.2021
3510 Clouds 31 1008 66 10000 4.12 10 23:32 20.01.2021
3511 Clouds 28 1009 83 10000 2.06 320 22:58 20.01.2021
3512 Clouds 28 1009 83 10000 2.06 320 22:36 20.01.2021
3513 Clouds 28 1009 83 10000 3.09 320 21:56 20.01.2021
3514 Clouds 28 1009 83 10000 3.09 320 21:24 20.01.2021
3515 Rain 25 1009 94 10000 2.57 320 20:58 20.01.2021
3516 Clouds 25 1009 94 10000 2.57 320 20:38 20.01.2021
3517 Rain 25 1009 94 10000 2.57 320 20:18 20.01.2021
3518 Clouds 24 1008 100 10000 2.06 320 19:41 20.01.2021
3519 Clouds 24 1008 100 10000 2.06 320 19:22 20.01.2021
3520 Clouds 24 1007 94 10000 1.54 310 18:42 20.01.2021
3521 Clouds 24 1007 100 10000 1.54 310 17:57 20.01.2021
3522 Clouds 24 1007 100 10000 1.54 310 17:37 20.01.2021
3523 Clouds 24 1007 100 10000 2.06 330 16:53 20.01.2021
3524 Clouds 24 1007 100 10000 2.06 330 16:33 20.01.2021
3525 Clouds 25 1007 94 10000 1.03 0 15:52 20.01.2021
3526 Clouds 25 1007 94 10000 1.03 0 15:34 20.01.2021
3527 Rain 25 1008 94 10000 1.03 330 14:50 20.01.2021
3528 Clouds 25 1008 94 10000 1.03 330 14:23 20.01.2021
3529 Clouds 25 1009 94 10000 1.54 320 13:42 20.01.2021
3530 Rain 25 1009 94 10000 1.54 320 13:24 20.01.2021
3531 Rain 25 1010 94 10000 1.54 320 12:39 20.01.2021
3532 Rain 25 1010 100 10000 1.54 320 11:57 20.01.2021
3533 Rain 25 1010 100 10000 1.54 320 11:37 20.01.2021
3534 Rain 25 1009 100 10000 1.54 290 10:56 20.01.2021
3535 Rain 25 1009 100 10000 1.54 290 10:32 20.01.2021
3536 Rain 26 1009 94 10000 1.03 350 09:54 20.01.2021
3537 Rain 26 1009 94 10000 1.03 350 09:26 20.01.2021
3538 Rain 26 1008 94 10000 1.54 270 08:55 20.01.2021
3539 Rain 26 1008 94 10000 1.54 270 08:29 20.01.2021
3540 Rain 26 1008 94 10000 1.54 250 07:56 20.01.2021
3541 Rain 26 1008 94 10000 1.54 250 07:25 20.01.2021
3542 Rain 26 1008 94 10000 1.54 250 07:25 20.01.2021
3543 Rain 27 1008 83 10000 3.09 280 05:50 20.01.2021
3544 Rain 31 1008 70 10000 4.63 50 03:28 20.01.2021
3545 Rain 32 1009 66 10000 2.06 30 01:18 20.01.2021
3546 Rain 32 1010 62 10000 3.09 10 00:45 20.01.2021
3547 Clouds 32 1010 66 10000 2.57 340 23:48 19.01.2021
3548 Clouds 32 1010 66 10000 2.57 340 23:20 19.01.2021
3549 Clouds 30 1011 74 10000 2.57 330 22:43 19.01.2021
3550 Clouds 30 1011 74 10000 2.57 330 22:22 19.01.2021
3551 Clouds 28 1011 83 10000 2.06 340 21:59 19.01.2021
3552 Clouds 28 1011 83 10000 2.06 340 21:59 19.01.2021
3553 Clouds 28 1011 83 10000 2.06 340 21:40 19.01.2021
3554 Clouds 25 1011 94 10000 2.57 320 21:19 19.01.2021
3555 Clouds 25 1011 94 10000 2.57 320 20:42 19.01.2021
3556 Clouds 25 1011 94 10000 2.57 320 20:22 19.01.2021
3557 Clouds 24 1010 94 10000 2.25 1 19:42 19.01.2021
3558 Clouds 24 1010 94 10000 2.14 350 19:23 19.01.2021
3559 Clouds 24 1010 94 10000 2.06 300 18:43 19.01.2021
3560 Clouds 24 1010 94 10000 2.06 300 18:25 19.01.2021
3561 Clouds 24 1010 94 10000 1.54 310 17:45 19.01.2021
3562 Clouds 24 1010 94 10000 1.54 310 17:24 19.01.2021
3563 Clouds 24 1010 100 10000 2.05 356 16:48 19.01.2021
3564 Clouds 24 1010 100 10000 2.14 356 16:25 19.01.2021
3565 Clouds 25 1010 94 10000 1.54 310 15:57 19.01.2021
3566 Clouds 25 1010 94 10000 1.54 310 15:35 19.01.2021
3567 Clouds 25 1011 94 10000 1.54 310 14:51 19.01.2021
3568 Clouds 25 1011 94 10000 1.54 310 14:31 19.01.2021
3569 Clouds 25 1012 94 10000 1.54 320 13:56 19.01.2021
3570 Clouds 25 1012 94 10000 1.54 320 13:37 19.01.2021
3571 Clouds 25 1012 94 10000 1.54 320 13:19 19.01.2021
3572 Clouds 26 1012 94 10000 1.54 310 12:36 19.01.2021
3573 Clouds 26 1012 94 10000 1.54 310 12:36 19.01.2021
3574 Clouds 26 1012 94 10000 1.54 310 12:18 19.01.2021
3575 Clouds 26 1012 94 10000 2.06 310 11:43 19.01.2021
3576 Clouds 26 1012 94 10000 2.06 310 11:22 19.01.2021
3577 Clouds 27 1011 83 10000 1.54 340 10:50 19.01.2021
3578 Clouds 27 1011 83 10000 1.54 340 10:29 19.01.2021
3579 Clouds 27 1011 83 10000 1.54 290 09:51 19.01.2021
3580 Clouds 27 1011 83 10000 1.54 290 09:20 19.01.2021
3581 Clouds 29 1011 79 10000 1.54 80 08:45 19.01.2021
3582 Clouds 31 1010 62 10000 3.6 60 07:57 19.01.2021
3583 Clouds 31 1010 62 10000 3.6 60 07:22 19.01.2021
3584 Clouds 33 1009 58 10000 5.14 80 04:55 19.01.2021
3585 Clouds 33 1010 62 10000 4.63 60 02:24 19.01.2021
3586 Clouds 32 1011 66 10000 4.12 70 00:47 19.01.2021
3587 Clouds 31 1011 70 10000 2.06 70 23:57 18.01.2021
3588 Clouds 31 1011 70 10000 2.06 70 23:29 18.01.2021
3589 Clouds 30 1012 74 10000 2.5 42 22:46 18.01.2021
3590 Clouds 30 1012 74 10000 2.54 29 22:24 18.01.2021
3591 Clouds 27 1012 89 10000 2.06 320 21:48 18.01.2021
3592 Clouds 27 1012 89 10000 2.06 320 21:24 18.01.2021
3593 Clouds 24 1011 94 10000 2.06 310 20:57 18.01.2021
3594 Clouds 24 1011 94 10000 2.06 310 20:35 18.01.2021
3595 Clouds 24 1011 94 10000 1.54 310 19:54 18.01.2021
3596 Clouds 24 1011 94 10000 1.54 310 19:36 18.01.2021
3597 Clouds 24 1011 94 10000 2.5 12 18:57 18.01.2021
3598 Clouds 24 1011 94 10000 2.39 12 18:38 18.01.2021
3599 Clouds 24 1011 94 10000 2.32 12 18:19 18.01.2021
3600 Clouds 24 1010 94 10000 2.32 12 17:39 18.01.2021
3601 Clouds 24 1010 94 10000 1.88 16 16:55 18.01.2021
3602 Clouds 24 1010 94 10000 1.88 16 16:55 18.01.2021
3603 Clouds 24 1010 94 10000 1.88 16 16:35 18.01.2021
3604 Clouds 24 1012 100 10000 1.9 22 15:58 18.01.2021
3605 Clouds 24 1012 100 10000 1.9 22 15:40 18.01.2021
3606 Clouds 24 1012 100 10000 1.84 28 15:19 18.01.2021
3607 Clouds 24 1012 100 10000 1.84 28 14:42 18.01.2021
3608 Clouds 24 1012 100 10000 1.69 31 14:24 18.01.2021
3609 Clouds 24 1012 100 10000 1.69 31 13:45 18.01.2021
3610 Clouds 24 1012 100 10000 1.77 30 13:24 18.01.2021
3611 Clouds 25 1012 94 10000 1.87 24 12:49 18.01.2021
3612 Clouds 25 1012 94 10000 2.25 29 12:19 18.01.2021
3613 Clouds 26 1012 94 10000 2.25 29 11:48 18.01.2021
3614 Clouds 26 1012 94 10000 2.55 34 11:27 18.01.2021
3615 Clouds 27 1012 83 10000 2.55 34 10:53 18.01.2021
3616 Clouds 27 1012 83 10000 2.55 34 10:34 18.01.2021
3617 Clouds 28 1011 83 10000 2.59 40 09:43 18.01.2021
3618 Clouds 29 1011 74 10000 1.54 60 09:19 18.01.2021
3619 Clouds 29 1011 74 10000 1.54 60 08:43 18.01.2021
3620 Clouds 31 1010 58 10000 3.6 70 07:55 18.01.2021
3621 Clouds 32 1010 58 10000 4.12 70 06:44 18.01.2021
3622 Clouds 33 1010 58 10000 5.14 60 04:54 18.01.2021
3623 Clouds 33 1010 58 10000 5.14 60 04:29 18.01.2021
3624 Clouds 33 1010 58 10000 4.63 50 03:53 18.01.2021
3625 Clouds 33 1010 58 10000 4.63 50 03:30 18.01.2021
3626 Clouds 33 1010 58 10000 5.14 70 02:59 18.01.2021
3627 Clouds 33 1010 58 10000 5.14 70 02:20 18.01.2021
3628 Clouds 32 1011 62 10000 3.09 70 00:41 18.01.2021
3629 Clouds 32 1011 62 10000 3.09 70 00:19 18.01.2021
3630 Clouds 31 1012 66 10000 2.57 30 23:41 17.01.2021
3631 Clouds 31 1012 66 10000 2.57 30 23:19 17.01.2021
3632 Clouds 30 1012 79 10000 2.28 27 22:24 17.01.2021
3633 Clouds 27 1012 89 10000 2.06 280 21:57 17.01.2021
3634 Clouds 27 1012 89 10000 2.06 280 21:37 17.01.2021
3635 Clouds 27 1012 89 10000 2.06 280 21:18 17.01.2021
3636 Clouds 25 1012 94 10000 2.06 330 20:40 17.01.2021
3637 Clouds 25 1012 94 10000 2.06 330 20:18 17.01.2021
3638 Fog 24 1011 100 10000 1.03 330 19:40 17.01.2021
3639 Clouds 25 1011 100 10000 1.54 320 18:58 17.01.2021
3640 Clouds 25 1011 100 10000 1.54 320 18:30 17.01.2021
3641 Clouds 25 1010 100 10000 2.57 320 17:54 17.01.2021
3642 Clouds 25 1010 100 10000 2.57 320 17:35 17.01.2021
3643 Clouds 25 1010 100 10000 1.03 330 16:57 17.01.2021
3644 Clouds 25 1010 100 10000 1.03 330 16:39 17.01.2021
3645 Clouds 25 1010 100 10000 1.03 330 16:19 17.01.2021
3646 Clouds 24 1010 100 10000 1.54 320 15:38 17.01.2021
3647 Clouds 24 1010 100 10000 1.54 320 15:19 17.01.2021
3648 Clouds 25 1011 94 10000 2.57 300 14:44 17.01.2021
3649 Clouds 25 1011 94 10000 2.57 300 14:25 17.01.2021
3650 Clouds 25 1011 94 10000 1.54 320 13:44 17.01.2021
3651 Clouds 25 1011 94 10000 1.54 320 13:26 17.01.2021
3652 Rain 25 1012 100 10000 1.54 320 12:47 17.01.2021
3653 Rain 25 1012 100 10000 1.54 320 12:28 17.01.2021
3654 Clouds 25 1012 100 10000 2.06 330 11:26 17.01.2021
3655 Clouds 26 1012 94 10000 1.48 318 10:57 17.01.2021
3656 Clouds 26 1012 94 10000 1.48 318 10:39 17.01.2021
3657 Clouds 26 1012 94 10000 1.74 348 10:18 17.01.2021
3658 Rain 26 1012 94 10000 2.14 9 09:18 17.01.2021
3659 Rain 26 1011 100 10000 2.14 9 08:42 17.01.2021
3660 Rain 32 1010 66 10000 3.6 50 04:45 17.01.2021
3661 Rain 32 1010 66 10000 3.6 50 04:27 17.01.2021
3662 Clouds 33 1010 58 10000 4.63 70 01:38 17.01.2021
3663 Clouds 32 1011 66 10000 4.12 50 00:37 17.01.2021
3664 Rain 32 1011 66 10000 4.12 50 00:18 17.01.2021
3665 Rain 31 1012 70 10000 2.06 350 23:46 16.01.2021
3666 Rain 31 1012 70 10000 2.06 350 23:18 16.01.2021
3667 Rain 30 1012 79 10000 2.57 10 22:27 16.01.2021
3668 Rain 27 1012 89 10000 2.06 330 21:58 16.01.2021
3669 Rain 27 1012 89 10000 2.06 330 21:24 16.01.2021
3670 Rain 25 1012 94 10000 1.54 320 20:53 16.01.2021
3671 Rain 25 1012 94 10000 1.54 320 20:29 16.01.2021
3672 Rain 25 1011 100 10000 2.57 350 19:50 16.01.2021
3673 Rain 25 1011 100 10000 2.57 350 19:31 16.01.2021
3674 Rain 25 1011 94 10000 1.03 30 18:47 16.01.2021
3675 Rain 25 1011 94 10000 1.03 30 18:28 16.01.2021
3676 Rain 25 1010 94 10000 1.54 360 17:59 16.01.2021
3677 Rain 25 1010 94 10000 1.54 360 17:39 16.01.2021
3678 Rain 25 1010 94 10000 1.54 360 17:21 16.01.2021
3679 Rain 24 1010 100 10000 1.03 280 16:42 16.01.2021
3680 Rain 24 1011 100 10000 1.03 0 16:18 16.01.2021
3681 Rain 24 1011 100 10000 1.03 0 15:41 16.01.2021
3682 Rain 24 1011 100 10000 4.12 60 14:34 16.01.2021
3683 Rain 25 1012 100 10000 3.09 240 13:54 16.01.2021
3684 Rain 25 1012 100 10000 3.09 240 13:31 16.01.2021
3685 Rain 25 1011 94 10000 2.57 200 12:48 16.01.2021
3686 Clouds 25 1012 94 10000 2.57 200 12:27 16.01.2021
3687 Rain 26 1012 94 10000 2.57 110 11:56 16.01.2021
3688 Rain 26 1012 94 10000 2.57 110 11:27 16.01.2021
3689 Rain 28 1012 89 10000 2.06 210 10:59 16.01.2021
3690 Rain 28 1012 89 10000 2.06 210 10:41 16.01.2021
3691 Rain 28 1011 83 10000 4.04 24 09:54 16.01.2021
3692 Rain 28 1011 83 10000 4.26 32 09:20 16.01.2021
3693 Clouds 28 1009 83 10000 4.66 35 08:19 16.01.2021
3694 Clouds 31 1009 70 10000 6.17 50 06:49 16.01.2021
3695 Rain 33 1008 55 10000 6.69 50 04:53 16.01.2021
3696 Rain 33 1008 55 10000 6.69 60 03:18 16.01.2021
3697 Rain 33 1008 58 10000 6.69 50 02:37 16.01.2021
3698 Rain 32 1010 62 10000 6.17 60 00:45 16.01.2021
3699 Clouds 32 1010 62 10000 4.63 30 00:21 16.01.2021
3700 Clouds 32 1010 62 10000 4.63 30 23:36 15.01.2021
3701 Clouds 30 1010 74 10000 3.09 20 22:38 15.01.2021
3702 Clouds 30 1010 74 10000 3.09 20 22:18 15.01.2021
3703 Clouds 29 1010 74 10000 1.54 320 21:42 15.01.2021
3704 Clouds 26 1010 89 10000 2.06 350 20:48 15.01.2021
3705 Clouds 26 1010 89 10000 2.06 350 20:23 15.01.2021
3706 Clouds 25 1009 94 10000 3.79 12 19:48 15.01.2021
3707 Clouds 25 1009 94 10000 3.81 16 19:28 15.01.2021
3708 Clouds 25 1009 94 10000 2.06 250 18:47 15.01.2021
3709 Clouds 25 1009 94 10000 2.06 250 18:20 15.01.2021
3710 Clouds 25 1008 94 10000 1.54 360 17:58 15.01.2021
3711 Clouds 25 1008 94 10000 1.54 360 17:58 15.01.2021
3712 Clouds 25 1008 94 10000 1.54 360 17:40 15.01.2021
3713 Clouds 25 1008 94 10000 1.54 360 17:19 15.01.2021
3714 Clouds 25 1008 94 10000 2.06 350 16:44 15.01.2021
3715 Clouds 25 1008 94 10000 2.06 350 16:23 15.01.2021
3716 Clouds 25 1009 94 10000 3.6 340 15:41 15.01.2021
3717 Clouds 25 1009 94 10000 3.6 340 15:19 15.01.2021
3718 Clouds 26 1009 94 10000 1.54 310 14:41 15.01.2021
3719 Clouds 26 1009 94 10000 1.54 310 14:22 15.01.2021
3720 Clouds 26 1010 94 10000 1.54 10 13:40 15.01.2021
3721 Clouds 26 1010 94 10000 1.54 10 13:40 15.01.2021
3722 Clouds 26 1010 94 10000 1.54 10 13:20 15.01.2021
3723 Clouds 27 1010 89 10000 1.03 0 12:47 15.01.2021
3724 Clouds 27 1010 89 10000 1.03 0 12:26 15.01.2021
3725 Clouds 28 1010 83 10000 2.06 350 11:42 15.01.2021
3726 Clouds 28 1010 83 10000 2.06 350 11:21 15.01.2021
3727 Clouds 28 1010 83 10000 3.09 60 10:51 15.01.2021
3728 Clouds 28 1010 83 10000 3.09 60 10:24 15.01.2021
3729 Clouds 29 1009 79 10000 2.06 50 09:50 15.01.2021
3730 Clouds 29 1009 79 10000 2.06 50 09:29 15.01.2021
3731 Rain 30 1009 70 10000 2.57 50 08:29 15.01.2021
3732 Rain 31 1008 66 10000 5.14 50 07:46 15.01.2021
3733 Rain 31 1008 66 10000 5.14 50 07:24 15.01.2021
3734 Rain 31 1007 70 10000 6.17 70 06:51 15.01.2021
3735 Clouds 32 1008 58 10000 5.66 30 02:45 15.01.2021
3736 Clouds 31 1009 66 10000 5.14 50 00:52 15.01.2021
3737 Clouds 31 1010 70 10000 5.14 20 23:35 14.01.2021
3738 Clouds 30 1010 70 10000 5.14 20 22:58 14.01.2021
3739 Clouds 30 1010 70 10000 5.14 20 22:38 14.01.2021
3740 Clouds 30 1010 70 10000 5.14 20 22:20 14.01.2021
3741 Clouds 29 1010 84 10000 4.9 25 21:41 14.01.2021
3742 Clouds 29 1010 84 10000 5.01 23 21:20 14.01.2021
3743 Clouds 26 1010 94 10000 5.01 23 20:48 14.01.2021
3744 Clouds 26 1010 94 10000 4.73 21 20:22 14.01.2021
3745 Clouds 24 1009 100 10000 4.73 21 19:41 14.01.2021
3746 Clouds 24 1009 100 10000 4.4 25 19:23 14.01.2021
3747 Clouds 25 1009 94 10000 4.4 25 18:49 14.01.2021
3748 Clouds 25 1009 94 10000 4.05 20 18:18 14.01.2021
3749 Clouds 25 1009 100 10000 4.05 20 17:44 14.01.2021
3750 Clouds 25 1009 100 10000 4.1 20 17:25 14.01.2021
3751 Clouds 25 1009 94 10000 4.1 20 16:39 14.01.2021
3752 Clouds 25 1009 100 10000 1.54 340 15:56 14.01.2021
3753 Clouds 25 1009 100 10000 1.54 340 15:38 14.01.2021
3754 Clouds 26 1009 94 10000 2.06 340 14:58 14.01.2021
3755 Clouds 26 1009 94 10000 2.06 340 14:35 14.01.2021
3756 Clouds 26 1010 94 10000 1.54 350 13:57 14.01.2021
3757 Clouds 26 1010 94 10000 1.54 350 13:57 14.01.2021
3758 Clouds 26 1010 94 10000 1.54 350 13:39 14.01.2021
3759 Clouds 26 1010 94 10000 1.54 350 13:18 14.01.2021
3760 Clouds 26 1010 94 10000 1.54 320 12:38 14.01.2021
3761 Clouds 26 1010 94 10000 1.54 320 12:18 14.01.2021
3762 Clouds 27 1010 89 10000 2.57 350 11:41 14.01.2021
3763 Clouds 27 1010 89 10000 1.54 330 11:20 14.01.2021
3764 Clouds 27 1010 89 10000 1.54 330 10:47 14.01.2021
3765 Clouds 27 1010 89 10000 1.54 330 10:20 14.01.2021
3766 Clouds 28 1009 83 10000 1.54 10 09:44 14.01.2021
3767 Clouds 28 1009 83 10000 1.54 10 09:22 14.01.2021
3768 Clouds 28 1009 74 10000 2.57 60 08:40 14.01.2021
3769 Clouds 28 1009 74 10000 2.57 60 08:21 14.01.2021
3770 Clouds 30 1009 70 10000 5.14 40 07:42 14.01.2021
3771 Clouds 31 1008 70 10000 6.17 60 06:41 14.01.2021
3772 Rain 31 1008 70 10000 5.14 60 05:23 14.01.2021
3773 Clouds 32 1010 62 10000 5.66 60 00:36 14.01.2021
3774 Clouds 30 1011 70 10000 3.09 20 23:48 13.01.2021
3775 Clouds 30 1011 74 10000 4.12 30 22:51 13.01.2021
3776 Clouds 30 1011 74 10000 4.12 30 22:27 13.01.2021
3777 Clouds 27 1011 89 10000 1.54 340 21:50 13.01.2021
3778 Clouds 27 1011 89 10000 1.54 340 21:24 13.01.2021
3779 Clouds 26 1010 94 10000 2.06 330 20:51 13.01.2021
3780 Clouds 26 1010 94 10000 2.06 330 20:28 13.01.2021
3781 Clouds 25 1010 94 10000 2.02 0 19:56 13.01.2021
3782 Clouds 25 1010 94 10000 2.02 0 19:31 13.01.2021
3783 Clouds 25 1010 85 10000 2.03 354 18:53 13.01.2021
3784 Clouds 25 1010 85 10000 2.03 354 18:53 13.01.2021
3785 Clouds 25 1009 100 10000 2.03 354 18:34 13.01.2021
3786 Clouds 25 1009 100 10000 1.95 345 17:51 13.01.2021
3787 Clouds 25 1009 100 10000 1.54 340 17:19 13.01.2021
3788 Clouds 25 1009 100 10000 1.54 340 16:47 13.01.2021
3789 Clouds 25 1009 100 10000 1.54 340 16:21 13.01.2021
3790 Clouds 25 1009 100 10000 2.06 300 15:51 13.01.2021
3791 Clouds 25 1009 100 10000 2.06 300 15:32 13.01.2021
3792 Clouds 25 1010 100 10000 2.06 340 14:34 13.01.2021
3793 Clouds 26 1011 89 10000 1.54 340 13:50 13.01.2021
3794 Clouds 26 1011 89 10000 1.54 340 13:26 13.01.2021
3795 Clouds 26 1011 94 10000 2.42 5 12:46 13.01.2021
3796 Clouds 26 1011 94 10000 2.47 12 12:27 13.01.2021
3797 Clouds 27 1011 89 10000 2.47 12 11:53 13.01.2021
3798 Clouds 27 1011 89 10000 2.66 17 11:34 13.01.2021
3799 Clouds 28 1010 78 10000 1.54 10 10:50 13.01.2021
3800 Rain 28 1010 78 10000 1.54 10 10:29 13.01.2021
3801 Rain 28 1010 83 10000 2.75 20 09:49 13.01.2021
3802 Rain 28 1010 83 10000 3.06 27 09:28 13.01.2021
3803 Rain 29 1010 79 10000 2.06 60 08:48 13.01.2021
3804 Rain 29 1010 79 10000 2.06 60 08:25 13.01.2021
3805 Rain 29 1009 70 10000 3.09 50 07:30 13.01.2021
3806 Rain 31 1008 62 10000 4.63 50 06:26 13.01.2021
3807 Rain 32 1009 58 10000 5.14 40 04:19 13.01.2021
3808 Rain 32 1009 55 10000 4.63 60 03:44 13.01.2021
3809 Rain 32 1009 55 10000 4.63 60 03:23 13.01.2021
3810 Clouds 31 1010 66 10000 3.6 60 01:18 13.01.2021
3811 Clouds 30 1010 70 10000 2.57 360 23:52 12.01.2021
3812 Clouds 30 1010 74 10000 2.57 10 23:20 12.01.2021
3813 Clouds 30 1010 74 10000 2.57 10 22:45 12.01.2021
3814 Clouds 30 1010 74 10000 2.57 10 22:23 12.01.2021
3815 Clouds 28 1010 83 10000 2.57 310 21:44 12.01.2021
3816 Clouds 28 1010 83 10000 2.57 310 21:26 12.01.2021
3817 Clouds 25 1010 100 10000 2.06 330 20:48 12.01.2021
3818 Clouds 25 1010 100 10000 2.06 330 20:27 12.01.2021
3819 Clouds 24 1010 100 10000 1.54 340 19:44 12.01.2021
3820 Clouds 24 1009 100 10000 1.54 330 18:59 12.01.2021
3821 Clouds 24 1009 100 10000 1.54 330 18:41 12.01.2021
3822 Clouds 25 1009 94 10000 1.03 320 18:21 12.01.2021
3823 Clouds 25 1009 94 10000 1.03 320 17:34 12.01.2021
3824 Clouds 25 1009 94 10000 1.03 330 16:56 12.01.2021
3825 Clouds 25 1009 94 10000 1.03 330 16:38 12.01.2021
3826 Clouds 25 1009 94 10000 1.03 330 16:18 12.01.2021
3827 Clouds 25 1009 94 10000 1.03 330 16:18 12.01.2021
3828 Clouds 25 1010 94 10000 1.54 330 15:29 12.01.2021
3829 Clouds 25 1010 100 10000 2.36 4 14:58 12.01.2021
3830 Clouds 25 1010 100 10000 2.36 4 14:39 12.01.2021
3831 Clouds 26 1011 94 10000 1.54 330 14:19 12.01.2021
3832 Clouds 26 1011 94 10000 1.54 330 13:46 12.01.2021
3833 Clouds 26 1011 94 10000 2.06 310 12:39 12.01.2021
3834 Clouds 26 1011 94 10000 1.54 350 11:55 12.01.2021
3835 Rain 26 1011 94 10000 1.54 350 11:36 12.01.2021
3836 Clouds 26 1010 94 10000 3.41 25 10:45 12.01.2021
3837 Rain 26 1010 89 10000 2.06 200 10:20 12.01.2021
3838 Rain 26 1010 89 10000 2.06 200 10:20 12.01.2021
3839 Rain 26 1010 89 10000 2.06 200 09:55 12.01.2021
3840 Rain 26 1010 89 10000 2.06 200 09:24 12.01.2021
3841 Rain 26 1009 89 10000 3.63 33 08:42 12.01.2021
3842 Rain 26 1010 89 10000 3.83 38 08:21 12.01.2021
3843 Rain 27 1009 78 10000 2.06 190 07:34 12.01.2021
3844 Rain 31 1007 66 10000 5.66 60 06:20 12.01.2021
3845 Rain 31 1007 66 10000 5.66 60 05:26 12.01.2021
3846 Clouds 33 1008 52 10000 5.66 40 03:24 12.01.2021
3847 Rain 33 1009 58 10000 6.17 50 02:18 12.01.2021
3848 Rain 33 1010 58 10000 5.14 30 01:25 12.01.2021
3849 Clouds 31 1010 66 10000 6.17 40 23:45 11.01.2021
3850 Clouds 31 1010 66 10000 6.17 40 23:20 11.01.2021
3851 Clouds 30 1010 74 10000 4.63 30 22:50 11.01.2021
3852 Clouds 30 1010 74 10000 4.63 30 22:32 11.01.2021
3853 Rain 28 1010 89 10000 2.06 340 21:55 11.01.2021
3854 Clouds 28 1010 89 10000 2.06 340 21:37 11.01.2021
3855 Clouds 25 1010 100 10000 2.06 330 21:18 11.01.2021
3856 Clouds 25 1010 100 10000 2.06 330 20:40 11.01.2021
3857 Clouds 25 1010 100 10000 2.06 330 20:22 11.01.2021
3858 Clouds 25 1009 94 10000 1.54 330 19:52 11.01.2021
3859 Clouds 25 1009 94 10000 1.54 330 19:23 11.01.2021
3860 Clouds 25 1009 100 10000 2.06 340 18:44 11.01.2021
3861 Clouds 25 1009 100 10000 2.06 340 18:24 11.01.2021
3862 Clouds 26 1008 94 10000 1.54 350 17:43 11.01.2021
3863 Clouds 26 1008 94 10000 1.54 350 17:25 11.01.2021
3864 Clouds 26 1008 94 10000 2.06 320 16:50 11.01.2021
3865 Clouds 26 1008 94 10000 2.06 320 16:30 11.01.2021
3866 Clouds 26 1009 94 10000 2.06 340 15:59 11.01.2021
3867 Clouds 26 1009 94 10000 2.06 340 15:37 11.01.2021
3868 Clouds 27 1010 94 10000 2.57 40 14:58 11.01.2021
3869 Clouds 27 1010 94 10000 2.57 40 14:38 11.01.2021
3870 Clouds 28 1010 83 10000 3.09 60 13:48 11.01.2021
3871 Clouds 28 1010 83 10000 3.09 60 13:24 11.01.2021
3872 Clouds 28 1011 83 10000 2.57 60 12:45 11.01.2021
3873 Rain 28 1011 83 10000 2.57 60 12:27 11.01.2021
3874 Rain 28 1011 83 10000 1.54 60 11:50 11.01.2021
3875 Rain 28 1011 83 10000 1.54 60 11:21 11.01.2021
3876 Rain 28 1011 83 10000 2.06 70 10:42 11.01.2021
3877 Rain 28 1011 83 10000 2.06 70 10:24 11.01.2021
3878 Rain 28 1010 83 10000 2.06 50 09:37 11.01.2021
3879 Rain 29 1010 79 10000 2.06 60 09:19 11.01.2021
3880 Rain 29 1010 79 10000 2.06 60 08:43 11.01.2021
3881 Clouds 29 1009 84 10000 3.09 80 07:51 11.01.2021
3882 Clouds 29 1009 84 10000 3.09 80 07:25 11.01.2021
3883 Clouds 30 1009 74 10000 4.63 60 06:50 11.01.2021
3884 Clouds 31 1010 66 10000 6.17 60 02:57 11.01.2021
3885 Clouds 30 1010 70 10000 6.69 60 01:25 11.01.2021
3886 Clouds 30 1011 74 10000 6.17 60 23:51 10.01.2021
3887 Clouds 30 1011 74 10000 6.17 60 23:24 10.01.2021
3888 Clouds 29 1011 79 10000 6.17 50 22:46 10.01.2021
3889 Clouds 29 1011 79 10000 6.17 50 22:20 10.01.2021
3890 Clouds 29 1011 79 10000 4.63 50 21:44 10.01.2021
3891 Clouds 27 1010 89 10000 5.65 42 21:20 10.01.2021
3892 Clouds 27 1010 89 10000 5.65 42 20:50 10.01.2021
3893 Clouds 27 1010 89 10000 4.55 36 20:29 10.01.2021
3894 Clouds 25 1010 100 10000 4.55 36 19:42 10.01.2021
3895 Clouds 25 1010 100 10000 4.32 33 19:23 10.01.2021
3896 Clouds 26 1009 94 10000 3.98 32 18:45 10.01.2021
3897 Clouds 26 1009 94 10000 3.85 34 18:21 10.01.2021
3898 Clouds 26 1009 94 10000 3.81 36 17:26 10.01.2021
3899 Clouds 27 1009 83 10000 2.06 60 16:51 10.01.2021
3900 Clouds 27 1009 83 10000 2.06 60 16:31 10.01.2021
3901 Clouds 27 1010 89 10000 2.06 60 15:42 10.01.2021
3902 Clouds 27 1010 89 10000 2.06 60 15:42 10.01.2021
3903 Clouds 27 1010 89 10000 2.06 60 15:24 10.01.2021
3904 Clouds 27 1010 89 10000 2.57 60 14:41 10.01.2021
3905 Clouds 27 1010 89 10000 2.57 60 14:23 10.01.2021
3906 Clouds 27 1011 89 10000 3.09 60 13:48 10.01.2021
3907 Clouds 27 1011 89 10000 3.09 60 13:27 10.01.2021
3908 Clouds 27 1012 89 10000 2.06 70 12:59 10.01.2021
3909 Clouds 27 1012 89 10000 2.06 70 12:41 10.01.2021
3910 Clouds 27 1012 89 10000 2.57 80 11:57 10.01.2021
3911 Clouds 27 1012 89 10000 2.57 80 11:21 10.01.2021
3912 Clouds 27 1011 89 10000 1.03 0 10:52 10.01.2021
3913 Clouds 27 1011 89 10000 1.03 0 10:24 10.01.2021
3914 Clouds 27 1011 83 10000 2.57 70 09:46 10.01.2021
3915 Clouds 28 1010 83 10000 2.06 60 08:50 10.01.2021
3916 Clouds 29 1010 74 10000 3.6 50 08:18 10.01.2021
3917 Rain 30 1009 70 10000 4.63 80 06:52 10.01.2021
3918 Rain 30 1009 70 10000 5.14 70 06:18 10.01.2021
3919 Clouds 30 1009 70 10000 5.14 70 05:28 10.01.2021
3920 Clouds 30 1011 74 10000 4.63 70 02:38 10.01.2021
3921 Clouds 30 1012 74 10000 5.14 60 00:25 10.01.2021
3922 Clouds 29 1013 79 10000 5.14 60 23:42 09.01.2021
3923 Clouds 27 1013 89 10000 2.06 350 23:22 09.01.2021
3924 Clouds 27 1013 89 10000 2.06 350 22:25 09.01.2021
3925 Clouds 27 1013 89 10000 1.54 290 21:59 09.01.2021
3926 Clouds 27 1013 89 10000 1.54 290 21:40 09.01.2021
3927 Clouds 27 1013 89 10000 1.54 290 21:21 09.01.2021
3928 Clouds 25 1012 94 10000 1.54 310 20:56 09.01.2021
3929 Clouds 25 1012 94 10000 1.54 310 20:36 09.01.2021
3930 Clouds 24 1011 100 10000 3.28 38 19:40 09.01.2021
3931 Clouds 24 1011 100 10000 2.99 35 19:21 09.01.2021
3932 Clouds 23 1011 100 10000 3.05 29 18:38 09.01.2021
3933 Clouds 23 1011 100 10000 3.03 26 18:19 09.01.2021
3934 Clouds 24 1010 100 10000 1.54 310 17:42 09.01.2021
3935 Clouds 24 1010 100 10000 1.54 310 17:22 09.01.2021
3936 Clouds 24 1011 100 10000 1.54 330 16:29 09.01.2021
3937 Rain 24 1011 100 10000 2.06 280 15:42 09.01.2021
3938 Rain 24 1011 100 10000 2.06 280 15:24 09.01.2021
3939 Clouds 24 1012 100 10000 1.54 310 14:37 09.01.2021
3940 Clouds 24 1012 100 10000 1.54 310 14:19 09.01.2021
3941 Clouds 25 1012 94 10000 1.54 320 13:46 09.01.2021
3942 Rain 25 1012 94 10000 1.54 320 13:27 09.01.2021
3943 Clouds 25 1013 94 10000 2.47 24 12:46 09.01.2021
3944 Rain 25 1013 94 10000 2.67 26 12:21 09.01.2021
3945 Clouds 25 1013 94 10000 2.67 26 11:41 09.01.2021
3946 Clouds 25 1013 94 10000 3.17 30 11:23 09.01.2021
3947 Clouds 25 1013 94 10000 2.06 320 10:50 09.01.2021
3948 Clouds 25 1013 94 10000 2.06 320 10:26 09.01.2021
3949 Rain 26 1012 94 10000 4.12 330 09:46 09.01.2021
3950 Rain 26 1012 94 10000 4.12 330 09:21 09.01.2021
3951 Clouds 28 1011 78 10000 2.57 70 08:25 09.01.2021
3952 Clouds 30 1010 70 10000 5.66 60 06:55 09.01.2021
3953 Clouds 30 1010 70 10000 5.66 60 06:36 09.01.2021
3954 Clouds 31 1010 62 10000 5.14 50 04:40 09.01.2021
3955 Clouds 31 1011 66 10000 5.14 50 02:47 09.01.2021
3956 Clouds 31 1011 66 10000 5.14 50 02:28 09.01.2021
3957 Clouds 31 1011 66 10000 5.14 50 01:35 09.01.2021
3958 Clouds 31 1012 58 10000 5.14 20 00:34 09.01.2021
3959 Clouds 30 1012 74 10000 2.06 320 23:50 08.01.2021
3960 Clouds 30 1012 66 10000 4.12 40 22:49 08.01.2021
3961 Clouds 28 1012 83 10000 2.06 320 21:57 08.01.2021
3962 Clouds 28 1012 83 10000 2.06 320 21:27 08.01.2021
3963 Clouds 26 1012 89 10000 1.54 340 20:41 08.01.2021
3964 Clouds 24 1011 94 10000 2.94 25 19:59 08.01.2021
3965 Clouds 24 1011 94 10000 2.88 18 19:25 08.01.2021
3966 Clouds 24 1010 94 10000 1.54 20 18:59 08.01.2021
3967 Clouds 24 1010 94 10000 1.54 20 18:34 08.01.2021
3968 Rain 24 1010 94 10000 3.1 19 17:55 08.01.2021
3969 Rain 24 1010 94 10000 2.88 15 17:28 08.01.2021
3970 Rain 24 1010 94 10000 2.88 15 16:50 08.01.2021
3971 Rain 25 1010 94 10000 3.05 8 15:55 08.01.2021
3972 Rain 25 1010 94 10000 3.05 8 15:33 08.01.2021
3973 Clouds 25 1011 94 10000 3.18 2 14:40 08.01.2021
3974 Clouds 26 1011 89 10000 3.55 360 14:18 08.01.2021
3975 Rain 26 1011 89 10000 3.67 7 13:22 08.01.2021
3976 Rain 26 1012 89 10000 3.09 30 12:52 08.01.2021
3977 Rain 26 1012 89 10000 3.09 30 12:23 08.01.2021
3978 Rain 26 1011 89 10000 2.06 30 11:50 08.01.2021
3979 Rain 26 1011 89 10000 2.06 30 11:30 08.01.2021
3980 Rain 27 1011 83 10000 3.6 40 10:57 08.01.2021
3981 Rain 27 1011 83 10000 3.6 40 10:38 08.01.2021
3982 Rain 27 1011 83 10000 1.54 10 09:53 08.01.2021
3983 Rain 27 1011 83 10000 1.54 10 09:35 08.01.2021
3984 Rain 27 1010 83 10000 3.91 22 08:42 08.01.2021
3985 Rain 29 1009 74 10000 2.06 10 07:29 08.01.2021
3986 Rain 31 1008 66 10000 4.12 30 06:43 08.01.2021
3987 Rain 31 1009 70 10000 4.12 340 00:35 08.01.2021
3988 Rain 30 1009 79 10000 4.12 340 23:42 07.01.2021
3989 Clouds 27 1010 89 10000 2.57 10 22:51 07.01.2021
3990 Clouds 27 1010 89 10000 2.57 10 22:33 07.01.2021
3991 Clouds 26 1010 94 10000 2.57 290 21:49 07.01.2021
3992 Clouds 26 1010 94 10000 2.57 290 21:29 07.01.2021
3993 Rain 25 1009 100 10000 5.66 310 20:48 07.01.2021
3994 Rain 25 1009 100 10000 5.66 310 20:29 07.01.2021
3995 Rain 24 1009 100 8000 3.6 310 19:47 07.01.2021
3996 Rain 24 1009 100 8000 3.6 310 19:23 07.01.2021
3997 Rain 24 1008 100 8000 3.6 320 18:46 07.01.2021
3998 Rain 24 1008 100 8000 3.6 320 18:20 07.01.2021
3999 Rain 24 1008 100 5000 3.09 320 17:32 07.01.2021
4000 Rain 24 1008 100 3000 2.57 350 16:55 07.01.2021
4001 Rain 24 1008 100 3000 2.57 350 16:32 07.01.2021
4002 Clouds 25 1007 100 10000 2.06 310 15:48 07.01.2021
4003 Clouds 25 1007 100 10000 2.06 310 15:48 07.01.2021
4004 Clouds 25 1007 100 10000 2.06 310 15:30 07.01.2021
4005 Clouds 25 1008 100 10000 1.03 0 14:28 07.01.2021
4006 Rain 26 1009 94 10000 1.03 0 13:49 07.01.2021
4007 Rain 26 1009 94 10000 1.03 0 13:28 07.01.2021
4008 Clouds 25 1009 90 10000 2.73 98 12:52 07.01.2021
4009 Rain 26 1010 94 10000 1 0 12:21 07.01.2021
4010 Rain 26 1010 94 10000 1 0 11:38 07.01.2021
4011 Rain 26 1009 94 10000 3.78 102 10:54 07.01.2021
4012 Rain 26 1009 94 10000 3.78 102 10:35 07.01.2021
4013 Rain 26 1009 88 10000 3.83 101 09:50 07.01.2021
4014 Rain 26 1009 88 10000 3.83 101 09:32 07.01.2021
4015 Rain 27 1008 83 10000 2.1 130 08:31 07.01.2021
4016 Rain 28 1007 78 10000 3.6 140 07:57 07.01.2021
4017 Rain 28 1007 78 10000 3.6 140 07:38 07.01.2021
4018 Clouds 30 1007 70 10000 3.6 150 05:46 07.01.2021
4019 Rain 29 1009 74 10000 3.1 150 00:59 07.01.2021
4020 Rain 29 1009 74 10000 3.6 150 23:52 06.01.2021
4021 Rain 28 1009 78 10000 2.6 160 22:50 06.01.2021
4022 Clouds 27 1009 83 10000 1.5 160 22:19 06.01.2021
4023 Clouds 27 1009 83 10000 1.5 160 21:41 06.01.2021
4024 Clouds 24 1008 94 10000 1 0 21:22 06.01.2021
4025 Clouds 24 1008 94 10000 1 0 20:40 06.01.2021
4026 Clouds 23 1008 94 10000 1 320 20:19 06.01.2021
4027 Clouds 23 1008 94 10000 1 320 19:42 06.01.2021
4028 Clouds 23 1008 94 10000 1 320 19:24 06.01.2021
4029 Clouds 23 1007 100 10000 1 230 18:45 06.01.2021
4030 Clouds 23 1006 100 10000 1.5 320 18:26 06.01.2021
4031 Clouds 23 1006 100 10000 1.5 320 17:43 06.01.2021
4032 Clouds 23 1006 100 10000 1.5 320 17:25 06.01.2021
4033 Clouds 24 1006 94 10000 1.5 210 16:51 06.01.2021
4034 Clouds 23 1006 100 10000 1 0 16:20 06.01.2021
4035 Clouds 23 1006 100 10000 1 0 15:57 06.01.2021
4036 Clouds 23 1006 100 10000 1 0 15:32 06.01.2021
4037 Clouds 24 1007 94 10000 1 0 14:56 06.01.2021
4038 Clouds 24 1007 94 10000 1 0 14:27 06.01.2021
4039 Clouds 24 1007 94 10000 1 310 13:47 06.01.2021
4040 Clouds 25 1008 94 10000 1 0 13:24 06.01.2021
4041 Clouds 25 1008 94 10000 1 0 12:49 06.01.2021
4042 Clouds 25 1008 94 10000 1 0 12:26 06.01.2021
4043 Clouds 25 1008 94 10000 2.17 104 11:39 06.01.2021
4044 Clouds 25 1008 94 10000 1.5 190 11:20 06.01.2021
4045 Clouds 25 1008 94 10000 1.5 190 10:29 06.01.2021
4046 Clouds 26 1008 88 10000 1 170 09:52 06.01.2021
4047 Clouds 27 1007 74 10000 2.1 160 09:21 06.01.2021
4048 Clouds 27 1007 74 10000 2.1 160 08:41 06.01.2021
4049 Clouds 28 1007 74 10000 2.1 150 07:59 06.01.2021
4050 Clouds 29 1006 74 10000 3.1 150 07:18 06.01.2021
4051 Clouds 29 1006 74 10000 4.1 140 05:51 06.01.2021
4052 Clouds 30 1006 70 10000 4.1 160 04:35 06.01.2021
4053 Clouds 30 1006 70 10000 3.6 160 02:47 06.01.2021
4054 Clouds 30 1006 70 10000 3.6 160 02:26 06.01.2021
4055 Clouds 29 1007 74 10000 3.1 160 01:23 06.01.2021
4056 Clouds 29 1008 74 10000 3.6 160 23:32 05.01.2021
4057 Clouds 29 1008 79 10000 2.6 170 22:45 05.01.2021
4058 Clouds 28 1008 78 10000 2.1 160 22:21 05.01.2021
4059 Clouds 28 1008 78 10000 2.1 160 21:56 05.01.2021
4060 Clouds 25 1008 94 10000 1 300 20:58 05.01.2021
4061 Clouds 25 1008 94 10000 1 300 20:27 05.01.2021
4062 Clouds 24 1007 100 10000 1.35 130 19:44 05.01.2021
4063 Clouds 24 1006 100 10000 1.84 140 19:21 05.01.2021
4064 Clouds 24 1006 100 10000 2.01 140 18:44 05.01.2021
4065 Clouds 24 1006 100 10000 2.14 144 18:25 05.01.2021
4066 Clouds 24 1006 100 10000 1 0 17:50 05.01.2021
4067 Clouds 24 1006 100 10000 1 0 17:31 05.01.2021
4068 Clouds 24 1006 100 10000 1 300 16:53 05.01.2021
4069 Clouds 24 1006 100 10000 1.5 310 16:22 05.01.2021
4070 Clouds 24 1006 100 10000 1.5 310 15:51 05.01.2021
4071 Clouds 24 1006 100 10000 1.5 310 15:26 05.01.2021
4072 Clouds 24 1006 100 10000 1.42 148 14:46 05.01.2021
4073 Clouds 24 1007 100 10000 1.5 320 13:51 05.01.2021
4074 Clouds 24 1007 100 10000 1.5 320 13:32 05.01.2021
4075 Clouds 25 1007 94 10000 1.5 300 12:50 05.01.2021
4076 Clouds 25 1007 94 10000 1.5 300 12:29 05.01.2021
4077 Clouds 25 1008 94 10000 1.5 270 11:41 05.01.2021
4078 -273 0 0 0 0 0 11:23 05.01.2021
4079 -273 0 0 0 0 0 11:22 05.01.2021
4080 Rain 25 1008 94 10000 1 0 11:20 05.01.2021
4081 Rain 25 1008 94 10000 1 0 10:43 05.01.2021
4082 Rain 25 1008 94 10000 1 0 09:58 05.01.2021
4083 Rain 25 1008 94 10000 1 0 09:37 05.01.2021
4084 Rain 25 1008 100 10000 2.1 330 08:41 05.01.2021
4085 Rain 26 1007 94 10000 1 0 08:18 05.01.2021
4086 Rain 26 1006 94 8000 2.6 160 05:29 05.01.2021
4087 Rain 28 1007 78 10000 4.6 210 02:36 05.01.2021
4088 Rain 30 1008 74 10000 2.1 320 00:22 05.01.2021
4089 Rain 30 1008 74 10000 2.1 320 23:39 04.01.2021
4090 Rain 29 1008 74 10000 1.5 330 23:19 04.01.2021
4091 Rain 29 1008 74 10000 1.5 330 22:42 04.01.2021
4092 Rain 27 1008 83 10000 1.5 280 21:57 04.01.2021
4093 Rain 27 1008 83 10000 1.5 280 21:38 04.01.2021
4094 Rain 25 1008 100 10000 2 338 20:56 04.01.2021
4095 Rain 25 1008 100 10000 2 338 20:34 04.01.2021
4096 Rain 24 1008 100 10000 2.06 343 19:55 04.01.2021
4097 Rain 24 1008 100 10000 2.04 347 19:29 04.01.2021
4098 Rain 24 1007 100 10000 2.04 347 18:58 04.01.2021
4099 Rain 24 1007 100 10000 1.46 337 18:31 04.01.2021
4100 Rain 24 1007 100 10000 1.31 333 17:46 04.01.2021
4101 Rain 24 1007 100 10000 1.88 339 17:27 04.01.2021
4102 Rain 24 1006 100 10000 1.5 330 16:48 04.01.2021
4103 Rain 24 1006 100 10000 1.5 330 16:28 04.01.2021
4104 Rain 25 1007 94 10000 1.5 280 15:52 04.01.2021
4105 Rain 25 1007 94 10000 1.5 280 15:34 04.01.2021
4106 Rain 25 1008 94 10000 1.34 3 14:50 04.01.2021
4107 Rain 25 1009 94 10000 1.52 2 13:53 04.01.2021
4108 Rain 25 1009 94 10000 1.52 2 13:34 04.01.2021
4109 Rain 25 1009 94 10000 1 0 12:50 04.01.2021
4110 Clouds 25 1009 94 10000 1 0 12:25 04.01.2021
4111 Clouds 25 1009 100 10000 1.75 334 11:31 04.01.2021
4112 Clouds 25 1009 100 10000 1 60 10:56 04.01.2021
4113 Clouds 25 1009 100 10000 1 60 10:37 04.01.2021
4114 Clouds 26 1009 94 10000 2.01 344 10:18 04.01.2021
4115 Rain 26 1009 94 10000 2.06 335 09:23 04.01.2021
4116 Rain 26 1008 88 10000 1.5 50 08:50 04.01.2021
4117 Rain 26 1008 94 10000 1.5 80 08:21 04.01.2021
4118 Rain 26 1008 94 10000 1.5 80 07:45 04.01.2021
4119 Rain 26 1007 88 10000 2.6 230 05:35 04.01.2021
4120 Rain 29 1007 74 10000 3.1 350 04:44 04.01.2021
4121 Rain 25 1008 94 10000 2.1 310 01:26 04.01.2021
4122 Rain 26 1009 88 10000 2.6 280 23:51 03.01.2021
4123 Rain 27 1009 83 10000 2.6 310 23:25 03.01.2021
4124 Rain 27 1009 83 10000 2.6 310 22:56 03.01.2021
4125 Rain 27 1009 83 10000 2.6 310 22:33 03.01.2021
4126 Rain 26 1009 88 10000 2.6 320 21:57 03.01.2021
4127 Rain 26 1009 88 10000 2.6 320 21:30 03.01.2021
4128 Clouds 24 1009 94 10000 2.6 310 20:50 03.01.2021
4129 Clouds 24 1009 94 10000 2.6 310 20:32 03.01.2021
4130 Clouds 24 1008 94 10000 3.1 310 19:58 03.01.2021
4131 Clouds 24 1008 94 10000 3.1 310 19:35 03.01.2021
4132 Clouds 24 1007 94 10000 3.1 310 18:58 03.01.2021
4133 Clouds 24 1007 94 10000 3.1 310 18:39 03.01.2021
4134 Clouds 23 1007 94 10000 1.85 308 18:19 03.01.2021
4135 Clouds 23 1007 94 10000 1.85 308 18:19 03.01.2021
4136 Clouds 23 1007 94 10000 1.85 308 17:48 03.01.2021
4137 Clouds 24 1007 94 10000 3.1 320 17:23 03.01.2021
4138 Clouds 24 1007 94 10000 3.1 320 16:43 03.01.2021
4139 Clouds 24 1007 94 10000 2.1 330 16:20 03.01.2021
4140 Clouds 24 1007 94 10000 2.1 330 15:46 03.01.2021
4141 Clouds 24 1007 94 10000 2.1 330 15:27 03.01.2021
4142 Clouds 24 1008 94 10000 2.1 320 14:55 03.01.2021
4143 Clouds 24 1008 94 10000 2.1 320 14:29 03.01.2021
4144 Clouds 24 1008 94 10000 2.1 320 13:41 03.01.2021
4145 Clouds 24 1009 94 10000 2.1 300 13:23 03.01.2021
4146 Rain 24 1009 94 10000 2.1 300 12:32 03.01.2021
4147 Clouds 25 1009 94 10000 2.6 320 11:42 03.01.2021
4148 Clouds 25 1009 94 10000 2.6 320 11:24 03.01.2021
4149 Rain 26 1009 88 10000 1.5 280 10:34 03.01.2021
4150 Rain 27 1009 83 10000 2.58 268 09:59 03.01.2021
4151 Rain 27 1009 83 10000 2.58 268 09:34 03.01.2021
4152 Rain 27 1008 83 10000 3.21 240 08:59 03.01.2021
4153 Rain 28 1007 74 10000 3.92 231 07:33 03.01.2021
4154 Rain 29 1006 79 10000 2.65 232 05:53 03.01.2021
4155 Rain 31 1007 62 10000 4.1 310 02:27 03.01.2021
4156 Rain 30 1007 66 10000 5.1 310 02:27 03.01.2021
4157 Clouds 29 1007 74 10000 4.1 330 00:59 03.01.2021
4158 Clouds 29 1008 79 10000 3.6 330 23:54 02.01.2021
4159 Clouds 29 1008 79 10000 3.6 330 23:26 02.01.2021
4160 Clouds 27 1008 83 10000 1.5 290 22:50 02.01.2021
4161 Clouds 27 1008 83 10000 1.5 290 22:31 02.01.2021
4162 Clouds 26 1008 83 10000 2.51 334 21:49 02.01.2021
4163 Clouds 26 1008 83 10000 2.51 334 21:30 02.01.2021
4164 Clouds 24 1008 94 10000 1.5 350 20:49 02.01.2021
4165 Clouds 24 1008 94 10000 1.5 350 20:27 02.01.2021
4166 Clouds 24 1008 94 10000 1.5 300 19:49 02.01.2021
4167 Clouds 24 1007 94 10000 2.23 313 19:20 02.01.2021
4168 Clouds 24 1007 94 10000 2.23 313 18:52 02.01.2021
4169 Rain 24 1007 94 10000 2.59 295 18:33 02.01.2021
4170 Clouds 23 1006 100 10000 2.1 320 17:49 02.01.2021
4171 Clouds 23 1006 100 10000 2.1 320 17:30 02.01.2021
4172 Clouds 24 1006 87 10000 2.57 315 16:46 02.01.2021
4173 Clouds 24 1006 88 10000 2.5 325 16:22 02.01.2021
4174 Clouds 24 1006 88 10000 2.5 325 15:48 02.01.2021
4175 Clouds 25 1007 94 10000 2.1 340 15:28 02.01.2021
4176 Clouds 25 1007 94 10000 2.1 340 14:47 02.01.2021
4177 Clouds 25 1007 94 10000 2.1 340 14:24 02.01.2021
4178 Clouds 25 1008 94 10000 2.1 350 13:44 02.01.2021
4179 Clouds 25 1009 94 10000 2.1 350 12:55 02.01.2021
4180 Clouds 25 1009 94 10000 2.1 350 12:32 02.01.2021
4181 Clouds 25 1008 94 10000 2.25 348 11:59 02.01.2021
4182 Clouds 25 1008 94 10000 2.25 348 11:59 02.01.2021
4183 Clouds 25 1008 94 10000 2.55 345 11:26 02.01.2021
4184 Clouds 26 1008 88 10000 2.55 345 10:58 02.01.2021
4185 Clouds 26 1008 88 10000 2.55 345 10:34 02.01.2021
4186 Clouds 26 1008 88 10000 2.63 349 09:59 02.01.2021
4187 Clouds 26 1008 88 10000 2.63 349 09:39 02.01.2021
4188 Clouds 27 1007 83 10000 3.6 40 09:18 02.01.2021
4189 Clouds 27 1007 83 10000 3.6 40 08:41 02.01.2021
4190 Clouds 28 1006 78 10000 2.1 30 07:55 02.01.2021
4191 Clouds 28 1006 78 10000 2.1 30 07:22 02.01.2021
4192 Clouds 28 1006 83 10000 3.1 50 06:57 02.01.2021
4193 Clouds 28 1006 78 10000 2.1 30 05:54 02.01.2021
4194 Rain 28 1008 74 10000 4.1 330 01:37 02.01.2021
4195 Rain 28 1008 74 10000 4.1 340 00:38 02.01.2021
4196 Rain 26 1008 88 10000 4.1 340 23:58 01.01.2021
4197 Rain 26 1009 94 10000 3.1 330 23:23 01.01.2021
4198 Rain 26 1009 94 10000 3.1 330 22:50 01.01.2021
4199 Rain 26 1009 94 10000 3.1 330 22:27 01.01.2021
4200 Clouds 25 1009 94 10000 2.6 320 21:59 01.01.2021
4201 Clouds 25 1009 94 10000 2.6 320 21:41 01.01.2021
4202 Clouds 24 1009 94 10000 2.1 330 21:19 01.01.2021
4203 Clouds 24 1009 94 10000 2.1 330 20:44 01.01.2021
4204 Clouds 24 1009 94 10000 2.1 310 20:18 01.01.2021
4205 Clouds 24 1009 94 10000 2.1 310 19:41 01.01.2021
4206 Clouds 24 1008 94 10000 2.1 300 19:21 01.01.2021
4207 Clouds 24 1008 94 10000 2.1 300 18:45 01.01.2021
4208 Clouds 24 1008 94 10000 1 0 18:23 01.01.2021
4209 Clouds 24 1008 94 10000 1 0 17:46 01.01.2021
4210 Clouds 24 1008 94 10000 1 0 17:23 01.01.2021
4211 Clouds 24 1008 100 10000 1 0 16:48 01.01.2021
4212 Clouds 24 1008 100 10000 1 0 16:25 01.01.2021
4213 Clouds 24 1009 100 10000 1 0 15:40 01.01.2021
4214 Clouds 24 1009 100 10000 1 0 14:44 01.01.2021
4215 Clouds 24 1009 100 10000 1 0 14:26 01.01.2021
4216 Clouds 25 1010 94 10000 1 0 13:39 01.01.2021
4217 Clouds 25 1010 94 10000 1 0 12:52 01.01.2021
4218 Rain 25 1010 94 10000 1 0 12:27 01.01.2021
4219 Rain 25 1010 100 10000 2.34 44 11:43 01.01.2021
4220 Rain 25 1010 100 10000 2.44 41 11:22 01.01.2021
4221 Rain 25 1010 100 10000 2.44 41 10:56 01.01.2021
4222 Rain 25 1010 100 10000 2.44 41 10:30 01.01.2021
4223 Rain 25 1010 94 10000 2.88 44 09:39 01.01.2021
4224 Rain 26 1010 94 10000 2.43 47 08:49 01.01.2021
4225 Rain 26 1010 94 10000 2.22 64 08:25 01.01.2021
4226 Rain 26 1009 94 10000 1.5 290 04:51 01.01.2021
4227 Rain 28 1011 78 10000 1.5 70 01:58 01.01.2021
4228 Rain 27 1011 83 10000 1.5 40 00:35 01.01.2021
4229 Rain 27 1011 80 10000 3.29 78 23:43 31.12.2020
4230 Rain 26 1012 88 10000 1.5 340 23:21 31.12.2020
4231 Rain 26 1012 88 10000 1.5 340 22:55 31.12.2020
4232 Rain 26 1012 88 10000 1.5 340 22:36 31.12.2020
4233 Rain 25 1011 94 10000 1 0 22:18 31.12.2020
4234 Rain 25 1011 94 10000 1 0 21:43 31.12.2020
4235 Rain 24 1011 94 10000 1 0 21:20 31.12.2020
4236 Rain 24 1011 94 10000 1 0 20:31 31.12.2020
4237 Rain 23 1011 100 10000 2.1 320 19:52 31.12.2020
4238 Rain 23 1011 100 10000 2.1 320 19:34 31.12.2020
4239 Rain 23 1010 94 10000 2.1 310 18:58 31.12.2020
4240 Rain 23 1010 94 10000 2.1 310 18:26 31.12.2020
4241 Rain 23 1009 100 10000 1.5 310 17:59 31.12.2020
4242 Rain 23 1009 100 10000 1.5 310 17:40 31.12.2020
4243 Rain 23 1009 100 10000 2.1 320 17:21 31.12.2020
4244 Rain 23 1009 100 10000 2.1 320 16:39 31.12.2020
4245 Clouds 23 1010 100 10000 1 330 16:20 31.12.2020
4246 Clouds 23 1010 100 10000 1 330 15:43 31.12.2020
4247 Clouds 23 1011 100 10000 1.5 310 15:20 31.12.2020
4248 Clouds 23 1011 100 10000 1.5 310 14:42 31.12.2020
4249 Clouds 24 1012 94 10000 1.5 290 14:23 31.12.2020
4250 Clouds 24 1012 94 10000 1.5 290 13:59 31.12.2020
4251 Clouds 24 1012 94 10000 1.5 290 13:37 31.12.2020
4252 Rain 24 1012 100 10000 2.1 320 13:19 31.12.2020
4253 Clouds 24 1012 100 10000 2.1 320 12:49 31.12.2020
4254 Clouds 24 1012 100 10000 2.1 320 12:31 31.12.2020
4255 Clouds 24 1012 100 10000 1 360 11:47 31.12.2020
4256 Clouds 24 1012 100 10000 1 360 11:29 31.12.2020
4257 Clouds 24 1012 100 10000 2.1 330 10:42 31.12.2020
4258 Rain 25 1012 94 10000 2.1 310 10:23 31.12.2020
4259 Rain 25 1012 94 10000 2.1 310 09:49 31.12.2020
4260 Rain 25 1012 94 10000 2.1 310 09:24 31.12.2020
4261 Rain 25 1011 94 10000 1.5 320 08:48 31.12.2020
4262 Rain 25 1011 94 10000 1.5 320 08:30 31.12.2020
4263 Rain 25 1011 94 10000 1.5 290 07:55 31.12.2020
4264 Rain 25 1011 94 10000 1.5 290 07:24 31.12.2020
4265 Thunderstorm 29 1010 79 10000 3.6 70 05:30 31.12.2020
4266 Rain 31 1010 66 10000 3.6 120 03:36 31.12.2020
4267 Rain 31 1010 70 10000 4.1 120 02:36 31.12.2020
4268 Rain 30 1011 70 10000 3.1 120 01:56 31.12.2020
4269 Rain 30 1011 70 10000 3.1 120 01:37 31.12.2020
4270 Clouds 30 1011 70 10000 1 0 00:57 31.12.2020
4271 Clouds 30 1011 70 10000 1 0 00:26 31.12.2020
4272 Clouds 29 1012 79 10000 1 0 23:36 30.12.2020
4273 Clouds 25 1013 94 10000 1.5 300 23:18 30.12.2020
4274 Clouds 25 1013 94 10000 1.5 300 22:35 30.12.2020
4275 Clouds 24 1012 94 10000 2.1 320 21:54 30.12.2020
4276 Clouds 24 1012 94 10000 2.1 320 21:54 30.12.2020
4277 Clouds 24 1012 94 10000 2.1 320 21:27 30.12.2020
4278 Clouds 25 1012 94 10000 1.5 310 20:53 30.12.2020
4279 Rain 25 1012 94 10000 1.5 310 20:29 30.12.2020
4280 Rain 24 1012 94 10000 1.5 320 19:58 30.12.2020
4281 Rain 24 1012 94 10000 1.5 320 19:37 30.12.2020
4282 Rain 24 1012 94 10000 1.5 320 19:37 30.12.2020
4283 Clouds 23 1011 94 10000 2.1 310 19:18 30.12.2020
4284 Clouds 23 1011 94 10000 2.1 310 18:39 30.12.2020
4285 Clouds 23 1011 100 10000 2.1 330 18:20 30.12.2020
4286 Clouds 23 1011 100 10000 2.1 330 17:48 30.12.2020
4287 Clouds 23 1011 100 10000 2.1 330 17:29 30.12.2020
4288 Clouds 23 1011 100 10000 1.01 65 16:44 30.12.2020
4289 Clouds 23 1011 100 10000 1.02 46 15:51 30.12.2020
4290 Clouds 23 1011 100 10000 1.02 46 15:31 30.12.2020
4291 Clouds 24 1011 94 10000 1.55 48 14:58 30.12.2020
4292 Clouds 24 1011 94 10000 1.55 48 14:40 30.12.2020
4293 Clouds 24 1013 94 10000 1.43 61 14:19 30.12.2020
4294 Clouds 24 1013 94 10000 1.1 76 13:19 30.12.2020
4295 Clouds 24 1013 94 10000 1.19 56 12:26 30.12.2020
4296 Clouds 24 1013 94 10000 1.19 56 11:45 30.12.2020
4297 Clouds 24 1013 94 10000 1.5 310 11:22 30.12.2020
4298 Clouds 24 1013 94 10000 1.5 310 10:58 30.12.2020
4299 Clouds 24 1013 94 10000 1.5 310 10:38 30.12.2020
4300 Clouds 24 1012 100 10000 1 0 10:18 30.12.2020
4301 Clouds 24 1012 100 10000 1 0 09:41 30.12.2020
4302 Rain 24 1011 100 10000 2.1 320 08:49 30.12.2020
4303 Rain 25 1011 94 10000 3.1 350 07:51 30.12.2020
4304 Rain 25 1011 94 10000 3.1 350 07:24 30.12.2020
4305 Rain 27 1011 88 10000 3.6 290 06:40 30.12.2020
4306 Rain 28 1010 78 10000 3.1 40 05:48 30.12.2020
4307 Rain 28 1010 78 10000 3.1 40 05:29 30.12.2020
4308 Rain 29 1010 74 10000 4.1 40 03:41 30.12.2020
4309 Clouds 31 1010 70 10000 4.6 60 03:23 30.12.2020
4310 Clouds 31 1010 70 10000 4.6 60 02:32 30.12.2020
4311 Rain 30 1011 70 10000 4.1 60 01:44 30.12.2020
4312 Clouds 30 1011 70 10000 4.1 60 01:26 30.12.2020
4313 Rain 28 1012 88 10000 3.6 70 00:40 30.12.2020
4314 Rain 29 1012 79 10000 4.1 100 00:21 30.12.2020
4315 Rain 29 1012 79 10000 4.1 100 23:42 29.12.2020
4316 Clouds 28 1012 83 10000 1.5 280 23:24 29.12.2020
4317 Clouds 28 1012 83 10000 1.5 280 22:49 29.12.2020
4318 Clouds 28 1012 83 10000 1.5 280 22:31 29.12.2020
4319 Clouds 26 1012 88 10000 1.5 330 21:54 29.12.2020
4320 Clouds 26 1012 88 10000 1.5 330 21:36 29.12.2020
4321 Clouds 24 1012 100 10000 2.6 220 20:55 29.12.2020
4322 Clouds 24 1012 100 10000 2.6 220 20:37 29.12.2020
4323 Clouds 23 1011 100 10000 1.06 96 20:19 29.12.2020
4324 Clouds 23 1011 100 10000 1.06 96 19:40 29.12.2020
4325 Clouds 23 1010 100 10000 1.2 57 19:20 29.12.2020
4326 Clouds 23 1010 100 10000 1.2 57 18:46 29.12.2020
4327 Clouds 23 1010 100 10000 1.26 106 18:27 29.12.2020
4328 Clouds 23 1010 100 10000 1.26 106 17:45 29.12.2020
4329 Clouds 23 1011 100 10000 1.42 129 17:20 29.12.2020
4330 Clouds 23 1011 100 10000 1.42 129 16:46 29.12.2020
4331 Clouds 24 1011 94 10000 1.03 146 16:24 29.12.2020
4332 Clouds 24 1011 94 10000 1.03 146 15:38 29.12.2020
4333 Clouds 24 1012 94 10000 1.5 270 15:18 29.12.2020
4334 Clouds 24 1012 94 10000 1.5 270 14:37 29.12.2020
4335 Clouds 24 1012 94 10000 1.5 310 14:19 29.12.2020
4336 Clouds 24 1012 94 10000 1.5 310 13:48 29.12.2020
4337 Clouds 24 1013 100 10000 1.5 310 13:21 29.12.2020
4338 Rain 24 1013 100 10000 1.5 310 12:38 29.12.2020
4339 Clouds 24 1013 100 10000 0.74 66 12:20 29.12.2020
4340 Clouds 24 1013 100 10000 0.74 66 11:54 29.12.2020
4341 Clouds 24 1013 100 10000 0.74 66 11:31 29.12.2020
4342 Clouds 24 1012 100 10000 0.93 91 10:34 29.12.2020
4343 Rain 24 1012 94 10000 3.6 260 09:49 29.12.2020
4344 Rain 24 1012 94 10000 3.6 260 09:25 29.12.2020
4345 Rain 24 1011 94 10000 1.5 300 08:54 29.12.2020
4346 Rain 24 1011 94 10000 1.5 300 08:32 29.12.2020
4347 Rain 24 1011 94 10000 1.5 280 07:26 29.12.2020
4348 Rain 24 1010 94 10000 1 280 06:45 29.12.2020
4349 Rain 25 1010 94 7000 2.6 270 05:25 29.12.2020
4350 Rain 30 1011 66 10000 2.6 60 00:49 29.12.2020
4351 Clouds 30 1012 70 10000 2.64 88 00:21 29.12.2020
4352 Clouds 30 1012 70 10000 2.64 88 23:36 28.12.2020
4353 Clouds 28 1012 78 10000 1.86 101 22:28 28.12.2020
4354 Clouds 28 1012 78 10000 1.86 101 22:28 28.12.2020
4355 Clouds 26 1011 88 10000 1.86 101 21:46 28.12.2020
4356 Clouds 26 1011 88 10000 0.81 107 21:27 28.12.2020
4357 Clouds 25 1011 94 10000 1.5 340 20:43 28.12.2020
4358 Clouds 24 1010 100 10000 1.5 310 20:23 28.12.2020
4359 Clouds 24 1010 100 10000 1.5 310 19:50 28.12.2020
4360 Rain 24 1010 100 10000 1.5 310 19:26 28.12.2020
4361 Rain 24 1010 94 10000 0.72 149 18:59 28.12.2020
4362 Rain 24 1010 94 10000 1.78 188 18:30 28.12.2020
4363 Rain 24 1009 94 10000 1.78 188 17:49 28.12.2020
4364 Rain 24 1009 94 10000 1.78 188 17:31 28.12.2020
4365 Rain 25 1009 94 10000 2.29 219 16:59 28.12.2020
4366 Rain 25 1009 94 10000 2.03 236 16:29 28.12.2020
4367 Rain 24 1010 94 10000 2.03 236 15:54 28.12.2020
4368 Rain 24 1010 94 10000 2.03 236 15:33 28.12.2020
4369 Rain 25 1010 94 10000 0.34 197 14:29 28.12.2020
4370 Rain 25 1011 94 10000 1.5 280 13:39 28.12.2020
4371 Rain 25 1012 94 10000 1 250 13:19 28.12.2020
4372 Rain 25 1011 94 10000 0.81 73 12:26 28.12.2020
4373 Rain 25 1011 94 10000 0.81 73 11:49 28.12.2020
4374 Rain 25 1011 94 10000 1.05 93 11:30 28.12.2020
4375 Rain 25 1011 94 10000 1.05 93 10:56 28.12.2020
4376 Rain 25 1011 94 10000 1.44 119 10:29 28.12.2020
4377 Rain 25 1010 94 10000 1.44 119 09:53 28.12.2020
4378 Rain 25 1010 94 10000 1.83 139 09:25 28.12.2020
4379 Rain 26 1009 88 10000 2.1 210 08:58 28.12.2020
4380 Rain 28 1008 83 10000 2.1 30 06:52 28.12.2020
4381 Rain 28 1008 78 10000 2.6 10 05:18 28.12.2020
4382 Rain 28 1008 83 10000 2.1 20 03:34 28.12.2020
4383 Rain 29 1009 79 10000 3.1 40 01:54 28.12.2020
4384 Rain 29 1010 79 10000 2.6 40 23:52 27.12.2020
4385 Rain 29 1010 79 10000 2.6 40 23:27 27.12.2020
4386 Rain 27 1010 88 10000 1 300 22:28 27.12.2020
4387 Rain 26 1011 94 10000 2.1 320 21:47 27.12.2020
4388 Rain 25 1010 94 10000 1 0 21:20 27.12.2020
4389 Rain 24 1009 100 10000 1.53 102 19:59 27.12.2020
4390 Rain 24 1009 100 10000 1.52 95 19:24 27.12.2020
4391 Rain 24 1008 100 10000 1.52 95 18:49 27.12.2020
4392 Rain 24 1008 100 10000 1 0 18:20 27.12.2020
4393 Rain 24 1008 100 10000 1 0 17:56 27.12.2020
4394 Rain 24 1008 100 10000 1 0 17:35 27.12.2020
4395 Rain 24 1008 100 10000 1.5 320 16:55 27.12.2020
4396 Rain 24 1008 100 10000 1.5 320 16:22 27.12.2020
4397 Rain 24 1009 100 10000 2.1 330 15:31 27.12.2020
4398 Rain 24 1010 100 10000 2.6 340 14:50 27.12.2020
4399 Rain 24 1010 100 10000 2.6 340 14:31 27.12.2020
4400 Rain 24 1011 100 10000 2.1 320 13:36 27.12.2020
4401 Rain 24 1011 100 10000 2.1 320 13:36 27.12.2020
4402 Rain 25 1012 94 10000 1.24 78 12:55 27.12.2020
4403 Rain 25 1012 94 10000 1.43 85 12:24 27.12.2020
4404 Rain 24 1012 100 10000 1.43 85 11:42 27.12.2020
4405 Rain 25 1011 100 10000 1.79 91 11:19 27.12.2020
4406 Rain 25 1011 100 10000 1.79 91 10:40 27.12.2020
4407 Rain 26 1010 94 10000 1.5 50 10:19 27.12.2020
4408 Rain 26 1010 94 10000 2.6 100 09:19 27.12.2020
4409 Rain 26 1010 94 10000 2.6 100 08:28 27.12.2020
4410 Rain 26 1008 94 10000 2.1 170 07:28 27.12.2020
4411 Rain 27 1008 83 10000 2.6 130 05:48 27.12.2020
4412 Rain 26 1009 85 10000 3.42 122 05:21 27.12.2020
4413 Rain 28 1008 83 10000 4.1 160 03:24 27.12.2020
4414 Rain 28 1010 83 10000 3.6 160 01:52 27.12.2020
4415 Rain 27 1010 94 10000 3.1 180 00:26 27.12.2020
4416 Rain 27 1011 88 10000 1.5 160 23:42 26.12.2020
4417 Rain 27 1011 88 10000 1 0 23:21 26.12.2020
4418 Rain 27 1011 88 10000 1 0 22:40 26.12.2020
4419 Clouds 26 1011 94 10000 1 0 22:18 26.12.2020
4420 Clouds 26 1011 94 10000 1 0 21:52 26.12.2020
4421 Clouds 26 1011 94 10000 1 0 21:24 26.12.2020
4422 Rain 25 1010 94 10000 1.5 280 20:43 26.12.2020
4423 Rain 25 1009 94 10000 2.6 130 20:20 26.12.2020
4424 Rain 25 1009 94 10000 2.6 130 19:30 26.12.2020
4425 Rain 24 1010 94 6845 2.92 125 18:54 26.12.2020
4426 Rain 25 1008 94 10000 2.28 148 18:32 26.12.2020
4427 Rain 25 1008 94 10000 2.42 150 17:46 26.12.2020
4428 Rain 25 1008 94 10000 2.56 154 17:27 26.12.2020
4429 Clouds 25 1008 88 10000 2.1 300 16:38 26.12.2020
4430 Clouds 25 1008 94 10000 2.34 152 15:57 26.12.2020
4431 Clouds 25 1009 94 10000 1 0 15:20 26.12.2020
4432 Clouds 25 1009 94 10000 1 0 14:30 26.12.2020
4433 Rain 25 1010 88 10000 1 180 13:56 26.12.2020
4434 Rain 25 1010 88 10000 1 180 13:56 26.12.2020
4435 Rain 25 1010 88 10000 1 180 13:36 26.12.2020
4436 Rain 25 1010 88 10000 1 0 12:53 26.12.2020
4437 Rain 25 1010 88 10000 1 0 12:30 26.12.2020
4438 Rain 25 1011 94 10000 1 0 11:58 26.12.2020
4439 Rain 25 1011 94 10000 1 0 11:39 26.12.2020
4440 Clouds 26 1011 88 10000 2.44 137 11:18 26.12.2020
4441 Clouds 26 1011 88 10000 2.44 137 10:42 26.12.2020
4442 Clouds 27 1010 83 10000 2.1 130 10:22 26.12.2020
4443 Clouds 27 1010 83 10000 2.1 130 09:39 26.12.2020
4444 Clouds 27 1009 83 10000 1 0 08:41 26.12.2020
4445 Clouds 28 1009 78 10000 2.6 140 08:18 26.12.2020
4446 Rain 29 1008 74 10000 3.1 140 07:20 26.12.2020
4447 Rain 30 1008 70 10000 4.6 130 03:54 26.12.2020
4448 Clouds 31 1008 70 10000 5.1 130 02:34 26.12.2020
4449 Rain 29 1009 79 10000 4.6 110 00:28 26.12.2020
4450 Rain 30 1010 66 10000 2.6 170 23:46 25.12.2020
4451 Rain 30 1010 66 10000 2.6 170 23:27 25.12.2020
4452 Rain 29 1010 74 10000 1.5 150 22:51 25.12.2020
4453 Rain 29 1010 74 10000 1.5 150 22:25 25.12.2020
4454 Rain 27 1010 83 10000 1 0 21:37 25.12.2020
4455 Rain 25 1010 94 10000 1.5 280 21:19 25.12.2020
4456 Rain 25 1010 94 10000 1.5 280 20:38 25.12.2020
4457 Rain 24 1009 100 10000 2.88 161 19:52 25.12.2020
4458 Rain 24 1009 100 10000 2.88 161 19:33 25.12.2020
4459 Rain 24 1009 94 10000 2.53 145 18:39 25.12.2020
4460 Rain 24 1009 100 10000 2.1 320 17:57 25.12.2020
4461 Rain 24 1009 100 10000 2.1 320 17:35 25.12.2020
4462 Rain 24 1009 100 10000 1.5 310 16:48 25.12.2020
4463 Rain 24 1009 100 10000 2.6 310 16:20 25.12.2020
4464 Rain 24 1009 100 10000 2.6 310 15:39 25.12.2020
4465 Rain 24 1009 100 10000 2.6 300 15:21 25.12.2020
4466 Rain 24 1009 100 10000 2.6 300 14:31 25.12.2020
4467 Rain 25 1010 94 10000 2.6 350 13:46 25.12.2020
4468 Rain 25 1010 94 10000 2.6 350 13:26 25.12.2020
4469 Rain 25 1011 94 10000 2.1 320 12:47 25.12.2020
4470 Rain 25 1010 94 10000 2.1 320 12:25 25.12.2020
4471 Rain 25 1010 94 10000 2.1 320 11:46 25.12.2020
4472 Rain 25 1010 83 10000 2.1 300 11:21 25.12.2020
4473 Rain 25 1010 83 10000 2.1 300 10:35 25.12.2020
4474 Rain 25 1009 83 10000 2.6 310 09:49 25.12.2020
4475 Rain 26 1009 78 10000 3.1 330 08:51 25.12.2020
4476 Rain 26 1009 78 10000 3.1 330 08:29 25.12.2020
4477 Rain 29 1007 74 10000 2.1 160 06:49 25.12.2020
4478 Rain 29 1007 74 10000 2.6 160 05:24 25.12.2020
4479 Rain 29 1009 79 10000 3.1 110 02:19 25.12.2020
4480 Rain 30 1009 70 10000 4.42 136 00:19 25.12.2020
4481 Rain 30 1009 70 10000 4.15 142 23:29 24.12.2020
4482 Rain 29 1010 74 10000 4.15 142 22:53 24.12.2020
4483 Rain 25 1009 78 10000 4.03 146 22:24 24.12.2020
4484 Rain 25 1009 78 10000 4.03 146 21:43 24.12.2020
4485 Rain 25 1009 88 10000 2.1 300 20:53 24.12.2020
4486 Rain 23 1009 94 10000 3.25 159 19:34 24.12.2020
4487 Clouds 23 1008 100 10000 2.1 320 18:21 24.12.2020
4488 Clouds 23 1008 100 10000 2.1 320 17:38 24.12.2020
4489 Clouds 23 1008 100 10000 2.69 167 17:20 24.12.2020
4490 Clouds 23 1008 100 10000 2.41 170 16:25 24.12.2020
4491 Clouds 23 1008 100 10000 2.41 170 15:43 24.12.2020
4492 Clouds 24 1009 94 10000 2.4 170 15:21 24.12.2020
4493 Clouds 24 1009 94 10000 2.4 170 14:56 24.12.2020
4494 Clouds 24 1010 100 10000 1.88 177 14:24 24.12.2020
4495 Clouds 24 1010 100 10000 1.88 177 13:49 24.12.2020
4496 Clouds 24 1010 100 10000 1.88 177 13:30 24.12.2020
4497 Clouds 24 1010 100 10000 5.1 320 12:45 24.12.2020
4498 Clouds 25 1010 94 10000 2.1 330 12:22 24.12.2020
4499 Clouds 25 1010 94 10000 2.1 330 11:59 24.12.2020
4500 Clouds 25 1010 94 10000 2.1 330 11:37 24.12.2020
4501 Clouds 28 1010 83 10000 2.1 320 11:18 24.12.2020
4502 Clouds 28 1010 83 10000 2.1 320 10:42 24.12.2020
4503 Clouds 26 1009 94 10000 0.88 209 09:53 24.12.2020
4504 Clouds 26 1009 94 10000 0.88 209 09:32 24.12.2020
4505 Rain 28 1008 83 10000 0.94 212 08:44 24.12.2020
4506 Rain 28 1008 83 10000 2.6 120 07:43 24.12.2020
4507 Rain 28 1008 83 10000 2.6 120 07:21 24.12.2020
4508 Rain 30 1007 70 10000 2.1 70 05:56 24.12.2020
4509 Rain 32 1008 62 10000 5.1 70 02:33 24.12.2020
4510 Rain 31 1008 66 10000 4.6 50 01:45 24.12.2020
4511 Rain 31 1008 58 10000 3.6 40 01:18 24.12.2020
4512 Clouds 30 1009 70 10000 2.68 213 00:22 24.12.2020
4513 Clouds 30 1009 70 10000 2.68 213 23:49 23.12.2020
4514 Clouds 30 1009 70 10000 2.68 213 23:49 23.12.2020
4515 Clouds 30 1009 70 10000 2.68 213 23:49 23.12.2020
4516 Clouds 30 1009 70 10000 2.68 213 23:30 23.12.2020
4517 Clouds 29 1009 74 10000 2.1 350 22:57 23.12.2020
4518 Clouds 29 1009 74 10000 2.1 350 22:33 23.12.2020
4519 Clouds 26 1009 88 10000 2.1 290 21:57 23.12.2020
4520 Clouds 26 1009 88 10000 2.1 290 21:28 23.12.2020
4521 Clouds 24 1009 100 10000 1.5 320 20:56 23.12.2020
4522 Clouds 24 1009 100 10000 1.5 320 20:37 23.12.2020
4523 Fog 23 1009 100 10000 2.1 330 20:19 23.12.2020
4524 Fog 23 1008 100 900 1.5 330 19:39 23.12.2020
4525 Fog 23 1008 100 800 1 330 19:20 23.12.2020
4526 Clouds 23 1008 100 10000 2.1 310 18:49 23.12.2020
4527 Clouds 23 1008 100 10000 2.1 310 18:29 23.12.2020
4528 Clouds 23 1008 100 10000 2.1 340 17:41 23.12.2020
4529 Clouds 24 1008 94 10000 1.5 340 17:22 23.12.2020
4530 Clouds 24 1008 94 10000 1.5 340 17:22 23.12.2020
4531 Clouds 24 1008 94 10000 1.5 340 16:49 23.12.2020
4532 Clouds 24 1008 94 10000 1.5 340 16:29 23.12.2020
4533 Clouds 24 1008 100 10000 1.5 330 15:58 23.12.2020
4534 Clouds 24 1008 100 10000 1.5 330 15:37 23.12.2020
4535 Clouds 24 1009 100 10000 1.68 325 15:19 23.12.2020
4536 Clouds 24 1009 100 10000 1.68 325 14:39 23.12.2020
4537 Clouds 25 1009 94 10000 1 280 14:20 23.12.2020
4538 Clouds 25 1009 94 10000 1 280 13:44 23.12.2020
4539 Clouds 25 1009 94 10000 1 280 13:44 23.12.2020
4540 Clouds 25 1009 94 10000 1 280 13:44 23.12.2020
4541 Clouds 25 1010 100 10000 1.5 10 13:20 23.12.2020
4542 Clouds 25 1010 100 10000 1.5 10 12:53 23.12.2020
4543 Clouds 25 1010 100 10000 1.5 10 12:28 23.12.2020
4544 Clouds 25 1010 100 10000 2.87 5 11:53 23.12.2020
4545 Rain 26 1009 94 10000 2.82 26 11:21 23.12.2020
4546 Rain 26 1009 94 10000 2.82 26 10:50 23.12.2020
4547 Rain 26 1009 94 10000 2.82 26 10:32 23.12.2020
4548 Rain 26 1009 94 10000 2.92 37 09:36 23.12.2020
4549 Rain 27 1008 88 10000 2.85 33 08:51 23.12.2020
4550 Rain 27 1008 83 10000 2.34 41 08:23 23.12.2020
4551 Rain 27 1008 83 10000 2.34 41 07:43 23.12.2020
4552 Rain 29 1007 70 10000 2.1 90 06:41 23.12.2020
4553 Rain 30 1007 66 10000 3.1 50 05:54 23.12.2020
4554 Rain 31 1007 62 10000 3.6 70 05:19 23.12.2020
4555 Rain 31 1008 70 10000 1.5 110 01:32 23.12.2020
4556 Rain 28 1009 78 10000 2.6 150 00:30 23.12.2020
4557 Rain 30 1009 74 10000 1.5 260 23:38 22.12.2020
4558 Clouds 29 1009 74 10000 1 320 23:20 22.12.2020
4559 Clouds 29 1009 74 10000 1 320 22:42 22.12.2020
4560 Clouds 26 1009 88 10000 1.27 267 22:21 22.12.2020
4561 Clouds 26 1009 88 10000 1.27 267 21:45 22.12.2020
4562 Clouds 25 1009 88 10000 1.5 320 21:20 22.12.2020
4563 Clouds 25 1009 88 10000 1.5 320 20:49 22.12.2020
4564 Clouds 23 1009 94 10000 1 0 20:22 22.12.2020
4565 Clouds 23 1009 94 10000 1 0 19:49 22.12.2020
4566 Clouds 23 1008 94 10000 1 0 19:26 22.12.2020
4567 Clouds 23 1008 94 10000 1 0 18:56 22.12.2020
4568 Clouds 23 1008 94 10000 1 0 18:36 22.12.2020
4569 Clouds 23 1007 94 10000 1.5 320 18:18 22.12.2020
4570 Clouds 23 1007 94 10000 1.5 320 18:18 22.12.2020
4571 Clouds 23 1007 94 10000 1.5 320 17:36 22.12.2020
4572 Clouds 24 1008 94 10000 1 0 17:18 22.12.2020
4573 Clouds 24 1008 94 10000 1 0 16:44 22.12.2020
4574 Clouds 24 1008 94 10000 1 0 16:19 22.12.2020
4575 Clouds 24 1008 94 10000 1 0 15:45 22.12.2020
4576 Clouds 24 1008 94 10000 1 0 15:26 22.12.2020
4577 Clouds 24 1008 94 10000 1 0 14:46 22.12.2020
4578 Clouds 24 1008 94 10000 1 0 14:46 22.12.2020
4579 Clouds 24 1009 94 10000 1.5 310 14:28 22.12.2020
4580 Clouds 24 1009 94 10000 1.5 310 13:54 22.12.2020
4581 Clouds 24 1009 94 10000 1.5 310 13:36 22.12.2020
4582 Clouds 24 1010 94 10000 2.6 330 13:18 22.12.2020
4583 Clouds 24 1010 94 10000 2.6 330 12:42 22.12.2020
4584 Clouds 25 1009 94 10000 3.05 19 12:20 22.12.2020
4585 Clouds 25 1009 94 10000 3.05 19 11:43 22.12.2020
4586 Rain 25 1009 94 10000 2.96 24 11:23 22.12.2020
4587 Rain 25 1009 94 10000 2.96 24 10:56 22.12.2020
4588 Rain 25 1009 94 10000 3.22 31 10:30 22.12.2020
4589 Rain 25 1008 100 10000 1.5 250 09:59 22.12.2020
4590 Rain 25 1008 100 10000 1.5 250 09:40 22.12.2020
4591 Rain 27 1008 94 10000 2.6 320 09:20 22.12.2020
4592 Rain 27 1008 94 10000 2.6 320 08:43 22.12.2020
4593 Rain 27 1008 94 10000 2.1 50 08:20 22.12.2020
4594 Rain 27 1008 94 10000 2.1 50 07:46 22.12.2020
4595 Rain 28 1007 83 10000 1.5 100 06:36 22.12.2020
4596 Rain 29 1006 70 10000 5.1 60 05:34 22.12.2020
4597 Rain 31 1007 70 10000 5.7 60 02:35 22.12.2020
4598 Rain 30 1008 70 10000 4.6 40 00:30 22.12.2020
4599 Clouds 30 1009 74 10000 3.1 70 23:51 21.12.2020
4600 Clouds 29 1009 79 10000 1 0 23:22 21.12.2020
4601 Clouds 29 1009 79 10000 1 0 22:37 21.12.2020
4602 Clouds 26 1009 88 10000 1.5 330 22:19 21.12.2020
4603 Clouds 26 1009 88 10000 1.5 330 22:19 21.12.2020
4604 Clouds 26 1009 88 10000 1.5 330 22:19 21.12.2020
4605 Clouds 26 1009 88 10000 1.5 330 21:48 21.12.2020
4606 Clouds 26 1009 88 10000 1.5 330 21:30 21.12.2020
4607 Clouds 24 1008 94 10000 2.1 320 20:45 21.12.2020
4608 Clouds 23 1008 94 10000 2.1 320 20:21 21.12.2020
4609 Clouds 23 1008 94 10000 2.1 320 19:54 21.12.2020
4610 Clouds 23 1008 94 10000 2.1 320 19:36 21.12.2020
4611 Clouds 23 1007 94 10000 1.5 320 19:18 21.12.2020
4612 Clouds 23 1007 94 10000 1.5 320 18:44 21.12.2020
4613 Clouds 23 1006 94 10000 2.1 320 18:25 21.12.2020
4614 Clouds 23 1006 94 10000 2.1 320 17:42 21.12.2020
4615 Clouds 23 1006 94 10000 1.5 290 17:23 21.12.2020
4616 Clouds 23 1006 94 10000 1.5 290 16:45 21.12.2020
4617 Clouds 23 1006 94 10000 2.1 320 16:21 21.12.2020
4618 Clouds 23 1006 94 10000 2.1 320 15:43 21.12.2020
4619 Clouds 23 1006 94 10000 2.1 320 14:58 21.12.2020
4620 Clouds 24 1007 88 10000 1.5 310 14:36 21.12.2020
4621 Clouds 24 1008 94 10000 1.5 310 14:18 21.12.2020
4622 Clouds 24 1008 94 10000 1.5 310 13:41 21.12.2020
4623 Clouds 24 1008 94 10000 2.1 330 13:22 21.12.2020
4624 Clouds 24 1008 94 10000 2.1 330 12:42 21.12.2020
4625 Clouds 24 1008 94 10000 2.1 320 12:22 21.12.2020
4626 Clouds 24 1008 94 10000 2.1 320 11:43 21.12.2020
4627 Clouds 25 1008 94 10000 2.6 330 11:23 21.12.2020
4628 Clouds 25 1008 94 10000 2.6 330 10:58 21.12.2020
4629 Clouds 25 1008 94 10000 2.6 330 10:39 21.12.2020
4630 Clouds 26 1008 88 10000 1 0 09:58 21.12.2020
4631 Clouds 26 1008 88 10000 1 0 09:40 21.12.2020
4632 Clouds 26 1008 88 10000 1 0 09:40 21.12.2020
4633 Rain 26 1007 94 10000 1 0 09:22 21.12.2020
4634 Rain 26 1007 94 10000 1 0 08:29 21.12.2020
4635 Rain 27 1006 83 10000 1.5 170 07:19 21.12.2020
4636 Rain 28 1005 78 10000 2.6 130 05:39 21.12.2020
4637 Rain 29 1006 74 10000 3.6 90 04:30 21.12.2020
4638 Rain 30 1007 79 10000 3.1 100 00:37 21.12.2020
4639 Rain 30 1006 70 10000 2.1 170 23:50 20.12.2020
4640 Clouds 28 1007 78 10000 1 0 23:21 20.12.2020
4641 Clouds 28 1007 78 10000 1 0 22:45 20.12.2020
4642 Clouds 26 1007 83 10000 1 0 22:25 20.12.2020
4643 Clouds 26 1007 83 10000 1 0 21:55 20.12.2020
4644 Clouds 26 1007 83 10000 1 0 21:37 20.12.2020
4645 Clouds 24 1007 94 10000 2.1 280 21:18 20.12.2020
4646 Clouds 24 1007 94 10000 2.1 280 20:42 20.12.2020
4647 Clouds 23 1006 100 10000 1.5 320 20:21 20.12.2020
4648 Clouds 23 1006 100 10000 1.5 320 19:42 20.12.2020
4649 Clouds 23 1006 100 10000 1.01 248 19:21 20.12.2020
4650 Clouds 23 1006 100 10000 1.74 328 18:54 20.12.2020
4651 Clouds 23 1006 100 10000 1.74 328 18:35 20.12.2020
4652 Clouds 22 1005 100 10000 1.5 320 17:47 20.12.2020
4653 Clouds 22 1005 100 10000 1.5 320 17:28 20.12.2020
4654 Clouds 23 1005 94 10000 1.5 310 16:49 20.12.2020
4655 Clouds 23 1005 94 10000 1.5 310 16:30 20.12.2020
4656 Clouds 23 1005 94 10000 1.09 7 15:52 20.12.2020
4657 Clouds 23 1005 94 10000 1.09 7 15:30 20.12.2020
4658 Clouds 23 1005 94 10000 1.27 37 14:58 20.12.2020
4659 Clouds 23 1005 94 10000 1.27 37 14:37 20.12.2020
4660 Clouds 24 1006 94 10000 2.1 320 13:57 20.12.2020
4661 Clouds 24 1006 94 10000 2.1 320 13:37 20.12.2020
4662 Clouds 24 1006 94 10000 3.1 300 13:18 20.12.2020
4663 Clouds 24 1006 94 10000 3.1 300 12:44 20.12.2020
4664 Rain 24 1006 94 10000 3.1 300 12:22 20.12.2020
4665 Rain 24 1007 88 10000 3.1 300 11:49 20.12.2020
4666 Rain 24 1007 88 10000 3.1 300 11:26 20.12.2020
4667 Rain 24 1006 88 10000 3.1 310 10:49 20.12.2020
4668 Rain 24 1006 88 10000 4.6 310 10:21 20.12.2020
4669 Rain 24 1006 88 10000 4.6 310 09:47 20.12.2020
4670 Rain 24 1006 88 10000 4.6 310 09:29 20.12.2020
4671 Rain 25 1005 88 10000 4.1 300 08:59 20.12.2020
4672 Rain 25 1005 88 10000 4.1 300 08:40 20.12.2020
4673 Clouds 26 1004 88 10000 4.1 300 07:59 20.12.2020
4674 Rain 29 1003 74 10000 2.1 160 07:19 20.12.2020
4675 Clouds 30 1004 70 10000 3.1 180 02:41 20.12.2020
4676 Clouds 30 1004 66 10000 2.6 190 00:53 20.12.2020
4677 Clouds 30 1005 66 10000 3.1 200 23:36 19.12.2020
4678 Clouds 28 1005 74 10000 3.57 238 23:18 19.12.2020
4679 Clouds 28 1005 74 10000 3.57 238 22:42 19.12.2020
4680 Clouds 27 1005 83 10000 1.5 300 22:24 19.12.2020
4681 Clouds 27 1005 83 10000 1.5 300 21:45 19.12.2020
4682 Clouds 24 1005 88 10000 2.1 310 21:26 19.12.2020
4683 Clouds 24 1005 88 10000 2.1 310 20:58 19.12.2020
4684 Clouds 24 1005 88 10000 2.1 310 20:24 19.12.2020
4685 Clouds 23 1004 94 10000 2.8 265 19:59 19.12.2020
4686 Clouds 23 1004 94 10000 2.8 265 19:41 19.12.2020
4687 Clouds 23 1004 94 10000 3.41 267 19:21 19.12.2020
4688 Clouds 23 1004 94 10000 3.41 267 18:33 19.12.2020
4689 Clouds 23 1003 94 10000 3.34 261 17:56 19.12.2020
4690 Clouds 23 1003 94 10000 3.34 261 17:32 19.12.2020
4691 Clouds 23 1003 94 10000 1.5 250 16:59 19.12.2020
4692 Clouds 23 1003 94 10000 1.5 250 16:39 19.12.2020
4693 Clouds 23 1003 94 10000 1.5 250 16:39 19.12.2020
4694 Clouds 23 1004 94 10000 1.5 260 16:21 19.12.2020
4695 Clouds 23 1004 94 10000 1.5 260 15:49 19.12.2020
4696 Clouds 24 1004 88 10000 2.1 250 15:20 19.12.2020
4697 Clouds 24 1004 88 10000 2.1 250 14:37 19.12.2020
4698 Clouds 24 1005 94 10000 3.38 286 13:55 19.12.2020
4699 Clouds 24 1005 94 10000 3.38 286 13:36 19.12.2020
4700 Clouds 24 1006 94 10000 3.74 287 13:18 19.12.2020
4701 Clouds 24 1006 94 10000 3.38 294 12:41 19.12.2020
4702 Clouds 25 1006 94 10000 1.5 220 12:21 19.12.2020
4703 Clouds 25 1006 94 10000 1.5 220 11:48 19.12.2020
4704 Rain 25 1005 94 10000 3.26 260 11:19 19.12.2020
4705 Rain 25 1005 94 10000 3.26 260 10:42 19.12.2020
4706 Rain 25 1005 94 10000 2.1 190 10:18 19.12.2020
4707 Rain 25 1005 94 10000 2.1 190 09:41 19.12.2020
4708 Rain 26 1004 88 10000 2.6 190 08:59 19.12.2020
4709 Rain 27 1004 83 10000 3.1 210 08:20 19.12.2020
4710 Rain 28 1003 74 10000 5.7 210 07:20 19.12.2020
4711 Rain 28 1003 74 10000 5.7 210 06:50 19.12.2020
4712 Rain 29 1003 66 10000 5.7 210 05:24 19.12.2020
4713 Clouds 30 1003 66 10000 5.7 210 03:50 19.12.2020
4714 Clouds 29 1004 70 10000 5.7 230 00:42 19.12.2020
4715 Clouds 28 1004 74 10000 4.6 240 00:22 19.12.2020
4716 Clouds 28 1004 74 10000 4.6 240 23:52 18.12.2020
4717 Clouds 28 1004 74 10000 4.6 240 23:33 18.12.2020
4718 Clouds 27 1004 78 10000 5.7 240 22:59 18.12.2020
4719 Clouds 27 1004 78 10000 5.7 240 22:41 18.12.2020
4720 Clouds 27 1004 78 10000 4.6 240 22:19 18.12.2020
4721 Clouds 27 1004 78 10000 4.6 240 21:46 18.12.2020
4722 Clouds 25 1004 88 10000 2.6 270 21:25 18.12.2020
4723 Clouds 24 1004 88 10000 2.6 260 20:26 18.12.2020
4724 Clouds 24 1004 88 10000 2.6 260 19:51 18.12.2020
4725 Clouds 24 1003 88 10000 2.6 260 19:25 18.12.2020
4726 Clouds 24 1003 88 10000 2.6 260 19:25 18.12.2020
4727 Clouds 24 1003 88 10000 2.6 260 18:47 18.12.2020
4728 Clouds 24 1003 88 10000 2.6 260 18:28 18.12.2020
4729 Clouds 24 1003 88 10000 3.1 250 17:52 18.12.2020
4730 Clouds 24 1003 88 10000 3.1 250 17:21 18.12.2020
4731 Clouds 24 1003 88 10000 3.1 250 16:48 18.12.2020
4732 Clouds 24 1003 88 10000 4.1 250 16:22 18.12.2020
4733 Clouds 24 1003 88 10000 4.1 250 15:54 18.12.2020
4734 Clouds 24 1003 88 10000 4.1 250 15:34 18.12.2020
4735 Clouds 24 1003 88 10000 3.1 260 14:59 18.12.2020
4736 Clouds 24 1003 88 10000 3.1 260 14:39 18.12.2020
4737 Clouds 25 1004 83 10000 2.6 240 14:19 18.12.2020
4738 Clouds 25 1004 83 10000 2.6 240 13:42 18.12.2020
4739 Clouds 25 1004 83 10000 3.6 220 13:23 18.12.2020
4740 Clouds 25 1004 83 10000 3.6 220 12:44 18.12.2020
4741 Clouds 25 1004 83 10000 4.1 210 11:31 18.12.2020
4742 Clouds 25 1004 83 10000 4.1 220 10:59 18.12.2020
4743 Clouds 25 1004 83 10000 4.1 220 10:37 18.12.2020
4744 Clouds 25 1004 83 10000 4.1 210 10:19 18.12.2020
4745 Clouds 25 1004 83 10000 4.1 210 09:38 18.12.2020
4746 Clouds 25 1003 83 10000 4.6 210 09:20 18.12.2020
4747 Clouds 25 1003 83 10000 4.6 210 08:52 18.12.2020
4748 Rain 25 1003 88 10000 4.1 210 08:22 18.12.2020
4749 Clouds 26 1002 83 10000 6.2 210 07:20 18.12.2020
4750 Clouds 26 1002 83 10000 6.2 210 06:59 18.12.2020
4751 Clouds 27 1001 78 10000 5.1 210 05:45 18.12.2020
4752 Clouds 27 1001 78 10000 5.1 210 05:27 18.12.2020
4753 Clouds 27 1001 78 10000 6.2 210 04:43 18.12.2020
4754 Rain 25 1002 94 10000 6.2 200 01:47 18.12.2020
4755 Rain 25 1002 94 10000 6.2 200 01:47 18.12.2020
4756 Rain 25 1002 94 10000 6.2 200 01:47 18.12.2020
4757 Rain 26 1002 83 10000 5.7 190 00:55 18.12.2020
4758 Rain 26 1001 88 10000 7.7 190 23:55 17.12.2020
4759 Rain 27 1001 83 10000 7.2 190 23:25 17.12.2020
4760 Rain 25 1001 94 8000 6.7 200 22:49 17.12.2020
4761 Rain 25 1001 94 8000 6.7 200 22:28 17.12.2020
4762 Rain 24 1002 100 8000 7.7 210 21:47 17.12.2020
4763 Rain 24 1001 94 8000 5.1 210 21:25 17.12.2020
4764 Rain 24 1001 94 8000 5.1 210 20:56 17.12.2020
4765 Rain 24 1001 94 8000 5.1 210 20:37 17.12.2020
4766 Rain 25 1000 94 5000 7.2 210 20:18 17.12.2020
4767 Rain 25 1000 94 8000 6.7 200 19:44 17.12.2020
4768 Rain 25 999 88 8000 6.2 190 19:23 17.12.2020
4769 Rain 25 999 88 8000 6.2 190 18:41 17.12.2020
4770 Rain 25 998 88 8000 5.1 190 18:23 17.12.2020
4771 Rain 25 998 88 8000 5.1 190 17:53 17.12.2020
4772 Rain 25 998 88 8000 5.1 190 17:32 17.12.2020
4773 Rain 25 998 88 8000 5.1 190 17:32 17.12.2020
4774 Rain 25 998 88 8000 5.1 190 17:32 17.12.2020
4775 Rain 25 998 88 8000 5.1 200 16:44 17.12.2020
4776 Rain 25 997 83 8000 6.2 160 16:24 17.12.2020
4777 Rain 25 997 83 8000 6.2 160 15:52 17.12.2020
4778 Rain 25 997 83 8000 6.2 160 15:30 17.12.2020
4779 Rain 24 997 88 8000 7.7 160 14:54 17.12.2020
4780 Rain 24 999 88 8000 7.7 150 14:30 17.12.2020
4781 Rain 24 999 88 8000 7.7 150 13:51 17.12.2020
4782 Rain 24 999 88 8000 7.7 150 13:28 17.12.2020
4783 Rain 24 991 91 4100 17.47 156 12:44 17.12.2020
4784 Rain 24 998 88 6000 18.63 155 12:25 17.12.2020
4785 Rain 24 998 88 6000 18.63 155 11:45 17.12.2020
4786 Rain 24 998 88 6000 18.64 146 11:24 17.12.2020
4787 Rain 24 997 88 6000 7.7 130 10:49 17.12.2020
4788 Rain 23 998 94 5000 8.7 130 09:43 17.12.2020
4789 Rain 23 998 94 5000 8.7 130 09:43 17.12.2020
4790 Rain 23 998 94 5000 8.7 130 09:24 17.12.2020
4791 Rain 24 998 88 4000 9.3 120 07:50 17.12.2020
4792 Rain 24 998 88 4000 9.3 120 07:31 17.12.2020
4793 Rain 23 998 88 4000 11.8 110 06:53 17.12.2020
4794 Rain 23 998 88 4000 11.8 110 06:32 17.12.2020
4795 Rain 23 998 88 4000 11.8 110 06:32 17.12.2020
4796 Rain 24 998 94 4000 9.8 100 04:45 17.12.2020
4797 Rain 25 1001 94 8000 8.2 100 00:33 17.12.2020
4798 Rain 25 1002 94 8000 6.7 110 23:52 16.12.2020
4799 Rain 24 1003 100 8000 7.2 100 23:19 16.12.2020
4800 Rain 24 1003 100 8000 7.2 100 22:52 16.12.2020
4801 Rain 24 1003 100 8000 7.2 100 22:32 16.12.2020
4802 Rain 24 1003 100 8000 9.3 90 21:47 16.12.2020
4803 Rain 24 1003 100 8000 9.3 90 21:27 16.12.2020
4804 Rain 24 1002 94 10000 4.1 80 20:54 16.12.2020
4805 Rain 25 1002 94 10000 4.6 90 20:21 16.12.2020
4806 Rain 25 1002 94 10000 4.6 90 19:50 16.12.2020
4807 Rain 24 1000 94 10000 5.7 110 19:19 16.12.2020
4808 Rain 24 1000 94 10000 5.7 110 18:52 16.12.2020
4809 Rain 24 1000 94 10000 5.7 110 18:27 16.12.2020
4810 Rain 24 1002 100 10000 2.1 100 17:43 16.12.2020
4811 Rain 24 1002 100 10000 4.1 100 16:58 16.12.2020
4812 Rain 24 1002 100 10000 4.1 100 16:39 16.12.2020
4813 Rain 25 1002 94 10000 4.1 100 16:20 16.12.2020
4814 Rain 25 1002 94 10000 4.1 100 15:49 16.12.2020
4815 Rain 25 1003 94 10000 4.1 120 15:24 16.12.2020
4816 Rain 25 1003 94 10000 4.1 120 14:46 16.12.2020
4817 Rain 25 1003 94 10000 4.1 120 14:28 16.12.2020
4818 Rain 25 1003 94 10000 4.1 120 13:45 16.12.2020
4819 Rain 25 1003 94 10000 4.1 120 13:27 16.12.2020
4820 Rain 25 1005 94 10000 2.6 120 12:48 16.12.2020
4821 Rain 25 1005 94 10000 2.6 130 12:25 16.12.2020
4822 Rain 25 1005 94 10000 2.6 130 11:38 16.12.2020
4823 Rain 25 1005 94 10000 2.6 130 11:38 16.12.2020
4824 Rain 25 1005 94 10000 1.5 110 11:19 16.12.2020
4825 Rain 25 1005 94 10000 1.5 110 10:41 16.12.2020
4826 Rain 25 1005 94 10000 5.33 72 10:18 16.12.2020
4827 Rain 25 1005 94 10000 5.33 72 10:18 16.12.2020
4828 Rain 25 1005 94 10000 5.33 72 09:34 16.12.2020
4829 Rain 25 1005 94 10000 1 0 08:24 16.12.2020
4830 Rain 25 1005 94 10000 1.5 100 07:48 16.12.2020
4831 Rain 25 1005 94 10000 1.5 100 07:30 16.12.2020
4832 Rain 25 1004 94 10000 2.1 130 05:48 16.12.2020
4833 Rain 25 1005 100 10000 2.1 170 02:22 16.12.2020
4834 Rain 28 1005 83 10000 3.1 80 23:59 15.12.2020
4835 Rain 28 1005 83 10000 3.1 80 23:40 15.12.2020
4836 Rain 27 1005 88 10000 1.5 100 22:44 15.12.2020
4837 Rain 25 1005 94 10000 5.08 87 22:23 15.12.2020
4838 Rain 25 1005 94 10000 5.08 87 21:49 15.12.2020
4839 Rain 25 1005 94 10000 4.95 93 21:24 15.12.2020
4840 Rain 25 1005 94 10000 4.95 93 20:46 15.12.2020
4841 Rain 25 1005 94 10000 4.95 93 20:46 15.12.2020
4842 Rain 25 1005 94 10000 5.1 100 20:27 15.12.2020
4843 Rain 24 1005 100 10000 1.5 80 19:55 15.12.2020
4844 Rain 24 1005 100 10000 1.5 80 19:35 15.12.2020
4845 Rain 24 1004 100 10000 4.74 106 18:57 15.12.2020
4846 Rain 24 1004 100 10000 4.74 106 18:38 15.12.2020
4847 Rain 24 1004 94 10000 4.12 108 18:20 15.12.2020
4848 Rain 24 1004 94 10000 4.12 108 17:41 15.12.2020
4849 Rain 24 1004 94 10000 1 140 17:21 15.12.2020
4850 Rain 25 1005 94 10000 2.1 280 16:34 15.12.2020
4851 Rain 25 1005 94 10000 2.1 280 15:59 15.12.2020
4852 Rain 25 1005 94 10000 2.1 280 15:34 15.12.2020
4853 Rain 25 1005 94 10000 1.5 20 14:53 15.12.2020
4854 Rain 25 1006 94 10000 2.6 120 14:27 15.12.2020
4855 Rain 25 1006 94 10000 2.6 120 13:59 15.12.2020
4856 Rain 25 1006 94 10000 2.6 120 13:40 15.12.2020
4857 Rain 25 1007 100 10000 2.1 330 13:22 15.12.2020
4858 Rain 25 1007 100 10000 2.1 330 12:43 15.12.2020
4859 Rain 26 1007 94 10000 1 0 12:18 15.12.2020
4860 Rain 26 1007 94 10000 1 0 11:43 15.12.2020
4861 Rain 26 1006 88 10000 1.5 140 11:20 15.12.2020
4862 Rain 26 1006 88 10000 1.5 140 10:41 15.12.2020
4863 Rain 26 1006 94 10000 1 0 09:53 15.12.2020
4864 Rain 26 1006 94 10000 1 0 09:32 15.12.2020
4865 Rain 26 1006 88 10000 1.5 170 08:58 15.12.2020
4866 Rain 26 1006 88 10000 1.5 170 08:30 15.12.2020
4867 Rain 26 1006 88 10000 1.5 170 08:30 15.12.2020
4868 Rain 27 1005 83 10000 2.6 160 07:54 15.12.2020
4869 Rain 27 1005 83 10000 2.6 160 07:33 15.12.2020
4870 Rain 28 1005 78 10000 3.6 160 06:37 15.12.2020
4871 Rain 29 1005 74 10000 3.6 160 04:20 15.12.2020
4872 Rain 27 1007 88 10000 2.6 140 00:37 15.12.2020
4873 Clouds 29 1008 74 10000 3.1 160 23:28 14.12.2020
4874 Clouds 29 1008 79 10000 2.6 170 22:59 14.12.2020
4875 Clouds 29 1008 79 10000 2.6 170 22:37 14.12.2020
4876 Clouds 27 1008 83 10000 2.6 150 21:54 14.12.2020
4877 Clouds 27 1008 83 10000 2.6 150 21:35 14.12.2020
4878 Rain 25 1007 94 10000 0.35 46 20:52 14.12.2020
4879 Rain 25 1007 94 10000 0.35 46 20:30 14.12.2020
4880 Rain 24 1007 100 10000 0.81 84 19:55 14.12.2020
4881 Rain 24 1007 100 10000 1.19 106 19:30 14.12.2020
4882 Rain 24 1007 94 10000 1.62 117 18:53 14.12.2020
4883 Rain 24 1007 94 10000 1.62 117 18:32 14.12.2020
4884 Rain 24 1006 100 10000 1.78 117 17:52 14.12.2020
4885 Rain 24 1006 100 10000 1.78 117 17:31 14.12.2020
4886 Rain 24 1006 100 10000 2.07 114 16:52 14.12.2020
4887 Rain 24 1006 100 10000 2.58 112 16:29 14.12.2020
4888 Rain 24 1006 100 10000 2.58 112 15:46 14.12.2020
4889 Rain 24 1007 100 10000 2.1 320 15:25 14.12.2020
4890 Rain 24 1007 100 10000 2.1 320 14:43 14.12.2020
4891 Rain 24 1007 100 10000 2.1 320 14:25 14.12.2020
4892 Rain 24 1008 100 10000 2.1 320 13:46 14.12.2020
4893 Rain 25 1009 94 10000 2.1 300 13:22 14.12.2020
4894 Rain 25 1009 94 10000 2.1 300 12:53 14.12.2020
4895 Rain 25 1009 94 10000 2.1 300 12:28 14.12.2020
4896 Rain 25 1009 94 10000 2.1 320 11:35 14.12.2020
4897 Rain 25 1009 94 10000 2 117 10:43 14.12.2020
4898 Rain 25 1009 94 10000 1.94 120 10:25 14.12.2020
4899 Rain 27 1008 83 10000 1.94 120 09:44 14.12.2020
4900 Clouds 27 1008 88 10000 2.24 116 08:48 14.12.2020
4901 Clouds 27 1008 88 10000 2.24 116 08:30 14.12.2020
4902 Rain 28 1007 78 10000 1.5 140 07:45 14.12.2020
4903 Rain 29 1006 74 10000 3.1 140 06:48 14.12.2020
4904 Rain 29 1006 74 10000 3.1 140 06:48 14.12.2020
4905 Rain 30 1006 70 10000 3.6 130 05:36 14.12.2020
4906 Rain 30 1007 74 10000 3.6 140 02:26 14.12.2020
4907 Rain 30 1008 70 10000 3.6 130 00:56 14.12.2020
4908 Rain 30 1008 70 10000 3.6 130 00:33 14.12.2020
4909 Rain 30 1008 79 10000 3.1 120 23:57 13.12.2020
4910 Rain 30 1008 79 10000 3.1 120 23:36 13.12.2020
4911 Clouds 29 1008 79 10000 2.1 140 22:48 13.12.2020
4912 Clouds 28 1008 83 10000 1.5 180 22:20 13.12.2020
4913 Clouds 28 1008 83 10000 1.5 180 21:47 13.12.2020
4914 Clouds 28 1008 83 10000 1.5 180 21:27 13.12.2020
4915 Clouds 25 1008 94 10000 2.1 180 20:38 13.12.2020
4916 Clouds 24 1008 100 10000 0.49 50 20:20 13.12.2020
4917 Clouds 24 1008 100 10000 0.49 50 19:42 13.12.2020
4918 Clouds 24 1007 100 10000 0.87 60 19:20 13.12.2020
4919 Rain 24 1007 100 10000 1.7 68 18:43 13.12.2020
4920 Rain 24 1007 100 10000 1.5 330 18:21 13.12.2020
4921 Rain 24 1007 100 10000 1.5 330 17:47 13.12.2020
4922 Rain 24 1007 100 10000 1.5 330 17:47 13.12.2020
4923 Rain 24 1007 100 10000 1.5 300 17:21 13.12.2020
4924 Rain 24 1007 100 10000 1.5 300 16:58 13.12.2020
4925 Rain 24 1007 100 10000 1.5 300 16:38 13.12.2020
4926 Rain 25 1007 94 10000 3.05 94 16:19 13.12.2020
4927 Rain 25 1007 94 10000 3.05 94 15:40 13.12.2020
4928 Rain 25 1007 94 10000 3.41 96 15:22 13.12.2020
4929 Rain 24 1008 94 10000 3.41 96 14:44 13.12.2020
4930 Rain 25 1009 94 10000 3.1 40 14:21 13.12.2020
4931 Rain 25 1009 94 10000 3.1 40 13:43 13.12.2020
4932 Rain 25 1009 94 10000 3.1 40 13:25 13.12.2020
4933 Rain 25 1010 100 10000 1.5 130 12:49 13.12.2020
4934 Rain 25 1010 100 10000 2.1 130 12:23 13.12.2020
4935 Rain 25 1010 100 10000 2.1 130 11:42 13.12.2020
4936 Rain 25 1010 100 10000 5.7 90 10:56 13.12.2020
4937 Rain 25 1010 100 10000 5.7 90 10:38 13.12.2020
4938 Clouds 27 1009 83 10000 3.1 90 09:55 13.12.2020
4939 Rain 27 1009 83 10000 3.1 90 09:27 13.12.2020
4940 Rain 28 1008 78 10000 3.6 100 08:35 13.12.2020
4941 Rain 29 1008 79 10000 5.7 100 07:47 13.12.2020
4942 Clouds 29 1007 79 10000 7.2 100 04:48 13.12.2020
4943 Rain 28 1008 83 10000 7.7 110 02:41 13.12.2020
4944 Rain 30 1008 74 10000 6.2 90 01:58 13.12.2020
4945 Rain 30 1009 70 10000 6.7 80 00:50 13.12.2020
4946 Rain 30 1009 70 10000 6.2 90 23:56 12.12.2020
4947 Rain 30 1009 70 10000 6.2 90 23:31 12.12.2020
4948 Rain 29 1009 74 10000 5.7 90 22:52 12.12.2020
4949 Rain 28 1010 78 10000 5.1 80 22:19 12.12.2020
4950 Rain 28 1010 78 10000 5.1 80 21:34 12.12.2020
4951 Rain 27 1009 83 10000 3.1 80 20:56 12.12.2020
4952 Rain 27 1009 83 10000 3.1 80 20:29 12.12.2020
4953 Rain 25 1009 88 10000 2.1 80 19:58 12.12.2020
4954 Rain 25 1009 88 10000 2.1 80 19:39 12.12.2020
4955 Rain 25 1009 88 10000 3.6 90 19:21 12.12.2020
4956 Rain 25 1009 88 10000 3.6 90 18:44 12.12.2020
4957 Rain 25 1009 88 10000 3.6 90 18:26 12.12.2020
4958 Rain 25 1009 94 10000 3.6 80 17:47 12.12.2020
4959 Rain 25 1009 94 10000 2.6 110 16:56 12.12.2020
4960 Rain 24 1009 94 10000 2.1 120 16:20 12.12.2020
4961 Rain 24 1009 94 10000 2.1 120 15:45 12.12.2020
4962 Rain 24 1009 94 10000 2.1 120 15:27 12.12.2020
4963 Rain 25 1010 94 10000 4.1 100 14:45 12.12.2020
4964 Rain 25 1011 94 10000 4.6 80 13:55 12.12.2020
4965 Rain 25 1011 94 10000 4.6 80 13:36 12.12.2020
4966 Rain 25 1012 94 10000 3.1 60 12:53 12.12.2020
4967 Rain 25 1011 94 10000 5.7 40 11:46 12.12.2020
4968 Rain 26 1011 83 10000 6.7 50 10:53 12.12.2020
4969 Rain 26 1010 88 10000 6.2 80 09:32 12.12.2020
4970 Rain 26 1009 88 10000 6.2 80 08:53 12.12.2020
4971 Rain 30 1010 74 10000 7.2 70 02:53 12.12.2020
4972 Rain 29 1011 79 10000 7.7 80 23:54 11.12.2020
4973 Rain 28 1010 83 10000 5.1 80 22:28 11.12.2020
4974 Rain 28 1010 83 10000 4.1 70 20:40 11.12.2020
4975 Rain 25 1008 94 10000 6.51 80 17:58 11.12.2020
4976 Rain 26 1009 88 10000 6.52 81 14:53 11.12.2020
4977 Rain 26 1010 94 10000 3.6 90 13:58 11.12.2020
4978 Rain 26 1010 100 10000 2.1 90 12:56 11.12.2020
4979 Rain 26 1011 94 10000 3.6 110 12:18 11.12.2020
4980 Rain 26 1011 94 10000 3.6 110 12:18 11.12.2020
4981 Rain 26 1011 94 10000 3.6 110 11:50 11.12.2020
4982 Rain 26 1011 94 10000 4.6 110 10:45 11.12.2020
4983 Rain 27 1010 83 10000 5.7 120 08:46 11.12.2020
4984 Rain 29 1010 74 10000 5.7 120 05:40 11.12.2020
4985 Rain 29 1010 74 10000 6.7 120 04:51 11.12.2020
4986 Rain 29 1011 74 10000 7.2 110 01:32 11.12.2020
4987 Rain 29 1011 74 10000 8.2 110 00:20 11.12.2020
4988 Rain 29 1011 74 10000 8.2 110 22:27 10.12.2020
4989 Rain 28 1011 78 10000 7.7 100 21:36 10.12.2020
4990 Rain 25 1011 94 10000 4.6 80 20:39 10.12.2020
4991 Rain 25 1010 94 10000 3.1 100 19:37 10.12.2020
4992 Rain 25 1010 94 10000 4.1 100 18:53 10.12.2020
4993 Rain 25 1010 94 10000 4.6 100 17:52 10.12.2020
4994 Rain 27 1010 83 10000 4.1 90 16:25 10.12.2020
4995 Rain 27 1011 83 10000 5.1 100 15:26 10.12.2020
4996 Rain 27 1011 83 10000 5.1 100 14:50 10.12.2020
4997 Rain 27 1011 83 10000 5.1 100 14:26 10.12.2020
4998 Rain 27 1012 83 10000 4.1 100 12:40 10.12.2020
4999 Rain 27 1012 88 10000 3.6 100 11:33 10.12.2020
5000 Rain 27 1010 88 10000 4.1 100 08:51 10.12.2020
5001 Rain 28 1009 83 10000 5.7 100 07:38 10.12.2020
5002 Rain 29 1009 79 10000 7.7 100 06:41 10.12.2020
5003 Rain 28 1009 83 10000 4.6 90 02:53 10.12.2020
5004 Rain 28 1009 83 10000 4.6 90 01:58 10.12.2020
5005 Rain 30 1010 74 10000 3.1 90 23:50 09.12.2020
5006 Rain 27 1009 88 10000 3.6 110 20:51 09.12.2020
5007 Rain 27 1009 88 10000 3.6 110 20:26 09.12.2020
5008 Rain 26 1009 94 10000 3.6 110 19:20 09.12.2020
5009 Rain 25 1009 100 10000 4.6 100 17:42 09.12.2020
5010 Rain 26 1008 94 10000 4.1 120 16:40 09.12.2020
5011 Rain 26 1009 94 10000 3.6 110 16:20 09.12.2020
5012 Rain 26 1010 94 10000 3.6 120 14:54 09.12.2020
5013 Rain 26 1010 94 10000 3.6 120 14:27 09.12.2020
5014 Rain 26 1011 88 10000 6.2 110 13:51 09.12.2020
5015 Rain 26 1011 88 10000 6.2 110 13:51 09.12.2020
5016 Rain 26 1011 94 10000 3.6 110 13:18 09.12.2020
5017 Rain 26 1011 94 10000 3.6 110 12:43 09.12.2020
5018 Rain 26 1012 94 10000 5.1 110 11:46 09.12.2020
5019 Rain 26 1011 94 10000 4.1 110 09:59 09.12.2020
5020 Rain 27 1010 88 10000 4.1 120 08:45 09.12.2020
5021 Rain 27 1010 88 10000 3.6 120 07:42 09.12.2020
5022 Rain 28 1009 83 10000 5.1 120 05:42 09.12.2020
5023 Rain 29 1010 79 10000 6.7 110 02:59 09.12.2020
5024 Rain 29 1011 74 10000 6.2 120 00:56 09.12.2020
5025 Rain 29 1011 79 10000 6.7 110 23:37 08.12.2020
5026 Rain 28 1011 78 10000 6.2 120 22:43 08.12.2020
5027 Clouds 27 1012 83 10000 4.1 120 20:49 08.12.2020
5028 Clouds 26 1012 88 10000 3.6 120 19:31 08.12.2020
5029 Clouds 26 1011 88 10000 3.6 120 18:41 08.12.2020
5030 Rain 26 1010 88 10000 3.1 130 17:28 08.12.2020
5031 Rain 26 1011 94 10000 2.1 100 15:27 08.12.2020
5032 Rain 26 1012 94 10000 2.6 100 13:53 08.12.2020
5033 Rain 25 1013 94 10000 6.5 101 12:54 08.12.2020
5034 Rain 25 1013 94 10000 5.32 98 12:20 08.12.2020
5035 Rain 25 1013 94 10000 5.55 95 11:27 08.12.2020
5036 Rain 25 1013 94 10000 5.55 95 10:41 08.12.2020
5037 Rain 26 1013 94 10000 2.1 120 09:45 08.12.2020
5038 Rain 26 1012 88 10000 7.2 110 07:47 08.12.2020
5039 Rain 29 1011 79 10000 8.2 110 05:43 08.12.2020
5040 Rain 28 1012 83 10000 6.7 110 02:49 08.12.2020
5041 Rain 25 1013 94 10000 2.1 220 00:45 08.12.2020
5042 Rain 24 1014 94 8000 1 130 23:46 07.12.2020
5043 Rain 23 1014 100 10000 7.67 98 22:21 07.12.2020
5044 Rain 23 1014 100 8000 2.6 40 21:47 07.12.2020
5045 Rain 26 1013 88 10000 4.6 120 19:45 07.12.2020
5046 Rain 25 1012 94 10000 2.6 130 18:19 07.12.2020
5047 Rain 25 1012 88 10000 2.1 120 17:23 07.12.2020
5048 Rain 25 1012 88 10000 2.1 120 16:47 07.12.2020
5049 Rain 24 1012 94 10000 1 0 15:25 07.12.2020
5050 Rain 24 1013 94 10000 3.66 102 14:36 07.12.2020
5051 Rain 25 1013 88 10000 2.1 90 13:37 07.12.2020
5052 Clouds 25 1014 88 10000 2.1 70 12:31 07.12.2020
5053 Rain 25 1014 88 10000 2.6 100 11:42 07.12.2020
5054 Rain 26 1013 83 10000 3.6 80 10:36 07.12.2020
5055 Rain 26 1013 88 10000 5.7 80 09:24 07.12.2020
5056 Rain 26 1012 88 10000 5.7 90 07:40 07.12.2020
5057 Rain 28 1011 78 10000 8.2 80 05:27 07.12.2020
5058 Rain 29 1011 74 10000 6.2 80 04:35 07.12.2020
5059 Rain 29 1013 79 10000 5.1 90 00:52 07.12.2020
5060 Rain 26 1013 94 10000 5.7 110 22:53 06.12.2020
5061 Rain 27 1013 83 10000 4.6 120 21:45 06.12.2020
5062 Rain 27 1013 83 10000 3.1 120 20:46 06.12.2020
5063 Clouds 27 1013 83 10000 3.1 120 20:26 06.12.2020
5064 Clouds 25 1013 88 10000 2.1 130 19:30 06.12.2020
5065 Rain 25 1012 88 10000 3.1 110 17:39 06.12.2020
5066 Rain 25 1012 94 10000 3.6 110 16:34 06.12.2020
5067 Rain 25 1012 88 10000 1.5 140 14:49 06.12.2020
5068 Rain 26 1014 83 10000 3.6 110 13:21 06.12.2020
5069 Rain 26 1014 83 10000 3.6 110 12:30 06.12.2020
5070 Rain 26 1014 88 10000 4.1 120 11:42 06.12.2020
5071 Rain 25 1014 94 10000 3.6 100 11:23 06.12.2020
5072 Rain 25 1014 94 10000 3.6 100 10:34 06.12.2020
5073 Rain 25 1012 94 10000 2.6 130 08:59 06.12.2020
5074 Rain 25 1012 94 5000 3.1 130 07:26 06.12.2020
5075 Rain 26 1011 94 8000 3.6 170 04:41 06.12.2020
5076 Rain 27 1012 88 10000 2.1 200 00:45 06.12.2020
5077 Rain 27 1012 88 10000 2.1 200 00:26 06.12.2020
5078 Rain 27 1012 83 10000 1.5 230 23:55 05.12.2020
5079 Rain 26 1013 94 10000 1 0 22:24 05.12.2020
5080 Rain 25 1012 94 10000 4.33 59 21:53 05.12.2020
5081 Rain 25 1012 94 10000 3.15 51 21:28 05.12.2020
5082 Rain 24 1011 100 10000 2.2 26 19:50 05.12.2020
5083 Rain 24 1011 100 10000 2 359 18:45 05.12.2020
5084 Rain 24 1010 100 10000 1.5 330 17:36 05.12.2020
5085 Rain 24 1010 100 10000 1.5 320 16:43 05.12.2020
5086 Rain 24 1010 100 10000 1.5 320 16:23 05.12.2020
5087 Rain 25 1011 94 10000 1.5 4 14:30 05.12.2020
5088 Clouds 25 1012 94 10000 2.42 38 12:32 05.12.2020
5089 Rain 25 1012 88 10000 1 60 11:49 05.12.2020
5090 Clouds 25 1012 88 10000 1.5 40 10:34 05.12.2020
5091 Clouds 26 1011 88 10000 4.6 70 07:50 05.12.2020
5092 Rain 26 1011 88 10000 4.6 70 07:26 05.12.2020
5093 Rain 27 1010 83 10000 5.1 80 05:22 05.12.2020
5094 Rain 27 1012 88 10000 4.6 70 23:56 04.12.2020
5095 Rain 26 1012 94 10000 4.1 90 22:41 04.12.2020
5096 Rain 24 1012 100 10000 3.46 85 20:30 04.12.2020
5097 Rain 24 1010 94 10000 3.34 77 18:54 04.12.2020
5098 Rain 23 1010 100 10000 3.82 88 18:21 04.12.2020
5099 Rain 23 1010 100 10000 3.82 88 17:41 04.12.2020
5100 Rain 23 1010 100 10000 4.37 95 15:54 04.12.2020
5101 Rain 23 1011 100 10000 4.41 93 15:18 04.12.2020
5102 Rain 24 1012 94 10000 4.59 92 13:35 04.12.2020
5103 Rain 25 1012 100 8000 1.5 100 12:55 04.12.2020
5104 Rain 25 1012 100 10000 5.34 96 11:33 04.12.2020
5105 Rain 25 1012 100 10000 5.06 97 10:28 04.12.2020
5106 Clouds 25 1010 100 10000 4.55 94 07:43 04.12.2020
5107 Clouds 26 1010 94 10000 4.32 102 06:39 04.12.2020
5108 Rain 26 1009 94 10000 3.6 30 04:38 04.12.2020
5109 Rain 28 1011 83 10000 4.6 110 23:49 03.12.2020
5110 Rain 28 1012 78 10000 5.1 110 22:45 03.12.2020
5111 Rain 26 1012 94 10000 1.5 130 20:59 03.12.2020
5112 Rain 24 1011 100 10000 4.6 96 19:38 03.12.2020
5113 Rain 24 1011 100 10000 4.55 99 19:19 03.12.2020
5114 Rain 24 1011 100 10000 4.21 100 18:34 03.12.2020
5115 Rain 25 1011 94 10000 4.22 108 17:20 03.12.2020
5116 Rain 25 1011 94 10000 4.1 109 15:58 03.12.2020
5117 Rain 25 1011 94 10000 4.1 109 15:31 03.12.2020
5118 Rain 25 1012 88 10000 4.31 107 14:48 03.12.2020
5119 Rain 25 1013 94 10000 4.17 109 13:49 03.12.2020
5120 Rain 26 1013 88 10000 1.5 100 12:33 03.12.2020
5121 Rain 26 1014 88 10000 4.61 119 11:49 03.12.2020
5122 Rain 26 1013 88 10000 2.1 110 10:27 03.12.2020
5123 Rain 27 1011 83 10000 2.6 120 07:48 03.12.2020
5124 Rain 29 1011 74 10000 4.6 120 03:38 03.12.2020
5125 Rain 29 1012 79 10000 4.6 130 01:24 03.12.2020
5126 Clouds 27 1013 83 10000 4.6 120 23:19 02.12.2020
5127 Clouds 27 1013 83 10000 4.6 120 22:28 02.12.2020
5128 Clouds 28 1013 78 10000 3.6 140 21:28 02.12.2020
5129 Rain 27 1013 83 10000 3.6 120 20:47 02.12.2020
5130 Rain 27 1013 83 10000 3.6 120 20:29 02.12.2020
5131 Rain 25 1013 94 10000 2.1 200 18:39 02.12.2020
5132 Rain 25 1013 94 8000 1.5 190 17:47 02.12.2020
5133 Clouds 25 1013 94 10000 1.5 190 17:28 02.12.2020
5134 Clouds 25 1013 94 10000 1 0 15:37 02.12.2020
5135 Rain 26 1015 88 10000 2.1 80 12:50 02.12.2020
5136 Rain 26 1014 88 10000 1 150 10:32 02.12.2020
5137 Clouds 27 1014 78 10000 2.6 110 09:32 02.12.2020
5138 Clouds 29 1012 70 10000 6.2 110 06:53 02.12.2020
5139 Clouds 28 1014 69 10000 4.1 110 22:54 01.12.2020
5140 Clouds 27 1013 78 10000 1 0 22:18 01.12.2020
5141 Clouds 21 1012 100 10000 1.5 330 19:36 01.12.2020
5142 Clouds 21 1012 100 10000 1.5 330 18:45 01.12.2020
5143 Clouds 22 1012 94 10000 2.1 320 16:37 01.12.2020
5144 Clouds 23 1014 94 10000 1.5 320 13:54 01.12.2020
5145 Clouds 23 1014 94 10000 2.75 78 12:26 01.12.2020
5146 Clouds 24 1015 88 10000 2.27 73 11:27 01.12.2020
5147 Clouds 24 1014 83 10000 2.27 73 10:39 01.12.2020
5148 Clouds 25 1014 78 10000 1 0 09:26 01.12.2020
5149 Clouds 29 1012 58 10000 4.1 110 07:19 01.12.2020
5150 Clouds 29 1012 51 10000 3.6 90 01:56 01.12.2020
5151 Clouds 29 1013 54 10000 4.1 110 00:57 01.12.2020
5152 Clouds 28 1013 65 10000 2.6 90 23:22 30.11.2020
5153 Clouds 28 1013 65 10000 2.6 90 22:45 30.11.2020
5154 Clouds 28 1013 65 10000 2.6 90 22:26 30.11.2020
5155 Clouds 25 1013 78 10000 1 310 21:55 30.11.2020
5156 Clouds 20 1012 94 10000 1.5 320 19:45 30.11.2020
5157 Clouds 22 1013 76 10000 1.04 31 18:40 30.11.2020
5158 Clouds 20 1011 100 10000 1.24 19 18:20 30.11.2020
5159 Clouds 20 1011 100 10000 1.24 19 17:42 30.11.2020
5160 Clouds 20 1011 100 10000 1.14 31 16:44 30.11.2020
5161 Clouds 21 1012 88 10000 1.77 57 14:47 30.11.2020
5162 Clouds 23 1012 88 10000 1.93 67 13:54 30.11.2020
5163 Clouds 24 1013 73 10000 2.15 88 12:35 30.11.2020
5164 Clouds 25 1013 69 10000 1.5 100 11:59 30.11.2020
5165 Clouds 25 1013 69 10000 2.1 120 10:31 30.11.2020
5166 Clouds 25 1012 69 10000 2.1 120 09:51 30.11.2020
5167 Clouds 26 1011 65 10000 2.1 140 07:44 30.11.2020
5168 Clouds 29 1013 58 10000 3.6 160 01:19 30.11.2020
5169 Clouds 26 1013 88 10000 1.5 250 22:20 29.11.2020
5170 -273 0 0 0 0 0 21:43 29.11.2020
5171 Clouds 26 1013 88 10000 1.5 250 21:25 29.11.2020
5172 Clouds 21 1011 94 10000 1.5 320 17:48 29.11.2020
5173 Clouds 21 1011 94 10000 2.1 300 16:57 29.11.2020
5174 Clouds 23 1012 88 10000 1 240 13:35 29.11.2020
5175 Clouds 23 1012 88 10000 1.5 220 12:27 29.11.2020
5176 Clouds 25 1012 78 10000 1.5 220 10:54 29.11.2020
5177 Clouds 26 1011 74 10000 2.1 200 08:52 29.11.2020
5178 Clouds 26 1011 74 10000 2.1 200 08:34 29.11.2020
5179 Clouds 30 1010 58 10000 3.6 210 01:42 29.11.2020
5180 Clouds 28 1011 65 10000 4.1 230 22:57 28.11.2020
5181 Clouds 25 1010 88 10000 1.5 270 20:56 28.11.2020
5182 Clouds 22 1009 94 10000 2.6 270 19:53 28.11.2020
5183 Clouds 22 1009 94 10000 2.6 270 19:25 28.11.2020
5184 Clouds 22 1009 94 10000 1 0 18:52 28.11.2020
5185 Clouds 22 1008 94 10000 1 0 17:48 28.11.2020
5186 Clouds 22 1008 100 10000 1 0 16:45 28.11.2020
5187 Clouds 24 1009 88 10000 2.1 280 14:57 28.11.2020
5188 Clouds 24 1010 88 10000 1.5 230 13:27 28.11.2020
5189 Clouds 24 1009 100 10000 1.5 250 10:57 28.11.2020
5190 Rain 26 1006 94 10000 4.6 210 06:42 28.11.2020
5191 Clouds 30 1007 70 10000 3.1 270 03:33 28.11.2020
5192 Clouds 28 1007 78 10000 6.2 350 01:50 28.11.2020
5193 Clouds 26 1008 88 10000 4.6 340 23:18 27.11.2020
5194 Rain 24 1008 94 10000 3.1 310 21:33 27.11.2020
5195 Rain 24 1008 94 10000 3.1 310 20:36 27.11.2020
5196 Rain 24 1008 94 10000 3.6 330 19:30 27.11.2020
5197 Clouds 24 1007 94 10000 2.1 330 18:44 27.11.2020
5198 Clouds 24 1007 94 10000 2.6 30 14:56 27.11.2020
5199 Rain 24 1008 100 10000 1 0 13:29 27.11.2020
5200 Rain 25 1008 88 10000 1 0 12:48 27.11.2020
5201 Clouds 25 1007 88 10000 1.5 0 11:49 27.11.2020
5202 Clouds 25 1007 94 10000 1.5 0 10:50 27.11.2020
5203 Clouds 25 1007 94 10000 1 0 10:19 27.11.2020
5204 Rain 26 1007 87 10000 2.33 348 07:29 27.11.2020
5205 Rain 26 1010 85 10000 4.42 43 22:29 26.11.2020
5206 Rain 26 1010 85 10000 4.42 43 21:57 26.11.2020
5207 Clouds 23 1008 100 10000 2.1 310 21:25 26.11.2020
5208 Clouds 24 1008 94 10000 2.1 310 19:19 26.11.2020
5209 Clouds 23 1008 100 10000 1.5 330 17:53 26.11.2020
5210 Rain 24 1009 94 10000 2.1 40 14:57 26.11.2020
5211 Rain 24 1010 94 10000 2.1 320 13:42 26.11.2020
5212 Rain 26 1010 83 10000 2.6 70 12:44 26.11.2020
5213 Clouds 26 1011 83 10000 3.1 80 11:47 26.11.2020
5214 Clouds 26 1011 83 10000 4.1 90 10:37 26.11.2020
5215 Clouds 26 1011 83 10000 2.6 90 09:48 26.11.2020
5216 Clouds 26 1011 83 10000 2.6 90 09:29 26.11.2020
5217 Clouds 26 1010 83 10000 3.6 70 08:39 26.11.2020
5218 Clouds 27 1009 83 10000 3.6 70 06:49 26.11.2020
5219 Clouds 29 1011 70 10000 4.6 90 22:59 25.11.2020
5220 Clouds 27 1011 83 10000 1.5 70 20:43 25.11.2020
5221 Rain 24 1010 100 10000 4.1 86 19:46 25.11.2020
5222 Clouds 24 1010 100 10000 3.82 80 18:28 25.11.2020
5223 Rain 24 1009 100 10000 1.5 70 16:43 25.11.2020
5224 Rain 24 1010 100 10000 1 0 15:38 25.11.2020
5225 Rain 25 1011 94 10000 3.8 65 13:56 25.11.2020
5226 Rain 25 1011 94 10000 3.8 65 13:37 25.11.2020
5227 Clouds 26 1011 88 10000 3.1 50 11:45 25.11.2020
5228 Clouds 26 1011 83 10000 2.1 110 11:18 25.11.2020
5229 Clouds 26 1010 83 10000 3.6 110 09:18 25.11.2020
5230 Clouds 26 1010 83 10000 3.6 110 08:43 25.11.2020
5231 Clouds 29 1009 70 10000 5.7 110 03:59 25.11.2020
5232 Clouds 28 1011 69 10000 5.7 100 01:53 25.11.2020
5233 Clouds 28 1011 74 10000 6.2 100 00:23 25.11.2020
5234 Clouds 28 1011 74 10000 6.2 100 23:52 24.11.2020
5235 Clouds 28 1011 74 10000 6.2 100 23:33 24.11.2020
5236 Clouds 27 1011 78 10000 4.1 110 21:51 24.11.2020
5237 Clouds 27 1011 78 10000 4.1 110 21:29 24.11.2020
5238 Clouds 26 1010 83 10000 3.1 110 20:40 24.11.2020
5239 Clouds 25 1009 94 10000 2.1 110 18:40 24.11.2020
5240 Clouds 25 1009 94 10000 1.5 110 17:30 24.11.2020
5241 Clouds 25 1008 88 10000 1.5 120 16:45 24.11.2020
5242 Clouds 25 1008 88 10000 1.5 120 16:27 24.11.2020
5243 Clouds 24 1009 94 10000 1.5 100 15:54 24.11.2020
5244 Clouds 24 1009 94 10000 1 0 15:18 24.11.2020
5245 Clouds 24 1009 94 10000 1 0 14:33 24.11.2020
5246 Clouds 25 1011 88 10000 2.1 90 12:45 24.11.2020
5247 Clouds 25 1011 88 10000 2.1 90 12:22 24.11.2020
5248 Clouds 25 1011 88 10000 3.6 90 11:38 24.11.2020
5249 Rain 25 1011 94 10000 2.6 100 10:39 24.11.2020
5250 Rain 25 1011 94 10000 3.6 100 10:19 24.11.2020
5251 Rain 25 1011 94 10000 3.6 100 09:35 24.11.2020
5252 Thunderstorm 26 1009 83 10000 5.1 120 07:37 24.11.2020
5253 Rain 27 1008 83 10000 4.1 120 04:19 24.11.2020
5254 Clouds 28 1010 83 10000 1 0 22:29 23.11.2020
5255 Clouds 25 1010 94 10000 5.17 92 21:35 23.11.2020
5256 Clouds 24 1010 94 10000 2.1 340 20:50 23.11.2020
5257 Clouds 23 1009 94 10000 2.1 320 20:20 23.11.2020
5258 Clouds 22 1008 100 10000 4.04 95 18:20 23.11.2020
5259 Clouds 23 1008 100 10000 3.95 93 17:24 23.11.2020
5260 Clouds 23 1008 100 10000 3.76 90 16:22 23.11.2020
5261 Clouds 23 1009 100 10000 2.1 330 14:46 23.11.2020
5262 Clouds 24 1010 94 10000 1.5 320 12:55 23.11.2020
5263 Clouds 24 1010 94 10000 1.5 320 12:36 23.11.2020
5264 Rain 24 1010 100 10000 1 330 11:46 23.11.2020
5265 Rain 25 1010 83 10000 1 0 10:47 23.11.2020
5266 Clouds 25 1009 88 10000 1.5 120 09:31 23.11.2020
5267 Clouds 26 1009 78 10000 1 0 08:39 23.11.2020
5268 Clouds 27 1008 74 10000 2.1 100 07:19 23.11.2020
5269 Rain 27 1009 83 10000 1.5 110 00:25 23.11.2020
5270 Rain 24 1010 94 10000 3.1 180 23:18 22.11.2020
5271 Rain 26 1010 83 10000 1 0 21:40 22.11.2020
5272 Clouds 24 1010 88 10000 1.5 280 20:51 22.11.2020
5273 Rain 22 1009 94 10000 1 0 19:52 22.11.2020
5274 Clouds 22 1009 94 10000 1 0 18:40 22.11.2020
5275 Clouds 22 1009 94 10000 1 0 18:40 22.11.2020
5276 Clouds 22 1008 94 10000 1 0 16:51 22.11.2020
5277 Rain 22 1009 94 10000 1 0 15:33 22.11.2020
5278 Rain 22 1010 94 10000 2.81 104 14:28 22.11.2020
5279 Rain 24 1011 94 10000 2.1 100 12:49 22.11.2020
5280 Rain 24 1010 85 10000 2.54 105 11:56 22.11.2020
5281 Clouds 24 1010 94 10000 2.1 230 11:20 22.11.2020
5282 Clouds 24 1010 94 10000 2.1 230 10:39 22.11.2020
5283 Clouds 25 1009 88 10000 2.1 130 08:51 22.11.2020
5284 Rain 27 1010 78 10000 1.5 130 01:48 22.11.2020
5285 Rain 26 1011 88 10000 2.6 110 23:21 21.11.2020
5286 Rain 25 1011 94 10000 1.5 230 21:47 21.11.2020
5287 Clouds 24 1010 100 10000 2.5 75 21:18 21.11.2020
5288 Clouds 24 1010 100 10000 2.36 80 20:33 21.11.2020
5289 Clouds 23 1010 100 10000 2.36 80 19:52 21.11.2020
5290 Clouds 23 1010 100 10000 2.46 89 19:26 21.11.2020
5291 Rain 24 1009 94 10000 1.28 20 17:57 21.11.2020
5292 Clouds 24 1009 94 10000 1 2 16:48 21.11.2020
5293 Clouds 24 1009 100 10000 1.78 21 15:51 21.11.2020
5294 Rain 24 1010 100 8000 3.1 50 15:21 21.11.2020
5295 Rain 24 1010 100 8000 3.1 50 14:43 21.11.2020
5296 Clouds 24 1011 94 10000 2.38 56 13:48 21.11.2020
5297 Clouds 24 1012 100 10000 3.93 64 12:26 21.11.2020
5298 Clouds 25 1012 88 10000 1 0 11:56 21.11.2020
5299 Rain 24 1012 100 10000 1 0 10:39 21.11.2020
5300 Rain 24 1012 94 10000 1 0 09:32 21.11.2020
5301 Rain 25 1012 88 10000 1 0 08:51 21.11.2020
5302 Rain 26 1010 83 10000 3.1 130 05:43 21.11.2020
5303 Rain 27 1011 78 10000 5.1 120 04:24 21.11.2020
5304 Clouds 27 1013 78 10000 3.6 130 00:26 21.11.2020
5305 Clouds 27 1013 78 10000 2.6 130 23:23 20.11.2020
5306 Clouds 25 1013 94 10000 5.22 112 21:47 20.11.2020
5307 Clouds 25 1013 94 10000 5.21 113 21:26 20.11.2020
5308 Clouds 25 1013 94 10000 5.21 113 21:26 20.11.2020
5309 Clouds 23 1013 100 10000 1 220 20:42 20.11.2020
5310 Clouds 23 1012 100 10000 1 260 19:37 20.11.2020
5311 Clouds 22 1012 100 10000 1.5 260 18:28 20.11.2020
5312 Rain 22 1011 94 8000 1 240 17:32 20.11.2020
5313 Rain 22 1012 100 8000 2.1 180 16:48 20.11.2020
5314 Rain 22 1012 100 8000 2.1 180 16:48 20.11.2020
5315 Rain 22 1012 100 8000 2.1 180 16:29 20.11.2020
5316 Rain 23 1012 94 5000 1.5 190 15:47 20.11.2020
5317 Thunderstorm 22 1012 100 5000 2.1 140 14:23 20.11.2020
5318 Rain 23 1013 100 5000 3.6 30 13:29 20.11.2020
5319 Rain 24 1013 100 10000 1.5 130 12:59 20.11.2020
5320 Rain 24 1013 100 10000 1.5 130 12:25 20.11.2020
5321 Rain 25 1013 88 10000 3.1 120 11:35 20.11.2020
5322 Clouds 25 1013 100 10000 2.6 150 09:56 20.11.2020
5323 Clouds 25 1012 88 10000 3.1 150 08:32 20.11.2020
5324 Clouds 26 1012 83 10000 4.1 120 07:51 20.11.2020
5325 Clouds 29 1011 79 10000 3.6 160 05:19 20.11.2020
5326 Clouds 27 1013 88 10000 2.6 160 00:21 20.11.2020
5327 Clouds 25 1013 94 10000 1 0 22:30 19.11.2020
5328 Rain 25 1014 94 10000 5.13 97 21:53 19.11.2020
5329 Rain 24 1013 100 5000 4.68 96 20:57 19.11.2020
5330 Rain 24 1013 100 1500 2.1 160 20:20 19.11.2020
5331 Rain 24 1013 100 1500 2.1 160 19:26 19.11.2020
5332 Rain 23 1012 100 5000 3.76 101 18:47 19.11.2020
5333 Rain 24 1011 94 5000 1 0 17:21 19.11.2020
5334 Rain 24 1011 100 5000 1 0 16:26 19.11.2020
5335 Rain 24 1011 100 5000 1 0 15:29 19.11.2020
5336 Thunderstorm 24 1013 100 5000 6.7 100 13:49 19.11.2020
5337 Thunderstorm 24 1013 100 5000 6.7 100 13:30 19.11.2020
5338 Rain 25 1013 94 10000 3.46 105 12:51 19.11.2020
5339 Rain 25 1013 94 10000 3.83 101 12:28 19.11.2020
5340 Rain 25 1013 94 10000 1.5 290 11:40 19.11.2020
5341 Rain 25 1013 94 10000 1.5 290 11:20 19.11.2020
5342 Clouds 25 1013 94 10000 2.1 110 10:29 19.11.2020
5343 Clouds 25 1013 94 10000 1.5 180 09:47 19.11.2020
5344 Clouds 25 1013 94 10000 1.5 180 09:27 19.11.2020
5345 Clouds 25 1012 94 10000 3.88 100 08:21 19.11.2020
5346 Rain 25 1013 88 10000 3.88 100 07:30 19.11.2020
5347 Clouds 29 1012 70 10000 6.2 110 01:46 19.11.2020
5348 Clouds 28 1012 74 10000 5.1 120 00:32 19.11.2020
5349 Drizzle 28 1012 74 10000 4.1 130 23:31 18.11.2020
5350 Clouds 28 1012 74 10000 3.6 130 22:57 18.11.2020
5351 Clouds 28 1012 74 10000 3.6 130 22:27 18.11.2020
5352 Clouds 27 1012 78 10000 4.6 120 21:41 18.11.2020
5353 Rain 26 1012 83 10000 3.6 130 21:21 18.11.2020
5354 Clouds 25 1011 88 10000 2.6 150 19:54 18.11.2020
5355 Clouds 25 1011 88 10000 2.6 150 19:35 18.11.2020
5356 Clouds 24 1011 94 10000 1.5 110 18:57 18.11.2020
5357 Clouds 24 1011 94 10000 1.5 110 18:57 18.11.2020
5358 Clouds 24 1011 94 10000 1.5 110 18:38 18.11.2020
5359 Rain 24 1010 94 10000 2.6 120 17:37 18.11.2020
5360 Rain 25 1010 94 10000 3.1 130 16:25 18.11.2020
5361 Clouds 25 1019 88 10000 3.6 150 15:57 18.11.2020
5362 Clouds 25 1011 88 10000 2.6 160 14:41 18.11.2020
5363 Clouds 26 1011 83 10000 3.1 140 13:46 18.11.2020
5364 Clouds 26 1012 83 10000 3.6 140 13:20 18.11.2020
5365 Clouds 26 1012 83 10000 3.6 140 12:42 18.11.2020
5366 Clouds 26 1012 83 10000 3.1 140 11:35 18.11.2020
5367 Clouds 26 1011 78 10000 3.6 130 10:32 18.11.2020
5368 Clouds 26 1011 78 10000 3.1 150 09:57 18.11.2020
5369 Rain 26 1010 83 10000 3.1 140 07:54 18.11.2020
5370 Rain 26 1009 83 10000 3.6 150 06:34 18.11.2020
5371 Clouds 30 1011 66 10000 4.1 130 00:29 18.11.2020
5372 Clouds 30 1011 66 10000 4.6 130 23:34 17.11.2020
5373 Clouds 29 1011 70 10000 3.1 140 22:49 17.11.2020
5374 Clouds 29 1011 70 10000 3.1 140 22:28 17.11.2020
5375 Clouds 28 1011 78 10000 1 0 21:50 17.11.2020
5376 Clouds 28 1011 78 10000 1 0 21:30 17.11.2020
5377 Clouds 26 1011 88 10000 1 0 20:47 17.11.2020
5378 Clouds 26 1011 88 10000 1 0 20:24 17.11.2020
5379 Rain 24 1011 100 10000 1 0 19:54 17.11.2020
5380 Rain 24 1010 100 10000 1 0 18:24 17.11.2020
5381 Clouds 24 1010 94 10000 1 0 17:33 17.11.2020
5382 Clouds 24 1010 94 10000 1 0 16:49 17.11.2020
5383 Clouds 24 1010 94 10000 1 0 16:18 17.11.2020
5384 Clouds 24 1010 94 10000 1 0 15:39 17.11.2020
5385 Clouds 24 1011 94 10000 2.1 330 15:21 17.11.2020
5386 Clouds 24 1011 94 10000 2.1 330 14:41 17.11.2020
5387 Clouds 24 1012 94 10000 1 0 13:54 17.11.2020
5388 Clouds 24 1012 94 10000 1 0 13:27 17.11.2020
5389 Rain 24 1012 94 10000 1 0 12:42 17.11.2020
5390 Clouds 24 1011 94 10000 1.5 280 11:45 17.11.2020
5391 Clouds 24 1011 94 10000 1.5 280 11:26 17.11.2020
5392 Clouds 25 1011 94 10000 1 0 10:39 17.11.2020
5393 Clouds 25 1011 94 10000 1 0 09:57 17.11.2020
5394 Clouds 25 1011 94 10000 1 0 09:36 17.11.2020
5395 Clouds 25 1010 94 10000 1 0 08:43 17.11.2020
5396 Clouds 26 1010 94 10000 2.1 150 07:59 17.11.2020
5397 Clouds 26 1010 94 10000 2.1 150 07:28 17.11.2020
5398 Clouds 30 1009 62 10000 3.6 160 04:30 17.11.2020
5399 Clouds 30 1009 70 10000 3.6 150 03:22 17.11.2020
5400 Clouds 29 1010 70 10000 4.1 160 03:22 17.11.2020
5401 Clouds 29 1010 70 10000 4.1 160 02:29 17.11.2020
5402 Clouds 29 1011 74 10000 3.1 120 00:56 17.11.2020
5403 Clouds 30 1011 66 10000 2.6 140 23:53 16.11.2020
5404 Rain 30 1011 66 10000 2.6 140 23:30 16.11.2020
5405 Rain 28 1011 74 10000 1 0 22:48 16.11.2020
5406 Rain 28 1011 74 10000 1 0 22:22 16.11.2020
5407 Clouds 28 1011 78 10000 1.5 270 21:50 16.11.2020
5408 Rain 28 1011 78 10000 1.5 270 21:27 16.11.2020
5409 Clouds 25 1011 94 10000 2.1 290 20:59 16.11.2020
5410 Rain 25 1011 94 10000 2.1 290 20:26 16.11.2020
5411 Rain 23 1010 100 10000 1 300 19:45 16.11.2020
5412 Rain 23 1010 100 10000 1 300 19:27 16.11.2020
5413 Rain 23 1009 100 10000 1 340 18:47 16.11.2020
5414 Clouds 24 1009 94 10000 1.5 330 17:55 16.11.2020
5415 Rain 24 1009 94 10000 1.5 330 17:25 16.11.2020
5416 Rain 24 1009 100 10000 1 350 16:57 16.11.2020
5417 Rain 24 1009 100 10000 1 350 16:38 16.11.2020
5418 Clouds 23 1010 100 10000 1 310 16:18 16.11.2020
5419 Clouds 23 1010 100 10000 1 310 15:41 16.11.2020
5420 Rain 24 1010 100 10000 1.89 69 15:21 16.11.2020
5421 Clouds 24 1010 100 10000 1.89 69 14:39 16.11.2020
5422 Clouds 24 1011 94 10000 2.13 69 13:34 16.11.2020
5423 Clouds 24 1011 100 10000 2.3 72 12:34 16.11.2020
5424 Clouds 24 1012 94 10000 1 0 11:54 16.11.2020
5425 Clouds 24 1012 94 10000 1 0 11:36 16.11.2020
5426 Clouds 25 1011 88 10000 2.29 74 11:18 16.11.2020
5427 Clouds 25 1011 88 10000 2.29 74 10:39 16.11.2020
5428 Clouds 26 1011 83 10000 2.47 76 10:20 16.11.2020
5429 Clouds 26 1011 83 10000 2.47 76 09:41 16.11.2020
5430 Clouds 27 1011 78 10000 1.5 100 08:59 16.11.2020
5431 Clouds 27 1011 78 10000 1.5 100 08:38 16.11.2020
5432 Clouds 28 1010 74 10000 3.1 70 07:44 16.11.2020
5433 Clouds 28 1010 74 10000 2.1 80 06:47 16.11.2020
5434 Clouds 29 1010 70 10000 3.6 80 05:53 16.11.2020
5435 Clouds 28 1010 78 10000 3.6 70 04:36 16.11.2020
5436 Clouds 31 1011 58 10000 3.1 90 01:48 16.11.2020
5437 Clouds 31 1011 58 10000 3.1 90 01:27 16.11.2020
5438 Clouds 30 1012 66 10000 4.1 40 23:49 15.11.2020
5439 Clouds 28 1012 78 10000 2.6 70 23:21 15.11.2020
5440 Clouds 28 1012 78 10000 2.6 70 22:40 15.11.2020
5441 Clouds 27 1013 88 10000 1 0 22:18 15.11.2020
5442 Clouds 27 1013 88 10000 1 0 21:43 15.11.2020
5443 Clouds 24 1012 100 10000 2.1 320 21:22 15.11.2020
5444 Clouds 24 1012 100 10000 2.1 320 20:41 15.11.2020
5445 Clouds 23 1012 100 10000 2.1 330 20:18 15.11.2020
5446 Clouds 23 1012 100 10000 2.1 330 19:47 15.11.2020
5447 Clouds 23 1012 100 10000 2.1 330 19:22 15.11.2020
5448 Clouds 23 1011 100 10000 2.24 73 18:56 15.11.2020
5449 Clouds 23 1011 100 10000 2.49 90 18:37 15.11.2020
5450 Clouds 23 1011 100 10000 2.28 93 18:19 15.11.2020
5451 Clouds 23 1011 100 10000 2.28 93 17:43 15.11.2020
5452 Clouds 23 1011 100 10000 2.24 88 17:23 15.11.2020
5453 Clouds 23 1011 100 10000 1 310 16:45 15.11.2020
5454 Clouds 24 1012 100 10000 1.5 330 16:20 15.11.2020
5455 Clouds 24 1012 100 10000 1.5 330 15:49 15.11.2020
5456 Clouds 24 1012 100 10000 1.5 330 15:26 15.11.2020
5457 Clouds 24 1013 100 10000 1.5 310 14:55 15.11.2020
5458 Clouds 24 1013 100 10000 1.5 310 14:29 15.11.2020
5459 Clouds 24 1013 100 10000 2.14 69 13:53 15.11.2020
5460 Clouds 24 1013 100 10000 2.14 69 13:35 15.11.2020
5461 Clouds 24 1014 100 10000 2.46 60 12:50 15.11.2020
5462 Clouds 25 1014 94 10000 2.56 64 12:22 15.11.2020
5463 Clouds 25 1014 94 10000 2.56 64 11:45 15.11.2020
5464 Clouds 25 1013 94 10000 2.87 63 11:19 15.11.2020
5465 Clouds 25 1013 94 10000 2.87 63 10:53 15.11.2020
5466 Clouds 25 1013 94 10000 2.87 63 10:31 15.11.2020
5467 Clouds 26 1013 88 10000 3.06 62 09:56 15.11.2020
5468 Clouds 26 1013 88 10000 3.06 62 09:37 15.11.2020
5469 Clouds 27 1012 83 10000 1.5 30 09:18 15.11.2020
5470 Clouds 27 1012 83 10000 1.5 30 08:43 15.11.2020
5471 Clouds 27 1011 83 10000 2.6 100 07:47 15.11.2020
5472 Clouds 28 1011 78 10000 2.6 80 06:49 15.11.2020
5473 Clouds 30 1011 74 10000 4.6 70 04:56 15.11.2020
5474 Clouds 31 1012 66 10000 5.7 50 02:27 15.11.2020
5475 Clouds 31 1013 66 10000 5.1 60 00:36 15.11.2020
5476 Clouds 31 1013 66 10000 5.1 60 00:36 15.11.2020
5477 Clouds 29 1013 74 10000 4.6 60 00:18 15.11.2020
5478 Clouds 29 1013 79 10000 4.1 70 23:20 14.11.2020
5479 Clouds 29 1013 79 10000 4.1 70 22:45 14.11.2020
5480 Clouds 28 1013 83 10000 4.1 70 22:20 14.11.2020
5481 Clouds 28 1013 83 10000 4.1 70 21:39 14.11.2020
5482 Clouds 26 1013 94 10000 1 0 21:21 14.11.2020
5483 Clouds 26 1013 94 10000 1 0 20:48 14.11.2020
5484 Clouds 26 1013 94 10000 1 0 20:24 14.11.2020
5485 Clouds 26 1013 94 10000 4.32 58 19:39 14.11.2020
5486 Clouds 26 1013 94 10000 3.92 58 19:19 14.11.2020
5487 Rain 26 1012 94 10000 3.1 10 18:41 14.11.2020
5488 Rain 26 1012 94 10000 3.1 10 18:22 14.11.2020
5489 Rain 25 1013 91 10000 3.89 64 17:45 14.11.2020
5490 Rain 25 1013 91 10000 3.89 64 17:45 14.11.2020
5491 Clouds 26 1012 94 10000 2.1 40 17:27 14.11.2020
5492 Clouds 26 1012 94 10000 2.1 40 16:52 14.11.2020
5493 Clouds 26 1012 94 10000 2.1 40 16:33 14.11.2020
5494 Clouds 26 1013 94 10000 3.78 60 15:56 14.11.2020
5495 Clouds 26 1013 94 10000 3.78 60 15:32 14.11.2020
5496 Clouds 26 1013 94 10000 2.1 70 14:57 14.11.2020
5497 Clouds 26 1013 94 10000 2.1 70 14:30 14.11.2020
5498 Clouds 26 1014 94 10000 3.33 58 13:53 14.11.2020
5499 Clouds 26 1014 94 10000 3.33 58 13:30 14.11.2020
5500 Clouds 27 1014 88 10000 2.6 50 12:56 14.11.2020
5501 Clouds 27 1014 88 10000 2.6 50 12:35 14.11.2020
5502 Clouds 27 1014 94 10000 2.1 60 11:56 14.11.2020
5503 Clouds 27 1014 94 10000 2.1 60 11:38 14.11.2020
5504 Clouds 27 1013 94 10000 2.1 70 10:59 14.11.2020
5505 Clouds 27 1013 94 10000 2.1 70 10:38 14.11.2020
5506 Clouds 27 1013 94 10000 2.1 90 10:20 14.11.2020
5507 Clouds 27 1013 94 10000 2.1 90 09:45 14.11.2020
5508 Clouds 27 1013 94 10000 2.1 90 09:26 14.11.2020
5509 Clouds 28 1012 83 10000 1.5 70 08:41 14.11.2020
5510 Clouds 28 1012 83 10000 1.5 70 08:21 14.11.2020
5511 Clouds 28 1012 83 10000 2.1 80 07:41 14.11.2020
5512 Clouds 28 1011 83 10000 2.6 80 06:51 14.11.2020
5513 Clouds 30 1011 74 10000 4.6 80 06:20 14.11.2020
5514 Clouds 32 1011 62 10000 4.6 60 04:53 14.11.2020
5515 Clouds 31 1013 70 10000 4.1 60 01:59 14.11.2020
5516 Clouds 31 1013 70 10000 4.1 60 00:25 14.11.2020
5517 Clouds 31 1014 70 10000 3.1 40 23:35 13.11.2020
5518 Clouds 30 1014 70 10000 2.1 330 22:58 13.11.2020
5519 Clouds 30 1014 70 10000 2.1 330 22:40 13.11.2020
5520 Clouds 30 1014 70 10000 2.1 330 22:21 13.11.2020
5521 Clouds 28 1014 83 10000 1.5 0 21:49 13.11.2020
5522 Clouds 28 1014 83 10000 1.5 0 21:25 13.11.2020
5523 Clouds 25 1014 94 10000 1.5 0 20:51 13.11.2020
5524 Clouds 25 1014 94 10000 1.5 0 20:32 13.11.2020
5525 Clouds 24 1013 94 10000 1.5 0 19:55 13.11.2020
5526 Clouds 24 1013 94 10000 1.5 0 19:36 13.11.2020
5527 Clouds 24 1013 94 10000 1.5 0 19:36 13.11.2020
5528 Clouds 24 1012 100 10000 1.5 0 19:18 13.11.2020
5529 Clouds 24 1012 100 10000 1.5 0 18:32 13.11.2020
5530 Clouds 24 1012 100 10000 1.5 0 17:44 13.11.2020
5531 Clouds 24 1011 100 10000 1.5 0 17:21 13.11.2020
5532 Clouds 24 1011 100 10000 1.5 0 16:57 13.11.2020
5533 Clouds 24 1011 100 10000 1.5 0 16:38 13.11.2020
5534 Clouds 24 1012 100 10000 1.5 0 16:18 13.11.2020
5535 Clouds 24 1012 100 10000 1.5 0 15:39 13.11.2020
5536 Clouds 24 1012 100 10000 1.5 0 15:21 13.11.2020
5537 Clouds 24 1012 100 10000 1.5 0 14:37 13.11.2020
5538 Clouds 25 1013 94 10000 1.5 330 14:18 13.11.2020
5539 Clouds 25 1013 94 10000 1.5 330 13:32 13.11.2020
5540 Clouds 25 1014 100 10000 0.69 335 12:57 13.11.2020
5541 Clouds 25 1014 100 10000 0.77 325 12:39 13.11.2020
5542 Clouds 26 1014 94 10000 1.5 290 12:20 13.11.2020
5543 Clouds 26 1014 94 10000 1.5 290 11:46 13.11.2020
5544 Clouds 27 1013 88 10000 1.63 21 11:21 13.11.2020
5545 Clouds 27 1013 88 10000 1.63 21 10:47 13.11.2020
5546 Clouds 27 1013 88 10000 1.63 21 10:47 13.11.2020
5547 Clouds 27 1013 88 10000 1.78 34 10:29 13.11.2020
5548 Clouds 27 1013 94 10000 1.78 34 09:47 13.11.2020
5549 Clouds 27 1013 94 10000 2.05 52 09:27 13.11.2020
5550 Clouds 27 1013 94 10000 2.05 52 09:27 13.11.2020
5551 Clouds 27 1012 94 10000 2.05 52 08:53 13.11.2020
5552 Clouds 27 1012 94 10000 2.08 63 08:26 13.11.2020
5553 Clouds 28 1011 83 10000 2.1 80 07:50 13.11.2020
5554 Clouds 28 1011 83 10000 2.1 80 07:27 13.11.2020
5555 Clouds 28 1010 83 10000 2.1 110 06:55 13.11.2020
5556 Clouds 28 1010 83 10000 2.1 110 06:36 13.11.2020
5557 Clouds 29 1010 74 10000 4.1 80 05:41 13.11.2020
5558 Clouds 32 1010 66 10000 5.1 70 03:41 13.11.2020
5559 Clouds 32 1011 62 10000 3.6 60 01:42 13.11.2020
5560 Clouds 31 1012 62 10000 3.6 60 00:35 13.11.2020
5561 Clouds 31 1012 62 10000 3.6 60 23:49 12.11.2020
5562 Clouds 30 1013 74 10000 3.1 70 23:21 12.11.2020
5563 Clouds 30 1013 74 10000 3.1 70 22:54 12.11.2020
5564 Clouds 30 1013 74 10000 3.1 70 22:36 12.11.2020
5565 Clouds 27 1013 83 10000 2.1 340 21:57 12.11.2020
5566 Clouds 27 1013 83 10000 2.1 340 21:39 12.11.2020
5567 Clouds 25 1013 94 10000 1.5 330 21:19 12.11.2020
5568 Clouds 25 1013 94 10000 1.5 330 20:41 12.11.2020
5569 Clouds 25 1013 94 10000 1.5 330 20:23 12.11.2020
5570 Clouds 24 1012 94 10000 1 0 19:52 12.11.2020
5571 Clouds 24 1012 94 10000 1 0 19:34 12.11.2020
5572 Clouds 24 1011 94 10000 1 0 18:56 12.11.2020
5573 Clouds 24 1011 94 10000 1 0 18:37 12.11.2020
5574 Clouds 24 1011 94 10000 1 0 18:18 12.11.2020
5575 Clouds 24 1011 94 10000 1 0 17:39 12.11.2020
5576 Clouds 24 1011 94 10000 1 0 17:21 12.11.2020
5577 Clouds 24 1011 94 10000 1 0 16:44 12.11.2020
5578 Clouds 24 1011 94 10000 1 0 16:23 12.11.2020
5579 Clouds 25 1011 94 10000 1 0 15:47 12.11.2020
5580 Clouds 25 1011 94 10000 1 0 15:47 12.11.2020
5581 Clouds 25 1011 94 10000 1 0 15:27 12.11.2020
5582 Clouds 25 1012 94 10000 1 0 14:47 12.11.2020
5583 Clouds 25 1012 94 10000 1 0 14:47 12.11.2020
5584 Clouds 25 1012 94 10000 1 0 14:47 12.11.2020
5585 Clouds 25 1012 94 10000 1 0 14:27 12.11.2020
5586 Clouds 26 1012 94 10000 3.6 30 13:58 12.11.2020
5587 Clouds 26 1012 94 10000 3.6 30 13:39 12.11.2020
5588 Clouds 26 1013 94 10000 3.6 50 13:19 12.11.2020
5589 Clouds 26 1013 94 10000 3.6 50 12:44 12.11.2020
5590 Clouds 26 1013 94 10000 3.6 50 12:24 12.11.2020
5591 Clouds 26 1012 94 10000 3.6 50 11:52 12.11.2020
5592 Clouds 26 1012 94 10000 3.6 50 11:30 12.11.2020
5593 Clouds 26 1012 94 10000 3.6 50 11:30 12.11.2020
5594 Clouds 27 1011 88 10000 4.1 60 10:49 12.11.2020
5595 Clouds 27 1011 88 10000 4.1 60 10:29 12.11.2020
5596 Clouds 26 1011 94 10000 5.1 60 09:49 12.11.2020
5597 Clouds 26 1011 94 10000 5.1 60 09:24 12.11.2020
5598 Clouds 27 1011 88 10000 6.2 60 08:58 12.11.2020
5599 Clouds 27 1011 88 10000 6.2 60 08:39 12.11.2020
5600 Clouds 28 1010 83 10000 6.2 50 08:20 12.11.2020
5601 Clouds 28 1010 83 10000 6.2 50 08:20 12.11.2020
5602 Clouds 28 1010 83 10000 6.2 50 07:52 12.11.2020
5603 Clouds 28 1010 83 10000 6.2 50 07:25 12.11.2020
5604 Clouds 28 1009 83 10000 5.1 50 06:51 12.11.2020
5605 Clouds 29 1009 79 10000 6.7 70 05:45 12.11.2020
5606 Clouds 29 1010 79 10000 6.7 70 03:43 12.11.2020
5607 Clouds 29 1010 79 10000 7.2 60 03:18 12.11.2020
5608 Rain 28 1011 83 10000 6.7 60 00:23 12.11.2020
5609 Rain 28 1012 83 10000 7.7 60 23:26 11.11.2020
5610 Rain 25 1012 100 8000 2.6 70 22:59 11.11.2020
5611 Rain 25 1012 100 8000 2.6 70 22:41 11.11.2020
5612 Rain 25 1012 100 8000 2.6 70 22:21 11.11.2020
5613 Clouds 27 1011 83 10000 6.7 60 21:56 11.11.2020
5614 Clouds 27 1011 83 10000 6.7 60 21:36 11.11.2020
5615 Clouds 27 1010 78 10000 7.2 60 21:18 11.11.2020
5616 Clouds 27 1010 78 10000 7.2 60 20:41 11.11.2020
5617 Clouds 27 1010 78 10000 7.2 60 20:21 11.11.2020
5618 Clouds 26 1009 88 10000 3.6 50 19:50 11.11.2020
5619 Clouds 26 1009 88 10000 3.6 50 19:32 11.11.2020
5620 Clouds 26 1009 83 10000 3.1 60 18:55 11.11.2020
5621 Clouds 26 1009 83 10000 3.1 60 18:36 11.11.2020
5622 Clouds 26 1009 88 10000 3.1 60 17:45 11.11.2020
5623 Clouds 26 1009 88 10000 3.1 60 17:24 11.11.2020
5624 Clouds 25 1009 88 10000 2.6 60 16:57 11.11.2020
5625 Clouds 25 1009 88 10000 2.6 60 16:37 11.11.2020
5626 Clouds 25 1009 88 10000 2.6 80 15:56 11.11.2020
5627 Clouds 25 1009 88 10000 2.6 80 15:37 11.11.2020
5628 Clouds 25 1011 88 10000 2.1 90 15:18 11.11.2020
5629 Clouds 25 1011 88 10000 2.1 90 14:43 11.11.2020
5630 Clouds 25 1011 88 10000 2.1 90 14:23 11.11.2020
5631 Clouds 24 1012 94 10000 3.91 64 13:44 11.11.2020
5632 Clouds 25 1012 88 10000 3.7 64 12:59 11.11.2020
5633 Clouds 25 1013 88 10000 1 0 12:21 11.11.2020
5634 Clouds 25 1013 88 10000 1 0 11:51 11.11.2020
5635 Clouds 25 1013 88 10000 1 0 11:33 11.11.2020
5636 Clouds 25 1013 88 10000 1 0 11:33 11.11.2020
5637 Clouds 26 1013 83 10000 2.1 110 10:45 11.11.2020
5638 Clouds 26 1013 83 10000 2.1 110 10:27 11.11.2020
5639 Clouds 26 1013 83 10000 1.5 110 09:55 11.11.2020
5640 Clouds 26 1013 83 10000 1.5 110 09:37 11.11.2020
5641 Clouds 26 1012 78 10000 2.6 110 09:19 11.11.2020
5642 Clouds 26 1012 78 10000 2.6 110 08:43 11.11.2020
5643 Clouds 27 1012 78 10000 3.6 100 08:24 11.11.2020
5644 Clouds 27 1012 78 10000 3.6 100 07:43 11.11.2020
5645 Clouds 28 1011 69 10000 4.6 100 06:31 11.11.2020
5646 Clouds 28 1011 69 10000 5.1 80 05:36 11.11.2020
5647 Clouds 29 1012 66 10000 5.1 90 01:37 11.11.2020
5648 Clouds 28 1012 69 10000 6.2 90 00:56 11.11.2020
5649 Clouds 28 1012 69 10000 6.2 90 00:24 11.11.2020
5650 Rain 26 1013 88 10000 2.6 70 23:37 10.11.2020
5651 Clouds 28 1013 74 10000 3.1 130 23:18 10.11.2020
5652 Clouds 28 1013 74 10000 3.1 130 22:43 10.11.2020
5653 Clouds 28 1013 74 10000 3.1 130 22:24 10.11.2020
5654 Clouds 26 1012 83 10000 4.68 96 21:41 10.11.2020
5655 Clouds 26 1012 83 10000 4.39 98 21:23 10.11.2020
5656 Clouds 24 1012 88 10000 4.39 98 20:55 10.11.2020
5657 Clouds 24 1012 88 10000 4.39 98 20:37 10.11.2020
5658 Clouds 23 1012 100 10000 3.17 95 20:19 10.11.2020
5659 Clouds 23 1012 100 10000 3.17 95 19:42 10.11.2020
5660 Clouds 23 1012 100 10000 3.47 96 19:23 10.11.2020
5661 Rain 23 1011 94 10000 1.5 320 18:43 10.11.2020
5662 Clouds 23 1011 94 10000 1.5 320 18:24 10.11.2020
5663 Clouds 23 1011 94 10000 3.57 92 17:57 10.11.2020
5664 Clouds 23 1011 94 10000 3.57 92 17:38 10.11.2020
5665 Rain 23 1011 94 10000 3.72 94 17:20 10.11.2020
5666 Rain 23 1011 94 10000 3.72 94 16:41 10.11.2020
5667 Clouds 23 1011 100 10000 1.5 330 16:22 10.11.2020
5668 Rain 23 1011 100 10000 1.5 330 15:48 10.11.2020
5669 Rain 23 1011 100 10000 1.5 330 15:27 10.11.2020
5670 Clouds 23 1012 94 10000 1.5 310 14:56 10.11.2020
5671 Rain 23 1012 94 10000 1.5 310 14:37 10.11.2020
5672 Rain 23 1012 94 10000 1.5 310 14:37 10.11.2020
5673 Clouds 23 1012 100 10000 1.5 330 14:18 10.11.2020
5674 Clouds 23 1012 100 10000 1.5 330 13:38 10.11.2020
5675 Clouds 23 1013 94 10000 3.7 91 13:19 10.11.2020
5676 Clouds 23 1013 94 10000 3.7 91 12:45 10.11.2020
5677 Clouds 23 1013 94 10000 3.87 97 12:24 10.11.2020
5678 Clouds 24 1013 88 10000 3.87 97 11:43 10.11.2020
5679 Clouds 24 1013 88 10000 4.06 101 11:21 10.11.2020
5680 Clouds 24 1013 94 10000 1 0 10:57 10.11.2020
5681 Clouds 24 1013 94 10000 1 0 10:38 10.11.2020
5682 Clouds 25 1012 83 10000 1 110 10:19 10.11.2020
5683 Clouds 25 1012 83 10000 1 110 09:43 10.11.2020
5684 Clouds 25 1012 83 10000 1 110 09:24 10.11.2020
5685 Clouds 25 1011 83 10000 1.5 120 08:53 10.11.2020
5686 Clouds 25 1011 83 10000 1.5 120 08:27 10.11.2020
5687 Clouds 26 1011 78 10000 4.1 100 07:44 10.11.2020
5688 Clouds 26 1011 78 10000 4.1 100 07:44 10.11.2020
5689 Clouds 26 1011 78 10000 4.1 100 07:22 10.11.2020
5690 Clouds 28 1010 69 10000 4.6 100 06:40 10.11.2020
5691 Clouds 29 1010 62 10000 5.1 90 05:43 10.11.2020
5692 Clouds 29 1010 62 10000 4.6 80 04:59 10.11.2020
5693 Rain 29 1011 66 10000 5.7 100 02:29 10.11.2020
5694 Clouds 29 1012 66 10000 5.7 100 01:30 10.11.2020
5695 Clouds 28 1013 65 10000 4.6 100 23:55 09.11.2020
5696 Rain 28 1013 65 10000 4.6 100 23:33 09.11.2020
5697 Clouds 28 1013 69 10000 4.6 100 22:48 09.11.2020
5698 Rain 28 1013 69 10000 4.6 100 22:24 09.11.2020
5699 Clouds 27 1013 78 10000 4.1 100 21:54 09.11.2020
5700 Clouds 27 1013 78 10000 4.1 100 21:36 09.11.2020
5701 Clouds 23 1012 94 10000 2.1 310 21:18 09.11.2020
5702 Clouds 23 1012 94 10000 2.1 310 20:37 09.11.2020
5703 Rain 23 1012 94 10000 3.18 66 20:18 09.11.2020
5704 Rain 23 1012 94 10000 3.18 66 19:41 09.11.2020
5705 Clouds 23 1012 94 10000 2.38 63 19:21 09.11.2020
5706 Rain 22 1011 94 10000 1 310 18:41 09.11.2020
5707 Clouds 22 1011 100 10000 2.1 300 18:20 09.11.2020
5708 Clouds 22 1011 100 10000 2.1 300 17:52 09.11.2020
5709 Rain 22 1011 100 10000 2.1 300 17:31 09.11.2020
5710 Rain 22 1011 94 10000 2.1 320 16:46 09.11.2020
5711 Rain 22 1011 94 10000 2.1 320 16:28 09.11.2020
5712 Clouds 22 1010 94 10000 1 330 15:51 09.11.2020
5713 Clouds 22 1010 94 10000 1 330 15:31 09.11.2020
5714 Rain 22 1011 100 10000 1 0 14:59 09.11.2020
5715 Rain 22 1011 100 10000 1 0 14:40 09.11.2020
5716 Rain 22 1011 100 10000 1 0 14:22 09.11.2020
5717 Clouds 23 1011 94 10000 1 0 13:43 09.11.2020
5718 Clouds 23 1012 94 10000 3.52 103 13:19 09.11.2020
5719 Clouds 23 1012 94 10000 2.9 101 12:47 09.11.2020
5720 Clouds 23 1012 94 10000 2.6 92 12:21 09.11.2020
5721 Rain 23 1012 94 10000 2.6 92 11:43 09.11.2020
5722 Clouds 23 1012 94 10000 2.56 85 11:25 09.11.2020
5723 Rain 24 1012 88 10000 2.56 85 10:59 09.11.2020
5724 Clouds 24 1012 88 10000 2.56 85 10:41 09.11.2020
5725 Clouds 24 1012 83 10000 2.91 84 10:22 09.11.2020
5726 Clouds 24 1012 83 10000 2.91 84 09:31 09.11.2020
5727 Rain 25 1011 83 10000 2.1 120 08:57 09.11.2020
5728 Rain 25 1011 83 10000 2.1 120 08:28 09.11.2020
5729 Rain 26 1010 74 10000 3.1 120 07:57 09.11.2020
5730 Clouds 26 1010 74 10000 3.1 120 07:24 09.11.2020
5731 Clouds 27 1010 69 10000 3.1 130 06:58 09.11.2020
5732 Rain 28 1009 65 10000 4.1 120 05:38 09.11.2020
5733 Clouds 29 1010 70 10000 4.6 90 02:22 09.11.2020
5734 Clouds 29 1011 66 10000 4.6 100 01:41 09.11.2020
5735 Clouds 29 1012 66 10000 4.1 80 00:56 09.11.2020
5736 Clouds 28 1012 65 10000 3.1 120 23:48 08.11.2020
5737 Clouds 28 1012 65 10000 3.1 120 23:28 08.11.2020
5738 Clouds 28 1012 65 10000 2.6 110 22:43 08.11.2020
5739 Clouds 28 1012 65 10000 2.6 110 22:22 08.11.2020
5740 Clouds 27 1012 69 10000 1.5 90 21:47 08.11.2020
5741 Clouds 27 1012 69 10000 1.5 90 21:23 08.11.2020
5742 Clouds 23 1012 94 10000 1.5 320 20:57 08.11.2020
5743 Clouds 23 1012 94 10000 1.5 320 20:38 08.11.2020
5744 Clouds 21 1012 94 10000 1.5 330 20:20 08.11.2020
5745 Clouds 21 1012 94 10000 1.5 330 19:45 08.11.2020
5746 Clouds 21 1012 94 10000 1.5 330 19:22 08.11.2020
5747 Clouds 21 1011 94 10000 1.5 320 18:57 08.11.2020
5748 Clouds 21 1011 94 10000 1.5 320 18:39 08.11.2020
5749 Clouds 21 1011 100 10000 1 340 18:20 08.11.2020
5750 Clouds 21 1011 100 10000 1 340 17:42 08.11.2020
5751 Clouds 21 1011 100 10000 1 340 17:42 08.11.2020
5752 Clouds 21 1011 100 10000 1 330 17:20 08.11.2020
5753 Clouds 21 1011 100 10000 1 330 16:57 08.11.2020
5754 Clouds 21 1011 100 10000 1 330 16:57 08.11.2020
5755 Clouds 21 1011 100 10000 1 330 16:38 08.11.2020
5756 Clouds 21 1011 100 10000 2.38 95 16:19 08.11.2020
5757 Clouds 21 1011 100 10000 2.38 95 15:45 08.11.2020
5758 Clouds 21 1011 100 10000 2.09 103 15:26 08.11.2020
5759 Clouds 22 1012 94 10000 2.09 103 14:43 08.11.2020
5760 Clouds 22 1012 94 10000 1.88 108 14:24 08.11.2020
5761 Clouds 23 1013 94 10000 1.88 108 13:56 08.11.2020
5762 Clouds 23 1013 94 10000 1.77 110 13:26 08.11.2020
5763 Clouds 24 1013 88 10000 1 130 12:55 08.11.2020
5764 Clouds 24 1013 88 10000 1 130 12:37 08.11.2020
5765 Clouds 24 1013 88 10000 1.5 120 12:18 08.11.2020
5766 Clouds 24 1013 88 10000 1.5 120 11:41 08.11.2020
5767 Clouds 24 1013 88 10000 1.5 120 11:22 08.11.2020
5768 Clouds 24 1013 88 10000 1.5 140 10:52 08.11.2020
5769 Clouds 25 1013 83 10000 1.5 140 10:20 08.11.2020
5770 Clouds 25 1013 83 10000 1.5 140 09:59 08.11.2020
5771 Clouds 25 1013 83 10000 1.5 140 09:41 08.11.2020
5772 Clouds 25 1012 83 10000 1.5 120 09:18 08.11.2020
5773 Clouds 25 1012 83 10000 1.5 120 08:42 08.11.2020
5774 Clouds 25 1012 83 10000 1.5 120 08:21 08.11.2020
5775 Clouds 25 1012 83 10000 1.5 120 08:21 08.11.2020
5776 Clouds 26 1011 78 10000 3.6 120 07:53 08.11.2020
5777 Clouds 26 1011 78 10000 3.6 120 07:30 08.11.2020
5778 Clouds 28 1010 69 10000 4.1 110 06:26 08.11.2020
5779 Rain 29 1010 66 10000 4.1 110 05:53 08.11.2020
5780 Clouds 29 1010 66 10000 4.6 110 04:50 08.11.2020
5781 Clouds 29 1012 70 10000 4.6 100 01:55 08.11.2020
5782 Clouds 28 1012 69 10000 4.1 80 01:19 08.11.2020
5783 Clouds 28 1012 69 10000 4.1 80 00:30 08.11.2020
5784 Clouds 28 1013 78 10000 3.6 90 23:50 07.11.2020
5785 Clouds 28 1013 78 10000 3.6 90 23:30 07.11.2020
5786 Clouds 28 1013 74 10000 3.6 70 22:47 07.11.2020
5787 Clouds 28 1013 74 10000 3.6 70 22:28 07.11.2020
5788 Clouds 27 1013 78 10000 3.1 80 21:58 07.11.2020
5789 Clouds 27 1013 78 10000 3.1 80 21:39 07.11.2020
5790 Clouds 24 1013 94 10000 1 0 21:19 07.11.2020
5791 Clouds 24 1013 94 10000 1 0 20:45 07.11.2020
5792 Clouds 24 1013 94 10000 1 0 20:26 07.11.2020
5793 Clouds 24 1013 94 10000 1 0 19:45 07.11.2020
5794 Clouds 24 1013 94 10000 1 0 19:27 07.11.2020
5795 Clouds 25 1013 88 10000 2.6 90 18:43 07.11.2020
5796 Clouds 25 1013 88 10000 2.6 90 18:43 07.11.2020
5797 Clouds 25 1013 88 10000 2.6 90 18:24 07.11.2020
5798 Clouds 25 1012 88 10000 1.5 130 17:47 07.11.2020
5799 Clouds 25 1012 88 10000 1.5 130 17:28 07.11.2020
5800 Clouds 24 1012 88 10000 2.6 130 16:46 07.11.2020
5801 Clouds 24 1012 88 10000 2.6 130 16:25 07.11.2020
5802 Clouds 25 1013 88 10000 1.5 110 15:57 07.11.2020
5803 Clouds 25 1013 88 10000 1.5 110 15:39 07.11.2020
5804 Clouds 25 1013 88 10000 2.6 120 15:19 07.11.2020
5805 Clouds 25 1013 88 10000 2.6 120 14:41 07.11.2020
5806 Clouds 25 1013 88 10000 2.6 120 14:41 07.11.2020
5807 Clouds 25 1013 88 10000 2.6 120 14:41 07.11.2020
5808 Clouds 25 1013 88 10000 2.6 120 14:21 07.11.2020
5809 Clouds 25 1014 88 10000 1.5 130 13:46 07.11.2020
5810 Clouds 25 1014 88 10000 1.5 130 13:25 07.11.2020
5811 Clouds 25 1014 88 10000 3.1 110 12:40 07.11.2020
5812 Clouds 25 1014 94 10000 4.1 110 12:18 07.11.2020
5813 Clouds 25 1014 94 10000 4.1 110 12:18 07.11.2020
5814 Clouds 25 1014 94 10000 4.1 110 11:39 07.11.2020
5815 Clouds 25 1014 88 10000 2.6 130 11:20 07.11.2020
5816 Clouds 25 1014 88 10000 2.6 130 10:45 07.11.2020
5817 Clouds 25 1014 94 10000 3.1 130 10:24 07.11.2020
5818 Clouds 25 1014 94 10000 3.1 130 09:49 07.11.2020
5819 Clouds 25 1014 94 10000 3.1 130 09:25 07.11.2020
5820 Clouds 25 1013 94 10000 2.6 110 08:51 07.11.2020
5821 Clouds 25 1013 94 10000 2.6 110 08:31 07.11.2020
5822 Clouds 27 1013 83 10000 3.6 90 07:48 07.11.2020
5823 Clouds 27 1012 78 10000 4.1 80 06:58 07.11.2020
5824 Clouds 27 1012 78 10000 4.1 80 06:37 07.11.2020
5825 Clouds 29 1012 70 10000 5.1 80 04:32 07.11.2020
5826 Rain 29 1013 70 10000 4.6 50 02:53 07.11.2020
5827 Rain 28 1014 78 10000 4.6 60 01:27 07.11.2020
5828 Rain 26 1014 88 10000 3.6 80 00:39 07.11.2020
5829 Rain 28 1014 78 10000 5.7 100 23:45 06.11.2020
5830 Rain 27 1015 83 10000 1 0 23:18 06.11.2020
5831 Rain 27 1015 83 10000 1 0 22:40 06.11.2020
5832 Clouds 26 1014 83 10000 1 0 22:18 06.11.2020
5833 Clouds 26 1014 83 10000 1 0 21:43 06.11.2020
5834 Clouds 24 1014 94 10000 1 0 21:21 06.11.2020
5835 Clouds 24 1014 94 10000 1 0 20:48 06.11.2020
5836 Clouds 21 1013 100 10000 1.5 320 20:20 06.11.2020
5837 Clouds 21 1013 100 10000 1.5 320 19:46 06.11.2020
5838 Clouds 21 1013 100 10000 1.5 320 19:28 06.11.2020
5839 Clouds 21 1013 100 10000 2.61 81 18:57 06.11.2020
5840 Clouds 21 1013 100 10000 2.46 83 18:39 06.11.2020
5841 Clouds 21 1012 100 10000 2.78 85 18:19 06.11.2020
5842 Clouds 21 1012 100 10000 2.78 85 18:19 06.11.2020
5843 Clouds 21 1012 100 10000 2.78 85 17:46 06.11.2020
5844 Clouds 21 1012 100 10000 2.59 87 17:24 06.11.2020
5845 Clouds 22 1012 94 10000 2.59 87 16:43 06.11.2020
5846 Clouds 22 1012 94 10000 2.79 87 16:22 06.11.2020
5847 Clouds 22 1013 94 10000 2.79 87 15:47 06.11.2020
5848 Clouds 22 1013 94 10000 2.81 83 15:26 06.11.2020
5849 Clouds 22 1013 94 10000 2.81 83 14:50 06.11.2020
5850 Clouds 24 1014 88 10000 1 110 14:22 06.11.2020
5851 Clouds 24 1014 88 10000 1 110 13:42 06.11.2020
5852 Clouds 25 1014 83 10000 1.5 110 13:20 06.11.2020
5853 Clouds 25 1014 83 10000 1.5 110 12:43 06.11.2020
5854 Clouds 25 1014 83 10000 1.5 110 12:23 06.11.2020
5855 Clouds 25 1015 83 10000 2.1 120 12:23 06.11.2020
5856 Clouds 25 1015 83 10000 2.1 120 11:39 06.11.2020
5857 Clouds 25 1014 83 10000 1.5 100 11:20 06.11.2020
5858 Clouds 25 1014 83 10000 1.5 100 10:36 06.11.2020
5859 Clouds 25 1014 83 10000 1 0 10:18 06.11.2020
5860 Clouds 25 1014 83 10000 1 0 09:41 06.11.2020
5861 Clouds 26 1014 78 10000 1 0 09:21 06.11.2020
5862 Clouds 26 1014 78 10000 1 0 08:47 06.11.2020
5863 Clouds 26 1014 78 10000 1 0 08:28 06.11.2020
5864 Clouds 27 1013 74 10000 3.6 100 07:44 06.11.2020
5865 Clouds 28 1012 69 10000 4.6 80 07:21 06.11.2020
5866 Clouds 28 1012 69 10000 4.6 80 06:42 06.11.2020
5867 Clouds 28 1012 74 10000 5.1 70 05:39 06.11.2020
5868 Clouds 29 1012 70 10000 5.7 40 02:53 06.11.2020
5869 Clouds 28 1013 74 10000 6.7 60 00:35 06.11.2020
5870 Clouds 28 1013 74 10000 5.7 70 23:56 05.11.2020
5871 Clouds 28 1013 74 10000 5.7 70 23:26 05.11.2020
5872 Clouds 28 1013 74 10000 5.7 70 23:26 05.11.2020
5873 Clouds 27 1014 78 10000 6.7 90 22:48 05.11.2020
5874 Clouds 27 1014 78 10000 4.6 100 22:26 05.11.2020
5875 Clouds 27 1014 78 10000 4.6 100 21:57 05.11.2020
5876 Clouds 27 1014 78 10000 4.6 100 21:38 05.11.2020
5877 Clouds 26 1014 83 10000 2.6 110 21:19 05.11.2020
5878 Clouds 26 1014 83 10000 2.6 110 20:44 05.11.2020
5879 Clouds 26 1014 83 10000 2.6 110 20:24 05.11.2020
5880 Clouds 26 1014 83 10000 2.6 110 19:57 05.11.2020
5881 Clouds 26 1014 83 10000 2.6 110 19:38 05.11.2020
5882 Clouds 26 1013 83 10000 2.6 110 19:18 05.11.2020
5883 Clouds 26 1013 83 10000 2.6 110 18:41 05.11.2020
5884 Clouds 25 1013 94 10000 2.1 120 18:22 05.11.2020
5885 Clouds 25 1013 94 10000 2.1 120 17:46 05.11.2020
5886 Clouds 25 1013 94 10000 2.1 120 17:25 05.11.2020
5887 Clouds 25 1012 94 10000 2.1 110 16:49 05.11.2020
5888 Clouds 25 1012 94 10000 2.1 110 16:28 05.11.2020
5889 Clouds 25 1012 88 10000 2.1 100 15:55 05.11.2020
5890 Clouds 25 1012 88 10000 2.1 100 15:36 05.11.2020
5891 Clouds 26 1013 83 10000 3.6 90 15:18 05.11.2020
5892 Clouds 26 1013 83 10000 3.6 90 14:42 05.11.2020
5893 Clouds 26 1013 83 10000 3.6 90 14:23 05.11.2020
5894 Clouds 26 1014 88 10000 3.6 80 13:40 05.11.2020
5895 Clouds 26 1014 83 10000 3.6 80 13:18 05.11.2020
5896 Clouds 26 1014 83 10000 3.6 80 12:41 05.11.2020
5897 Clouds 26 1014 83 10000 3.6 80 12:22 05.11.2020
5898 Clouds 26 1014 83 10000 4.1 90 11:42 05.11.2020
5899 Clouds 26 1014 83 10000 4.1 80 11:22 05.11.2020
5900 Clouds 26 1014 83 10000 4.1 80 10:48 05.11.2020
5901 Clouds 26 1014 83 10000 4.1 80 10:26 05.11.2020
5902 Clouds 26 1013 88 10000 3.6 90 09:49 05.11.2020
5903 Clouds 26 1013 88 10000 3.6 90 09:25 05.11.2020
5904 Clouds 26 1013 88 10000 3.6 80 08:51 05.11.2020
5905 Clouds 26 1013 88 10000 3.6 80 08:32 05.11.2020
5906 Clouds 27 1013 78 10000 3.6 80 07:58 05.11.2020
5907 Clouds 27 1013 78 10000 3.6 80 07:28 05.11.2020
5908 Clouds 27 1012 78 10000 5.1 70 06:43 05.11.2020
5909 Clouds 28 1012 74 10000 6.2 70 06:20 05.11.2020
5910 Clouds 29 1012 74 10000 7.7 80 03:27 05.11.2020
5911 Clouds 29 1014 74 10000 7.2 90 00:37 05.11.2020
5912 Clouds 28 1014 78 10000 6.7 90 23:53 04.11.2020
5913 Clouds 28 1014 78 10000 6.7 90 23:27 04.11.2020
5914 Rain 26 1014 94 10000 2.1 40 22:57 04.11.2020
5915 Rain 26 1014 94 10000 2.1 40 22:38 04.11.2020
5916 Clouds 26 1014 88 10000 3.1 80 22:19 04.11.2020
5917 Clouds 26 1014 88 10000 3.1 80 21:46 04.11.2020
5918 Clouds 26 1014 88 10000 3.1 80 21:27 04.11.2020
5919 Clouds 26 1013 88 10000 4.1 90 20:53 04.11.2020
5920 Clouds 26 1013 88 10000 4.1 90 20:35 04.11.2020
5921 Clouds 26 1013 88 10000 4.1 80 19:58 04.11.2020
5922 Clouds 26 1013 88 10000 4.1 80 19:40 04.11.2020
5923 Clouds 26 1013 88 10000 4.1 80 19:21 04.11.2020
5924 Clouds 24 1012 94 10000 2.1 70 18:40 04.11.2020
5925 Clouds 25 1012 94 10000 3.6 70 18:22 04.11.2020
5926 Clouds 25 1012 94 10000 3.6 70 17:46 04.11.2020
5927 Clouds 25 1012 94 10000 3.6 70 17:26 04.11.2020
5928 Clouds 24 1012 100 10000 4.6 90 16:46 04.11.2020
5929 Clouds 24 1012 100 10000 4.6 90 16:27 04.11.2020
5930 Clouds 24 1013 94 10000 4.1 70 15:57 04.11.2020
5931 Clouds 24 1013 94 10000 4.1 70 15:39 04.11.2020
5932 Clouds 25 1013 94 10000 3.1 70 15:20 04.11.2020
5933 Clouds 25 1013 94 10000 3.1 70 14:43 04.11.2020
5934 Clouds 25 1013 94 10000 3.1 70 14:24 04.11.2020
5935 Clouds 26 1014 88 10000 4.6 80 13:50 04.11.2020
5936 Clouds 26 1014 88 10000 4.6 80 13:21 04.11.2020
5937 Clouds 25 1015 94 10000 4.1 80 12:57 04.11.2020
5938 Clouds 25 1015 94 10000 4.1 80 12:39 04.11.2020
5939 Clouds 25 1015 94 10000 3.6 80 12:21 04.11.2020
5940 Clouds 25 1015 94 10000 3.6 80 11:44 04.11.2020
5941 Clouds 25 1015 94 10000 3.6 80 11:21 04.11.2020
5942 Clouds 26 1015 94 10000 4.1 80 10:48 04.11.2020
5943 Clouds 26 1015 94 10000 4.1 80 10:23 04.11.2020
5944 Rain 25 1014 94 10000 3.6 80 09:55 04.11.2020
5945 Rain 25 1014 94 10000 3.6 80 09:27 04.11.2020
5946 Clouds 26 1014 88 10000 4.6 80 08:47 04.11.2020
5947 Clouds 26 1014 88 10000 4.1 90 08:23 04.11.2020
5948 Clouds 26 1014 88 10000 4.1 90 07:57 04.11.2020
5949 Clouds 26 1014 88 10000 4.1 90 07:31 04.11.2020
5950 Clouds 27 1013 83 10000 5.1 90 06:57 04.11.2020
5951 Clouds 27 1013 83 10000 5.1 90 06:37 04.11.2020
5952 Clouds 29 1013 74 10000 6.2 90 04:18 04.11.2020
5953 Clouds 30 1014 70 10000 8.2 90 02:31 04.11.2020
5954 Clouds 29 1014 74 10000 8.2 90 01:32 04.11.2020
5955 Clouds 29 1015 74 10000 7.2 90 23:53 03.11.2020
5956 Clouds 29 1015 74 10000 7.2 90 23:25 03.11.2020
5957 Clouds 28 1015 78 10000 7.2 100 22:54 03.11.2020
5958 Clouds 28 1015 78 10000 7.2 100 22:36 03.11.2020
5959 Clouds 27 1015 83 10000 5.1 100 22:18 03.11.2020
5960 Clouds 27 1015 83 10000 5.1 100 21:41 03.11.2020
5961 Clouds 27 1015 83 10000 6.7 100 21:22 03.11.2020
5962 Clouds 27 1015 83 10000 6.7 100 20:46 03.11.2020
5963 Clouds 27 1015 83 10000 6.7 100 20:26 03.11.2020
5964 Clouds 26 1014 88 10000 3.6 90 19:46 03.11.2020
5965 Clouds 26 1014 88 10000 3.6 90 19:27 03.11.2020
5966 Clouds 25 1014 94 10000 4.1 100 18:57 03.11.2020
5967 Clouds 25 1014 94 10000 4.1 100 18:38 03.11.2020
5968 Clouds 25 1013 94 10000 2.6 110 18:18 03.11.2020
5969 Clouds 25 1013 94 10000 2.6 110 17:43 03.11.2020
5970 Clouds 26 1013 94 10000 2.6 110 17:25 03.11.2020
5971 Clouds 26 1013 94 10000 2.6 110 16:45 03.11.2020
5972 Clouds 26 1013 94 10000 2.6 110 16:24 03.11.2020
5973 Clouds 26 1014 88 10000 3.1 90 15:48 03.11.2020
5974 Clouds 26 1014 88 10000 3.1 90 15:29 03.11.2020
5975 Clouds 26 1015 88 10000 3.1 90 14:53 03.11.2020
5976 Clouds 26 1015 88 10000 3.1 90 14:33 03.11.2020
5977 Clouds 26 1015 88 10000 2.6 80 13:47 03.11.2020
5978 Clouds 26 1015 88 10000 2.6 80 13:24 03.11.2020
5979 Clouds 26 1016 88 10000 3.6 80 12:59 03.11.2020
5980 Clouds 26 1016 88 10000 3.6 80 12:39 03.11.2020
5981 Clouds 26 1016 88 10000 2.1 90 12:20 03.11.2020
5982 Clouds 26 1016 88 10000 2.1 90 11:44 03.11.2020
5983 Clouds 25 1015 88 10000 2.1 80 11:21 03.11.2020
5984 Clouds 25 1015 88 10000 2.1 80 10:40 03.11.2020
5985 Clouds 25 1015 94 10000 5.17 75 10:22 03.11.2020
5986 Clouds 25 1015 94 10000 5.17 75 09:59 03.11.2020
5987 Clouds 25 1015 94 10000 5.17 75 09:37 03.11.2020
5988 Clouds 25 1014 94 10000 1.5 30 09:18 03.11.2020
5989 Clouds 25 1014 94 10000 1.5 30 08:42 03.11.2020
5990 Clouds 27 1013 83 10000 3.6 90 08:23 03.11.2020
5991 Clouds 27 1013 83 10000 3.6 90 07:35 03.11.2020
5992 Clouds 29 1013 74 10000 6.2 80 06:52 03.11.2020
5993 Clouds 29 1013 70 10000 5.7 80 05:50 03.11.2020
5994 Clouds 30 1013 66 10000 5.1 80 03:26 03.11.2020
5995 Clouds 28 1015 78 10000 5.1 90 00:42 03.11.2020
5996 Clouds 28 1015 83 10000 5.1 120 23:59 02.11.2020
5997 Clouds 28 1015 83 10000 5.1 120 23:40 02.11.2020
5998 Clouds 28 1016 78 10000 7.2 100 22:56 02.11.2020
5999 Rain 28 1016 78 10000 7.2 100 22:37 02.11.2020
6000 Rain 26 1016 88 10000 5.7 100 22:19 02.11.2020
6001 Rain 26 1016 88 10000 5.7 100 21:38 02.11.2020
6002 Rain 25 1016 94 10000 5.1 100 21:19 02.11.2020
6003 Rain 25 1016 94 10000 5.1 100 20:41 02.11.2020
6004 Rain 25 1015 88 10000 3.1 120 20:20 02.11.2020
6005 Rain 25 1015 88 10000 3.1 120 19:57 02.11.2020
6006 Rain 25 1015 88 10000 3.1 120 19:38 02.11.2020
6007 Rain 25 1015 88 10000 3.1 120 19:20 02.11.2020
6008 Rain 25 1015 88 10000 3.1 110 18:39 02.11.2020
6009 Rain 25 1014 88 10000 3.6 110 18:20 02.11.2020
6010 Clouds 25 1014 88 10000 3.6 110 17:45 02.11.2020
6011 Rain 25 1014 88 10000 3.6 110 17:25 02.11.2020
6012 Rain 24 1015 94 10000 6.2 100 16:56 02.11.2020
6013 Rain 24 1015 94 10000 6.2 100 16:38 02.11.2020
6014 Clouds 25 1016 88 10000 3.6 120 16:18 02.11.2020
6015 Clouds 25 1016 88 10000 3.6 120 15:39 02.11.2020
6016 Clouds 25 1016 88 10000 4.6 110 15:20 02.11.2020
6017 Clouds 25 1016 88 10000 4.6 110 14:51 02.11.2020
6018 Rain 24 1016 90 10000 5.64 104 14:20 02.11.2020
6019 Rain 24 1016 90 10000 5.64 104 14:20 02.11.2020
6020 Rain 24 1016 90 10000 5.64 104 13:51 02.11.2020
6021 Clouds 26 1017 88 10000 3.6 120 13:23 02.11.2020
6022 Clouds 26 1017 88 10000 3.6 120 12:54 02.11.2020
6023 Clouds 26 1017 88 10000 3.6 120 12:29 02.11.2020
6024 Clouds 26 1017 88 10000 3.6 120 11:46 02.11.2020
6025 Clouds 26 1017 88 10000 3.6 120 11:23 02.11.2020
6026 Clouds 26 1016 83 10000 3.6 110 10:59 02.11.2020
6027 Clouds 26 1016 83 10000 3.6 110 10:39 02.11.2020
6028 Rain 26 1016 83 10000 4.1 100 10:18 02.11.2020
6029 Clouds 26 1016 83 10000 4.1 100 09:42 02.11.2020
6030 Clouds 26 1016 83 10000 4.1 100 09:21 02.11.2020
6031 Rain 26 1016 88 10000 4.1 100 08:39 02.11.2020
6032 Clouds 27 1015 83 10000 3.6 110 08:19 02.11.2020
6033 Rain 27 1015 83 10000 3.6 110 07:43 02.11.2020
6034 Clouds 27 1014 78 10000 4.1 100 06:48 02.11.2020
6035 Clouds 27 1014 78 10000 4.1 100 06:22 02.11.2020
6036 Clouds 28 1016 78 10000 5.7 110 01:35 02.11.2020
6037 Clouds 29 1017 74 10000 7.2 110 00:41 02.11.2020
6038 Clouds 28 1017 78 10000 6.7 100 00:23 02.11.2020
6039 Clouds 28 1017 78 10000 6.7 100 23:40 01.11.2020
6040 Clouds 28 1017 78 10000 5.7 90 23:21 01.11.2020
6041 Clouds 28 1017 78 10000 5.7 90 22:44 01.11.2020
6042 Clouds 28 1017 78 10000 5.7 90 22:23 01.11.2020
6043 Clouds 27 1016 83 10000 5.7 100 21:46 01.11.2020
6044 Clouds 27 1016 83 10000 5.7 100 21:26 01.11.2020
6045 Clouds 26 1016 88 10000 3.6 100 20:51 01.11.2020
6046 Clouds 26 1016 88 10000 3.6 100 20:29 01.11.2020
6047 Clouds 25 1015 94 10000 3.1 110 19:58 01.11.2020
6048 Clouds 25 1015 94 10000 3.1 110 19:39 01.11.2020
6049 Clouds 25 1015 94 10000 3.1 110 19:39 01.11.2020
6050 Clouds 25 1015 94 10000 3.1 110 19:20 01.11.2020
6051 Clouds 25 1015 94 10000 3.1 110 18:40 01.11.2020
6052 Clouds 25 1015 94 10000 2.1 150 18:19 01.11.2020
6053 Clouds 25 1015 94 10000 2.1 150 17:47 01.11.2020
6054 Clouds 25 1015 94 10000 2.1 150 17:29 01.11.2020
6055 Clouds 25 1015 94 10000 4.49 86 16:59 01.11.2020
6056 Clouds 25 1015 94 10000 4.49 86 16:39 01.11.2020
6057 Clouds 24 1015 94 10000 4.88 79 16:18 01.11.2020
6058 Clouds 24 1015 94 10000 4.88 79 15:39 01.11.2020
6059 Clouds 24 1015 94 10000 4.99 79 15:21 01.11.2020
6060 Clouds 25 1016 88 10000 2.6 70 14:48 01.11.2020
6061 Clouds 25 1016 94 10000 2.1 100 14:24 01.11.2020
6062 Clouds 25 1016 94 10000 2.1 100 13:59 01.11.2020
6063 Clouds 25 1016 94 10000 2.1 100 13:40 01.11.2020
6064 Clouds 25 1016 94 10000 2.1 100 13:40 01.11.2020
6065 Clouds 25 1016 94 10000 2.1 100 13:22 01.11.2020
6066 Clouds 26 1017 88 10000 2.6 110 12:43 01.11.2020
6067 Clouds 26 1017 88 10000 2.6 110 12:22 01.11.2020
6068 Clouds 25 1018 88 10000 5.53 87 11:49 01.11.2020
6069 Clouds 25 1017 88 10000 2.1 130 11:19 01.11.2020
6070 Clouds 25 1017 88 10000 2.1 130 10:43 01.11.2020
6071 Clouds 25 1017 88 10000 2.1 130 10:24 01.11.2020
6072 Clouds 26 1017 83 10000 2.6 130 09:50 01.11.2020
6073 Clouds 26 1017 83 10000 2.6 130 09:30 01.11.2020
6074 Clouds 25 1016 83 10000 3.1 130 08:44 01.11.2020
6075 Clouds 26 1016 78 10000 4.1 130 08:18 01.11.2020
6076 Clouds 26 1016 78 10000 4.1 130 07:33 01.11.2020
6077 Rain 28 1015 69 10000 5.7 120 03:26 01.11.2020
6078 Clouds 29 1016 62 10000 6.7 110 01:46 01.11.2020
6079 Clouds 28 1017 65 10000 5.7 120 00:23 01.11.2020
6080 Rain 28 1017 65 10000 5.7 120 23:24 31.10.2020
6081 Clouds 27 1017 69 10000 5.1 120 22:46 31.10.2020
6082 Clouds 27 1017 69 10000 5.1 120 22:25 31.10.2020
6083 Clouds 27 1017 69 10000 4.6 110 21:47 31.10.2020
6084 Clouds 27 1017 69 10000 4.6 110 21:26 31.10.2020
6085 Clouds 27 1016 69 10000 3.6 110 20:59 31.10.2020
6086 Clouds 27 1016 69 10000 3.6 110 20:38 31.10.2020
6087 Clouds 25 1016 73 10000 2.1 100 20:18 31.10.2020
6088 Clouds 25 1016 73 10000 2.1 100 20:18 31.10.2020
6089 Clouds 25 1016 73 10000 2.1 100 19:39 31.10.2020
6090 Rain 24 1015 78 10000 2.1 110 19:20 31.10.2020
6091 Rain 24 1015 78 10000 2.1 110 18:46 31.10.2020
6092 Rain 24 1015 78 10000 2.1 110 17:58 31.10.2020
6093 Rain 24 1015 78 10000 2.1 110 17:40 31.10.2020
6094 Clouds 25 1015 73 10000 3.1 100 17:19 31.10.2020
6095 Rain 25 1015 73 10000 3.1 100 16:42 31.10.2020
6096 Clouds 25 1015 73 10000 2.6 100 16:20 31.10.2020
6097 Clouds 25 1015 73 10000 2.6 100 15:42 31.10.2020
6098 Clouds 25 1015 73 10000 2.6 100 15:22 31.10.2020
6099 Clouds 25 1016 73 10000 3.1 100 14:46 31.10.2020
6100 Rain 25 1016 73 10000 3.1 100 14:27 31.10.2020
6101 Clouds 25 1017 69 10000 3.6 100 13:50 31.10.2020
6102 Clouds 25 1017 69 10000 3.6 100 13:24 31.10.2020
6103 Clouds 25 1017 78 10000 3.6 100 12:42 31.10.2020
6104 Clouds 25 1018 78 10000 5.1 100 11:48 31.10.2020
6105 Clouds 25 1018 78 10000 5.1 100 11:29 31.10.2020
6106 Clouds 25 1017 78 10000 5.7 110 10:57 31.10.2020
6107 Clouds 25 1017 78 10000 5.7 110 10:35 31.10.2020
6108 Clouds 25 1017 78 10000 5.7 110 09:43 31.10.2020
6109 Clouds 25 1017 78 10000 5.7 110 09:25 31.10.2020
6110 Clouds 25 1016 78 10000 4.6 110 08:33 31.10.2020
6111 Clouds 25 1015 78 10000 4.6 110 07:58 31.10.2020
6112 Clouds 25 1015 78 10000 4.6 110 07:27 31.10.2020
6113 Clouds 26 1015 74 10000 6.2 110 06:40 31.10.2020
6114 Clouds 26 1014 69 10000 6.7 110 06:19 31.10.2020
6115 Clouds 26 1015 78 10000 5.1 60 03:46 31.10.2020
6116 Rain 25 1015 78 10000 7.2 110 01:30 31.10.2020
6117 Clouds 29 1016 58 10000 6.7 90 00:47 31.10.2020
6118 Clouds 26 1016 74 10000 5.1 110 23:52 30.10.2020
6119 Clouds 26 1016 74 10000 5.1 110 23:25 30.10.2020
6120 Clouds 28 1016 61 10000 4.6 70 22:48 30.10.2020
6121 Clouds 28 1016 61 10000 4.6 70 22:26 30.10.2020
6122 Clouds 25 1016 73 10000 2.1 330 21:58 30.10.2020
6123 Clouds 25 1016 73 10000 2.1 330 21:58 30.10.2020
6124 Clouds 25 1016 73 10000 2.1 330 21:39 30.10.2020
6125 Clouds 21 1015 94 10000 2.1 320 21:20 30.10.2020
6126 Clouds 21 1015 94 10000 2.1 320 20:42 30.10.2020
6127 Clouds 21 1015 94 10000 2.1 320 20:23 30.10.2020
6128 Clouds 19 1015 93 10000 1.5 330 19:47 30.10.2020
6129 Clouds 19 1015 93 10000 1.5 330 19:19 30.10.2020
6130 Clouds 20 1014 94 10000 1.5 300 18:50 30.10.2020
6131 Clouds 20 1014 94 10000 1.5 300 18:28 30.10.2020
6132 Clear 22 1015 82 10000 4.68 96 17:50 30.10.2020
6133 Clouds 21 1014 94 10000 1 0 17:24 30.10.2020
6134 Clouds 21 1014 94 10000 1 0 16:58 30.10.2020
6135 Clouds 21 1014 94 10000 1 0 16:39 30.10.2020
6136 Clouds 24 1014 64 10000 5.01 97 16:19 30.10.2020
6137 Clouds 24 1014 64 10000 5.01 97 15:40 30.10.2020
6138 Rain 22 1014 82 10000 5.15 97 15:20 30.10.2020
6139 Rain 22 1014 82 10000 5.15 97 14:45 30.10.2020
6140 Rain 22 1015 81 10000 5.11 94 14:25 30.10.2020
6141 Rain 22 1015 81 10000 5.11 94 13:47 30.10.2020
6142 Rain 22 1015 81 10000 5.24 94 13:22 30.10.2020
6143 Rain 22 1015 81 10000 5.24 94 12:55 30.10.2020
6144 Clouds 24 1016 73 10000 3.6 130 12:23 30.10.2020
6145 Clouds 24 1016 73 10000 3.6 130 11:56 30.10.2020
6146 Clouds 24 1016 73 10000 3.6 130 11:23 30.10.2020
6147 Clouds 25 1015 69 10000 4.6 110 10:58 30.10.2020
6148 Clouds 25 1015 69 10000 4.6 110 10:39 30.10.2020
6149 Clouds 25 1015 69 10000 4.6 110 10:21 30.10.2020
6150 Clouds 25 1015 65 10000 4.1 100 09:43 30.10.2020
6151 Clouds 25 1014 65 10000 5.1 110 09:20 30.10.2020
6152 Clouds 25 1014 65 10000 5.1 110 08:37 30.10.2020
6153 Clouds 25 1014 69 10000 5.7 120 08:18 30.10.2020
6154 Clouds 25 1014 69 10000 5.7 120 08:18 30.10.2020
6155 Clouds 25 1014 69 10000 5.7 120 07:45 30.10.2020
6156 Clouds 25 1014 69 10000 5.7 120 07:26 30.10.2020
6157 Clouds 26 1012 69 10000 7.2 120 06:20 30.10.2020
6158 Clouds 28 1012 69 10000 7.7 110 04:23 30.10.2020
6159 Clouds 28 1014 65 10000 7.2 120 01:28 30.10.2020
6160 Clouds 28 1014 58 10000 6.7 100 00:31 30.10.2020
6161 Clouds 27 1015 61 10000 7.7 100 23:46 29.10.2020
6162 Clouds 27 1015 61 10000 7.7 100 23:28 29.10.2020
6163 Clouds 27 1015 61 10000 5.7 100 22:48 29.10.2020
6164 Clouds 27 1015 61 10000 5.7 100 22:48 29.10.2020
6165 Clouds 27 1015 61 10000 5.7 100 22:27 29.10.2020
6166 Clouds 27 1015 61 10000 4.1 110 21:50 29.10.2020
6167 Clouds 27 1015 61 10000 4.1 110 21:26 29.10.2020
6168 Clouds 26 1014 61 10000 3.6 100 20:57 29.10.2020
6169 Clouds 26 1014 61 10000 3.6 100 20:39 29.10.2020
6170 Clouds 24 1013 73 10000 3.1 100 20:18 29.10.2020
6171 Clouds 24 1013 73 10000 3.1 100 19:39 29.10.2020
6172 Clouds 24 1013 73 10000 3.1 100 19:19 29.10.2020
6173 Clouds 23 1013 83 10000 3.6 100 18:46 29.10.2020
6174 Clouds 23 1013 83 10000 3.6 100 18:26 29.10.2020
6175 Clouds 23 1012 83 10000 2.6 100 17:43 29.10.2020
6176 Clouds 24 1012 73 10000 2.6 100 17:23 29.10.2020
6177 Clouds 24 1012 73 10000 2.6 100 16:54 29.10.2020
6178 Clouds 23 1013 78 10000 1.5 90 16:23 29.10.2020
6179 Clouds 23 1013 78 10000 1.5 90 15:59 29.10.2020
6180 Clouds 23 1013 78 10000 1.5 90 15:40 29.10.2020
6181 Clouds 23 1013 78 10000 1.5 90 15:22 29.10.2020
6182 Clouds 24 1013 73 10000 3.1 100 14:58 29.10.2020
6183 Clouds 24 1013 73 10000 3.1 100 14:39 29.10.2020
6184 Clouds 24 1013 73 10000 3.1 100 14:39 29.10.2020
6185 Clouds 24 1014 73 10000 3.1 90 14:18 29.10.2020
6186 Clouds 24 1014 73 10000 3.1 90 13:40 29.10.2020
6187 Clouds 24 1014 73 10000 3.6 100 13:22 29.10.2020
6188 Clouds 24 1014 73 10000 3.6 100 12:41 29.10.2020
6189 Clouds 25 1014 69 10000 4.6 110 12:19 29.10.2020
6190 Clouds 25 1014 69 10000 4.6 110 11:47 29.10.2020
6191 Clouds 25 1014 69 10000 4.6 110 11:25 29.10.2020
6192 Clouds 24 1014 73 10000 3.6 110 10:38 29.10.2020
6193 Clouds 24 1013 78 10000 4.1 100 10:20 29.10.2020
6194 Clouds 24 1013 78 10000 4.1 100 09:53 29.10.2020
6195 Clouds 24 1013 78 10000 4.1 100 09:28 29.10.2020
6196 Clouds 24 1012 83 10000 2.6 110 08:58 29.10.2020
6197 Clouds 24 1012 83 10000 2.6 110 08:38 29.10.2020
6198 Rain 23 1012 88 10000 3.1 90 07:58 29.10.2020
6199 Rain 23 1012 88 10000 3.1 90 07:39 29.10.2020
6200 Clouds 26 1011 74 10000 4.1 120 06:57 29.10.2020
6201 Clouds 26 1011 78 10000 5.7 110 05:35 29.10.2020
6202 Rain 26 1011 74 10000 6.2 110 04:45 29.10.2020
6203 Rain 25 1013 75 10000 6.66 105 01:24 29.10.2020
6204 Rain 24 1014 79 10000 6.89 108 00:31 29.10.2020
6205 Rain 24 1014 79 10000 6.89 108 23:49 28.10.2020
6206 Rain 24 1014 80 10000 7.09 110 23:22 28.10.2020
6207 Rain 24 1014 80 10000 7.09 110 22:45 28.10.2020
6208 Clouds 26 1014 69 10000 4.6 140 22:26 28.10.2020
6209 Clouds 26 1014 69 10000 4.6 140 21:58 28.10.2020
6210 Clouds 26 1014 69 10000 4.6 140 21:40 28.10.2020
6211 Clouds 25 1014 73 10000 3.6 130 21:20 28.10.2020
6212 Clouds 25 1014 73 10000 3.6 130 20:42 28.10.2020
6213 Clouds 25 1014 73 10000 3.6 130 20:22 28.10.2020
6214 Clouds 23 1013 78 10000 1.5 140 19:50 28.10.2020
6215 Clouds 23 1013 78 10000 1.5 140 19:28 28.10.2020
6216 Clouds 22 1013 83 10000 1 0 18:48 28.10.2020
6217 Clouds 22 1013 83 10000 1 0 18:21 28.10.2020
6218 Clouds 21 1013 94 10000 5.4 110 17:45 28.10.2020
6219 Clouds 21 1013 94 10000 5.58 110 17:25 28.10.2020
6220 Clouds 21 1013 94 10000 1 0 16:57 28.10.2020
6221 Clouds 21 1013 94 10000 1 0 16:39 28.10.2020
6222 Clouds 20 1013 94 10000 5.57 110 16:20 28.10.2020
6223 Clouds 20 1013 94 10000 5.57 110 15:38 28.10.2020
6224 Rain 22 1012 84 10000 5.15 108 15:19 28.10.2020
6225 Rain 22 1012 84 10000 5.15 108 14:43 28.10.2020
6226 Rain 22 1013 85 10000 4.87 105 14:23 28.10.2020
6227 Rain 22 1014 84 10000 4.73 106 12:48 28.10.2020
6228 Rain 22 1014 82 10000 4.85 102 12:27 28.10.2020
6229 Rain 22 1014 82 10000 4.85 102 11:57 28.10.2020
6230 Rain 22 1014 82 10000 4.85 102 11:39 28.10.2020
6231 Rain 23 1015 81 10000 4.79 104 11:19 28.10.2020
6232 Rain 23 1015 81 10000 4.79 104 10:44 28.10.2020
6233 Clear 23 1015 80 10000 4.71 106 10:26 28.10.2020
6234 Clear 23 1015 80 10000 4.71 106 09:44 28.10.2020
6235 Clouds 24 1013 78 10000 2.1 150 09:23 28.10.2020
6236 Clouds 24 1013 78 10000 2.1 150 08:50 28.10.2020
6237 Clouds 24 1013 78 10000 2.1 150 08:30 28.10.2020
6238 Clouds 26 1012 69 10000 3.6 150 07:53 28.10.2020
6239 Clouds 26 1012 69 10000 3.6 150 07:31 28.10.2020
6240 Clouds 26 1012 69 10000 4.1 140 06:54 28.10.2020
6241 Clouds 26 1012 69 10000 4.1 140 06:36 28.10.2020
6242 Clouds 27 1011 61 10000 4.6 140 05:23 28.10.2020
6243 Rain 25 1012 71 10000 6.1 117 04:50 28.10.2020
6244 Clouds 28 1013 61 10000 5.7 130 03:31 28.10.2020
6245 Clouds 28 1014 65 10000 4.6 150 01:55 28.10.2020
6246 Clouds 28 1015 65 10000 4.6 140 00:33 28.10.2020
6247 Clouds 27 1015 65 10000 5.7 140 23:47 27.10.2020
6248 Clouds 27 1015 65 10000 5.7 140 23:21 27.10.2020
6249 Clouds 25 1015 73 10000 6.63 124 22:44 27.10.2020
6250 Clouds 26 1014 69 10000 4.1 150 22:19 27.10.2020
6251 Clouds 26 1014 69 10000 4.1 150 21:57 27.10.2020
6252 Clouds 26 1014 69 10000 4.1 150 21:37 27.10.2020
6253 Clouds 25 1014 73 10000 3.6 150 21:19 27.10.2020
6254 Clouds 25 1014 73 10000 3.6 150 20:50 27.10.2020
6255 Clouds 25 1014 73 10000 3.6 150 20:24 27.10.2020
6256 Clouds 24 1013 78 10000 3.1 140 19:55 27.10.2020
6257 Clouds 24 1013 78 10000 3.1 140 19:37 27.10.2020
6258 Clouds 24 1012 78 10000 3.6 140 19:18 27.10.2020
6259 Clouds 24 1012 78 10000 3.6 140 18:44 27.10.2020
6260 Clouds 22 1012 94 10000 1.5 130 18:21 27.10.2020
6261 Clouds 22 1012 94 10000 1.5 130 17:57 27.10.2020
6262 Clouds 22 1012 94 10000 1.5 130 17:36 27.10.2020
6263 Rain 22 1012 94 10000 5.1 90 17:18 27.10.2020
6264 Rain 22 1012 94 10000 5.1 90 16:41 27.10.2020
6265 Rain 21 1012 100 10000 5.7 100 16:22 27.10.2020
6266 Rain 21 1012 100 10000 5.7 100 15:41 27.10.2020
6267 Rain 22 1013 94 10000 5.1 120 15:23 27.10.2020
6268 Rain 22 1013 94 10000 5.1 120 14:49 27.10.2020
6269 Rain 22 1013 94 10000 5.1 120 14:29 27.10.2020
6270 Rain 23 1013 94 10000 4.6 110 13:58 27.10.2020
6271 Rain 23 1013 94 10000 4.6 110 13:28 27.10.2020
6272 Clouds 24 1014 88 10000 3.1 130 12:44 27.10.2020
6273 Clouds 24 1014 88 10000 3.1 130 12:25 27.10.2020
6274 Clouds 24 1014 88 10000 2.6 130 11:59 27.10.2020
6275 Clouds 24 1014 88 10000 2.6 130 11:41 27.10.2020
6276 Clouds 25 1014 83 10000 2.6 130 11:20 27.10.2020
6277 Clouds 25 1014 83 10000 2.6 130 10:43 27.10.2020
6278 Clouds 25 1013 78 10000 3.6 130 10:20 27.10.2020
6279 Clouds 25 1013 78 10000 3.6 130 09:28 27.10.2020
6280 Clouds 25 1012 83 10000 3.6 130 08:58 27.10.2020
6281 Clouds 25 1012 83 10000 3.6 130 08:30 27.10.2020
6282 Clouds 26 1011 78 10000 4.1 130 07:53 27.10.2020
6283 Clouds 26 1011 78 10000 4.1 130 07:35 27.10.2020
6284 Rain 27 1011 74 10000 5.7 130 06:54 27.10.2020
6285 Clouds 28 1010 69 10000 5.1 140 06:19 27.10.2020
6286 Clouds 28 1010 69 10000 5.1 140 05:45 27.10.2020
6287 Rain 28 1010 69 10000 5.7 130 05:23 27.10.2020
6288 Clouds 27 1011 74 10000 6.2 130 02:51 27.10.2020
6289 Clouds 28 1012 74 10000 3.1 160 01:18 27.10.2020
6290 Clouds 28 1012 69 10000 4.6 110 23:59 26.10.2020
6291 Clouds 28 1012 69 10000 4.6 110 23:37 26.10.2020
6292 Clouds 26 1012 83 10000 5.1 120 22:57 26.10.2020
6293 Clouds 26 1012 83 10000 5.1 120 22:31 26.10.2020
6294 Clouds 26 1012 83 10000 3.6 140 21:57 26.10.2020
6295 Clouds 26 1012 83 10000 3.6 140 21:36 26.10.2020
6296 Clouds 26 1011 83 10000 2.1 130 21:18 26.10.2020
6297 Clouds 26 1011 83 10000 2.1 130 20:49 26.10.2020
6298 Clouds 26 1011 83 10000 2.1 130 20:27 26.10.2020
6299 Clouds 23 1011 94 10000 4.25 124 19:49 26.10.2020
6300 Clouds 23 1011 94 10000 3.92 126 19:28 26.10.2020
6301 Clouds 23 1010 94 10000 3.92 126 18:58 26.10.2020
6302 Clouds 23 1010 94 10000 3.6 124 18:39 26.10.2020
6303 Clouds 24 1010 88 10000 2.1 130 18:19 26.10.2020
6304 Clouds 24 1010 88 10000 2.1 130 17:41 26.10.2020
6305 Clouds 24 1010 94 10000 2.6 140 17:23 26.10.2020
6306 Clouds 24 1010 94 10000 2.6 140 16:45 26.10.2020
6307 Clouds 24 1010 94 10000 3.71 119 16:22 26.10.2020
6308 Clouds 24 1010 94 10000 3.71 119 15:46 26.10.2020
6309 Clouds 24 1010 94 10000 3.8 118 15:28 26.10.2020
6310 Clouds 24 1010 94 10000 1 140 14:59 26.10.2020
6311 Clouds 24 1010 94 10000 1 140 14:38 26.10.2020
6312 Clouds 24 1011 94 10000 1 150 13:58 26.10.2020
6313 Clouds 24 1011 94 10000 1 150 13:36 26.10.2020
6314 Clouds 25 1011 88 10000 1.5 140 13:18 26.10.2020
6315 Clouds 25 1011 88 10000 1.5 140 12:42 26.10.2020
6316 Clouds 25 1011 88 10000 1.5 140 12:42 26.10.2020
6317 Clouds 25 1011 88 10000 1.5 140 12:23 26.10.2020
6318 Clouds 25 1011 88 10000 2.1 140 11:47 26.10.2020
6319 Clouds 25 1011 88 10000 2.1 140 11:47 26.10.2020
6320 Clouds 24 1011 94 10000 1.5 180 11:23 26.10.2020
6321 Clouds 24 1011 94 10000 1.5 180 10:57 26.10.2020
6322 Clouds 24 1011 94 10000 1.5 180 10:38 26.10.2020
6323 Clouds 25 1011 88 10000 2.1 180 10:19 26.10.2020
6324 Clouds 25 1011 88 10000 2.1 180 09:42 26.10.2020
6325 Clouds 25 1010 88 10000 2.1 170 09:19 26.10.2020
6326 Clouds 25 1010 88 10000 2.1 170 08:28 26.10.2020
6327 Clouds 25 1010 88 10000 3.1 190 07:52 26.10.2020
6328 Clouds 25 1010 88 10000 3.1 190 07:33 26.10.2020
6329 Clouds 28 1009 74 10000 3.6 170 06:19 26.10.2020
6330 Clouds 27 1009 78 10000 3.1 170 04:21 26.10.2020
6331 Clouds 27 1009 78 10000 4.1 200 03:21 26.10.2020
6332 Clouds 27 1009 78 10000 4.1 200 03:21 26.10.2020
6333 Clouds 27 1009 78 10000 4.1 200 03:21 26.10.2020
6334 Clouds 27 1009 78 10000 4.1 200 03:21 26.10.2020
6335 Rain 26 1011 78 10000 4.6 180 01:37 26.10.2020
6336 Clouds 27 1011 78 10000 4.1 190 00:44 26.10.2020
6337 Clouds 27 1011 78 10000 4.1 190 00:25 26.10.2020
6338 Clouds 27 1012 78 10000 3.6 170 23:38 25.10.2020
6339 Clouds 27 1012 74 10000 4.1 170 23:18 25.10.2020
6340 Clouds 27 1012 74 10000 4.1 170 22:39 25.10.2020
6341 Clouds 26 1012 83 10000 3.6 160 22:20 25.10.2020
6342 Clouds 26 1012 83 10000 3.6 160 21:40 25.10.2020
6343 Clouds 26 1012 78 10000 2.1 170 21:20 25.10.2020
6344 Clouds 26 1012 78 10000 2.1 170 20:45 25.10.2020
6345 Clouds 26 1012 78 10000 2.1 170 20:25 25.10.2020
6346 Clouds 23 1011 94 10000 2.1 140 19:58 25.10.2020
6347 Clouds 23 1011 94 10000 2.1 140 19:39 25.10.2020
6348 Clouds 23 1011 94 10000 2.1 140 19:20 25.10.2020
6349 Clouds 23 1011 94 10000 1.5 160 18:41 25.10.2020
6350 Clouds 23 1011 94 10000 1.5 160 18:23 25.10.2020
6351 Clouds 23 1010 94 10000 1.5 180 17:58 25.10.2020
6352 Clouds 23 1010 94 10000 1.5 180 17:58 25.10.2020
6353 Clouds 23 1010 94 10000 1.5 180 17:38 25.10.2020
6354 Clouds 24 1010 88 10000 1.5 170 17:20 25.10.2020
6355 Clouds 24 1010 88 10000 1.5 170 16:47 25.10.2020
6356 Clouds 24 1010 88 10000 1.5 170 16:28 25.10.2020
6357 Clouds 24 1010 88 10000 1.5 170 16:28 25.10.2020
6358 Clouds 23 1010 88 10000 1 0 15:50 25.10.2020
6359 Clouds 23 1010 88 10000 1 0 15:29 25.10.2020
6360 Clouds 23 1011 94 10000 3.12 129 14:55 25.10.2020
6361 Clouds 23 1011 94 10000 3.12 129 14:32 25.10.2020
6362 Clouds 24 1012 88 10000 3.6 150 13:58 25.10.2020
6363 Clouds 24 1012 88 10000 3.6 150 13:39 25.10.2020
6364 Clouds 24 1013 88 10000 3.1 140 13:18 25.10.2020
6365 Clouds 24 1013 88 10000 3.1 140 12:46 25.10.2020
6366 Clouds 24 1013 88 10000 3.1 140 12:25 25.10.2020
6367 Clouds 24 1013 88 10000 1.5 150 11:43 25.10.2020
6368 Clouds 24 1013 88 10000 1.5 150 11:21 25.10.2020
6369 Clouds 25 1013 83 10000 1.5 150 10:56 25.10.2020
6370 Clouds 25 1013 83 10000 1.5 150 10:38 25.10.2020
6371 Clouds 24 1013 88 10000 4.03 114 10:19 25.10.2020
6372 Clouds 24 1013 88 10000 4.03 114 09:39 25.10.2020
6373 Clouds 25 1012 78 10000 4.14 117 09:19 25.10.2020
6374 Clouds 25 1012 78 10000 4.14 117 08:41 25.10.2020
6375 Clouds 26 1011 78 10000 2.6 140 08:22 25.10.2020
6376 Clouds 26 1011 78 10000 2.6 140 07:46 25.10.2020
6377 Clouds 28 1011 69 10000 4.6 120 07:18 25.10.2020
6378 Clouds 28 1011 69 10000 4.6 120 06:30 25.10.2020
6379 Clouds 28 1011 61 10000 4.6 120 05:34 25.10.2020
6380 Clouds 28 1011 65 10000 5.1 120 04:51 25.10.2020
6381 Clouds 29 1012 66 10000 5.7 110 02:42 25.10.2020
6382 Clouds 27 1013 78 10000 4.1 80 00:54 25.10.2020
6383 Clouds 27 1013 78 10000 4.1 80 00:31 25.10.2020
6384 Clouds 26 1013 83 10000 3.6 90 23:59 24.10.2020
6385 Clouds 26 1013 83 10000 3.6 90 23:40 24.10.2020
6386 Clouds 26 1013 83 10000 3.6 90 23:20 24.10.2020
6387 Clouds 26 1013 83 10000 1.5 150 22:41 24.10.2020
6388 Clouds 23 1013 94 10000 4.84 110 22:23 24.10.2020
6389 Clouds 23 1013 94 10000 4.84 110 21:56 24.10.2020
6390 Clouds 23 1013 94 10000 4.84 110 21:37 24.10.2020
6391 Clouds 22 1012 94 10000 3.9 105 21:19 24.10.2020
6392 Clouds 22 1012 94 10000 3.9 105 20:43 24.10.2020
6393 Clouds 22 1012 94 10000 3.22 113 20:20 24.10.2020
6394 Clouds 22 1011 94 10000 1.5 0 19:42 24.10.2020
6395 Clouds 22 1011 94 10000 1.5 0 19:23 24.10.2020
6396 Clouds 22 1011 94 10000 1.5 0 18:51 24.10.2020
6397 Clouds 22 1011 94 10000 1.5 0 18:31 24.10.2020
6398 Clouds 23 1011 88 10000 1.5 0 17:46 24.10.2020
6399 Clouds 23 1011 88 10000 1.5 0 17:26 24.10.2020
6400 Clouds 23 1012 88 10000 1.5 0 16:53 24.10.2020
6401 Clouds 23 1012 88 10000 1.5 0 16:35 24.10.2020
6402 Clouds 23 1013 88 10000 1.5 0 15:58 24.10.2020
6403 Clouds 23 1013 88 10000 1.5 0 15:38 24.10.2020
6404 Clouds 23 1013 88 10000 1.5 0 15:18 24.10.2020
6405 Clouds 23 1013 94 10000 1.5 0 14:38 24.10.2020
6406 Clouds 23 1014 83 10000 1 0 14:19 24.10.2020
6407 Clouds 23 1014 83 10000 1 0 13:44 24.10.2020
6408 Clouds 23 1014 88 10000 2.1 150 13:19 24.10.2020
6409 Clouds 23 1014 88 10000 2.1 150 12:37 24.10.2020
6410 Clouds 23 1014 88 10000 2.6 130 12:19 24.10.2020
6411 Clouds 23 1014 88 10000 2.6 130 11:50 24.10.2020
6412 Clouds 23 1014 88 10000 2.6 130 11:23 24.10.2020
6413 Clouds 25 1014 78 10000 3.6 130 10:44 24.10.2020
6414 Clouds 25 1014 78 10000 3.6 130 10:26 24.10.2020
6415 Clouds 25 1015 78 10000 3.1 150 09:45 24.10.2020
6416 Clouds 25 1015 78 10000 3.1 150 09:26 24.10.2020
6417 Clouds 25 1014 83 10000 3.6 160 08:56 24.10.2020
6418 Clouds 26 1014 78 10000 3.1 150 08:19 24.10.2020
6419 Clouds 26 1014 78 10000 3.1 150 07:50 24.10.2020
6420 Clouds 26 1013 78 10000 3.6 150 07:20 24.10.2020
6421 Clouds 26 1013 78 10000 3.6 150 06:49 24.10.2020
6422 Clouds 26 1013 78 10000 4.6 140 05:27 24.10.2020
6423 Clouds 28 1014 69 10000 6.7 120 02:20 24.10.2020
6424 Clouds 27 1015 74 10000 5.1 120 00:54 24.10.2020
6425 Clouds 27 1015 74 10000 5.1 120 00:36 24.10.2020
6426 Clouds 27 1015 69 10000 5.1 120 00:18 24.10.2020
6427 Clouds 27 1015 69 10000 5.1 120 23:39 23.10.2020
6428 Clouds 27 1015 69 10000 5.1 120 23:21 23.10.2020
6429 Clouds 25 1016 83 10000 2.6 140 22:42 23.10.2020
6430 Clouds 25 1016 83 10000 2.6 140 22:21 23.10.2020
6431 Clouds 25 1015 83 10000 2.1 140 21:53 23.10.2020
6432 Clouds 25 1015 83 10000 2.1 140 21:30 23.10.2020
6433 Clouds 25 1015 78 10000 2.6 140 20:59 23.10.2020
6434 Clouds 25 1015 78 10000 2.6 140 20:38 23.10.2020
6435 Clouds 25 1015 78 10000 2.6 140 20:19 23.10.2020
6436 Clouds 23 1014 85 10000 3.95 118 19:44 23.10.2020
6437 Clouds 24 1013 83 10000 3.1 140 19:26 23.10.2020
6438 Clouds 24 1013 83 10000 3.1 140 18:47 23.10.2020
6439 Clouds 24 1013 83 10000 3.1 140 18:29 23.10.2020
6440 Clouds 24 1013 83 10000 2.1 140 17:45 23.10.2020
6441 Clouds 24 1013 83 10000 2.1 140 17:21 23.10.2020
6442 Clouds 24 1013 83 10000 2.1 140 17:21 23.10.2020
6443 Clouds 25 1014 78 10000 2.6 140 16:50 23.10.2020
6444 Clouds 25 1014 78 10000 2.6 140 16:30 23.10.2020
6445 Clouds 25 1015 78 10000 2.6 140 15:56 23.10.2020
6446 Clouds 25 1015 78 10000 2.6 140 15:38 23.10.2020
6447 Clouds 25 1015 78 10000 2.1 130 15:19 23.10.2020
6448 Clouds 25 1015 78 10000 2.1 130 14:41 23.10.2020
6449 Clouds 25 1015 78 10000 2.1 130 14:22 23.10.2020
6450 Clouds 25 1015 78 10000 3.6 130 13:41 23.10.2020
6451 Clouds 25 1015 78 10000 3.6 130 13:23 23.10.2020
6452 Clouds 25 1015 78 10000 3.1 130 12:48 23.10.2020
6453 Clouds 25 1015 78 10000 3.1 130 12:29 23.10.2020
6454 Clouds 25 1015 78 10000 3.6 120 11:49 23.10.2020
6455 Clouds 25 1015 78 10000 3.6 120 11:25 23.10.2020
6456 Clouds 25 1015 83 10000 3.6 120 10:50 23.10.2020
6457 Clouds 25 1015 83 10000 3.6 120 10:26 23.10.2020
6458 Clouds 26 1015 78 10000 3.6 130 09:50 23.10.2020
6459 Clouds 26 1015 78 10000 3.6 130 09:28 23.10.2020
6460 Clouds 27 1014 69 10000 4.1 120 08:57 23.10.2020
6461 Clouds 27 1014 69 10000 4.1 120 08:38 23.10.2020
6462 Clouds 27 1013 74 10000 4.6 120 07:48 23.10.2020
6463 Clouds 27 1013 74 10000 4.6 120 07:26 23.10.2020
6464 Clouds 27 1013 74 10000 5.7 110 06:43 23.10.2020
6465 Clouds 27 1013 74 10000 4.6 120 05:59 23.10.2020
6466 Clouds 28 1015 69 10000 4.6 130 02:54 23.10.2020
6467 Clouds 28 1015 69 10000 4.6 130 02:26 23.10.2020
6468 Clouds 28 1016 69 10000 4.1 130 00:48 23.10.2020
6469 Clouds 27 1016 74 10000 5.1 110 23:54 22.10.2020
6470 Clouds 27 1016 74 10000 5.1 110 23:31 22.10.2020
6471 Clouds 26 1015 78 10000 4.1 100 22:56 22.10.2020
6472 Clouds 26 1015 78 10000 4.1 100 22:38 22.10.2020
6473 Clouds 23 1015 94 10000 4.47 111 22:19 22.10.2020
6474 Clouds 23 1015 94 10000 4.47 111 21:43 22.10.2020
6475 Clouds 23 1015 94 10000 4.14 116 21:23 22.10.2020
6476 Clouds 21 1014 100 10000 4.14 116 20:57 22.10.2020
6477 Clouds 21 1014 100 10000 4.14 116 20:39 22.10.2020
6478 Clouds 21 1014 94 10000 1 0 20:18 22.10.2020
6479 Clouds 21 1014 94 10000 1 0 19:40 22.10.2020
6480 Clouds 21 1014 94 10000 3.38 120 19:19 22.10.2020
6481 Clouds 21 1014 94 10000 3.38 120 18:43 22.10.2020
6482 Clouds 21 1014 94 10000 3.22 120 18:20 22.10.2020
6483 Clouds 23 1014 83 10000 3.22 120 17:46 22.10.2020
6484 Clouds 21 1014 100 10000 3.19 119 17:22 22.10.2020
6485 Clouds 21 1014 100 10000 3.19 119 16:54 22.10.2020
6486 Clouds 21 1014 100 10000 3.19 119 16:36 22.10.2020
6487 Clouds 21 1014 100 10000 2.67 112 16:18 22.10.2020
6488 Clouds 21 1014 100 10000 2.67 112 15:40 22.10.2020
6489 Clouds 22 1015 94 10000 2.46 109 15:22 22.10.2020
6490 Clouds 22 1015 94 10000 2.46 109 14:46 22.10.2020
6491 Clouds 22 1015 94 10000 1.5 290 14:24 22.10.2020
6492 Clouds 22 1015 94 10000 1.5 290 13:48 22.10.2020
6493 Clouds 22 1015 94 10000 1.5 290 13:24 22.10.2020
6494 Clouds 24 1016 83 10000 2.1 110 12:47 22.10.2020
6495 Clouds 24 1016 83 10000 1.5 160 12:23 22.10.2020
6496 Clouds 24 1016 83 10000 1.5 160 11:50 22.10.2020
6497 Clouds 24 1015 83 10000 1 0 11:20 22.10.2020
6498 Clouds 24 1015 83 10000 1 0 10:49 22.10.2020
6499 Clouds 24 1015 83 10000 1 0 10:27 22.10.2020
6500 Clouds 25 1014 73 10000 2.1 110 09:47 22.10.2020
6501 Clouds 25 1014 73 10000 2.1 110 09:28 22.10.2020
6502 Clouds 25 1014 73 10000 3.1 110 08:49 22.10.2020
6503 Clouds 25 1014 73 10000 3.1 110 08:28 22.10.2020
6504 Clouds 26 1013 69 10000 3.1 120 07:57 22.10.2020
6505 Clouds 26 1013 69 10000 3.1 120 07:57 22.10.2020
6506 Clouds 26 1013 69 10000 3.1 120 07:34 22.10.2020
6507 Clouds 26 1013 74 10000 3.6 120 06:58 22.10.2020
6508 Clouds 26 1013 74 10000 3.6 120 06:26 22.10.2020
6509 Clouds 26 1013 74 10000 5.7 110 05:40 22.10.2020
6510 Clouds 27 1013 69 10000 6.2 110 04:40 22.10.2020
6511 Clouds 26 1015 74 10000 5.7 110 01:45 22.10.2020
6512 Clouds 26 1015 78 10000 4.1 110 00:26 22.10.2020
6513 Clouds 26 1015 74 10000 4.6 110 23:50 21.10.2020
6514 Clouds 26 1015 74 10000 4.6 110 23:31 21.10.2020
6515 Clouds 26 1015 78 10000 4.6 110 22:41 21.10.2020
6516 Clouds 25 1014 83 10000 3.1 110 22:19 21.10.2020
6517 Clouds 25 1014 83 10000 3.1 110 22:19 21.10.2020
6518 Clouds 25 1014 83 10000 3.1 110 21:56 21.10.2020
6519 Clouds 25 1014 83 10000 3.1 110 21:37 21.10.2020
6520 Clouds 25 1014 83 10000 1.5 150 21:18 21.10.2020
6521 Clouds 25 1014 83 10000 1.5 150 21:18 21.10.2020
6522 Clouds 25 1014 83 10000 1.5 150 20:47 21.10.2020
6523 Clouds 24 1013 88 10000 3.1 110 20:19 21.10.2020
6524 Clouds 24 1013 88 10000 3.1 110 19:44 21.10.2020
6525 Clouds 24 1013 88 10000 3.1 110 19:26 21.10.2020
6526 Clouds 24 1013 88 10000 3.1 110 19:26 21.10.2020
6527 Clouds 24 1013 94 10000 1 90 18:54 21.10.2020
6528 Clouds 24 1013 94 10000 1 90 18:33 21.10.2020
6529 Clouds 24 1013 94 10000 1 90 18:33 21.10.2020
6530 Clouds 23 1013 94 10000 1.5 300 17:55 21.10.2020
6531 Clouds 23 1013 94 10000 1.5 300 17:37 21.10.2020
6532 Clouds 23 1013 100 10000 3.85 78 17:18 21.10.2020
6533 Clouds 23 1013 100 10000 3.85 78 16:40 21.10.2020
6534 Clouds 23 1014 94 10000 3.23 93 16:21 21.10.2020
6535 Clouds 23 1014 94 10000 3.23 93 15:49 21.10.2020
6536 Clouds 23 1015 94 10000 3.47 88 15:29 21.10.2020
6537 Clouds 23 1015 94 10000 3.47 88 14:58 21.10.2020
6538 Clouds 23 1015 94 10000 3.47 88 14:40 21.10.2020
6539 Clouds 23 1015 94 10000 3.47 88 14:40 21.10.2020
6540 Clouds 24 1014 94 10000 3.93 85 14:21 21.10.2020
6541 Clouds 24 1014 94 10000 3.26 75 13:42 21.10.2020
6542 Clouds 24 1015 88 10000 3.1 110 13:23 21.10.2020
6543 Clouds 24 1014 88 10000 3.1 110 12:42 21.10.2020
6544 Clouds 24 1014 88 10000 3.1 110 12:23 21.10.2020
6545 Clouds 24 1014 88 10000 3.1 110 11:48 21.10.2020
6546 Clouds 25 1014 83 10000 1 0 11:22 21.10.2020
6547 Clouds 25 1014 83 10000 1 0 10:59 21.10.2020
6548 Clouds 25 1014 83 10000 1 0 10:40 21.10.2020
6549 Clouds 25 1013 83 10000 2.1 110 10:21 21.10.2020
6550 Clouds 25 1013 83 10000 2.1 110 09:44 21.10.2020
6551 Clouds 25 1013 83 10000 3.6 90 09:25 21.10.2020
6552 Rain 23 1014 86 10000 5.22 81 08:40 21.10.2020
6553 Clouds 25 1013 83 10000 2.6 100 08:22 21.10.2020
6554 Clouds 25 1013 83 10000 2.6 100 07:55 21.10.2020
6555 Rain 25 1012 88 10000 4.1 80 07:20 21.10.2020
6556 Clouds 27 1012 74 10000 4.1 100 06:37 21.10.2020
6557 Clouds 27 1012 74 10000 4.1 100 06:19 21.10.2020
6558 Clouds 27 1013 69 10000 6.7 100 03:35 21.10.2020
6559 Clouds 27 1014 69 10000 6.7 110 00:31 21.10.2020
6560 Clouds 25 1014 73 10000 4.1 110 23:35 20.10.2020
6561 Clouds 25 1014 73 10000 4.1 110 22:47 20.10.2020
6562 Clouds 24 1013 83 10000 2.1 110 22:25 20.10.2020
6563 Clouds 24 1013 83 10000 2.1 110 21:47 20.10.2020
6564 Clouds 21 1013 100 10000 1.5 330 21:19 20.10.2020
6565 Clouds 21 1013 100 10000 1.5 330 20:43 20.10.2020
6566 Clouds 22 1012 94 10000 5.66 98 20:24 20.10.2020
6567 Clouds 22 1012 94 10000 5.16 92 19:55 20.10.2020
6568 Clouds 22 1012 94 10000 5.16 92 19:37 20.10.2020
6569 Clouds 22 1012 94 10000 1.5 300 19:19 20.10.2020
6570 Clouds 22 1012 94 10000 5.04 90 18:38 20.10.2020
6571 Clouds 22 1012 94 10000 4.7 89 17:57 20.10.2020
6572 Clouds 22 1013 94 10000 1 0 17:37 20.10.2020
6573 Clouds 22 1013 94 10000 1 0 17:18 20.10.2020
6574 Clouds 22 1013 86 10000 4.61 90 16:41 20.10.2020
6575 Clouds 22 1013 94 10000 4.52 89 16:23 20.10.2020
6576 Clouds 22 1013 94 10000 4.52 89 15:47 20.10.2020
6577 Clouds 22 1014 94 10000 1 0 15:28 20.10.2020
6578 Clouds 22 1014 94 10000 1 0 14:46 20.10.2020
6579 Clouds 23 1014 88 10000 4.78 85 14:25 20.10.2020
6580 Clouds 23 1014 88 10000 4.78 85 13:59 20.10.2020
6581 Rain 23 1014 84 10000 5.07 86 13:40 20.10.2020
6582 Clouds 23 1015 83 10000 5.09 85 13:20 20.10.2020
6583 Clouds 23 1015 83 10000 5.09 85 12:50 20.10.2020
6584 Clouds 23 1014 83 10000 5.07 87 12:30 20.10.2020
6585 Clouds 23 1014 83 10000 5.07 87 11:47 20.10.2020
6586 Clouds 24 1014 78 10000 2.1 120 11:28 20.10.2020
6587 Clouds 24 1014 78 10000 2.1 120 10:46 20.10.2020
6588 Clouds 25 1013 73 10000 2.6 120 10:25 20.10.2020
6589 Clouds 25 1013 73 10000 2.6 120 09:46 20.10.2020
6590 Clouds 24 1013 78 10000 4.6 110 09:20 20.10.2020
6591 Clouds 24 1013 78 10000 4.6 110 08:40 20.10.2020
6592 Clouds 26 1012 69 10000 4.6 110 08:22 20.10.2020
6593 Clouds 26 1012 69 10000 4.6 110 07:44 20.10.2020
6594 Clouds 26 1012 65 10000 5.1 120 07:22 20.10.2020
6595 Clouds 27 1012 61 10000 6.2 110 06:20 20.10.2020
6596 Clouds 27 1012 61 10000 7.2 110 04:51 20.10.2020
6597 Clouds 26 1014 61 10000 6.2 120 02:31 20.10.2020
6598 Clouds 26 1014 61 10000 5.7 90 01:27 20.10.2020
6599 Clouds 26 1014 61 10000 5.7 90 00:51 20.10.2020
6600 Clouds 26 1014 61 10000 4.1 130 00:26 20.10.2020
6601 Clouds 26 1014 61 10000 4.1 130 23:51 19.10.2020
6602 Clouds 26 1014 61 10000 4.1 130 23:26 19.10.2020
6603 Clouds 26 1014 61 10000 2.6 140 22:54 19.10.2020
6604 Clouds 23 1014 78 10000 5.39 114 22:26 19.10.2020
6605 Clouds 23 1014 78 10000 5.39 114 21:55 19.10.2020
6606 Clouds 23 1014 78 10000 5.39 114 21:37 19.10.2020
6607 Clouds 23 1014 78 10000 5.04 120 21:18 19.10.2020
6608 Clouds 20 1013 94 10000 1 0 20:42 19.10.2020
6609 Clouds 20 1012 100 10000 1 0 20:24 19.10.2020
6610 Rain 22 1013 86 10000 5.4 120 19:45 19.10.2020
6611 Clouds 20 1012 94 10000 1 0 19:19 19.10.2020
6612 Clouds 20 1012 94 10000 1 0 18:50 19.10.2020
6613 Clouds 20 1012 94 10000 1 0 18:24 19.10.2020
6614 Clouds 20 1012 94 10000 1 0 17:47 19.10.2020
6615 Clouds 20 1012 94 10000 1 0 17:27 19.10.2020
6616 Clouds 20 1012 100 10000 1 0 16:54 19.10.2020
6617 Clouds 21 1013 94 10000 1 0 16:29 19.10.2020
6618 Rain 22 1012 87 10000 4.19 109 15:48 19.10.2020
6619 Rain 22 1013 86 10000 4.37 108 15:26 19.10.2020
6620 Rain 22 1013 86 10000 4.37 108 14:57 19.10.2020
6621 Rain 22 1013 86 10000 4.37 108 14:57 19.10.2020
6622 Rain 22 1013 86 10000 4.37 108 14:36 19.10.2020
6623 Rain 22 1013 86 10000 4.46 108 14:18 19.10.2020
6624 Rain 22 1013 86 10000 4.46 108 13:42 19.10.2020
6625 Rain 22 1014 86 10000 4.76 110 13:22 19.10.2020
6626 Rain 22 1014 86 10000 4.76 110 12:43 19.10.2020
6627 Rain 22 1015 86 10000 5.09 111 12:25 19.10.2020
6628 Rain 22 1015 86 10000 5.09 111 11:48 19.10.2020
6629 Clouds 24 1013 83 10000 2.1 120 11:22 19.10.2020
6630 Clouds 24 1013 83 10000 2.1 120 10:44 19.10.2020
6631 Clouds 24 1012 83 10000 2.6 120 10:23 19.10.2020
6632 Clouds 24 1012 83 10000 2.6 120 09:56 19.10.2020
6633 Clouds 24 1012 83 10000 2.6 120 09:25 19.10.2020
6634 Clouds 24 1012 78 10000 3.1 130 08:50 19.10.2020
6635 Clouds 24 1012 78 10000 3.1 130 08:24 19.10.2020
6636 Rain 24 1012 83 10000 1.5 40 07:56 19.10.2020
6637 Clouds 25 1012 73 10000 3.6 150 07:20 19.10.2020
6638 Clouds 25 1012 73 10000 3.6 150 06:23 19.10.2020
6639 Clouds 24 1013 88 10000 1 0 04:47 19.10.2020
6640 Clouds 26 1013 74 10000 5.1 160 03:44 19.10.2020
6641 Clouds 26 1014 74 10000 5.1 150 01:28 19.10.2020
6642 Clouds 27 1014 65 10000 3.1 180 00:26 19.10.2020
6643 Clouds 27 1014 65 10000 3.1 150 23:48 18.10.2020
6644 Clouds 27 1014 65 10000 3.1 150 23:29 18.10.2020
6645 Clouds 26 1014 65 10000 2.6 160 22:57 18.10.2020
6646 Clouds 26 1014 65 10000 2.6 160 22:24 18.10.2020
6647 Cl